<?xml version="1.0" encoding="UTF-8" standalone="no" ?>
<gpx xmlns="http://www.topografix.com/GPX/1/1" xmlns:xsi="http://www.w3.org/2001/XMLSchema-instance" xsi:schemaLocation="http://www.topografix.com/GPX/1/1 http://www.topografix.com/GPX/1/1/gpx.xsd" version="1.1" creator="VisuGPX - https://www.visugpx.com">
  <metadata>
    <name>St genés l enfant</name>
  </metadata>
  <trk>
    <name><![CDATA[St genés l enfant_1]]></name>
    <trkseg>
      <trkpt lat="45.88013" lon="3.05829">
        <ele>399.4</ele>
        <time>2021-01-02T12:30:03Z</time>
      </trkpt>
      <trkpt lat="45.88012" lon="3.05825">
        <ele>399.4</ele>
        <time>2021-01-02T12:30:06Z</time>
      </trkpt>
      <trkpt lat="45.88012" lon="3.05822">
        <ele>399.8</ele>
        <time>2021-01-02T12:30:07Z</time>
      </trkpt>
      <trkpt lat="45.88008" lon="3.05801">
        <ele>399.8</ele>
        <time>2021-01-02T12:30:14Z</time>
      </trkpt>
      <trkpt lat="45.88003" lon="3.05781">
        <ele>399.8</ele>
        <time>2021-01-02T12:30:20Z</time>
      </trkpt>
      <trkpt lat="45.87999" lon="3.05761">
        <ele>400.2</ele>
        <time>2021-01-02T12:30:26Z</time>
      </trkpt>
      <trkpt lat="45.87999" lon="3.05757">
        <ele>400.4</ele>
        <time>2021-01-02T12:30:27Z</time>
      </trkpt>
      <trkpt lat="45.87999" lon="3.05753">
        <ele>400.8</ele>
        <time>2021-01-02T12:30:28Z</time>
      </trkpt>
      <trkpt lat="45.88" lon="3.0575">
        <ele>401.4</ele>
        <time>2021-01-02T12:30:29Z</time>
      </trkpt>
      <trkpt lat="45.88004" lon="3.0574">
        <ele>401.4</ele>
        <time>2021-01-02T12:30:33Z</time>
      </trkpt>
      <trkpt lat="45.88007" lon="3.05738">
        <ele>401.4</ele>
        <time>2021-01-02T12:30:34Z</time>
      </trkpt>
      <trkpt lat="45.88014" lon="3.05734">
        <ele>401.4</ele>
        <time>2021-01-02T12:30:37Z</time>
      </trkpt>
      <trkpt lat="45.88019" lon="3.05731">
        <ele>401.4</ele>
        <time>2021-01-02T12:30:39Z</time>
      </trkpt>
      <trkpt lat="45.88032" lon="3.05721">
        <ele>401.4</ele>
        <time>2021-01-02T12:30:43Z</time>
      </trkpt>
      <trkpt lat="45.88052" lon="3.05704">
        <ele>401.4</ele>
        <time>2021-01-02T12:30:48Z</time>
      </trkpt>
      <trkpt lat="45.88059" lon="3.05696">
        <ele>401.4</ele>
        <time>2021-01-02T12:30:50Z</time>
      </trkpt>
      <trkpt lat="45.88066" lon="3.05683">
        <ele>401.4</ele>
        <time>2021-01-02T12:30:53Z</time>
      </trkpt>
      <trkpt lat="45.88078" lon="3.05668">
        <ele>401</ele>
        <time>2021-01-02T12:30:58Z</time>
      </trkpt>
      <trkpt lat="45.8808" lon="3.05665">
        <ele>400.4</ele>
        <time>2021-01-02T12:30:59Z</time>
      </trkpt>
      <trkpt lat="45.88082" lon="3.05661">
        <ele>400</ele>
        <time>2021-01-02T12:31:00Z</time>
      </trkpt>
      <trkpt lat="45.88083" lon="3.05658">
        <ele>399.6</ele>
        <time>2021-01-02T12:31:01Z</time>
      </trkpt>
      <trkpt lat="45.88085" lon="3.05654">
        <ele>399.2</ele>
        <time>2021-01-02T12:31:02Z</time>
      </trkpt>
      <trkpt lat="45.88091" lon="3.05647">
        <ele>399.2</ele>
        <time>2021-01-02T12:31:05Z</time>
      </trkpt>
      <trkpt lat="45.8811" lon="3.05629">
        <ele>399.2</ele>
        <time>2021-01-02T12:31:13Z</time>
      </trkpt>
      <trkpt lat="45.88126" lon="3.0562">
        <ele>399.2</ele>
        <time>2021-01-02T12:31:19Z</time>
      </trkpt>
      <trkpt lat="45.88141" lon="3.05613">
        <ele>399.2</ele>
        <time>2021-01-02T12:31:25Z</time>
      </trkpt>
      <trkpt lat="45.88161" lon="3.0561">
        <ele>399.2</ele>
        <time>2021-01-02T12:31:30Z</time>
      </trkpt>
      <trkpt lat="45.88166" lon="3.05612">
        <ele>398.6</ele>
        <time>2021-01-02T12:31:31Z</time>
      </trkpt>
      <trkpt lat="45.88172" lon="3.05614">
        <ele>398.2</ele>
        <time>2021-01-02T12:31:32Z</time>
      </trkpt>
      <trkpt lat="45.88177" lon="3.05616">
        <ele>397.6</ele>
        <time>2021-01-02T12:31:33Z</time>
      </trkpt>
      <trkpt lat="45.88183" lon="3.05618">
        <ele>397.2</ele>
        <time>2021-01-02T12:31:34Z</time>
      </trkpt>
      <trkpt lat="45.88188" lon="3.0562">
        <ele>396.6</ele>
        <time>2021-01-02T12:31:35Z</time>
      </trkpt>
      <trkpt lat="45.88194" lon="3.0562">
        <ele>396</ele>
        <time>2021-01-02T12:31:36Z</time>
      </trkpt>
      <trkpt lat="45.88199" lon="3.0562">
        <ele>395.4</ele>
        <time>2021-01-02T12:31:37Z</time>
      </trkpt>
      <trkpt lat="45.88203" lon="3.05619">
        <ele>394.8</ele>
        <time>2021-01-02T12:31:38Z</time>
      </trkpt>
      <trkpt lat="45.88206" lon="3.05619">
        <ele>394.2</ele>
        <time>2021-01-02T12:31:39Z</time>
      </trkpt>
      <trkpt lat="45.88208" lon="3.05617">
        <ele>393.8</ele>
        <time>2021-01-02T12:31:40Z</time>
      </trkpt>
      <trkpt lat="45.88209" lon="3.05616">
        <ele>393.2</ele>
        <time>2021-01-02T12:31:41Z</time>
      </trkpt>
      <trkpt lat="45.8821" lon="3.05615">
        <ele>392.6</ele>
        <time>2021-01-02T12:31:42Z</time>
      </trkpt>
      <trkpt lat="45.8821" lon="3.05613">
        <ele>392</ele>
        <time>2021-01-02T12:31:43Z</time>
      </trkpt>
      <trkpt lat="45.88208" lon="3.05606">
        <ele>392</ele>
        <time>2021-01-02T12:31:47Z</time>
      </trkpt>
      <trkpt lat="45.88202" lon="3.05594">
        <ele>392</ele>
        <time>2021-01-02T12:31:52Z</time>
      </trkpt>
      <trkpt lat="45.88202" lon="3.05591">
        <ele>392</ele>
        <time>2021-01-02T12:31:53Z</time>
      </trkpt>
      <trkpt lat="45.88203" lon="3.0559">
        <ele>392.6</ele>
        <time>2021-01-02T12:31:56Z</time>
      </trkpt>
      <trkpt lat="45.88204" lon="3.05589">
        <ele>393.2</ele>
        <time>2021-01-02T12:31:57Z</time>
      </trkpt>
      <trkpt lat="45.88206" lon="3.05587">
        <ele>394</ele>
        <time>2021-01-02T12:31:58Z</time>
      </trkpt>
      <trkpt lat="45.88208" lon="3.05584">
        <ele>394.6</ele>
        <time>2021-01-02T12:31:59Z</time>
      </trkpt>
      <trkpt lat="45.88209" lon="3.0558">
        <ele>395.2</ele>
        <time>2021-01-02T12:32:00Z</time>
      </trkpt>
      <trkpt lat="45.88208" lon="3.05576">
        <ele>394.6</ele>
        <time>2021-01-02T12:32:01Z</time>
      </trkpt>
      <trkpt lat="45.88206" lon="3.05572">
        <ele>394.2</ele>
        <time>2021-01-02T12:32:02Z</time>
      </trkpt>
      <trkpt lat="45.88205" lon="3.05568">
        <ele>393.8</ele>
        <time>2021-01-02T12:32:03Z</time>
      </trkpt>
      <trkpt lat="45.88204" lon="3.05564">
        <ele>393.2</ele>
        <time>2021-01-02T12:32:04Z</time>
      </trkpt>
      <trkpt lat="45.88203" lon="3.05561">
        <ele>392.8</ele>
        <time>2021-01-02T12:32:05Z</time>
      </trkpt>
      <trkpt lat="45.88199" lon="3.05548">
        <ele>392.8</ele>
        <time>2021-01-02T12:32:09Z</time>
      </trkpt>
      <trkpt lat="45.88198" lon="3.05542">
        <ele>393.2</ele>
        <time>2021-01-02T12:32:11Z</time>
      </trkpt>
      <trkpt lat="45.88197" lon="3.05539">
        <ele>393.8</ele>
        <time>2021-01-02T12:32:12Z</time>
      </trkpt>
      <trkpt lat="45.88196" lon="3.05536">
        <ele>394.2</ele>
        <time>2021-01-02T12:32:13Z</time>
      </trkpt>
      <trkpt lat="45.88195" lon="3.05532">
        <ele>394.6</ele>
        <time>2021-01-02T12:32:14Z</time>
      </trkpt>
      <trkpt lat="45.88195" lon="3.05529">
        <ele>395</ele>
        <time>2021-01-02T12:32:15Z</time>
      </trkpt>
      <trkpt lat="45.88195" lon="3.05522">
        <ele>395</ele>
        <time>2021-01-02T12:32:17Z</time>
      </trkpt>
      <trkpt lat="45.88195" lon="3.05502">
        <ele>395.4</ele>
        <time>2021-01-02T12:32:23Z</time>
      </trkpt>
      <trkpt lat="45.88196" lon="3.05499">
        <ele>395.8</ele>
        <time>2021-01-02T12:32:24Z</time>
      </trkpt>
      <trkpt lat="45.88197" lon="3.05495">
        <ele>396.2</ele>
        <time>2021-01-02T12:32:25Z</time>
      </trkpt>
      <trkpt lat="45.88197" lon="3.05491">
        <ele>396.6</ele>
        <time>2021-01-02T12:32:26Z</time>
      </trkpt>
      <trkpt lat="45.88198" lon="3.05487">
        <ele>397</ele>
        <time>2021-01-02T12:32:27Z</time>
      </trkpt>
      <trkpt lat="45.88204" lon="3.05465">
        <ele>397</ele>
        <time>2021-01-02T12:32:33Z</time>
      </trkpt>
      <trkpt lat="45.88213" lon="3.05434">
        <ele>397</ele>
        <time>2021-01-02T12:32:40Z</time>
      </trkpt>
      <trkpt lat="45.88216" lon="3.05423">
        <ele>396.6</ele>
        <time>2021-01-02T12:32:42Z</time>
      </trkpt>
      <trkpt lat="45.88217" lon="3.05418">
        <ele>396.2</ele>
        <time>2021-01-02T12:32:43Z</time>
      </trkpt>
      <trkpt lat="45.88218" lon="3.05412">
        <ele>395.8</ele>
        <time>2021-01-02T12:32:44Z</time>
      </trkpt>
      <trkpt lat="45.8822" lon="3.05407">
        <ele>395.4</ele>
        <time>2021-01-02T12:32:45Z</time>
      </trkpt>
      <trkpt lat="45.88221" lon="3.05401">
        <ele>395</ele>
        <time>2021-01-02T12:32:46Z</time>
      </trkpt>
      <trkpt lat="45.88223" lon="3.05396">
        <ele>395</ele>
        <time>2021-01-02T12:32:47Z</time>
      </trkpt>
      <trkpt lat="45.88232" lon="3.05357">
        <ele>395</ele>
        <time>2021-01-02T12:32:55Z</time>
      </trkpt>
      <trkpt lat="45.88243" lon="3.05327">
        <ele>395</ele>
        <time>2021-01-02T12:33:02Z</time>
      </trkpt>
      <trkpt lat="45.88252" lon="3.05299">
        <ele>395</ele>
        <time>2021-01-02T12:33:10Z</time>
      </trkpt>
      <trkpt lat="45.88259" lon="3.05271">
        <ele>395</ele>
        <time>2021-01-02T12:33:16Z</time>
      </trkpt>
      <trkpt lat="45.88273" lon="3.05248">
        <ele>395</ele>
        <time>2021-01-02T12:33:22Z</time>
      </trkpt>
      <trkpt lat="45.88286" lon="3.05243">
        <ele>395</ele>
        <time>2021-01-02T12:33:26Z</time>
      </trkpt>
      <trkpt lat="45.88309" lon="3.05237">
        <ele>395</ele>
        <time>2021-01-02T12:33:33Z</time>
      </trkpt>
      <trkpt lat="45.88332" lon="3.05234">
        <ele>395</ele>
        <time>2021-01-02T12:33:39Z</time>
      </trkpt>
      <trkpt lat="45.88354" lon="3.05229">
        <ele>395</ele>
        <time>2021-01-02T12:33:45Z</time>
      </trkpt>
      <trkpt lat="45.88378" lon="3.05225">
        <ele>395</ele>
        <time>2021-01-02T12:33:51Z</time>
      </trkpt>
      <trkpt lat="45.88406" lon="3.0522">
        <ele>395</ele>
        <time>2021-01-02T12:33:58Z</time>
      </trkpt>
      <trkpt lat="45.88435" lon="3.05214">
        <ele>395</ele>
        <time>2021-01-02T12:34:06Z</time>
      </trkpt>
      <trkpt lat="45.88465" lon="3.0521">
        <ele>395.4</ele>
        <time>2021-01-02T12:34:14Z</time>
      </trkpt>
      <trkpt lat="45.88469" lon="3.0521">
        <ele>395.8</ele>
        <time>2021-01-02T12:34:15Z</time>
      </trkpt>
      <trkpt lat="45.88472" lon="3.05211">
        <ele>396.2</ele>
        <time>2021-01-02T12:34:16Z</time>
      </trkpt>
      <trkpt lat="45.88476" lon="3.05211">
        <ele>396.8</ele>
        <time>2021-01-02T12:34:17Z</time>
      </trkpt>
      <trkpt lat="45.88479" lon="3.05213">
        <ele>397.2</ele>
        <time>2021-01-02T12:34:18Z</time>
      </trkpt>
      <trkpt lat="45.88485" lon="3.05216">
        <ele>397.2</ele>
        <time>2021-01-02T12:34:20Z</time>
      </trkpt>
      <trkpt lat="45.88508" lon="3.0523">
        <ele>397.6</ele>
        <time>2021-01-02T12:34:27Z</time>
      </trkpt>
      <trkpt lat="45.8851" lon="3.05232">
        <ele>398</ele>
        <time>2021-01-02T12:34:28Z</time>
      </trkpt>
      <trkpt lat="45.88513" lon="3.05234">
        <ele>398.4</ele>
        <time>2021-01-02T12:34:29Z</time>
      </trkpt>
      <trkpt lat="45.88515" lon="3.05236">
        <ele>398.8</ele>
        <time>2021-01-02T12:34:30Z</time>
      </trkpt>
      <trkpt lat="45.88517" lon="3.05238">
        <ele>399.2</ele>
        <time>2021-01-02T12:34:31Z</time>
      </trkpt>
      <trkpt lat="45.88522" lon="3.05244">
        <ele>399.2</ele>
        <time>2021-01-02T12:34:34Z</time>
      </trkpt>
      <trkpt lat="45.88535" lon="3.05255">
        <ele>399.2</ele>
        <time>2021-01-02T12:34:40Z</time>
      </trkpt>
      <trkpt lat="45.88552" lon="3.05268">
        <ele>399.6</ele>
        <time>2021-01-02T12:34:47Z</time>
      </trkpt>
      <trkpt lat="45.88555" lon="3.0527">
        <ele>400</ele>
        <time>2021-01-02T12:34:48Z</time>
      </trkpt>
      <trkpt lat="45.88558" lon="3.0527">
        <ele>400.4</ele>
        <time>2021-01-02T12:34:49Z</time>
      </trkpt>
      <trkpt lat="45.88561" lon="3.0527">
        <ele>401</ele>
        <time>2021-01-02T12:34:50Z</time>
      </trkpt>
      <trkpt lat="45.88563" lon="3.05269">
        <ele>401.4</ele>
        <time>2021-01-02T12:34:51Z</time>
      </trkpt>
      <trkpt lat="45.88566" lon="3.05267">
        <ele>401.4</ele>
        <time>2021-01-02T12:34:52Z</time>
      </trkpt>
      <trkpt lat="45.88587" lon="3.05248">
        <ele>401.4</ele>
        <time>2021-01-02T12:35:00Z</time>
      </trkpt>
      <trkpt lat="45.88605" lon="3.0523">
        <ele>401.8</ele>
        <time>2021-01-02T12:35:07Z</time>
      </trkpt>
      <trkpt lat="45.88607" lon="3.05227">
        <ele>402.2</ele>
        <time>2021-01-02T12:35:08Z</time>
      </trkpt>
      <trkpt lat="45.8861" lon="3.05225">
        <ele>402.6</ele>
        <time>2021-01-02T12:35:09Z</time>
      </trkpt>
      <trkpt lat="45.88613" lon="3.05223">
        <ele>403</ele>
        <time>2021-01-02T12:35:10Z</time>
      </trkpt>
      <trkpt lat="45.88615" lon="3.0522">
        <ele>403.4</ele>
        <time>2021-01-02T12:35:11Z</time>
      </trkpt>
      <trkpt lat="45.88626" lon="3.05209">
        <ele>403.4</ele>
        <time>2021-01-02T12:35:15Z</time>
      </trkpt>
      <trkpt lat="45.88646" lon="3.05187">
        <ele>403.8</ele>
        <time>2021-01-02T12:35:23Z</time>
      </trkpt>
      <trkpt lat="45.88648" lon="3.05184">
        <ele>404.2</ele>
        <time>2021-01-02T12:35:24Z</time>
      </trkpt>
      <trkpt lat="45.88651" lon="3.05182">
        <ele>404.6</ele>
        <time>2021-01-02T12:35:25Z</time>
      </trkpt>
      <trkpt lat="45.88653" lon="3.05179">
        <ele>405.6</ele>
        <time>2021-01-02T12:35:26Z</time>
      </trkpt>
      <trkpt lat="45.8867" lon="3.05162">
        <ele>405.6</ele>
        <time>2021-01-02T12:35:33Z</time>
      </trkpt>
      <trkpt lat="45.88684" lon="3.05148">
        <ele>406</ele>
        <time>2021-01-02T12:35:39Z</time>
      </trkpt>
      <trkpt lat="45.88685" lon="3.05145">
        <ele>406.4</ele>
        <time>2021-01-02T12:35:40Z</time>
      </trkpt>
      <trkpt lat="45.88687" lon="3.05143">
        <ele>406.8</ele>
        <time>2021-01-02T12:35:41Z</time>
      </trkpt>
      <trkpt lat="45.88689" lon="3.05141">
        <ele>407.2</ele>
        <time>2021-01-02T12:35:42Z</time>
      </trkpt>
      <trkpt lat="45.88691" lon="3.0514">
        <ele>407.6</ele>
        <time>2021-01-02T12:35:43Z</time>
      </trkpt>
      <trkpt lat="45.88697" lon="3.05136">
        <ele>407.6</ele>
        <time>2021-01-02T12:35:46Z</time>
      </trkpt>
      <trkpt lat="45.88712" lon="3.05126">
        <ele>407.6</ele>
        <time>2021-01-02T12:35:53Z</time>
      </trkpt>
      <trkpt lat="45.88723" lon="3.05108">
        <ele>407.6</ele>
        <time>2021-01-02T12:35:59Z</time>
      </trkpt>
      <trkpt lat="45.88727" lon="3.05102">
        <ele>408</ele>
        <time>2021-01-02T12:36:01Z</time>
      </trkpt>
      <trkpt lat="45.88729" lon="3.05099">
        <ele>408.6</ele>
        <time>2021-01-02T12:36:02Z</time>
      </trkpt>
      <trkpt lat="45.88731" lon="3.05096">
        <ele>409</ele>
        <time>2021-01-02T12:36:03Z</time>
      </trkpt>
      <trkpt lat="45.88733" lon="3.05093">
        <ele>409.4</ele>
        <time>2021-01-02T12:36:04Z</time>
      </trkpt>
      <trkpt lat="45.88735" lon="3.0509">
        <ele>409.8</ele>
        <time>2021-01-02T12:36:05Z</time>
      </trkpt>
      <trkpt lat="45.88737" lon="3.05087">
        <ele>409.8</ele>
        <time>2021-01-02T12:36:06Z</time>
      </trkpt>
      <trkpt lat="45.88755" lon="3.05057">
        <ele>409.8</ele>
        <time>2021-01-02T12:36:15Z</time>
      </trkpt>
      <trkpt lat="45.88757" lon="3.05055">
        <ele>410.2</ele>
        <time>2021-01-02T12:36:16Z</time>
      </trkpt>
      <trkpt lat="45.88759" lon="3.05052">
        <ele>410.8</ele>
        <time>2021-01-02T12:36:17Z</time>
      </trkpt>
      <trkpt lat="45.88761" lon="3.05049">
        <ele>411.2</ele>
        <time>2021-01-02T12:36:18Z</time>
      </trkpt>
      <trkpt lat="45.88763" lon="3.05046">
        <ele>411.6</ele>
        <time>2021-01-02T12:36:19Z</time>
      </trkpt>
      <trkpt lat="45.88765" lon="3.05042">
        <ele>412.2</ele>
        <time>2021-01-02T12:36:20Z</time>
      </trkpt>
      <trkpt lat="45.88771" lon="3.05032">
        <ele>412.2</ele>
        <time>2021-01-02T12:36:23Z</time>
      </trkpt>
      <trkpt lat="45.88777" lon="3.05023">
        <ele>412.6</ele>
        <time>2021-01-02T12:36:26Z</time>
      </trkpt>
      <trkpt lat="45.88779" lon="3.0502">
        <ele>413</ele>
        <time>2021-01-02T12:36:27Z</time>
      </trkpt>
      <trkpt lat="45.8878" lon="3.05017">
        <ele>413.4</ele>
        <time>2021-01-02T12:36:28Z</time>
      </trkpt>
      <trkpt lat="45.88782" lon="3.05014">
        <ele>413.8</ele>
        <time>2021-01-02T12:36:29Z</time>
      </trkpt>
      <trkpt lat="45.88784" lon="3.05011">
        <ele>414.2</ele>
        <time>2021-01-02T12:36:30Z</time>
      </trkpt>
      <trkpt lat="45.8879" lon="3.05001">
        <ele>414.2</ele>
        <time>2021-01-02T12:36:33Z</time>
      </trkpt>
      <trkpt lat="45.88803" lon="3.0498">
        <ele>414.2</ele>
        <time>2021-01-02T12:36:40Z</time>
      </trkpt>
      <trkpt lat="45.88804" lon="3.04977">
        <ele>414.6</ele>
        <time>2021-01-02T12:36:41Z</time>
      </trkpt>
      <trkpt lat="45.88805" lon="3.04974">
        <ele>415.2</ele>
        <time>2021-01-02T12:36:42Z</time>
      </trkpt>
      <trkpt lat="45.88806" lon="3.0497">
        <ele>415.6</ele>
        <time>2021-01-02T12:36:43Z</time>
      </trkpt>
      <trkpt lat="45.88807" lon="3.04967">
        <ele>416</ele>
        <time>2021-01-02T12:36:44Z</time>
      </trkpt>
      <trkpt lat="45.88808" lon="3.04964">
        <ele>416.4</ele>
        <time>2021-01-02T12:36:45Z</time>
      </trkpt>
      <trkpt lat="45.88811" lon="3.04957">
        <ele>416.4</ele>
        <time>2021-01-02T12:36:47Z</time>
      </trkpt>
      <trkpt lat="45.88819" lon="3.04943">
        <ele>416.8</ele>
        <time>2021-01-02T12:36:52Z</time>
      </trkpt>
      <trkpt lat="45.88821" lon="3.0494">
        <ele>417.2</ele>
        <time>2021-01-02T12:36:53Z</time>
      </trkpt>
      <trkpt lat="45.88823" lon="3.04939">
        <ele>417.8</ele>
        <time>2021-01-02T12:36:54Z</time>
      </trkpt>
      <trkpt lat="45.88825" lon="3.04938">
        <ele>418.2</ele>
        <time>2021-01-02T12:36:55Z</time>
      </trkpt>
      <trkpt lat="45.88827" lon="3.04936">
        <ele>418.6</ele>
        <time>2021-01-02T12:36:56Z</time>
      </trkpt>
      <trkpt lat="45.88833" lon="3.04931">
        <ele>418.6</ele>
        <time>2021-01-02T12:36:59Z</time>
      </trkpt>
      <trkpt lat="45.8884" lon="3.04923">
        <ele>419</ele>
        <time>2021-01-02T12:37:03Z</time>
      </trkpt>
      <trkpt lat="45.88842" lon="3.04921">
        <ele>419.4</ele>
        <time>2021-01-02T12:37:04Z</time>
      </trkpt>
      <trkpt lat="45.88844" lon="3.04919">
        <ele>420.4</ele>
        <time>2021-01-02T12:37:05Z</time>
      </trkpt>
      <trkpt lat="45.88845" lon="3.04917">
        <ele>420.8</ele>
        <time>2021-01-02T12:37:06Z</time>
      </trkpt>
      <trkpt lat="45.88852" lon="3.04909">
        <ele>421.2</ele>
        <time>2021-01-02T12:37:10Z</time>
      </trkpt>
      <trkpt lat="45.88854" lon="3.04907">
        <ele>421.6</ele>
        <time>2021-01-02T12:37:11Z</time>
      </trkpt>
      <trkpt lat="45.88856" lon="3.04907">
        <ele>422</ele>
        <time>2021-01-02T12:37:12Z</time>
      </trkpt>
      <trkpt lat="45.88858" lon="3.04906">
        <ele>422.4</ele>
        <time>2021-01-02T12:37:13Z</time>
      </trkpt>
      <trkpt lat="45.8886" lon="3.04906">
        <ele>422.8</ele>
        <time>2021-01-02T12:37:14Z</time>
      </trkpt>
      <trkpt lat="45.88868" lon="3.04906">
        <ele>422.8</ele>
        <time>2021-01-02T12:37:19Z</time>
      </trkpt>
      <trkpt lat="45.88869" lon="3.04905">
        <ele>423.2</ele>
        <time>2021-01-02T12:37:21Z</time>
      </trkpt>
      <trkpt lat="45.8887" lon="3.04904">
        <ele>423.8</ele>
        <time>2021-01-02T12:37:22Z</time>
      </trkpt>
      <trkpt lat="45.8887" lon="3.04904">
        <ele>424.2</ele>
        <time>2021-01-02T12:37:23Z</time>
      </trkpt>
      <trkpt lat="45.88871" lon="3.04904">
        <ele>424.8</ele>
        <time>2021-01-02T12:37:24Z</time>
      </trkpt>
      <trkpt lat="45.88873" lon="3.04904">
        <ele>425.2</ele>
        <time>2021-01-02T12:37:25Z</time>
      </trkpt>
      <trkpt lat="45.88875" lon="3.04904">
        <ele>425.6</ele>
        <time>2021-01-02T12:37:27Z</time>
      </trkpt>
      <trkpt lat="45.88876" lon="3.04903">
        <ele>426.2</ele>
        <time>2021-01-02T12:37:28Z</time>
      </trkpt>
      <trkpt lat="45.88877" lon="3.04904">
        <ele>426.6</ele>
        <time>2021-01-02T12:37:29Z</time>
      </trkpt>
      <trkpt lat="45.88878" lon="3.04905">
        <ele>427.4</ele>
        <time>2021-01-02T12:37:30Z</time>
      </trkpt>
      <trkpt lat="45.88885" lon="3.04908">
        <ele>427.4</ele>
        <time>2021-01-02T12:37:35Z</time>
      </trkpt>
      <trkpt lat="45.88897" lon="3.04914">
        <ele>428</ele>
        <time>2021-01-02T12:37:39Z</time>
      </trkpt>
      <trkpt lat="45.88899" lon="3.04914">
        <ele>428.4</ele>
        <time>2021-01-02T12:37:40Z</time>
      </trkpt>
      <trkpt lat="45.88901" lon="3.04915">
        <ele>428.8</ele>
        <time>2021-01-02T12:37:41Z</time>
      </trkpt>
      <trkpt lat="45.88903" lon="3.04915">
        <ele>429.2</ele>
        <time>2021-01-02T12:37:42Z</time>
      </trkpt>
      <trkpt lat="45.88905" lon="3.04915">
        <ele>429.8</ele>
        <time>2021-01-02T12:37:43Z</time>
      </trkpt>
      <trkpt lat="45.88918" lon="3.04916">
        <ele>429.8</ele>
        <time>2021-01-02T12:37:49Z</time>
      </trkpt>
      <trkpt lat="45.88932" lon="3.04919">
        <ele>429.8</ele>
        <time>2021-01-02T12:37:55Z</time>
      </trkpt>
      <trkpt lat="45.88944" lon="3.0492">
        <ele>430.2</ele>
        <time>2021-01-02T12:38:00Z</time>
      </trkpt>
      <trkpt lat="45.88947" lon="3.04919">
        <ele>430.6</ele>
        <time>2021-01-02T12:38:01Z</time>
      </trkpt>
      <trkpt lat="45.88951" lon="3.0492">
        <ele>431</ele>
        <time>2021-01-02T12:38:02Z</time>
      </trkpt>
      <trkpt lat="45.88955" lon="3.0492">
        <ele>431.4</ele>
        <time>2021-01-02T12:38:03Z</time>
      </trkpt>
      <trkpt lat="45.88958" lon="3.04919">
        <ele>431.8</ele>
        <time>2021-01-02T12:38:04Z</time>
      </trkpt>
      <trkpt lat="45.88967" lon="3.04913">
        <ele>431.8</ele>
        <time>2021-01-02T12:38:07Z</time>
      </trkpt>
      <trkpt lat="45.88969" lon="3.04901">
        <ele>431.8</ele>
        <time>2021-01-02T12:38:12Z</time>
      </trkpt>
      <trkpt lat="45.88973" lon="3.04893">
        <ele>431.8</ele>
        <time>2021-01-02T12:38:16Z</time>
      </trkpt>
      <trkpt lat="45.88976" lon="3.04891">
        <ele>432.2</ele>
        <time>2021-01-02T12:38:18Z</time>
      </trkpt>
      <trkpt lat="45.88977" lon="3.0489">
        <ele>433</ele>
        <time>2021-01-02T12:38:19Z</time>
      </trkpt>
      <trkpt lat="45.88979" lon="3.04888">
        <ele>433.4</ele>
        <time>2021-01-02T12:38:20Z</time>
      </trkpt>
      <trkpt lat="45.8898" lon="3.04887">
        <ele>433.8</ele>
        <time>2021-01-02T12:38:21Z</time>
      </trkpt>
      <trkpt lat="45.88986" lon="3.0488">
        <ele>433.8</ele>
        <time>2021-01-02T12:38:26Z</time>
      </trkpt>
      <trkpt lat="45.88988" lon="3.0488">
        <ele>433.8</ele>
        <time>2021-01-02T12:38:30Z</time>
      </trkpt>
      <trkpt lat="45.88991" lon="3.04878">
        <ele>435.8</ele>
        <time>2021-01-02T12:40:00Z</time>
      </trkpt>
      <trkpt lat="45.88992" lon="3.04879">
        <ele>435.8</ele>
        <time>2021-01-02T12:40:01Z</time>
      </trkpt>
      <trkpt lat="45.89" lon="3.04883">
        <ele>435.8</ele>
        <time>2021-01-02T12:40:06Z</time>
      </trkpt>
      <trkpt lat="45.89006" lon="3.04885">
        <ele>435.8</ele>
        <time>2021-01-02T12:40:09Z</time>
      </trkpt>
      <trkpt lat="45.89011" lon="3.04889">
        <ele>435.8</ele>
        <time>2021-01-02T12:40:12Z</time>
      </trkpt>
      <trkpt lat="45.89017" lon="3.049">
        <ele>435.8</ele>
        <time>2021-01-02T12:40:16Z</time>
      </trkpt>
      <trkpt lat="45.89019" lon="3.04902">
        <ele>435.8</ele>
        <time>2021-01-02T12:40:17Z</time>
      </trkpt>
      <trkpt lat="45.89029" lon="3.04908">
        <ele>435.8</ele>
        <time>2021-01-02T12:40:21Z</time>
      </trkpt>
      <trkpt lat="45.89044" lon="3.04914">
        <ele>435.8</ele>
        <time>2021-01-02T12:40:27Z</time>
      </trkpt>
      <trkpt lat="45.89059" lon="3.04923">
        <ele>435.8</ele>
        <time>2021-01-02T12:40:33Z</time>
      </trkpt>
      <trkpt lat="45.89087" lon="3.04935">
        <ele>435.8</ele>
        <time>2021-01-02T12:40:41Z</time>
      </trkpt>
      <trkpt lat="45.89109" lon="3.04946">
        <ele>435.8</ele>
        <time>2021-01-02T12:40:48Z</time>
      </trkpt>
      <trkpt lat="45.89128" lon="3.04957">
        <ele>435.8</ele>
        <time>2021-01-02T12:40:54Z</time>
      </trkpt>
      <trkpt lat="45.89131" lon="3.04958">
        <ele>436.2</ele>
        <time>2021-01-02T12:40:55Z</time>
      </trkpt>
      <trkpt lat="45.89132" lon="3.04959">
        <ele>436.6</ele>
        <time>2021-01-02T12:40:56Z</time>
      </trkpt>
      <trkpt lat="45.89134" lon="3.04959">
        <ele>437.2</ele>
        <time>2021-01-02T12:40:57Z</time>
      </trkpt>
      <trkpt lat="45.89136" lon="3.04959">
        <ele>437.6</ele>
        <time>2021-01-02T12:40:58Z</time>
      </trkpt>
      <trkpt lat="45.89138" lon="3.04957">
        <ele>438</ele>
        <time>2021-01-02T12:40:59Z</time>
      </trkpt>
      <trkpt lat="45.89145" lon="3.04949">
        <ele>438</ele>
        <time>2021-01-02T12:41:02Z</time>
      </trkpt>
      <trkpt lat="45.89149" lon="3.04943">
        <ele>438.4</ele>
        <time>2021-01-02T12:41:04Z</time>
      </trkpt>
      <trkpt lat="45.89149" lon="3.04942">
        <ele>438.8</ele>
        <time>2021-01-02T12:41:05Z</time>
      </trkpt>
      <trkpt lat="45.89149" lon="3.04942">
        <ele>439.2</ele>
        <time>2021-01-02T12:41:06Z</time>
      </trkpt>
      <trkpt lat="45.8915" lon="3.0494">
        <ele>439.6</ele>
        <time>2021-01-02T12:41:07Z</time>
      </trkpt>
      <trkpt lat="45.89151" lon="3.04938">
        <ele>440</ele>
        <time>2021-01-02T12:41:08Z</time>
      </trkpt>
      <trkpt lat="45.89153" lon="3.04936">
        <ele>440.6</ele>
        <time>2021-01-02T12:41:09Z</time>
      </trkpt>
      <trkpt lat="45.89154" lon="3.04935">
        <ele>441</ele>
        <time>2021-01-02T12:41:10Z</time>
      </trkpt>
      <trkpt lat="45.89155" lon="3.04933">
        <ele>441.4</ele>
        <time>2021-01-02T12:41:11Z</time>
      </trkpt>
      <trkpt lat="45.89156" lon="3.04932">
        <ele>442.4</ele>
        <time>2021-01-02T12:41:12Z</time>
      </trkpt>
      <trkpt lat="45.8916" lon="3.04928">
        <ele>442.4</ele>
        <time>2021-01-02T12:41:16Z</time>
      </trkpt>
      <trkpt lat="45.89161" lon="3.04928">
        <ele>442.4</ele>
        <time>2021-01-02T12:41:17Z</time>
      </trkpt>
      <trkpt lat="45.89157" lon="3.04919">
        <ele>442.4</ele>
        <time>2021-01-02T12:41:30Z</time>
      </trkpt>
      <trkpt lat="45.89157" lon="3.04917">
        <ele>442.4</ele>
        <time>2021-01-02T12:41:31Z</time>
      </trkpt>
      <trkpt lat="45.89159" lon="3.04912">
        <ele>442.4</ele>
        <time>2021-01-02T12:41:33Z</time>
      </trkpt>
      <trkpt lat="45.8916" lon="3.04908">
        <ele>442.8</ele>
        <time>2021-01-02T12:41:35Z</time>
      </trkpt>
      <trkpt lat="45.89159" lon="3.04908">
        <ele>443.2</ele>
        <time>2021-01-02T12:41:36Z</time>
      </trkpt>
      <trkpt lat="45.8916" lon="3.04905">
        <ele>444</ele>
        <time>2021-01-02T12:41:37Z</time>
      </trkpt>
      <trkpt lat="45.8916" lon="3.04904">
        <ele>444.4</ele>
        <time>2021-01-02T12:41:38Z</time>
      </trkpt>
      <trkpt lat="45.89159" lon="3.049">
        <ele>444.4</ele>
        <time>2021-01-02T12:41:40Z</time>
      </trkpt>
      <trkpt lat="45.89159" lon="3.04897">
        <ele>444.4</ele>
        <time>2021-01-02T12:41:41Z</time>
      </trkpt>
      <trkpt lat="45.8916" lon="3.04892">
        <ele>444.4</ele>
        <time>2021-01-02T12:41:44Z</time>
      </trkpt>
      <trkpt lat="45.89161" lon="3.04889">
        <ele>444.8</ele>
        <time>2021-01-02T12:41:45Z</time>
      </trkpt>
      <trkpt lat="45.89161" lon="3.04887">
        <ele>445.2</ele>
        <time>2021-01-02T12:41:46Z</time>
      </trkpt>
      <trkpt lat="45.89162" lon="3.04885">
        <ele>445.6</ele>
        <time>2021-01-02T12:41:47Z</time>
      </trkpt>
      <trkpt lat="45.89162" lon="3.04883">
        <ele>446</ele>
        <time>2021-01-02T12:41:48Z</time>
      </trkpt>
      <trkpt lat="45.89162" lon="3.04881">
        <ele>446.4</ele>
        <time>2021-01-02T12:41:49Z</time>
      </trkpt>
      <trkpt lat="45.89162" lon="3.04878">
        <ele>446.4</ele>
        <time>2021-01-02T12:41:50Z</time>
      </trkpt>
      <trkpt lat="45.89164" lon="3.0487">
        <ele>446.4</ele>
        <time>2021-01-02T12:41:54Z</time>
      </trkpt>
      <trkpt lat="45.89165" lon="3.04869">
        <ele>447</ele>
        <time>2021-01-02T12:41:55Z</time>
      </trkpt>
      <trkpt lat="45.89166" lon="3.04866">
        <ele>447.4</ele>
        <time>2021-01-02T12:41:56Z</time>
      </trkpt>
      <trkpt lat="45.89166" lon="3.04865">
        <ele>447.8</ele>
        <time>2021-01-02T12:41:57Z</time>
      </trkpt>
      <trkpt lat="45.89167" lon="3.04863">
        <ele>448.2</ele>
        <time>2021-01-02T12:41:58Z</time>
      </trkpt>
      <trkpt lat="45.89167" lon="3.04861">
        <ele>448.6</ele>
        <time>2021-01-02T12:41:59Z</time>
      </trkpt>
      <trkpt lat="45.89168" lon="3.0485">
        <ele>449</ele>
        <time>2021-01-02T12:42:04Z</time>
      </trkpt>
      <trkpt lat="45.89168" lon="3.04849">
        <ele>449.4</ele>
        <time>2021-01-02T12:42:05Z</time>
      </trkpt>
      <trkpt lat="45.89169" lon="3.04846">
        <ele>449.8</ele>
        <time>2021-01-02T12:42:06Z</time>
      </trkpt>
      <trkpt lat="45.89169" lon="3.04844">
        <ele>450.2</ele>
        <time>2021-01-02T12:42:07Z</time>
      </trkpt>
      <trkpt lat="45.89169" lon="3.0484">
        <ele>450.6</ele>
        <time>2021-01-02T12:42:08Z</time>
      </trkpt>
      <trkpt lat="45.8917" lon="3.0483">
        <ele>450.6</ele>
        <time>2021-01-02T12:42:11Z</time>
      </trkpt>
      <trkpt lat="45.89171" lon="3.04823">
        <ele>451</ele>
        <time>2021-01-02T12:42:14Z</time>
      </trkpt>
      <trkpt lat="45.89172" lon="3.04822">
        <ele>451.4</ele>
        <time>2021-01-02T12:42:15Z</time>
      </trkpt>
      <trkpt lat="45.89173" lon="3.0482">
        <ele>451.8</ele>
        <time>2021-01-02T12:42:16Z</time>
      </trkpt>
      <trkpt lat="45.89173" lon="3.04816">
        <ele>452.2</ele>
        <time>2021-01-02T12:42:17Z</time>
      </trkpt>
      <trkpt lat="45.89173" lon="3.04814">
        <ele>452.6</ele>
        <time>2021-01-02T12:42:18Z</time>
      </trkpt>
      <trkpt lat="45.89174" lon="3.04801">
        <ele>452.6</ele>
        <time>2021-01-02T12:42:23Z</time>
      </trkpt>
      <trkpt lat="45.89174" lon="3.04796">
        <ele>453.2</ele>
        <time>2021-01-02T12:42:25Z</time>
      </trkpt>
      <trkpt lat="45.89174" lon="3.04795">
        <ele>454</ele>
        <time>2021-01-02T12:42:26Z</time>
      </trkpt>
      <trkpt lat="45.89174" lon="3.04792">
        <ele>454.4</ele>
        <time>2021-01-02T12:42:27Z</time>
      </trkpt>
      <trkpt lat="45.89173" lon="3.0479">
        <ele>454.8</ele>
        <time>2021-01-02T12:42:28Z</time>
      </trkpt>
      <trkpt lat="45.89173" lon="3.04789">
        <ele>454.8</ele>
        <time>2021-01-02T12:42:29Z</time>
      </trkpt>
      <trkpt lat="45.89174" lon="3.04786">
        <ele>454.8</ele>
        <time>2021-01-02T12:42:30Z</time>
      </trkpt>
      <trkpt lat="45.89177" lon="3.04777">
        <ele>454.8</ele>
        <time>2021-01-02T12:42:34Z</time>
      </trkpt>
      <trkpt lat="45.89182" lon="3.04772">
        <ele>455.2</ele>
        <time>2021-01-02T12:42:38Z</time>
      </trkpt>
      <trkpt lat="45.89183" lon="3.0477">
        <ele>455.8</ele>
        <time>2021-01-02T12:42:39Z</time>
      </trkpt>
      <trkpt lat="45.89184" lon="3.04768">
        <ele>456.2</ele>
        <time>2021-01-02T12:42:40Z</time>
      </trkpt>
      <trkpt lat="45.89184" lon="3.04766">
        <ele>456.6</ele>
        <time>2021-01-02T12:42:41Z</time>
      </trkpt>
      <trkpt lat="45.89183" lon="3.04765">
        <ele>457</ele>
        <time>2021-01-02T12:42:42Z</time>
      </trkpt>
      <trkpt lat="45.89182" lon="3.04763">
        <ele>457</ele>
        <time>2021-01-02T12:42:43Z</time>
      </trkpt>
      <trkpt lat="45.89179" lon="3.04759">
        <ele>457</ele>
        <time>2021-01-02T12:42:45Z</time>
      </trkpt>
      <trkpt lat="45.89172" lon="3.04757">
        <ele>457</ele>
        <time>2021-01-02T12:42:49Z</time>
      </trkpt>
      <trkpt lat="45.8917" lon="3.04755">
        <ele>457</ele>
        <time>2021-01-02T12:42:51Z</time>
      </trkpt>
      <trkpt lat="45.89168" lon="3.04755">
        <ele>457.4</ele>
        <time>2021-01-02T12:42:53Z</time>
      </trkpt>
      <trkpt lat="45.89167" lon="3.04754">
        <ele>457.8</ele>
        <time>2021-01-02T12:42:54Z</time>
      </trkpt>
      <trkpt lat="45.89166" lon="3.04752">
        <ele>458.2</ele>
        <time>2021-01-02T12:42:55Z</time>
      </trkpt>
      <trkpt lat="45.89166" lon="3.0475">
        <ele>458.6</ele>
        <time>2021-01-02T12:42:56Z</time>
      </trkpt>
      <trkpt lat="45.89165" lon="3.0475">
        <ele>459</ele>
        <time>2021-01-02T12:42:57Z</time>
      </trkpt>
      <trkpt lat="45.891" lon="3.04676">
        <ele>471.4</ele>
        <time>2021-01-02T12:44:23Z</time>
      </trkpt>
      <trkpt lat="45.89102" lon="3.04669">
        <ele>471.4</ele>
        <time>2021-01-02T12:44:26Z</time>
      </trkpt>
      <trkpt lat="45.89104" lon="3.04666">
        <ele>471.4</ele>
        <time>2021-01-02T12:44:28Z</time>
      </trkpt>
      <trkpt lat="45.89106" lon="3.04664">
        <ele>472</ele>
        <time>2021-01-02T12:44:30Z</time>
      </trkpt>
      <trkpt lat="45.89106" lon="3.04664">
        <ele>472.4</ele>
        <time>2021-01-02T12:44:31Z</time>
      </trkpt>
      <trkpt lat="45.89108" lon="3.04664">
        <ele>472.8</ele>
        <time>2021-01-02T12:44:32Z</time>
      </trkpt>
      <trkpt lat="45.89109" lon="3.04663">
        <ele>473.2</ele>
        <time>2021-01-02T12:44:33Z</time>
      </trkpt>
      <trkpt lat="45.89111" lon="3.04662">
        <ele>473.6</ele>
        <time>2021-01-02T12:44:34Z</time>
      </trkpt>
      <trkpt lat="45.89115" lon="3.04661">
        <ele>473.6</ele>
        <time>2021-01-02T12:44:37Z</time>
      </trkpt>
      <trkpt lat="45.89117" lon="3.04658">
        <ele>473.6</ele>
        <time>2021-01-02T12:44:41Z</time>
      </trkpt>
      <trkpt lat="45.8912" lon="3.04659">
        <ele>474.6</ele>
        <time>2021-01-02T12:44:44Z</time>
      </trkpt>
      <trkpt lat="45.89122" lon="3.04658">
        <ele>475</ele>
        <time>2021-01-02T12:44:45Z</time>
      </trkpt>
      <trkpt lat="45.89123" lon="3.04658">
        <ele>475.4</ele>
        <time>2021-01-02T12:44:46Z</time>
      </trkpt>
      <trkpt lat="45.89124" lon="3.04658">
        <ele>475.8</ele>
        <time>2021-01-02T12:44:47Z</time>
      </trkpt>
      <trkpt lat="45.89126" lon="3.04658">
        <ele>475.8</ele>
        <time>2021-01-02T12:44:49Z</time>
      </trkpt>
      <trkpt lat="45.89133" lon="3.04654">
        <ele>475.8</ele>
        <time>2021-01-02T12:44:57Z</time>
      </trkpt>
      <trkpt lat="45.89136" lon="3.04653">
        <ele>476.2</ele>
        <time>2021-01-02T12:45:00Z</time>
      </trkpt>
      <trkpt lat="45.89137" lon="3.04652">
        <ele>476.6</ele>
        <time>2021-01-02T12:45:01Z</time>
      </trkpt>
      <trkpt lat="45.89138" lon="3.04652">
        <ele>477</ele>
        <time>2021-01-02T12:45:02Z</time>
      </trkpt>
      <trkpt lat="45.89137" lon="3.04653">
        <ele>477.4</ele>
        <time>2021-01-02T12:45:03Z</time>
      </trkpt>
      <trkpt lat="45.89138" lon="3.04652">
        <ele>477.8</ele>
        <time>2021-01-02T12:45:04Z</time>
      </trkpt>
      <trkpt lat="45.89141" lon="3.04645">
        <ele>477.8</ele>
        <time>2021-01-02T12:45:10Z</time>
      </trkpt>
      <trkpt lat="45.89142" lon="3.04643">
        <ele>478.2</ele>
        <time>2021-01-02T12:45:12Z</time>
      </trkpt>
      <trkpt lat="45.89143" lon="3.04642">
        <ele>478.6</ele>
        <time>2021-01-02T12:45:13Z</time>
      </trkpt>
      <trkpt lat="45.89144" lon="3.04641">
        <ele>479</ele>
        <time>2021-01-02T12:45:14Z</time>
      </trkpt>
      <trkpt lat="45.89144" lon="3.04641">
        <ele>479.6</ele>
        <time>2021-01-02T12:45:15Z</time>
      </trkpt>
      <trkpt lat="45.89144" lon="3.04641">
        <ele>480</ele>
        <time>2021-01-02T12:45:16Z</time>
      </trkpt>
      <trkpt lat="45.89145" lon="3.04641">
        <ele>480</ele>
        <time>2021-01-02T12:47:45Z</time>
      </trkpt>
      <trkpt lat="45.89144" lon="3.04642">
        <ele>480</ele>
        <time>2021-01-02T12:47:47Z</time>
      </trkpt>
      <trkpt lat="45.89139" lon="3.0464">
        <ele>480</ele>
        <time>2021-01-02T12:47:50Z</time>
      </trkpt>
      <trkpt lat="45.89138" lon="3.04638">
        <ele>480</ele>
        <time>2021-01-02T12:47:51Z</time>
      </trkpt>
      <trkpt lat="45.89146" lon="3.04637">
        <ele>480</ele>
        <time>2021-01-02T12:47:55Z</time>
      </trkpt>
      <trkpt lat="45.89144" lon="3.04636">
        <ele>480.4</ele>
        <time>2021-01-02T12:47:56Z</time>
      </trkpt>
      <trkpt lat="45.89143" lon="3.04635">
        <ele>480.8</ele>
        <time>2021-01-02T12:47:57Z</time>
      </trkpt>
      <trkpt lat="45.89141" lon="3.04634">
        <ele>481.2</ele>
        <time>2021-01-02T12:47:58Z</time>
      </trkpt>
      <trkpt lat="45.8914" lon="3.04634">
        <ele>481.6</ele>
        <time>2021-01-02T12:47:59Z</time>
      </trkpt>
      <trkpt lat="45.89139" lon="3.04633">
        <ele>482</ele>
        <time>2021-01-02T12:48:00Z</time>
      </trkpt>
      <trkpt lat="45.89136" lon="3.0463">
        <ele>482</ele>
        <time>2021-01-02T12:48:02Z</time>
      </trkpt>
      <trkpt lat="45.89127" lon="3.04622">
        <ele>482.4</ele>
        <time>2021-01-02T12:48:09Z</time>
      </trkpt>
      <trkpt lat="45.89125" lon="3.0462">
        <ele>482.8</ele>
        <time>2021-01-02T12:48:10Z</time>
      </trkpt>
      <trkpt lat="45.89123" lon="3.04619">
        <ele>483.6</ele>
        <time>2021-01-02T12:48:11Z</time>
      </trkpt>
      <trkpt lat="45.89121" lon="3.04618">
        <ele>484.2</ele>
        <time>2021-01-02T12:48:12Z</time>
      </trkpt>
      <trkpt lat="45.89117" lon="3.04616">
        <ele>484.2</ele>
        <time>2021-01-02T12:48:15Z</time>
      </trkpt>
      <trkpt lat="45.89108" lon="3.04608">
        <ele>484.2</ele>
        <time>2021-01-02T12:48:20Z</time>
      </trkpt>
      <trkpt lat="45.89106" lon="3.04606">
        <ele>484.6</ele>
        <time>2021-01-02T12:48:22Z</time>
      </trkpt>
      <trkpt lat="45.89102" lon="3.04604">
        <ele>485</ele>
        <time>2021-01-02T12:48:23Z</time>
      </trkpt>
      <trkpt lat="45.891" lon="3.04602">
        <ele>485.4</ele>
        <time>2021-01-02T12:48:24Z</time>
      </trkpt>
      <trkpt lat="45.89098" lon="3.04601">
        <ele>485.8</ele>
        <time>2021-01-02T12:48:25Z</time>
      </trkpt>
      <trkpt lat="45.89096" lon="3.04599">
        <ele>486.2</ele>
        <time>2021-01-02T12:48:26Z</time>
      </trkpt>
      <trkpt lat="45.89095" lon="3.04598">
        <ele>486.2</ele>
        <time>2021-01-02T12:48:27Z</time>
      </trkpt>
      <trkpt lat="45.89088" lon="3.04591">
        <ele>486.2</ele>
        <time>2021-01-02T12:48:33Z</time>
      </trkpt>
      <trkpt lat="45.89086" lon="3.04589">
        <ele>486.6</ele>
        <time>2021-01-02T12:48:34Z</time>
      </trkpt>
      <trkpt lat="45.89085" lon="3.04587">
        <ele>487.2</ele>
        <time>2021-01-02T12:48:35Z</time>
      </trkpt>
      <trkpt lat="45.89084" lon="3.04585">
        <ele>488</ele>
        <time>2021-01-02T12:48:36Z</time>
      </trkpt>
      <trkpt lat="45.89083" lon="3.04583">
        <ele>488.4</ele>
        <time>2021-01-02T12:48:37Z</time>
      </trkpt>
      <trkpt lat="45.89082" lon="3.04581">
        <ele>488.4</ele>
        <time>2021-01-02T12:48:38Z</time>
      </trkpt>
      <trkpt lat="45.89072" lon="3.04568">
        <ele>488.4</ele>
        <time>2021-01-02T12:48:44Z</time>
      </trkpt>
      <trkpt lat="45.8907" lon="3.04566">
        <ele>488.4</ele>
        <time>2021-01-02T12:48:45Z</time>
      </trkpt>
      <trkpt lat="45.89066" lon="3.04565">
        <ele>488.8</ele>
        <time>2021-01-02T12:48:47Z</time>
      </trkpt>
      <trkpt lat="45.89065" lon="3.04565">
        <ele>489.2</ele>
        <time>2021-01-02T12:48:48Z</time>
      </trkpt>
      <trkpt lat="45.89063" lon="3.04565">
        <ele>489.6</ele>
        <time>2021-01-02T12:48:49Z</time>
      </trkpt>
      <trkpt lat="45.89061" lon="3.04564">
        <ele>490</ele>
        <time>2021-01-02T12:48:50Z</time>
      </trkpt>
      <trkpt lat="45.8906" lon="3.04563">
        <ele>490.4</ele>
        <time>2021-01-02T12:48:51Z</time>
      </trkpt>
      <trkpt lat="45.89058" lon="3.04562">
        <ele>490.4</ele>
        <time>2021-01-02T12:48:52Z</time>
      </trkpt>
      <trkpt lat="45.89052" lon="3.04558">
        <ele>490.4</ele>
        <time>2021-01-02T12:48:56Z</time>
      </trkpt>
      <trkpt lat="45.89051" lon="3.04557">
        <ele>490.4</ele>
        <time>2021-01-02T12:48:57Z</time>
      </trkpt>
      <trkpt lat="45.89045" lon="3.04544">
        <ele>492.6</ele>
        <time>2021-01-02T12:49:04Z</time>
      </trkpt>
      <trkpt lat="45.89042" lon="3.0454">
        <ele>492.6</ele>
        <time>2021-01-02T12:49:07Z</time>
      </trkpt>
      <trkpt lat="45.89035" lon="3.04533">
        <ele>492.6</ele>
        <time>2021-01-02T12:49:12Z</time>
      </trkpt>
      <trkpt lat="45.89029" lon="3.04525">
        <ele>492.6</ele>
        <time>2021-01-02T12:49:17Z</time>
      </trkpt>
      <trkpt lat="45.89025" lon="3.04521">
        <ele>492.6</ele>
        <time>2021-01-02T12:49:21Z</time>
      </trkpt>
      <trkpt lat="45.89017" lon="3.04508">
        <ele>496.8</ele>
        <time>2021-01-02T12:53:12Z</time>
      </trkpt>
      <trkpt lat="45.89011" lon="3.04496">
        <ele>496.8</ele>
        <time>2021-01-02T12:53:18Z</time>
      </trkpt>
      <trkpt lat="45.89008" lon="3.04485">
        <ele>496.8</ele>
        <time>2021-01-02T12:53:23Z</time>
      </trkpt>
      <trkpt lat="45.89" lon="3.0447">
        <ele>496.8</ele>
        <time>2021-01-02T12:53:28Z</time>
      </trkpt>
      <trkpt lat="45.88996" lon="3.04461">
        <ele>497.2</ele>
        <time>2021-01-02T12:53:32Z</time>
      </trkpt>
      <trkpt lat="45.88995" lon="3.04458">
        <ele>498</ele>
        <time>2021-01-02T12:53:33Z</time>
      </trkpt>
      <trkpt lat="45.88995" lon="3.04456">
        <ele>498.4</ele>
        <time>2021-01-02T12:53:34Z</time>
      </trkpt>
      <trkpt lat="45.88994" lon="3.04454">
        <ele>498.8</ele>
        <time>2021-01-02T12:53:35Z</time>
      </trkpt>
      <trkpt lat="45.88988" lon="3.04443">
        <ele>498.8</ele>
        <time>2021-01-02T12:53:41Z</time>
      </trkpt>
      <trkpt lat="45.88986" lon="3.0444">
        <ele>499.2</ele>
        <time>2021-01-02T12:53:43Z</time>
      </trkpt>
      <trkpt lat="45.88985" lon="3.04438">
        <ele>499.6</ele>
        <time>2021-01-02T12:53:44Z</time>
      </trkpt>
      <trkpt lat="45.88984" lon="3.04436">
        <ele>500.2</ele>
        <time>2021-01-02T12:53:45Z</time>
      </trkpt>
      <trkpt lat="45.88983" lon="3.04433">
        <ele>500.6</ele>
        <time>2021-01-02T12:53:46Z</time>
      </trkpt>
      <trkpt lat="45.88982" lon="3.04431">
        <ele>501</ele>
        <time>2021-01-02T12:53:47Z</time>
      </trkpt>
      <trkpt lat="45.88976" lon="3.04418">
        <ele>501</ele>
        <time>2021-01-02T12:53:53Z</time>
      </trkpt>
      <trkpt lat="45.88975" lon="3.04416">
        <ele>501.4</ele>
        <time>2021-01-02T12:53:55Z</time>
      </trkpt>
      <trkpt lat="45.88974" lon="3.04416">
        <ele>501.8</ele>
        <time>2021-01-02T12:53:56Z</time>
      </trkpt>
      <trkpt lat="45.88973" lon="3.04414">
        <ele>502.6</ele>
        <time>2021-01-02T12:53:57Z</time>
      </trkpt>
      <trkpt lat="45.88972" lon="3.04413">
        <ele>503</ele>
        <time>2021-01-02T12:53:58Z</time>
      </trkpt>
      <trkpt lat="45.88969" lon="3.04406">
        <ele>503</ele>
        <time>2021-01-02T12:54:02Z</time>
      </trkpt>
      <trkpt lat="45.88965" lon="3.04391">
        <ele>503</ele>
        <time>2021-01-02T12:54:09Z</time>
      </trkpt>
      <trkpt lat="45.88961" lon="3.0438">
        <ele>503</ele>
        <time>2021-01-02T12:54:15Z</time>
      </trkpt>
      <trkpt lat="45.88961" lon="3.04376">
        <ele>503.4</ele>
        <time>2021-01-02T12:54:17Z</time>
      </trkpt>
      <trkpt lat="45.88961" lon="3.04373">
        <ele>503.8</ele>
        <time>2021-01-02T12:54:18Z</time>
      </trkpt>
      <trkpt lat="45.88961" lon="3.04371">
        <ele>504.2</ele>
        <time>2021-01-02T12:54:19Z</time>
      </trkpt>
      <trkpt lat="45.88962" lon="3.04368">
        <ele>504.6</ele>
        <time>2021-01-02T12:54:20Z</time>
      </trkpt>
      <trkpt lat="45.88963" lon="3.04366">
        <ele>505</ele>
        <time>2021-01-02T12:54:21Z</time>
      </trkpt>
      <trkpt lat="45.88959" lon="3.04353">
        <ele>505</ele>
        <time>2021-01-02T12:54:27Z</time>
      </trkpt>
      <trkpt lat="45.88955" lon="3.04346">
        <ele>505.4</ele>
        <time>2021-01-02T12:54:31Z</time>
      </trkpt>
      <trkpt lat="45.88955" lon="3.04346">
        <ele>505.8</ele>
        <time>2021-01-02T12:54:32Z</time>
      </trkpt>
      <trkpt lat="45.88954" lon="3.04344">
        <ele>506.2</ele>
        <time>2021-01-02T12:54:33Z</time>
      </trkpt>
      <trkpt lat="45.88953" lon="3.04343">
        <ele>506.6</ele>
        <time>2021-01-02T12:54:34Z</time>
      </trkpt>
      <trkpt lat="45.88952" lon="3.04341">
        <ele>507</ele>
        <time>2021-01-02T12:54:35Z</time>
      </trkpt>
      <trkpt lat="45.88947" lon="3.04332">
        <ele>507</ele>
        <time>2021-01-02T12:54:39Z</time>
      </trkpt>
      <trkpt lat="45.88943" lon="3.04321">
        <ele>507.4</ele>
        <time>2021-01-02T12:54:44Z</time>
      </trkpt>
      <trkpt lat="45.88941" lon="3.04319">
        <ele>507.8</ele>
        <time>2021-01-02T12:54:45Z</time>
      </trkpt>
      <trkpt lat="45.8894" lon="3.04316">
        <ele>508.6</ele>
        <time>2021-01-02T12:54:46Z</time>
      </trkpt>
      <trkpt lat="45.88939" lon="3.04315">
        <ele>509</ele>
        <time>2021-01-02T12:54:47Z</time>
      </trkpt>
      <trkpt lat="45.88935" lon="3.04307">
        <ele>509</ele>
        <time>2021-01-02T12:54:51Z</time>
      </trkpt>
      <trkpt lat="45.88935" lon="3.04305">
        <ele>509</ele>
        <time>2021-01-02T12:54:52Z</time>
      </trkpt>
      <trkpt lat="45.88935" lon="3.043">
        <ele>509.4</ele>
        <time>2021-01-02T12:54:54Z</time>
      </trkpt>
      <trkpt lat="45.88936" lon="3.04298">
        <ele>509.8</ele>
        <time>2021-01-02T12:54:55Z</time>
      </trkpt>
      <trkpt lat="45.88936" lon="3.04297">
        <ele>510.2</ele>
        <time>2021-01-02T12:54:56Z</time>
      </trkpt>
      <trkpt lat="45.88937" lon="3.04297">
        <ele>510.6</ele>
        <time>2021-01-02T12:54:57Z</time>
      </trkpt>
      <trkpt lat="45.88938" lon="3.04298">
        <ele>511</ele>
        <time>2021-01-02T12:54:58Z</time>
      </trkpt>
      <trkpt lat="45.88939" lon="3.04301">
        <ele>511</ele>
        <time>2021-01-02T12:55:01Z</time>
      </trkpt>
      <trkpt lat="45.88939" lon="3.04301">
        <ele>511</ele>
        <time>2021-01-02T12:55:02Z</time>
      </trkpt>
      <trkpt lat="45.88939" lon="3.04302">
        <ele>511.4</ele>
        <time>2021-01-02T12:55:03Z</time>
      </trkpt>
      <trkpt lat="45.8894" lon="3.04302">
        <ele>511.8</ele>
        <time>2021-01-02T12:55:04Z</time>
      </trkpt>
      <trkpt lat="45.88941" lon="3.04303">
        <ele>512.2</ele>
        <time>2021-01-02T12:55:05Z</time>
      </trkpt>
      <trkpt lat="45.88942" lon="3.04304">
        <ele>512.6</ele>
        <time>2021-01-02T12:55:06Z</time>
      </trkpt>
      <trkpt lat="45.88943" lon="3.04305">
        <ele>513</ele>
        <time>2021-01-02T12:55:07Z</time>
      </trkpt>
      <trkpt lat="45.8895" lon="3.04312">
        <ele>513</ele>
        <time>2021-01-02T12:55:13Z</time>
      </trkpt>
      <trkpt lat="45.88959" lon="3.04321">
        <ele>513</ele>
        <time>2021-01-02T12:55:19Z</time>
      </trkpt>
      <trkpt lat="45.88961" lon="3.04325">
        <ele>513</ele>
        <time>2021-01-02T12:55:21Z</time>
      </trkpt>
      <trkpt lat="45.88966" lon="3.04329">
        <ele>513</ele>
        <time>2021-01-02T12:55:24Z</time>
      </trkpt>
      <trkpt lat="45.88968" lon="3.0433">
        <ele>513</ele>
        <time>2021-01-02T12:55:25Z</time>
      </trkpt>
      <trkpt lat="45.88972" lon="3.04332">
        <ele>513.6</ele>
        <time>2021-01-02T12:55:27Z</time>
      </trkpt>
      <trkpt lat="45.88973" lon="3.04333">
        <ele>514</ele>
        <time>2021-01-02T12:55:28Z</time>
      </trkpt>
      <trkpt lat="45.88974" lon="3.04335">
        <ele>514.4</ele>
        <time>2021-01-02T12:55:29Z</time>
      </trkpt>
      <trkpt lat="45.88975" lon="3.04337">
        <ele>514.8</ele>
        <time>2021-01-02T12:55:30Z</time>
      </trkpt>
      <trkpt lat="45.88975" lon="3.04339">
        <ele>515.2</ele>
        <time>2021-01-02T12:55:31Z</time>
      </trkpt>
      <trkpt lat="45.88975" lon="3.04344">
        <ele>515.2</ele>
        <time>2021-01-02T12:55:33Z</time>
      </trkpt>
      <trkpt lat="45.88976" lon="3.0435">
        <ele>515.2</ele>
        <time>2021-01-02T12:55:35Z</time>
      </trkpt>
      <trkpt lat="45.88981" lon="3.04363">
        <ele>515.2</ele>
        <time>2021-01-02T12:55:40Z</time>
      </trkpt>
      <trkpt lat="45.88988" lon="3.04374">
        <ele>515.6</ele>
        <time>2021-01-02T12:55:45Z</time>
      </trkpt>
      <trkpt lat="45.8899" lon="3.04376">
        <ele>516.2</ele>
        <time>2021-01-02T12:55:46Z</time>
      </trkpt>
      <trkpt lat="45.88992" lon="3.04378">
        <ele>516.6</ele>
        <time>2021-01-02T12:55:47Z</time>
      </trkpt>
      <trkpt lat="45.88993" lon="3.04379">
        <ele>517</ele>
        <time>2021-01-02T12:55:48Z</time>
      </trkpt>
      <trkpt lat="45.88995" lon="3.04381">
        <ele>517.4</ele>
        <time>2021-01-02T12:55:49Z</time>
      </trkpt>
      <trkpt lat="45.89" lon="3.04387">
        <ele>517.4</ele>
        <time>2021-01-02T12:55:52Z</time>
      </trkpt>
      <trkpt lat="45.89007" lon="3.044">
        <ele>517.4</ele>
        <time>2021-01-02T12:55:59Z</time>
      </trkpt>
      <trkpt lat="45.89012" lon="3.04406">
        <ele>517.8</ele>
        <time>2021-01-02T12:56:03Z</time>
      </trkpt>
      <trkpt lat="45.89012" lon="3.04408">
        <ele>518.2</ele>
        <time>2021-01-02T12:56:04Z</time>
      </trkpt>
      <trkpt lat="45.89013" lon="3.04409">
        <ele>518.6</ele>
        <time>2021-01-02T12:56:05Z</time>
      </trkpt>
      <trkpt lat="45.89013" lon="3.04411">
        <ele>519.2</ele>
        <time>2021-01-02T12:56:06Z</time>
      </trkpt>
      <trkpt lat="45.89014" lon="3.04413">
        <ele>519.6</ele>
        <time>2021-01-02T12:56:07Z</time>
      </trkpt>
      <trkpt lat="45.89018" lon="3.04418">
        <ele>519.6</ele>
        <time>2021-01-02T12:56:10Z</time>
      </trkpt>
      <trkpt lat="45.89031" lon="3.04429">
        <ele>520</ele>
        <time>2021-01-02T12:56:17Z</time>
      </trkpt>
      <trkpt lat="45.89033" lon="3.04431">
        <ele>520.4</ele>
        <time>2021-01-02T12:56:18Z</time>
      </trkpt>
      <trkpt lat="45.89035" lon="3.04432">
        <ele>520.8</ele>
        <time>2021-01-02T12:56:19Z</time>
      </trkpt>
      <trkpt lat="45.89037" lon="3.04435">
        <ele>521.2</ele>
        <time>2021-01-02T12:56:20Z</time>
      </trkpt>
      <trkpt lat="45.89038" lon="3.04437">
        <ele>521.6</ele>
        <time>2021-01-02T12:56:21Z</time>
      </trkpt>
      <trkpt lat="45.8904" lon="3.0444">
        <ele>521.6</ele>
        <time>2021-01-02T12:56:23Z</time>
      </trkpt>
      <trkpt lat="45.8905" lon="3.04452">
        <ele>521.6</ele>
        <time>2021-01-02T12:56:30Z</time>
      </trkpt>
      <trkpt lat="45.89058" lon="3.0446">
        <ele>522</ele>
        <time>2021-01-02T12:56:34Z</time>
      </trkpt>
      <trkpt lat="45.8906" lon="3.04461">
        <ele>522.4</ele>
        <time>2021-01-02T12:56:35Z</time>
      </trkpt>
      <trkpt lat="45.89061" lon="3.04462">
        <ele>522.8</ele>
        <time>2021-01-02T12:56:36Z</time>
      </trkpt>
      <trkpt lat="45.89063" lon="3.04463">
        <ele>523.4</ele>
        <time>2021-01-02T12:56:37Z</time>
      </trkpt>
      <trkpt lat="45.89065" lon="3.04464">
        <ele>523.8</ele>
        <time>2021-01-02T12:56:38Z</time>
      </trkpt>
      <trkpt lat="45.89068" lon="3.04465">
        <ele>523.8</ele>
        <time>2021-01-02T12:56:40Z</time>
      </trkpt>
      <trkpt lat="45.89081" lon="3.0447">
        <ele>523.8</ele>
        <time>2021-01-02T12:56:47Z</time>
      </trkpt>
      <trkpt lat="45.89088" lon="3.04472">
        <ele>524.2</ele>
        <time>2021-01-02T12:56:50Z</time>
      </trkpt>
      <trkpt lat="45.8909" lon="3.04473">
        <ele>524.6</ele>
        <time>2021-01-02T12:56:51Z</time>
      </trkpt>
      <trkpt lat="45.89091" lon="3.04474">
        <ele>525.2</ele>
        <time>2021-01-02T12:56:52Z</time>
      </trkpt>
      <trkpt lat="45.89094" lon="3.04476">
        <ele>525.6</ele>
        <time>2021-01-02T12:56:53Z</time>
      </trkpt>
      <trkpt lat="45.89096" lon="3.04477">
        <ele>526</ele>
        <time>2021-01-02T12:56:54Z</time>
      </trkpt>
      <trkpt lat="45.89102" lon="3.0448">
        <ele>526</ele>
        <time>2021-01-02T12:56:58Z</time>
      </trkpt>
      <trkpt lat="45.89111" lon="3.0448">
        <ele>526</ele>
        <time>2021-01-02T12:57:03Z</time>
      </trkpt>
      <trkpt lat="45.89115" lon="3.04481">
        <ele>526</ele>
        <time>2021-01-02T12:57:06Z</time>
      </trkpt>
      <trkpt lat="45.89117" lon="3.04482">
        <ele>526.4</ele>
        <time>2021-01-02T12:57:07Z</time>
      </trkpt>
      <trkpt lat="45.89119" lon="3.04482">
        <ele>526.8</ele>
        <time>2021-01-02T12:57:08Z</time>
      </trkpt>
      <trkpt lat="45.89121" lon="3.04483">
        <ele>527.2</ele>
        <time>2021-01-02T12:57:09Z</time>
      </trkpt>
      <trkpt lat="45.89122" lon="3.04484">
        <ele>527.6</ele>
        <time>2021-01-02T12:57:10Z</time>
      </trkpt>
      <trkpt lat="45.89124" lon="3.04484">
        <ele>528</ele>
        <time>2021-01-02T12:57:11Z</time>
      </trkpt>
      <trkpt lat="45.89131" lon="3.04486">
        <ele>528</ele>
        <time>2021-01-02T12:57:15Z</time>
      </trkpt>
      <trkpt lat="45.89137" lon="3.04488">
        <ele>528</ele>
        <time>2021-01-02T12:57:19Z</time>
      </trkpt>
      <trkpt lat="45.89143" lon="3.0449">
        <ele>528.4</ele>
        <time>2021-01-02T12:57:22Z</time>
      </trkpt>
      <trkpt lat="45.89145" lon="3.0449">
        <ele>528.8</ele>
        <time>2021-01-02T12:57:23Z</time>
      </trkpt>
      <trkpt lat="45.89148" lon="3.0449">
        <ele>529.2</ele>
        <time>2021-01-02T12:57:24Z</time>
      </trkpt>
      <trkpt lat="45.8915" lon="3.04491">
        <ele>529.6</ele>
        <time>2021-01-02T12:57:25Z</time>
      </trkpt>
      <trkpt lat="45.89152" lon="3.04491">
        <ele>530</ele>
        <time>2021-01-02T12:57:26Z</time>
      </trkpt>
      <trkpt lat="45.89161" lon="3.04492">
        <ele>530</ele>
        <time>2021-01-02T12:57:31Z</time>
      </trkpt>
      <trkpt lat="45.89172" lon="3.04493">
        <ele>530</ele>
        <time>2021-01-02T12:57:36Z</time>
      </trkpt>
      <trkpt lat="45.89176" lon="3.04495">
        <ele>530.4</ele>
        <time>2021-01-02T12:57:38Z</time>
      </trkpt>
      <trkpt lat="45.89178" lon="3.04495">
        <ele>531.2</ele>
        <time>2021-01-02T12:57:39Z</time>
      </trkpt>
      <trkpt lat="45.8918" lon="3.04496">
        <ele>531.6</ele>
        <time>2021-01-02T12:57:40Z</time>
      </trkpt>
      <trkpt lat="45.89182" lon="3.04496">
        <ele>532.2</ele>
        <time>2021-01-02T12:57:41Z</time>
      </trkpt>
      <trkpt lat="45.8919" lon="3.04495">
        <ele>532.2</ele>
        <time>2021-01-02T12:57:46Z</time>
      </trkpt>
      <trkpt lat="45.892" lon="3.04497">
        <ele>532.6</ele>
        <time>2021-01-02T12:57:51Z</time>
      </trkpt>
      <trkpt lat="45.89201" lon="3.04497">
        <ele>533</ele>
        <time>2021-01-02T12:57:52Z</time>
      </trkpt>
      <trkpt lat="45.89202" lon="3.04497">
        <ele>533.4</ele>
        <time>2021-01-02T12:57:53Z</time>
      </trkpt>
      <trkpt lat="45.89203" lon="3.04497">
        <ele>533.8</ele>
        <time>2021-01-02T12:57:54Z</time>
      </trkpt>
      <trkpt lat="45.89204" lon="3.04496">
        <ele>534.2</ele>
        <time>2021-01-02T12:57:55Z</time>
      </trkpt>
      <trkpt lat="45.89205" lon="3.04494">
        <ele>534.2</ele>
        <time>2021-01-02T12:57:57Z</time>
      </trkpt>
      <trkpt lat="45.89206" lon="3.04493">
        <ele>534.2</ele>
        <time>2021-01-02T12:57:58Z</time>
      </trkpt>
      <trkpt lat="45.89205" lon="3.04491">
        <ele>534.2</ele>
        <time>2021-01-02T12:58:59Z</time>
      </trkpt>
      <trkpt lat="45.89203" lon="3.04488">
        <ele>534.2</ele>
        <time>2021-01-02T12:59:01Z</time>
      </trkpt>
      <trkpt lat="45.89201" lon="3.04488">
        <ele>534.6</ele>
        <time>2021-01-02T12:59:02Z</time>
      </trkpt>
      <trkpt lat="45.892" lon="3.04487">
        <ele>535</ele>
        <time>2021-01-02T12:59:03Z</time>
      </trkpt>
      <trkpt lat="45.89198" lon="3.04487">
        <ele>535.4</ele>
        <time>2021-01-02T12:59:04Z</time>
      </trkpt>
      <trkpt lat="45.89197" lon="3.04487">
        <ele>536</ele>
        <time>2021-01-02T12:59:05Z</time>
      </trkpt>
      <trkpt lat="45.89195" lon="3.04486">
        <ele>536.4</ele>
        <time>2021-01-02T12:59:06Z</time>
      </trkpt>
      <trkpt lat="45.89193" lon="3.04485">
        <ele>536.4</ele>
        <time>2021-01-02T12:59:07Z</time>
      </trkpt>
      <trkpt lat="45.89182" lon="3.0448">
        <ele>536.4</ele>
        <time>2021-01-02T12:59:12Z</time>
      </trkpt>
      <trkpt lat="45.89175" lon="3.04476">
        <ele>536.4</ele>
        <time>2021-01-02T12:59:15Z</time>
      </trkpt>
      <trkpt lat="45.89169" lon="3.04474">
        <ele>536.4</ele>
        <time>2021-01-02T12:59:17Z</time>
      </trkpt>
      <trkpt lat="45.89155" lon="3.04467">
        <ele>536.4</ele>
        <time>2021-01-02T12:59:23Z</time>
      </trkpt>
      <trkpt lat="45.89151" lon="3.04465">
        <ele>536.4</ele>
        <time>2021-01-02T12:59:26Z</time>
      </trkpt>
      <trkpt lat="45.89149" lon="3.04465">
        <ele>536.4</ele>
        <time>2021-01-02T12:59:30Z</time>
      </trkpt>
      <trkpt lat="45.89147" lon="3.04465">
        <ele>536.4</ele>
        <time>2021-01-02T12:59:31Z</time>
      </trkpt>
      <trkpt lat="45.89144" lon="3.04463">
        <ele>536.8</ele>
        <time>2021-01-02T12:59:33Z</time>
      </trkpt>
      <trkpt lat="45.89143" lon="3.04462">
        <ele>537.2</ele>
        <time>2021-01-02T12:59:34Z</time>
      </trkpt>
      <trkpt lat="45.89141" lon="3.04461">
        <ele>537.6</ele>
        <time>2021-01-02T12:59:35Z</time>
      </trkpt>
      <trkpt lat="45.8914" lon="3.04459">
        <ele>538</ele>
        <time>2021-01-02T12:59:36Z</time>
      </trkpt>
      <trkpt lat="45.89139" lon="3.04459">
        <ele>538.4</ele>
        <time>2021-01-02T12:59:37Z</time>
      </trkpt>
      <trkpt lat="45.89133" lon="3.04453">
        <ele>538.4</ele>
        <time>2021-01-02T12:59:41Z</time>
      </trkpt>
      <trkpt lat="45.89121" lon="3.04447">
        <ele>538.8</ele>
        <time>2021-01-02T12:59:47Z</time>
      </trkpt>
      <trkpt lat="45.89119" lon="3.04445">
        <ele>539.2</ele>
        <time>2021-01-02T12:59:48Z</time>
      </trkpt>
      <trkpt lat="45.89117" lon="3.04444">
        <ele>539.6</ele>
        <time>2021-01-02T12:59:49Z</time>
      </trkpt>
      <trkpt lat="45.89116" lon="3.04443">
        <ele>540</ele>
        <time>2021-01-02T12:59:50Z</time>
      </trkpt>
      <trkpt lat="45.89114" lon="3.04441">
        <ele>540.4</ele>
        <time>2021-01-02T12:59:51Z</time>
      </trkpt>
      <trkpt lat="45.8911" lon="3.04438">
        <ele>540.4</ele>
        <time>2021-01-02T12:59:53Z</time>
      </trkpt>
      <trkpt lat="45.89098" lon="3.04432">
        <ele>540.4</ele>
        <time>2021-01-02T12:59:58Z</time>
      </trkpt>
      <trkpt lat="45.89089" lon="3.04422">
        <ele>540.4</ele>
        <time>2021-01-02T13:00:04Z</time>
      </trkpt>
      <trkpt lat="45.89087" lon="3.04421">
        <ele>540.8</ele>
        <time>2021-01-02T13:00:05Z</time>
      </trkpt>
      <trkpt lat="45.89086" lon="3.0442">
        <ele>541.2</ele>
        <time>2021-01-02T13:00:06Z</time>
      </trkpt>
      <trkpt lat="45.89084" lon="3.04418">
        <ele>542.2</ele>
        <time>2021-01-02T13:00:07Z</time>
      </trkpt>
      <trkpt lat="45.89083" lon="3.04416">
        <ele>542.6</ele>
        <time>2021-01-02T13:00:08Z</time>
      </trkpt>
      <trkpt lat="45.89082" lon="3.04414">
        <ele>542.6</ele>
        <time>2021-01-02T13:00:09Z</time>
      </trkpt>
      <trkpt lat="45.89075" lon="3.04403">
        <ele>542.6</ele>
        <time>2021-01-02T13:00:15Z</time>
      </trkpt>
      <trkpt lat="45.89069" lon="3.04396">
        <ele>543</ele>
        <time>2021-01-02T13:00:19Z</time>
      </trkpt>
      <trkpt lat="45.89068" lon="3.04393">
        <ele>543.4</ele>
        <time>2021-01-02T13:00:20Z</time>
      </trkpt>
      <trkpt lat="45.89067" lon="3.04391">
        <ele>543.8</ele>
        <time>2021-01-02T13:00:21Z</time>
      </trkpt>
      <trkpt lat="45.89065" lon="3.04389">
        <ele>544.2</ele>
        <time>2021-01-02T13:00:22Z</time>
      </trkpt>
      <trkpt lat="45.89064" lon="3.04386">
        <ele>544.6</ele>
        <time>2021-01-02T13:00:23Z</time>
      </trkpt>
      <trkpt lat="45.89053" lon="3.04373">
        <ele>544.6</ele>
        <time>2021-01-02T13:00:29Z</time>
      </trkpt>
      <trkpt lat="45.89049" lon="3.04362">
        <ele>545</ele>
        <time>2021-01-02T13:00:33Z</time>
      </trkpt>
      <trkpt lat="45.89047" lon="3.0436">
        <ele>545.4</ele>
        <time>2021-01-02T13:00:34Z</time>
      </trkpt>
      <trkpt lat="45.89046" lon="3.04357">
        <ele>545.8</ele>
        <time>2021-01-02T13:00:35Z</time>
      </trkpt>
      <trkpt lat="45.89044" lon="3.04354">
        <ele>546.2</ele>
        <time>2021-01-02T13:00:36Z</time>
      </trkpt>
      <trkpt lat="45.89043" lon="3.04352">
        <ele>546.6</ele>
        <time>2021-01-02T13:00:37Z</time>
      </trkpt>
      <trkpt lat="45.89038" lon="3.04344">
        <ele>546.6</ele>
        <time>2021-01-02T13:00:41Z</time>
      </trkpt>
      <trkpt lat="45.89031" lon="3.04326">
        <ele>546.6</ele>
        <time>2021-01-02T13:00:48Z</time>
      </trkpt>
      <trkpt lat="45.89028" lon="3.04309">
        <ele>546.6</ele>
        <time>2021-01-02T13:00:54Z</time>
      </trkpt>
      <trkpt lat="45.89028" lon="3.04307">
        <ele>547</ele>
        <time>2021-01-02T13:00:55Z</time>
      </trkpt>
      <trkpt lat="45.89027" lon="3.04304">
        <ele>547.4</ele>
        <time>2021-01-02T13:00:56Z</time>
      </trkpt>
      <trkpt lat="45.89026" lon="3.04301">
        <ele>548.2</ele>
        <time>2021-01-02T13:00:57Z</time>
      </trkpt>
      <trkpt lat="45.89026" lon="3.04298">
        <ele>548.6</ele>
        <time>2021-01-02T13:00:58Z</time>
      </trkpt>
      <trkpt lat="45.89025" lon="3.04292">
        <ele>548.6</ele>
        <time>2021-01-02T13:01:00Z</time>
      </trkpt>
      <trkpt lat="45.89024" lon="3.0429">
        <ele>548.6</ele>
        <time>2021-01-02T13:01:01Z</time>
      </trkpt>
      <trkpt lat="45.89021" lon="3.04285">
        <ele>548.6</ele>
        <time>2021-01-02T13:01:04Z</time>
      </trkpt>
      <trkpt lat="45.8902" lon="3.04283">
        <ele>548.6</ele>
        <time>2021-01-02T13:01:05Z</time>
      </trkpt>
      <trkpt lat="45.89017" lon="3.0428">
        <ele>549</ele>
        <time>2021-01-02T13:01:07Z</time>
      </trkpt>
      <trkpt lat="45.89017" lon="3.04278">
        <ele>549.4</ele>
        <time>2021-01-02T13:01:08Z</time>
      </trkpt>
      <trkpt lat="45.89016" lon="3.04276">
        <ele>549.8</ele>
        <time>2021-01-02T13:01:09Z</time>
      </trkpt>
      <trkpt lat="45.89015" lon="3.04274">
        <ele>550.2</ele>
        <time>2021-01-02T13:01:10Z</time>
      </trkpt>
      <trkpt lat="45.89014" lon="3.04272">
        <ele>550.8</ele>
        <time>2021-01-02T13:01:11Z</time>
      </trkpt>
      <trkpt lat="45.89008" lon="3.04257">
        <ele>550.8</ele>
        <time>2021-01-02T13:01:17Z</time>
      </trkpt>
      <trkpt lat="45.89005" lon="3.04251">
        <ele>551.2</ele>
        <time>2021-01-02T13:01:20Z</time>
      </trkpt>
      <trkpt lat="45.89004" lon="3.04249">
        <ele>551.6</ele>
        <time>2021-01-02T13:01:21Z</time>
      </trkpt>
      <trkpt lat="45.89003" lon="3.04247">
        <ele>552.4</ele>
        <time>2021-01-02T13:01:22Z</time>
      </trkpt>
      <trkpt lat="45.89002" lon="3.04245">
        <ele>552.8</ele>
        <time>2021-01-02T13:01:23Z</time>
      </trkpt>
      <trkpt lat="45.89001" lon="3.04244">
        <ele>552.8</ele>
        <time>2021-01-02T13:01:24Z</time>
      </trkpt>
      <trkpt lat="45.88998" lon="3.04239">
        <ele>552.8</ele>
        <time>2021-01-02T13:01:28Z</time>
      </trkpt>
      <trkpt lat="45.88992" lon="3.04218">
        <ele>557</ele>
        <time>2021-01-02T13:02:13Z</time>
      </trkpt>
      <trkpt lat="45.88992" lon="3.04213">
        <ele>557</ele>
        <time>2021-01-02T13:02:16Z</time>
      </trkpt>
      <trkpt lat="45.88991" lon="3.04211">
        <ele>557</ele>
        <time>2021-01-02T13:02:17Z</time>
      </trkpt>
      <trkpt lat="45.88987" lon="3.04193">
        <ele>557.4</ele>
        <time>2021-01-02T13:02:25Z</time>
      </trkpt>
      <trkpt lat="45.88987" lon="3.04191">
        <ele>558</ele>
        <time>2021-01-02T13:02:26Z</time>
      </trkpt>
      <trkpt lat="45.88987" lon="3.04189">
        <ele>558.4</ele>
        <time>2021-01-02T13:02:27Z</time>
      </trkpt>
      <trkpt lat="45.88986" lon="3.04187">
        <ele>558.8</ele>
        <time>2021-01-02T13:02:28Z</time>
      </trkpt>
      <trkpt lat="45.88986" lon="3.04185">
        <ele>559.2</ele>
        <time>2021-01-02T13:02:29Z</time>
      </trkpt>
      <trkpt lat="45.88986" lon="3.0418">
        <ele>559.2</ele>
        <time>2021-01-02T13:02:32Z</time>
      </trkpt>
      <trkpt lat="45.88986" lon="3.04177">
        <ele>559.2</ele>
        <time>2021-01-02T13:02:34Z</time>
      </trkpt>
      <trkpt lat="45.88985" lon="3.04173">
        <ele>559.6</ele>
        <time>2021-01-02T13:02:36Z</time>
      </trkpt>
      <trkpt lat="45.88985" lon="3.04171">
        <ele>560</ele>
        <time>2021-01-02T13:02:37Z</time>
      </trkpt>
      <trkpt lat="45.88985" lon="3.0417">
        <ele>560.4</ele>
        <time>2021-01-02T13:02:38Z</time>
      </trkpt>
      <trkpt lat="45.88984" lon="3.04168">
        <ele>560.8</ele>
        <time>2021-01-02T13:02:39Z</time>
      </trkpt>
      <trkpt lat="45.88984" lon="3.04166">
        <ele>561.2</ele>
        <time>2021-01-02T13:02:40Z</time>
      </trkpt>
      <trkpt lat="45.88982" lon="3.04161">
        <ele>561.2</ele>
        <time>2021-01-02T13:02:43Z</time>
      </trkpt>
      <trkpt lat="45.88978" lon="3.04153">
        <ele>561.6</ele>
        <time>2021-01-02T13:02:47Z</time>
      </trkpt>
      <trkpt lat="45.88977" lon="3.04151">
        <ele>562</ele>
        <time>2021-01-02T13:02:48Z</time>
      </trkpt>
      <trkpt lat="45.88976" lon="3.04149">
        <ele>562.4</ele>
        <time>2021-01-02T13:02:49Z</time>
      </trkpt>
      <trkpt lat="45.88975" lon="3.04147">
        <ele>562.8</ele>
        <time>2021-01-02T13:02:50Z</time>
      </trkpt>
      <trkpt lat="45.88974" lon="3.04145">
        <ele>563.4</ele>
        <time>2021-01-02T13:02:51Z</time>
      </trkpt>
      <trkpt lat="45.88972" lon="3.04143">
        <ele>563.8</ele>
        <time>2021-01-02T13:02:53Z</time>
      </trkpt>
      <trkpt lat="45.88972" lon="3.04142">
        <ele>564.2</ele>
        <time>2021-01-02T13:02:54Z</time>
      </trkpt>
      <trkpt lat="45.88971" lon="3.0414">
        <ele>564.6</ele>
        <time>2021-01-02T13:02:55Z</time>
      </trkpt>
      <trkpt lat="45.88969" lon="3.04138">
        <ele>565</ele>
        <time>2021-01-02T13:02:56Z</time>
      </trkpt>
      <trkpt lat="45.88968" lon="3.04136">
        <ele>565.6</ele>
        <time>2021-01-02T13:02:57Z</time>
      </trkpt>
      <trkpt lat="45.88966" lon="3.04132">
        <ele>565.6</ele>
        <time>2021-01-02T13:02:59Z</time>
      </trkpt>
      <trkpt lat="45.88964" lon="3.04129">
        <ele>566.4</ele>
        <time>2021-01-02T13:03:01Z</time>
      </trkpt>
      <trkpt lat="45.88963" lon="3.04128">
        <ele>566.8</ele>
        <time>2021-01-02T13:03:02Z</time>
      </trkpt>
      <trkpt lat="45.88962" lon="3.04126">
        <ele>567.4</ele>
        <time>2021-01-02T13:03:03Z</time>
      </trkpt>
      <trkpt lat="45.88962" lon="3.04125">
        <ele>567.8</ele>
        <time>2021-01-02T13:03:04Z</time>
      </trkpt>
      <trkpt lat="45.88958" lon="3.04119">
        <ele>568.2</ele>
        <time>2021-01-02T13:03:08Z</time>
      </trkpt>
      <trkpt lat="45.88957" lon="3.04118">
        <ele>568.6</ele>
        <time>2021-01-02T13:03:09Z</time>
      </trkpt>
      <trkpt lat="45.88957" lon="3.04116">
        <ele>569.2</ele>
        <time>2021-01-02T13:03:10Z</time>
      </trkpt>
      <trkpt lat="45.88956" lon="3.04115">
        <ele>569.6</ele>
        <time>2021-01-02T13:03:11Z</time>
      </trkpt>
      <trkpt lat="45.88955" lon="3.04114">
        <ele>570</ele>
        <time>2021-01-02T13:03:12Z</time>
      </trkpt>
      <trkpt lat="45.88955" lon="3.04111">
        <ele>570</ele>
        <time>2021-01-02T13:03:15Z</time>
      </trkpt>
      <trkpt lat="45.88942" lon="3.0408">
        <ele>574.2</ele>
        <time>2021-01-02T13:04:00Z</time>
      </trkpt>
      <trkpt lat="45.88942" lon="3.04077">
        <ele>574.6</ele>
        <time>2021-01-02T13:04:02Z</time>
      </trkpt>
      <trkpt lat="45.88943" lon="3.04076">
        <ele>575</ele>
        <time>2021-01-02T13:04:03Z</time>
      </trkpt>
      <trkpt lat="45.88943" lon="3.04075">
        <ele>575.4</ele>
        <time>2021-01-02T13:04:04Z</time>
      </trkpt>
      <trkpt lat="45.88943" lon="3.04074">
        <ele>575.8</ele>
        <time>2021-01-02T13:04:05Z</time>
      </trkpt>
      <trkpt lat="45.88943" lon="3.04074">
        <ele>576.2</ele>
        <time>2021-01-02T13:04:06Z</time>
      </trkpt>
      <trkpt lat="45.88955" lon="3.04079">
        <ele>578.2</ele>
        <time>2021-01-02T13:04:35Z</time>
      </trkpt>
      <trkpt lat="45.88956" lon="3.0408">
        <ele>578.2</ele>
        <time>2021-01-02T13:04:36Z</time>
      </trkpt>
      <trkpt lat="45.88958" lon="3.04082">
        <ele>578.6</ele>
        <time>2021-01-02T13:04:38Z</time>
      </trkpt>
      <trkpt lat="45.88959" lon="3.04082">
        <ele>579.2</ele>
        <time>2021-01-02T13:04:39Z</time>
      </trkpt>
      <trkpt lat="45.8896" lon="3.04083">
        <ele>580</ele>
        <time>2021-01-02T13:04:40Z</time>
      </trkpt>
      <trkpt lat="45.88961" lon="3.04084">
        <ele>580.4</ele>
        <time>2021-01-02T13:04:41Z</time>
      </trkpt>
      <trkpt lat="45.88964" lon="3.04085">
        <ele>580.4</ele>
        <time>2021-01-02T13:04:44Z</time>
      </trkpt>
      <trkpt lat="45.88966" lon="3.04087">
        <ele>580.4</ele>
        <time>2021-01-02T13:04:46Z</time>
      </trkpt>
      <trkpt lat="45.88968" lon="3.04089">
        <ele>580.4</ele>
        <time>2021-01-02T13:04:49Z</time>
      </trkpt>
      <trkpt lat="45.8897" lon="3.04089">
        <ele>580.8</ele>
        <time>2021-01-02T13:04:50Z</time>
      </trkpt>
      <trkpt lat="45.88971" lon="3.04089">
        <ele>581.2</ele>
        <time>2021-01-02T13:04:51Z</time>
      </trkpt>
      <trkpt lat="45.88972" lon="3.0409">
        <ele>581.6</ele>
        <time>2021-01-02T13:04:52Z</time>
      </trkpt>
      <trkpt lat="45.88973" lon="3.0409">
        <ele>582</ele>
        <time>2021-01-02T13:04:53Z</time>
      </trkpt>
      <trkpt lat="45.88974" lon="3.0409">
        <ele>582.4</ele>
        <time>2021-01-02T13:04:54Z</time>
      </trkpt>
      <trkpt lat="45.88977" lon="3.0409">
        <ele>582.4</ele>
        <time>2021-01-02T13:04:56Z</time>
      </trkpt>
      <trkpt lat="45.88983" lon="3.04092">
        <ele>582.4</ele>
        <time>2021-01-02T13:05:02Z</time>
      </trkpt>
      <trkpt lat="45.8899" lon="3.04094">
        <ele>583</ele>
        <time>2021-01-02T13:05:08Z</time>
      </trkpt>
      <trkpt lat="45.88991" lon="3.04095">
        <ele>583.4</ele>
        <time>2021-01-02T13:05:09Z</time>
      </trkpt>
      <trkpt lat="45.88991" lon="3.04095">
        <ele>583.8</ele>
        <time>2021-01-02T13:05:10Z</time>
      </trkpt>
      <trkpt lat="45.89" lon="3.04099">
        <ele>585.8</ele>
        <time>2021-01-02T13:05:23Z</time>
      </trkpt>
      <trkpt lat="45.89002" lon="3.041">
        <ele>586.2</ele>
        <time>2021-01-02T13:05:24Z</time>
      </trkpt>
      <trkpt lat="45.89003" lon="3.041">
        <ele>586.6</ele>
        <time>2021-01-02T13:05:25Z</time>
      </trkpt>
      <trkpt lat="45.89009" lon="3.04103">
        <ele>587</ele>
        <time>2021-01-02T13:05:30Z</time>
      </trkpt>
      <trkpt lat="45.8901" lon="3.04103">
        <ele>587.4</ele>
        <time>2021-01-02T13:05:31Z</time>
      </trkpt>
      <trkpt lat="45.89011" lon="3.04102">
        <ele>588</ele>
        <time>2021-01-02T13:05:32Z</time>
      </trkpt>
      <trkpt lat="45.89013" lon="3.04101">
        <ele>588.4</ele>
        <time>2021-01-02T13:05:33Z</time>
      </trkpt>
      <trkpt lat="45.89015" lon="3.04101">
        <ele>588.8</ele>
        <time>2021-01-02T13:05:34Z</time>
      </trkpt>
      <trkpt lat="45.89017" lon="3.04093">
        <ele>589.2</ele>
        <time>2021-01-02T13:05:39Z</time>
      </trkpt>
      <trkpt lat="45.89017" lon="3.04092">
        <ele>589.8</ele>
        <time>2021-01-02T13:05:40Z</time>
      </trkpt>
      <trkpt lat="45.89017" lon="3.04091">
        <ele>590.2</ele>
        <time>2021-01-02T13:05:41Z</time>
      </trkpt>
      <trkpt lat="45.89017" lon="3.04091">
        <ele>590.6</ele>
        <time>2021-01-02T13:05:42Z</time>
      </trkpt>
      <trkpt lat="45.89016" lon="3.0409">
        <ele>591</ele>
        <time>2021-01-02T13:05:43Z</time>
      </trkpt>
      <trkpt lat="45.89015" lon="3.04085">
        <ele>591</ele>
        <time>2021-01-02T13:05:46Z</time>
      </trkpt>
      <trkpt lat="45.89013" lon="3.04081">
        <ele>591.4</ele>
        <time>2021-01-02T13:05:49Z</time>
      </trkpt>
      <trkpt lat="45.89012" lon="3.0408">
        <ele>591.8</ele>
        <time>2021-01-02T13:05:50Z</time>
      </trkpt>
      <trkpt lat="45.89012" lon="3.04078">
        <ele>592.2</ele>
        <time>2021-01-02T13:05:51Z</time>
      </trkpt>
      <trkpt lat="45.89012" lon="3.04077">
        <ele>592.6</ele>
        <time>2021-01-02T13:05:52Z</time>
      </trkpt>
      <trkpt lat="45.89011" lon="3.04075">
        <ele>593</ele>
        <time>2021-01-02T13:05:53Z</time>
      </trkpt>
      <trkpt lat="45.89008" lon="3.04069">
        <ele>593</ele>
        <time>2021-01-02T13:05:58Z</time>
      </trkpt>
      <trkpt lat="45.89005" lon="3.04062">
        <ele>593</ele>
        <time>2021-01-02T13:06:02Z</time>
      </trkpt>
      <trkpt lat="45.89004" lon="3.04059">
        <ele>593</ele>
        <time>2021-01-02T13:06:04Z</time>
      </trkpt>
      <trkpt lat="45.89005" lon="3.04055">
        <ele>593.4</ele>
        <time>2021-01-02T13:06:06Z</time>
      </trkpt>
      <trkpt lat="45.89006" lon="3.04053">
        <ele>593.8</ele>
        <time>2021-01-02T13:06:07Z</time>
      </trkpt>
      <trkpt lat="45.89006" lon="3.04051">
        <ele>594.4</ele>
        <time>2021-01-02T13:06:08Z</time>
      </trkpt>
      <trkpt lat="45.89007" lon="3.04049">
        <ele>594.8</ele>
        <time>2021-01-02T13:06:09Z</time>
      </trkpt>
      <trkpt lat="45.89008" lon="3.04047">
        <ele>595.2</ele>
        <time>2021-01-02T13:06:10Z</time>
      </trkpt>
      <trkpt lat="45.89008" lon="3.04046">
        <ele>595.2</ele>
        <time>2021-01-02T13:06:11Z</time>
      </trkpt>
      <trkpt lat="45.89011" lon="3.04036">
        <ele>595.2</ele>
        <time>2021-01-02T13:06:18Z</time>
      </trkpt>
      <trkpt lat="45.89015" lon="3.0402">
        <ele>595.2</ele>
        <time>2021-01-02T13:06:26Z</time>
      </trkpt>
      <trkpt lat="45.89017" lon="3.04016">
        <ele>595.6</ele>
        <time>2021-01-02T13:06:28Z</time>
      </trkpt>
      <trkpt lat="45.89018" lon="3.04015">
        <ele>596</ele>
        <time>2021-01-02T13:06:29Z</time>
      </trkpt>
      <trkpt lat="45.89019" lon="3.04013">
        <ele>596.4</ele>
        <time>2021-01-02T13:06:30Z</time>
      </trkpt>
      <trkpt lat="45.8902" lon="3.04012">
        <ele>596.8</ele>
        <time>2021-01-02T13:06:31Z</time>
      </trkpt>
      <trkpt lat="45.89021" lon="3.0401">
        <ele>597.2</ele>
        <time>2021-01-02T13:06:32Z</time>
      </trkpt>
      <trkpt lat="45.89022" lon="3.04008">
        <ele>597.2</ele>
        <time>2021-01-02T13:06:34Z</time>
      </trkpt>
      <trkpt lat="45.89023" lon="3.04003">
        <ele>597.2</ele>
        <time>2021-01-02T13:06:37Z</time>
      </trkpt>
      <trkpt lat="45.89026" lon="3.03998">
        <ele>597.2</ele>
        <time>2021-01-02T13:06:40Z</time>
      </trkpt>
      <trkpt lat="45.89026" lon="3.03997">
        <ele>597.2</ele>
        <time>2021-01-02T13:06:42Z</time>
      </trkpt>
      <trkpt lat="45.89028" lon="3.03993">
        <ele>599.2</ele>
        <time>2021-01-02T13:07:54Z</time>
      </trkpt>
      <trkpt lat="45.89029" lon="3.03991">
        <ele>599.2</ele>
        <time>2021-01-02T13:07:55Z</time>
      </trkpt>
      <trkpt lat="45.89035" lon="3.03985">
        <ele>599.2</ele>
        <time>2021-01-02T13:07:59Z</time>
      </trkpt>
      <trkpt lat="45.89037" lon="3.03983">
        <ele>599.2</ele>
        <time>2021-01-02T13:08:00Z</time>
      </trkpt>
      <trkpt lat="45.89046" lon="3.03976">
        <ele>599.2</ele>
        <time>2021-01-02T13:08:06Z</time>
      </trkpt>
      <trkpt lat="45.89058" lon="3.0397">
        <ele>599.2</ele>
        <time>2021-01-02T13:08:12Z</time>
      </trkpt>
      <trkpt lat="45.89065" lon="3.03962">
        <ele>599.8</ele>
        <time>2021-01-02T13:08:17Z</time>
      </trkpt>
      <trkpt lat="45.89066" lon="3.0396">
        <ele>600.2</ele>
        <time>2021-01-02T13:08:18Z</time>
      </trkpt>
      <trkpt lat="45.89068" lon="3.03959">
        <ele>600.6</ele>
        <time>2021-01-02T13:08:19Z</time>
      </trkpt>
      <trkpt lat="45.89069" lon="3.03958">
        <ele>601</ele>
        <time>2021-01-02T13:08:20Z</time>
      </trkpt>
      <trkpt lat="45.8907" lon="3.03958">
        <ele>601.4</ele>
        <time>2021-01-02T13:08:21Z</time>
      </trkpt>
      <trkpt lat="45.89074" lon="3.03958">
        <ele>601.4</ele>
        <time>2021-01-02T13:08:23Z</time>
      </trkpt>
      <trkpt lat="45.89087" lon="3.03959">
        <ele>601.4</ele>
        <time>2021-01-02T13:08:29Z</time>
      </trkpt>
      <trkpt lat="45.891" lon="3.03959">
        <ele>601.8</ele>
        <time>2021-01-02T13:08:35Z</time>
      </trkpt>
      <trkpt lat="45.89101" lon="3.03959">
        <ele>602.2</ele>
        <time>2021-01-02T13:08:36Z</time>
      </trkpt>
      <trkpt lat="45.89103" lon="3.03958">
        <ele>602.8</ele>
        <time>2021-01-02T13:08:37Z</time>
      </trkpt>
      <trkpt lat="45.89105" lon="3.03957">
        <ele>603.2</ele>
        <time>2021-01-02T13:08:38Z</time>
      </trkpt>
      <trkpt lat="45.89107" lon="3.03955">
        <ele>603.6</ele>
        <time>2021-01-02T13:08:39Z</time>
      </trkpt>
      <trkpt lat="45.89112" lon="3.03952">
        <ele>603.6</ele>
        <time>2021-01-02T13:08:42Z</time>
      </trkpt>
      <trkpt lat="45.89121" lon="3.03948">
        <ele>603.6</ele>
        <time>2021-01-02T13:08:48Z</time>
      </trkpt>
      <trkpt lat="45.89128" lon="3.03943">
        <ele>604</ele>
        <time>2021-01-02T13:08:52Z</time>
      </trkpt>
      <trkpt lat="45.8913" lon="3.03943">
        <ele>604.4</ele>
        <time>2021-01-02T13:08:53Z</time>
      </trkpt>
      <trkpt lat="45.89132" lon="3.03942">
        <ele>604.8</ele>
        <time>2021-01-02T13:08:54Z</time>
      </trkpt>
      <trkpt lat="45.89133" lon="3.03942">
        <ele>605.2</ele>
        <time>2021-01-02T13:08:55Z</time>
      </trkpt>
      <trkpt lat="45.89135" lon="3.03941">
        <ele>605.6</ele>
        <time>2021-01-02T13:08:56Z</time>
      </trkpt>
      <trkpt lat="45.89141" lon="3.0394">
        <ele>605.6</ele>
        <time>2021-01-02T13:09:00Z</time>
      </trkpt>
      <trkpt lat="45.89148" lon="3.0394">
        <ele>606</ele>
        <time>2021-01-02T13:09:04Z</time>
      </trkpt>
      <trkpt lat="45.8915" lon="3.0394">
        <ele>606.4</ele>
        <time>2021-01-02T13:09:05Z</time>
      </trkpt>
      <trkpt lat="45.89151" lon="3.03939">
        <ele>606.8</ele>
        <time>2021-01-02T13:09:06Z</time>
      </trkpt>
      <trkpt lat="45.89153" lon="3.03939">
        <ele>607.2</ele>
        <time>2021-01-02T13:09:07Z</time>
      </trkpt>
      <trkpt lat="45.89155" lon="3.03938">
        <ele>607.6</ele>
        <time>2021-01-02T13:09:08Z</time>
      </trkpt>
      <trkpt lat="45.8916" lon="3.03937">
        <ele>607.6</ele>
        <time>2021-01-02T13:09:11Z</time>
      </trkpt>
      <trkpt lat="45.89165" lon="3.03934">
        <ele>607.6</ele>
        <time>2021-01-02T13:09:14Z</time>
      </trkpt>
      <trkpt lat="45.89173" lon="3.03931">
        <ele>608.2</ele>
        <time>2021-01-02T13:09:18Z</time>
      </trkpt>
      <trkpt lat="45.89174" lon="3.0393">
        <ele>608.6</ele>
        <time>2021-01-02T13:09:19Z</time>
      </trkpt>
      <trkpt lat="45.89175" lon="3.03929">
        <ele>609</ele>
        <time>2021-01-02T13:09:20Z</time>
      </trkpt>
      <trkpt lat="45.89176" lon="3.03926">
        <ele>609.4</ele>
        <time>2021-01-02T13:09:21Z</time>
      </trkpt>
      <trkpt lat="45.89177" lon="3.03923">
        <ele>609.8</ele>
        <time>2021-01-02T13:09:22Z</time>
      </trkpt>
      <trkpt lat="45.89179" lon="3.03914">
        <ele>609.8</ele>
        <time>2021-01-02T13:09:25Z</time>
      </trkpt>
      <trkpt lat="45.89181" lon="3.03901">
        <ele>609.8</ele>
        <time>2021-01-02T13:09:30Z</time>
      </trkpt>
      <trkpt lat="45.89184" lon="3.03892">
        <ele>610.2</ele>
        <time>2021-01-02T13:09:34Z</time>
      </trkpt>
      <trkpt lat="45.89185" lon="3.0389">
        <ele>611</ele>
        <time>2021-01-02T13:09:35Z</time>
      </trkpt>
      <trkpt lat="45.89186" lon="3.03888">
        <ele>611.4</ele>
        <time>2021-01-02T13:09:36Z</time>
      </trkpt>
      <trkpt lat="45.89187" lon="3.03885">
        <ele>611.8</ele>
        <time>2021-01-02T13:09:37Z</time>
      </trkpt>
      <trkpt lat="45.89188" lon="3.03877">
        <ele>611.8</ele>
        <time>2021-01-02T13:09:41Z</time>
      </trkpt>
      <trkpt lat="45.89187" lon="3.0386">
        <ele>612.2</ele>
        <time>2021-01-02T13:09:47Z</time>
      </trkpt>
      <trkpt lat="45.89187" lon="3.03857">
        <ele>612.6</ele>
        <time>2021-01-02T13:09:48Z</time>
      </trkpt>
      <trkpt lat="45.89186" lon="3.03853">
        <ele>613</ele>
        <time>2021-01-02T13:09:49Z</time>
      </trkpt>
      <trkpt lat="45.89186" lon="3.03851">
        <ele>613.6</ele>
        <time>2021-01-02T13:09:50Z</time>
      </trkpt>
      <trkpt lat="45.89186" lon="3.03848">
        <ele>614</ele>
        <time>2021-01-02T13:09:51Z</time>
      </trkpt>
      <trkpt lat="45.89185" lon="3.03845">
        <ele>614</ele>
        <time>2021-01-02T13:09:52Z</time>
      </trkpt>
      <trkpt lat="45.89185" lon="3.03831">
        <ele>614</ele>
        <time>2021-01-02T13:09:58Z</time>
      </trkpt>
      <trkpt lat="45.89184" lon="3.03828">
        <ele>614</ele>
        <time>2021-01-02T13:10:00Z</time>
      </trkpt>
      <trkpt lat="45.89183" lon="3.03824">
        <ele>614</ele>
        <time>2021-01-02T13:10:02Z</time>
      </trkpt>
      <trkpt lat="45.89181" lon="3.03814">
        <ele>614.4</ele>
        <time>2021-01-02T13:10:06Z</time>
      </trkpt>
      <trkpt lat="45.8918" lon="3.03811">
        <ele>614.8</ele>
        <time>2021-01-02T13:10:07Z</time>
      </trkpt>
      <trkpt lat="45.8918" lon="3.03808">
        <ele>615.2</ele>
        <time>2021-01-02T13:10:08Z</time>
      </trkpt>
      <trkpt lat="45.8918" lon="3.03807">
        <ele>615.6</ele>
        <time>2021-01-02T13:10:09Z</time>
      </trkpt>
      <trkpt lat="45.89179" lon="3.03805">
        <ele>616</ele>
        <time>2021-01-02T13:10:10Z</time>
      </trkpt>
      <trkpt lat="45.89177" lon="3.03799">
        <ele>616</ele>
        <time>2021-01-02T13:10:13Z</time>
      </trkpt>
      <trkpt lat="45.89176" lon="3.03796">
        <ele>616</ele>
        <time>2021-01-02T13:10:14Z</time>
      </trkpt>
      <trkpt lat="45.89172" lon="3.03787">
        <ele>616</ele>
        <time>2021-01-02T13:10:18Z</time>
      </trkpt>
      <trkpt lat="45.89171" lon="3.03783">
        <ele>616</ele>
        <time>2021-01-02T13:10:19Z</time>
      </trkpt>
      <trkpt lat="45.89166" lon="3.03773">
        <ele>616.8</ele>
        <time>2021-01-02T13:10:24Z</time>
      </trkpt>
      <trkpt lat="45.89165" lon="3.03771">
        <ele>617.2</ele>
        <time>2021-01-02T13:10:25Z</time>
      </trkpt>
      <trkpt lat="45.89164" lon="3.0377">
        <ele>617.6</ele>
        <time>2021-01-02T13:10:26Z</time>
      </trkpt>
      <trkpt lat="45.89162" lon="3.03768">
        <ele>618</ele>
        <time>2021-01-02T13:10:27Z</time>
      </trkpt>
      <trkpt lat="45.89158" lon="3.0376">
        <ele>618</ele>
        <time>2021-01-02T13:10:32Z</time>
      </trkpt>
      <trkpt lat="45.89154" lon="3.03752">
        <ele>618</ele>
        <time>2021-01-02T13:10:36Z</time>
      </trkpt>
      <trkpt lat="45.89152" lon="3.03745">
        <ele>618</ele>
        <time>2021-01-02T13:10:39Z</time>
      </trkpt>
      <trkpt lat="45.89151" lon="3.03742">
        <ele>618.4</ele>
        <time>2021-01-02T13:10:41Z</time>
      </trkpt>
      <trkpt lat="45.89152" lon="3.03739">
        <ele>618.8</ele>
        <time>2021-01-02T13:10:42Z</time>
      </trkpt>
      <trkpt lat="45.89152" lon="3.03738">
        <ele>619.2</ele>
        <time>2021-01-02T13:10:43Z</time>
      </trkpt>
      <trkpt lat="45.89153" lon="3.03736">
        <ele>619.6</ele>
        <time>2021-01-02T13:10:44Z</time>
      </trkpt>
      <trkpt lat="45.89153" lon="3.03733">
        <ele>620</ele>
        <time>2021-01-02T13:10:45Z</time>
      </trkpt>
      <trkpt lat="45.89157" lon="3.03723">
        <ele>620</ele>
        <time>2021-01-02T13:10:50Z</time>
      </trkpt>
      <trkpt lat="45.89161" lon="3.03709">
        <ele>620</ele>
        <time>2021-01-02T13:10:56Z</time>
      </trkpt>
      <trkpt lat="45.8917" lon="3.037">
        <ele>620</ele>
        <time>2021-01-02T13:11:03Z</time>
      </trkpt>
      <trkpt lat="45.89174" lon="3.037">
        <ele>620.4</ele>
        <time>2021-01-02T13:11:05Z</time>
      </trkpt>
      <trkpt lat="45.89176" lon="3.037">
        <ele>620.8</ele>
        <time>2021-01-02T13:11:06Z</time>
      </trkpt>
      <trkpt lat="45.89177" lon="3.03701">
        <ele>621.2</ele>
        <time>2021-01-02T13:11:07Z</time>
      </trkpt>
      <trkpt lat="45.89178" lon="3.03701">
        <ele>621.6</ele>
        <time>2021-01-02T13:11:08Z</time>
      </trkpt>
      <trkpt lat="45.8918" lon="3.03701">
        <ele>622</ele>
        <time>2021-01-02T13:11:09Z</time>
      </trkpt>
      <trkpt lat="45.89188" lon="3.03702">
        <ele>622</ele>
        <time>2021-01-02T13:11:14Z</time>
      </trkpt>
      <trkpt lat="45.8919" lon="3.03703">
        <ele>622.4</ele>
        <time>2021-01-02T13:11:15Z</time>
      </trkpt>
      <trkpt lat="45.89192" lon="3.03703">
        <ele>623</ele>
        <time>2021-01-02T13:11:16Z</time>
      </trkpt>
      <trkpt lat="45.89193" lon="3.03704">
        <ele>623.4</ele>
        <time>2021-01-02T13:11:17Z</time>
      </trkpt>
      <trkpt lat="45.89194" lon="3.03705">
        <ele>623.8</ele>
        <time>2021-01-02T13:11:18Z</time>
      </trkpt>
      <trkpt lat="45.89196" lon="3.03706">
        <ele>624.2</ele>
        <time>2021-01-02T13:11:19Z</time>
      </trkpt>
      <trkpt lat="45.89198" lon="3.03707">
        <ele>624.2</ele>
        <time>2021-01-02T13:11:20Z</time>
      </trkpt>
      <trkpt lat="45.89206" lon="3.03713">
        <ele>624.2</ele>
        <time>2021-01-02T13:11:25Z</time>
      </trkpt>
      <trkpt lat="45.89207" lon="3.03716">
        <ele>624.2</ele>
        <time>2021-01-02T13:11:27Z</time>
      </trkpt>
      <trkpt lat="45.89209" lon="3.03721">
        <ele>624.2</ele>
        <time>2021-01-02T13:11:30Z</time>
      </trkpt>
      <trkpt lat="45.89213" lon="3.03726">
        <ele>624.2</ele>
        <time>2021-01-02T13:11:34Z</time>
      </trkpt>
      <trkpt lat="45.89219" lon="3.03731">
        <ele>625</ele>
        <time>2021-01-02T13:11:38Z</time>
      </trkpt>
      <trkpt lat="45.8922" lon="3.03732">
        <ele>625.4</ele>
        <time>2021-01-02T13:11:39Z</time>
      </trkpt>
      <trkpt lat="45.89221" lon="3.03733">
        <ele>625.8</ele>
        <time>2021-01-02T13:11:40Z</time>
      </trkpt>
      <trkpt lat="45.89223" lon="3.03734">
        <ele>626.2</ele>
        <time>2021-01-02T13:11:41Z</time>
      </trkpt>
      <trkpt lat="45.89228" lon="3.03737">
        <ele>626.2</ele>
        <time>2021-01-02T13:11:45Z</time>
      </trkpt>
      <trkpt lat="45.8923" lon="3.03739">
        <ele>626.2</ele>
        <time>2021-01-02T13:11:46Z</time>
      </trkpt>
      <trkpt lat="45.89231" lon="3.03744">
        <ele>626.6</ele>
        <time>2021-01-02T13:11:50Z</time>
      </trkpt>
      <trkpt lat="45.89232" lon="3.03745">
        <ele>627</ele>
        <time>2021-01-02T13:11:51Z</time>
      </trkpt>
      <trkpt lat="45.89233" lon="3.03745">
        <ele>627.4</ele>
        <time>2021-01-02T13:11:52Z</time>
      </trkpt>
      <trkpt lat="45.89246" lon="3.03758">
        <ele>629</ele>
        <time>2021-01-02T13:12:04Z</time>
      </trkpt>
      <trkpt lat="45.89247" lon="3.03759">
        <ele>629.6</ele>
        <time>2021-01-02T13:12:05Z</time>
      </trkpt>
      <trkpt lat="45.89248" lon="3.0376">
        <ele>630</ele>
        <time>2021-01-02T13:12:06Z</time>
      </trkpt>
      <trkpt lat="45.89249" lon="3.0376">
        <ele>630.4</ele>
        <time>2021-01-02T13:12:07Z</time>
      </trkpt>
      <trkpt lat="45.8925" lon="3.0376">
        <ele>630.4</ele>
        <time>2021-01-02T13:12:08Z</time>
      </trkpt>
      <trkpt lat="45.89252" lon="3.0376">
        <ele>630.8</ele>
        <time>2021-01-02T13:12:10Z</time>
      </trkpt>
      <trkpt lat="45.89253" lon="3.03761">
        <ele>631.2</ele>
        <time>2021-01-02T13:12:11Z</time>
      </trkpt>
      <trkpt lat="45.89253" lon="3.03761">
        <ele>631.6</ele>
        <time>2021-01-02T13:12:12Z</time>
      </trkpt>
      <trkpt lat="45.89309" lon="3.03749">
        <ele>646.8</ele>
        <time>2021-01-02T13:16:24Z</time>
      </trkpt>
      <trkpt lat="45.89309" lon="3.03743">
        <ele>646.8</ele>
        <time>2021-01-02T13:16:26Z</time>
      </trkpt>
      <trkpt lat="45.89311" lon="3.03727">
        <ele>646.8</ele>
        <time>2021-01-02T13:16:31Z</time>
      </trkpt>
      <trkpt lat="45.89312" lon="3.03713">
        <ele>646.8</ele>
        <time>2021-01-02T13:16:35Z</time>
      </trkpt>
      <trkpt lat="45.89311" lon="3.03709">
        <ele>646.8</ele>
        <time>2021-01-02T13:16:36Z</time>
      </trkpt>
      <trkpt lat="45.89307" lon="3.03691">
        <ele>646.8</ele>
        <time>2021-01-02T13:16:41Z</time>
      </trkpt>
      <trkpt lat="45.89306" lon="3.03687">
        <ele>646.8</ele>
        <time>2021-01-02T13:16:42Z</time>
      </trkpt>
      <trkpt lat="45.89304" lon="3.0367">
        <ele>646.8</ele>
        <time>2021-01-02T13:16:46Z</time>
      </trkpt>
      <trkpt lat="45.89303" lon="3.03649">
        <ele>646.8</ele>
        <time>2021-01-02T13:16:52Z</time>
      </trkpt>
      <trkpt lat="45.89303" lon="3.03632">
        <ele>646.8</ele>
        <time>2021-01-02T13:16:57Z</time>
      </trkpt>
      <trkpt lat="45.89303" lon="3.03611">
        <ele>646.8</ele>
        <time>2021-01-02T13:17:03Z</time>
      </trkpt>
      <trkpt lat="45.89303" lon="3.03609">
        <ele>647.2</ele>
        <time>2021-01-02T13:17:04Z</time>
      </trkpt>
      <trkpt lat="45.89304" lon="3.03607">
        <ele>647.6</ele>
        <time>2021-01-02T13:17:05Z</time>
      </trkpt>
      <trkpt lat="45.89303" lon="3.03605">
        <ele>648</ele>
        <time>2021-01-02T13:17:06Z</time>
      </trkpt>
      <trkpt lat="45.89303" lon="3.03602">
        <ele>648.4</ele>
        <time>2021-01-02T13:17:07Z</time>
      </trkpt>
      <trkpt lat="45.89303" lon="3.036">
        <ele>648.8</ele>
        <time>2021-01-02T13:17:08Z</time>
      </trkpt>
      <trkpt lat="45.89303" lon="3.03597">
        <ele>648.8</ele>
        <time>2021-01-02T13:17:09Z</time>
      </trkpt>
      <trkpt lat="45.89299" lon="3.03583">
        <ele>648.8</ele>
        <time>2021-01-02T13:17:15Z</time>
      </trkpt>
      <trkpt lat="45.89299" lon="3.03581">
        <ele>648.4</ele>
        <time>2021-01-02T13:17:16Z</time>
      </trkpt>
      <trkpt lat="45.89298" lon="3.03579">
        <ele>648</ele>
        <time>2021-01-02T13:17:17Z</time>
      </trkpt>
      <trkpt lat="45.89298" lon="3.03577">
        <ele>647.6</ele>
        <time>2021-01-02T13:17:18Z</time>
      </trkpt>
      <trkpt lat="45.89297" lon="3.03575">
        <ele>647.2</ele>
        <time>2021-01-02T13:17:19Z</time>
      </trkpt>
      <trkpt lat="45.89295" lon="3.03571">
        <ele>646.8</ele>
        <time>2021-01-02T13:17:20Z</time>
      </trkpt>
      <trkpt lat="45.89289" lon="3.03553">
        <ele>646.8</ele>
        <time>2021-01-02T13:17:25Z</time>
      </trkpt>
      <trkpt lat="45.89285" lon="3.03531">
        <ele>646.8</ele>
        <time>2021-01-02T13:17:32Z</time>
      </trkpt>
      <trkpt lat="45.89279" lon="3.03505">
        <ele>646.8</ele>
        <time>2021-01-02T13:17:39Z</time>
      </trkpt>
      <trkpt lat="45.89279" lon="3.03482">
        <ele>646.8</ele>
        <time>2021-01-02T13:17:45Z</time>
      </trkpt>
      <trkpt lat="45.89277" lon="3.03461">
        <ele>646.8</ele>
        <time>2021-01-02T13:17:50Z</time>
      </trkpt>
      <trkpt lat="45.89276" lon="3.03449">
        <ele>646.8</ele>
        <time>2021-01-02T13:17:54Z</time>
      </trkpt>
      <trkpt lat="45.89275" lon="3.03445">
        <ele>646.8</ele>
        <time>2021-01-02T13:17:55Z</time>
      </trkpt>
      <trkpt lat="45.89275" lon="3.03442">
        <ele>647.2</ele>
        <time>2021-01-02T13:17:56Z</time>
      </trkpt>
      <trkpt lat="45.89275" lon="3.03439">
        <ele>647.6</ele>
        <time>2021-01-02T13:17:57Z</time>
      </trkpt>
      <trkpt lat="45.89276" lon="3.03437">
        <ele>648</ele>
        <time>2021-01-02T13:17:58Z</time>
      </trkpt>
      <trkpt lat="45.89275" lon="3.03435">
        <ele>648.6</ele>
        <time>2021-01-02T13:17:59Z</time>
      </trkpt>
      <trkpt lat="45.89274" lon="3.03432">
        <ele>649</ele>
        <time>2021-01-02T13:18:00Z</time>
      </trkpt>
      <trkpt lat="45.89275" lon="3.03429">
        <ele>649</ele>
        <time>2021-01-02T13:18:02Z</time>
      </trkpt>
      <trkpt lat="45.89278" lon="3.03429">
        <ele>649.4</ele>
        <time>2021-01-02T13:18:05Z</time>
      </trkpt>
      <trkpt lat="45.89279" lon="3.03429">
        <ele>649.8</ele>
        <time>2021-01-02T13:18:06Z</time>
      </trkpt>
      <trkpt lat="45.89279" lon="3.03429">
        <ele>650.2</ele>
        <time>2021-01-02T13:18:07Z</time>
      </trkpt>
      <trkpt lat="45.89281" lon="3.03432">
        <ele>651</ele>
        <time>2021-01-02T13:18:11Z</time>
      </trkpt>
      <trkpt lat="45.89282" lon="3.03433">
        <ele>651</ele>
        <time>2021-01-02T13:18:12Z</time>
      </trkpt>
      <trkpt lat="45.89284" lon="3.03433">
        <ele>651</ele>
        <time>2021-01-02T13:18:13Z</time>
      </trkpt>
      <trkpt lat="45.89284" lon="3.03434">
        <ele>651.6</ele>
        <time>2021-01-02T13:18:14Z</time>
      </trkpt>
      <trkpt lat="45.89285" lon="3.03434">
        <ele>652</ele>
        <time>2021-01-02T13:18:15Z</time>
      </trkpt>
      <trkpt lat="45.89287" lon="3.03434">
        <ele>652.4</ele>
        <time>2021-01-02T13:18:16Z</time>
      </trkpt>
      <trkpt lat="45.89287" lon="3.03435">
        <ele>652.8</ele>
        <time>2021-01-02T13:18:17Z</time>
      </trkpt>
      <trkpt lat="45.89289" lon="3.03437">
        <ele>653.2</ele>
        <time>2021-01-02T13:18:18Z</time>
      </trkpt>
      <trkpt lat="45.89291" lon="3.03437">
        <ele>653.2</ele>
        <time>2021-01-02T13:18:19Z</time>
      </trkpt>
      <trkpt lat="45.89291" lon="3.03438">
        <ele>653.2</ele>
        <time>2021-01-02T13:18:20Z</time>
      </trkpt>
      <trkpt lat="45.89291" lon="3.03437">
        <ele>653.6</ele>
        <time>2021-01-02T13:18:21Z</time>
      </trkpt>
      <trkpt lat="45.89292" lon="3.03437">
        <ele>654</ele>
        <time>2021-01-02T13:18:22Z</time>
      </trkpt>
      <trkpt lat="45.89293" lon="3.03437">
        <ele>654.4</ele>
        <time>2021-01-02T13:18:23Z</time>
      </trkpt>
      <trkpt lat="45.89295" lon="3.03436">
        <ele>655</ele>
        <time>2021-01-02T13:18:24Z</time>
      </trkpt>
      <trkpt lat="45.89296" lon="3.03435">
        <ele>655.4</ele>
        <time>2021-01-02T13:18:25Z</time>
      </trkpt>
      <trkpt lat="45.89298" lon="3.03435">
        <ele>655.4</ele>
        <time>2021-01-02T13:18:26Z</time>
      </trkpt>
      <trkpt lat="45.89301" lon="3.03434">
        <ele>655.8</ele>
        <time>2021-01-02T13:18:28Z</time>
      </trkpt>
      <trkpt lat="45.89303" lon="3.03434">
        <ele>656.2</ele>
        <time>2021-01-02T13:18:29Z</time>
      </trkpt>
      <trkpt lat="45.89304" lon="3.03435">
        <ele>656.8</ele>
        <time>2021-01-02T13:18:30Z</time>
      </trkpt>
      <trkpt lat="45.89305" lon="3.03434">
        <ele>657.2</ele>
        <time>2021-01-02T13:18:31Z</time>
      </trkpt>
      <trkpt lat="45.89306" lon="3.03434">
        <ele>657.6</ele>
        <time>2021-01-02T13:18:32Z</time>
      </trkpt>
      <trkpt lat="45.89313" lon="3.03431">
        <ele>657.6</ele>
        <time>2021-01-02T13:18:38Z</time>
      </trkpt>
      <trkpt lat="45.89315" lon="3.0343">
        <ele>658</ele>
        <time>2021-01-02T13:18:39Z</time>
      </trkpt>
      <trkpt lat="45.89316" lon="3.03428">
        <ele>658.6</ele>
        <time>2021-01-02T13:18:40Z</time>
      </trkpt>
      <trkpt lat="45.89318" lon="3.03428">
        <ele>659</ele>
        <time>2021-01-02T13:18:41Z</time>
      </trkpt>
      <trkpt lat="45.89319" lon="3.03427">
        <ele>659.4</ele>
        <time>2021-01-02T13:18:42Z</time>
      </trkpt>
      <trkpt lat="45.89321" lon="3.03427">
        <ele>659.8</ele>
        <time>2021-01-02T13:18:43Z</time>
      </trkpt>
      <trkpt lat="45.89325" lon="3.03427">
        <ele>659.8</ele>
        <time>2021-01-02T13:18:46Z</time>
      </trkpt>
      <trkpt lat="45.89337" lon="3.03434">
        <ele>659.8</ele>
        <time>2021-01-02T13:18:51Z</time>
      </trkpt>
      <trkpt lat="45.8934" lon="3.03433">
        <ele>659.8</ele>
        <time>2021-01-02T13:18:52Z</time>
      </trkpt>
      <trkpt lat="45.89348" lon="3.03429">
        <ele>659.4</ele>
        <time>2021-01-02T13:18:54Z</time>
      </trkpt>
      <trkpt lat="45.89352" lon="3.03425">
        <ele>659</ele>
        <time>2021-01-02T13:18:55Z</time>
      </trkpt>
      <trkpt lat="45.89356" lon="3.0342">
        <ele>658.4</ele>
        <time>2021-01-02T13:18:56Z</time>
      </trkpt>
      <trkpt lat="45.8936" lon="3.03414">
        <ele>657.6</ele>
        <time>2021-01-02T13:18:57Z</time>
      </trkpt>
      <trkpt lat="45.89364" lon="3.03409">
        <ele>656.8</ele>
        <time>2021-01-02T13:18:58Z</time>
      </trkpt>
      <trkpt lat="45.89368" lon="3.03405">
        <ele>656</ele>
        <time>2021-01-02T13:18:59Z</time>
      </trkpt>
      <trkpt lat="45.89372" lon="3.03403">
        <ele>655.2</ele>
        <time>2021-01-02T13:19:00Z</time>
      </trkpt>
      <trkpt lat="45.89375" lon="3.03404">
        <ele>654.4</ele>
        <time>2021-01-02T13:19:01Z</time>
      </trkpt>
      <trkpt lat="45.89377" lon="3.03405">
        <ele>653.4</ele>
        <time>2021-01-02T13:19:02Z</time>
      </trkpt>
      <trkpt lat="45.8938" lon="3.03408">
        <ele>653.4</ele>
        <time>2021-01-02T13:19:04Z</time>
      </trkpt>
      <trkpt lat="45.89381" lon="3.0341">
        <ele>653.4</ele>
        <time>2021-01-02T13:19:05Z</time>
      </trkpt>
      <trkpt lat="45.89381" lon="3.03415">
        <ele>653.4</ele>
        <time>2021-01-02T13:19:07Z</time>
      </trkpt>
      <trkpt lat="45.89381" lon="3.03419">
        <ele>653.4</ele>
        <time>2021-01-02T13:19:10Z</time>
      </trkpt>
      <trkpt lat="45.89382" lon="3.03421">
        <ele>653.4</ele>
        <time>2021-01-02T13:19:14Z</time>
      </trkpt>
      <trkpt lat="45.8938" lon="3.03423">
        <ele>653.4</ele>
        <time>2021-01-02T13:19:25Z</time>
      </trkpt>
      <trkpt lat="45.89379" lon="3.03422">
        <ele>653.4</ele>
        <time>2021-01-02T13:19:26Z</time>
      </trkpt>
      <trkpt lat="45.89379" lon="3.0342">
        <ele>653</ele>
        <time>2021-01-02T13:19:27Z</time>
      </trkpt>
      <trkpt lat="45.8938" lon="3.03418">
        <ele>652.6</ele>
        <time>2021-01-02T13:19:28Z</time>
      </trkpt>
      <trkpt lat="45.8938" lon="3.03416">
        <ele>652</ele>
        <time>2021-01-02T13:19:29Z</time>
      </trkpt>
      <trkpt lat="45.89381" lon="3.03412">
        <ele>651.2</ele>
        <time>2021-01-02T13:19:30Z</time>
      </trkpt>
      <trkpt lat="45.89382" lon="3.03409">
        <ele>650.6</ele>
        <time>2021-01-02T13:19:31Z</time>
      </trkpt>
      <trkpt lat="45.89383" lon="3.03405">
        <ele>650</ele>
        <time>2021-01-02T13:19:32Z</time>
      </trkpt>
      <trkpt lat="45.89383" lon="3.03401">
        <ele>649.2</ele>
        <time>2021-01-02T13:19:33Z</time>
      </trkpt>
      <trkpt lat="45.89384" lon="3.03389">
        <ele>649.2</ele>
        <time>2021-01-02T13:19:36Z</time>
      </trkpt>
      <trkpt lat="45.89388" lon="3.03363">
        <ele>649.2</ele>
        <time>2021-01-02T13:19:42Z</time>
      </trkpt>
      <trkpt lat="45.8939" lon="3.03331">
        <ele>649.2</ele>
        <time>2021-01-02T13:19:49Z</time>
      </trkpt>
      <trkpt lat="45.8939" lon="3.03303">
        <ele>649.2</ele>
        <time>2021-01-02T13:19:55Z</time>
      </trkpt>
      <trkpt lat="45.89389" lon="3.03273">
        <ele>649.2</ele>
        <time>2021-01-02T13:20:02Z</time>
      </trkpt>
      <trkpt lat="45.89388" lon="3.03248">
        <ele>649.6</ele>
        <time>2021-01-02T13:20:08Z</time>
      </trkpt>
      <trkpt lat="45.89387" lon="3.03244">
        <ele>650.2</ele>
        <time>2021-01-02T13:20:09Z</time>
      </trkpt>
      <trkpt lat="45.89387" lon="3.0324">
        <ele>650.6</ele>
        <time>2021-01-02T13:20:10Z</time>
      </trkpt>
      <trkpt lat="45.89386" lon="3.03235">
        <ele>651.4</ele>
        <time>2021-01-02T13:20:11Z</time>
      </trkpt>
      <trkpt lat="45.8938" lon="3.03207">
        <ele>651.4</ele>
        <time>2021-01-02T13:20:17Z</time>
      </trkpt>
      <trkpt lat="45.89369" lon="3.03178">
        <ele>651.4</ele>
        <time>2021-01-02T13:20:24Z</time>
      </trkpt>
      <trkpt lat="45.89359" lon="3.03143">
        <ele>651.4</ele>
        <time>2021-01-02T13:20:32Z</time>
      </trkpt>
      <trkpt lat="45.89355" lon="3.03106">
        <ele>651.4</ele>
        <time>2021-01-02T13:20:40Z</time>
      </trkpt>
      <trkpt lat="45.89352" lon="3.03083">
        <ele>651.4</ele>
        <time>2021-01-02T13:20:45Z</time>
      </trkpt>
      <trkpt lat="45.89345" lon="3.03059">
        <ele>651.8</ele>
        <time>2021-01-02T13:20:51Z</time>
      </trkpt>
      <trkpt lat="45.89344" lon="3.03055">
        <ele>652.2</ele>
        <time>2021-01-02T13:20:52Z</time>
      </trkpt>
      <trkpt lat="45.89343" lon="3.03052">
        <ele>652.6</ele>
        <time>2021-01-02T13:20:53Z</time>
      </trkpt>
      <trkpt lat="45.89342" lon="3.03048">
        <ele>653</ele>
        <time>2021-01-02T13:20:54Z</time>
      </trkpt>
      <trkpt lat="45.89341" lon="3.03045">
        <ele>653.4</ele>
        <time>2021-01-02T13:20:55Z</time>
      </trkpt>
      <trkpt lat="45.89339" lon="3.03038">
        <ele>653.4</ele>
        <time>2021-01-02T13:20:57Z</time>
      </trkpt>
      <trkpt lat="45.89327" lon="3.03015">
        <ele>653.4</ele>
        <time>2021-01-02T13:21:04Z</time>
      </trkpt>
      <trkpt lat="45.89316" lon="3.02999">
        <ele>653.4</ele>
        <time>2021-01-02T13:21:10Z</time>
      </trkpt>
      <trkpt lat="45.89313" lon="3.02996">
        <ele>653.8</ele>
        <time>2021-01-02T13:21:12Z</time>
      </trkpt>
      <trkpt lat="45.89311" lon="3.02995">
        <ele>654.2</ele>
        <time>2021-01-02T13:21:13Z</time>
      </trkpt>
      <trkpt lat="45.8931" lon="3.02993">
        <ele>654.6</ele>
        <time>2021-01-02T13:21:14Z</time>
      </trkpt>
      <trkpt lat="45.89308" lon="3.02993">
        <ele>655</ele>
        <time>2021-01-02T13:21:15Z</time>
      </trkpt>
      <trkpt lat="45.89307" lon="3.02992">
        <ele>655.4</ele>
        <time>2021-01-02T13:21:16Z</time>
      </trkpt>
      <trkpt lat="45.89295" lon="3.02988">
        <ele>655.4</ele>
        <time>2021-01-02T13:21:22Z</time>
      </trkpt>
      <trkpt lat="45.89294" lon="3.02988">
        <ele>655.4</ele>
        <time>2021-01-02T13:21:23Z</time>
      </trkpt>
      <trkpt lat="45.89291" lon="3.02986">
        <ele>655.4</ele>
        <time>2021-01-02T13:21:25Z</time>
      </trkpt>
      <trkpt lat="45.89289" lon="3.02984">
        <ele>655.4</ele>
        <time>2021-01-02T13:21:28Z</time>
      </trkpt>
      <trkpt lat="45.89288" lon="3.02983">
        <ele>655.8</ele>
        <time>2021-01-02T13:21:29Z</time>
      </trkpt>
      <trkpt lat="45.89285" lon="3.02983">
        <ele>657.6</ele>
        <time>2021-01-02T13:24:33Z</time>
      </trkpt>
      <trkpt lat="45.89287" lon="3.02984">
        <ele>657.6</ele>
        <time>2021-01-02T13:24:35Z</time>
      </trkpt>
      <trkpt lat="45.89298" lon="3.02989">
        <ele>657.6</ele>
        <time>2021-01-02T13:24:41Z</time>
      </trkpt>
      <trkpt lat="45.89304" lon="3.02991">
        <ele>657.6</ele>
        <time>2021-01-02T13:24:45Z</time>
      </trkpt>
      <trkpt lat="45.89306" lon="3.02991">
        <ele>657.6</ele>
        <time>2021-01-02T13:24:46Z</time>
      </trkpt>
      <trkpt lat="45.89316" lon="3.02996">
        <ele>657.2</ele>
        <time>2021-01-02T13:24:49Z</time>
      </trkpt>
      <trkpt lat="45.89319" lon="3.03">
        <ele>656.8</ele>
        <time>2021-01-02T13:24:50Z</time>
      </trkpt>
      <trkpt lat="45.89321" lon="3.03003">
        <ele>656.4</ele>
        <time>2021-01-02T13:24:51Z</time>
      </trkpt>
      <trkpt lat="45.89324" lon="3.03007">
        <ele>656</ele>
        <time>2021-01-02T13:24:52Z</time>
      </trkpt>
      <trkpt lat="45.89326" lon="3.03011">
        <ele>655.6</ele>
        <time>2021-01-02T13:24:53Z</time>
      </trkpt>
      <trkpt lat="45.8933" lon="3.03019">
        <ele>655.6</ele>
        <time>2021-01-02T13:24:55Z</time>
      </trkpt>
      <trkpt lat="45.89341" lon="3.03043">
        <ele>655.6</ele>
        <time>2021-01-02T13:25:00Z</time>
      </trkpt>
      <trkpt lat="45.89343" lon="3.03048">
        <ele>655.6</ele>
        <time>2021-01-02T13:25:01Z</time>
      </trkpt>
      <trkpt lat="45.8935" lon="3.03069">
        <ele>655.2</ele>
        <time>2021-01-02T13:25:05Z</time>
      </trkpt>
      <trkpt lat="45.89351" lon="3.03074">
        <ele>654.8</ele>
        <time>2021-01-02T13:25:06Z</time>
      </trkpt>
      <trkpt lat="45.89352" lon="3.03079">
        <ele>654.4</ele>
        <time>2021-01-02T13:25:07Z</time>
      </trkpt>
      <trkpt lat="45.89354" lon="3.03085">
        <ele>653.6</ele>
        <time>2021-01-02T13:25:08Z</time>
      </trkpt>
      <trkpt lat="45.89355" lon="3.03097">
        <ele>653.6</ele>
        <time>2021-01-02T13:25:10Z</time>
      </trkpt>
      <trkpt lat="45.89356" lon="3.03103">
        <ele>653.6</ele>
        <time>2021-01-02T13:25:11Z</time>
      </trkpt>
      <trkpt lat="45.8936" lon="3.03141">
        <ele>653.6</ele>
        <time>2021-01-02T13:25:17Z</time>
      </trkpt>
      <trkpt lat="45.89368" lon="3.03173">
        <ele>653.6</ele>
        <time>2021-01-02T13:25:23Z</time>
      </trkpt>
      <trkpt lat="45.89373" lon="3.03192">
        <ele>653.2</ele>
        <time>2021-01-02T13:25:27Z</time>
      </trkpt>
      <trkpt lat="45.89376" lon="3.03195">
        <ele>652.8</ele>
        <time>2021-01-02T13:25:28Z</time>
      </trkpt>
      <trkpt lat="45.89379" lon="3.03198">
        <ele>652.4</ele>
        <time>2021-01-02T13:25:29Z</time>
      </trkpt>
      <trkpt lat="45.89382" lon="3.03197">
        <ele>652</ele>
        <time>2021-01-02T13:25:30Z</time>
      </trkpt>
      <trkpt lat="45.89384" lon="3.03194">
        <ele>651.6</ele>
        <time>2021-01-02T13:25:31Z</time>
      </trkpt>
      <trkpt lat="45.89385" lon="3.03191">
        <ele>651.6</ele>
        <time>2021-01-02T13:25:32Z</time>
      </trkpt>
      <trkpt lat="45.89386" lon="3.03183">
        <ele>651.6</ele>
        <time>2021-01-02T13:25:34Z</time>
      </trkpt>
      <trkpt lat="45.89388" lon="3.03166">
        <ele>651.6</ele>
        <time>2021-01-02T13:25:38Z</time>
      </trkpt>
      <trkpt lat="45.89391" lon="3.03146">
        <ele>651.6</ele>
        <time>2021-01-02T13:25:43Z</time>
      </trkpt>
      <trkpt lat="45.89396" lon="3.03121">
        <ele>651.6</ele>
        <time>2021-01-02T13:25:49Z</time>
      </trkpt>
      <trkpt lat="45.89403" lon="3.0309">
        <ele>651.6</ele>
        <time>2021-01-02T13:25:56Z</time>
      </trkpt>
      <trkpt lat="45.8941" lon="3.03069">
        <ele>651.6</ele>
        <time>2021-01-02T13:26:01Z</time>
      </trkpt>
      <trkpt lat="45.89425" lon="3.03042">
        <ele>651.6</ele>
        <time>2021-01-02T13:26:08Z</time>
      </trkpt>
      <trkpt lat="45.89427" lon="3.03038">
        <ele>652</ele>
        <time>2021-01-02T13:26:09Z</time>
      </trkpt>
      <trkpt lat="45.89429" lon="3.03036">
        <ele>652.4</ele>
        <time>2021-01-02T13:26:10Z</time>
      </trkpt>
      <trkpt lat="45.89431" lon="3.03033">
        <ele>652.8</ele>
        <time>2021-01-02T13:26:11Z</time>
      </trkpt>
      <trkpt lat="45.89433" lon="3.03031">
        <ele>653.2</ele>
        <time>2021-01-02T13:26:12Z</time>
      </trkpt>
      <trkpt lat="45.89436" lon="3.03028">
        <ele>653.6</ele>
        <time>2021-01-02T13:26:13Z</time>
      </trkpt>
      <trkpt lat="45.89438" lon="3.03025">
        <ele>653.6</ele>
        <time>2021-01-02T13:26:14Z</time>
      </trkpt>
      <trkpt lat="45.89443" lon="3.03017">
        <ele>654</ele>
        <time>2021-01-02T13:26:17Z</time>
      </trkpt>
      <trkpt lat="45.89445" lon="3.03013">
        <ele>654.4</ele>
        <time>2021-01-02T13:26:18Z</time>
      </trkpt>
      <trkpt lat="45.89446" lon="3.0301">
        <ele>654.8</ele>
        <time>2021-01-02T13:26:19Z</time>
      </trkpt>
      <trkpt lat="45.89448" lon="3.03007">
        <ele>655.2</ele>
        <time>2021-01-02T13:26:20Z</time>
      </trkpt>
      <trkpt lat="45.8945" lon="3.03003">
        <ele>655.8</ele>
        <time>2021-01-02T13:26:21Z</time>
      </trkpt>
      <trkpt lat="45.89453" lon="3.02995">
        <ele>655.8</ele>
        <time>2021-01-02T13:26:24Z</time>
      </trkpt>
      <trkpt lat="45.89455" lon="3.02985">
        <ele>656.2</ele>
        <time>2021-01-02T13:26:27Z</time>
      </trkpt>
      <trkpt lat="45.89456" lon="3.02982">
        <ele>656.6</ele>
        <time>2021-01-02T13:26:28Z</time>
      </trkpt>
      <trkpt lat="45.89457" lon="3.02979">
        <ele>657</ele>
        <time>2021-01-02T13:26:29Z</time>
      </trkpt>
      <trkpt lat="45.89458" lon="3.02976">
        <ele>657.4</ele>
        <time>2021-01-02T13:26:30Z</time>
      </trkpt>
      <trkpt lat="45.89459" lon="3.02973">
        <ele>657.8</ele>
        <time>2021-01-02T13:26:31Z</time>
      </trkpt>
      <trkpt lat="45.89461" lon="3.02965">
        <ele>657.8</ele>
        <time>2021-01-02T13:26:34Z</time>
      </trkpt>
      <trkpt lat="45.89465" lon="3.02946">
        <ele>657.8</ele>
        <time>2021-01-02T13:26:40Z</time>
      </trkpt>
      <trkpt lat="45.89465" lon="3.02943">
        <ele>658.2</ele>
        <time>2021-01-02T13:26:41Z</time>
      </trkpt>
      <trkpt lat="45.89466" lon="3.0294">
        <ele>658.6</ele>
        <time>2021-01-02T13:26:42Z</time>
      </trkpt>
      <trkpt lat="45.89467" lon="3.02937">
        <ele>659</ele>
        <time>2021-01-02T13:26:43Z</time>
      </trkpt>
      <trkpt lat="45.89468" lon="3.02933">
        <ele>659.6</ele>
        <time>2021-01-02T13:26:44Z</time>
      </trkpt>
      <trkpt lat="45.89468" lon="3.0293">
        <ele>660</ele>
        <time>2021-01-02T13:26:45Z</time>
      </trkpt>
      <trkpt lat="45.89469" lon="3.02927">
        <ele>660</ele>
        <time>2021-01-02T13:26:46Z</time>
      </trkpt>
      <trkpt lat="45.89471" lon="3.02913">
        <ele>660.4</ele>
        <time>2021-01-02T13:26:51Z</time>
      </trkpt>
      <trkpt lat="45.89472" lon="3.0291">
        <ele>660.8</ele>
        <time>2021-01-02T13:26:52Z</time>
      </trkpt>
      <trkpt lat="45.89473" lon="3.02908">
        <ele>661.2</ele>
        <time>2021-01-02T13:26:53Z</time>
      </trkpt>
      <trkpt lat="45.89474" lon="3.02905">
        <ele>661.6</ele>
        <time>2021-01-02T13:26:54Z</time>
      </trkpt>
      <trkpt lat="45.89475" lon="3.02902">
        <ele>662.2</ele>
        <time>2021-01-02T13:26:55Z</time>
      </trkpt>
      <trkpt lat="45.89477" lon="3.02897">
        <ele>662.2</ele>
        <time>2021-01-02T13:26:57Z</time>
      </trkpt>
      <trkpt lat="45.89479" lon="3.02882">
        <ele>662.2</ele>
        <time>2021-01-02T13:27:02Z</time>
      </trkpt>
      <trkpt lat="45.8948" lon="3.02871">
        <ele>662.6</ele>
        <time>2021-01-02T13:27:06Z</time>
      </trkpt>
      <trkpt lat="45.89481" lon="3.02868">
        <ele>663</ele>
        <time>2021-01-02T13:27:07Z</time>
      </trkpt>
      <trkpt lat="45.89482" lon="3.02865">
        <ele>663.4</ele>
        <time>2021-01-02T13:27:08Z</time>
      </trkpt>
      <trkpt lat="45.89482" lon="3.02862">
        <ele>663.8</ele>
        <time>2021-01-02T13:27:09Z</time>
      </trkpt>
      <trkpt lat="45.89483" lon="3.02859">
        <ele>664.2</ele>
        <time>2021-01-02T13:27:10Z</time>
      </trkpt>
      <trkpt lat="45.89484" lon="3.02852">
        <ele>664.2</ele>
        <time>2021-01-02T13:27:13Z</time>
      </trkpt>
      <trkpt lat="45.89487" lon="3.02847">
        <ele>664.2</ele>
        <time>2021-01-02T13:27:15Z</time>
      </trkpt>
      <trkpt lat="45.89489" lon="3.02842">
        <ele>664.6</ele>
        <time>2021-01-02T13:27:17Z</time>
      </trkpt>
      <trkpt lat="45.8949" lon="3.02839">
        <ele>665</ele>
        <time>2021-01-02T13:27:18Z</time>
      </trkpt>
      <trkpt lat="45.89491" lon="3.02836">
        <ele>665.6</ele>
        <time>2021-01-02T13:27:19Z</time>
      </trkpt>
      <trkpt lat="45.89493" lon="3.02834">
        <ele>666</ele>
        <time>2021-01-02T13:27:20Z</time>
      </trkpt>
      <trkpt lat="45.89494" lon="3.02832">
        <ele>666.4</ele>
        <time>2021-01-02T13:27:21Z</time>
      </trkpt>
      <trkpt lat="45.89496" lon="3.02825">
        <ele>666.4</ele>
        <time>2021-01-02T13:27:23Z</time>
      </trkpt>
      <trkpt lat="45.895" lon="3.02815">
        <ele>666.8</ele>
        <time>2021-01-02T13:27:27Z</time>
      </trkpt>
      <trkpt lat="45.895" lon="3.02812">
        <ele>667.2</ele>
        <time>2021-01-02T13:27:28Z</time>
      </trkpt>
      <trkpt lat="45.89501" lon="3.0281">
        <ele>667.6</ele>
        <time>2021-01-02T13:27:29Z</time>
      </trkpt>
      <trkpt lat="45.89502" lon="3.02808">
        <ele>668</ele>
        <time>2021-01-02T13:27:30Z</time>
      </trkpt>
      <trkpt lat="45.89503" lon="3.02805">
        <ele>668.6</ele>
        <time>2021-01-02T13:27:31Z</time>
      </trkpt>
      <trkpt lat="45.89509" lon="3.02795">
        <ele>668.6</ele>
        <time>2021-01-02T13:27:35Z</time>
      </trkpt>
      <trkpt lat="45.89518" lon="3.02781">
        <ele>668.6</ele>
        <time>2021-01-02T13:27:41Z</time>
      </trkpt>
      <trkpt lat="45.89527" lon="3.02765">
        <ele>668.6</ele>
        <time>2021-01-02T13:27:47Z</time>
      </trkpt>
      <trkpt lat="45.89528" lon="3.02764">
        <ele>669</ele>
        <time>2021-01-02T13:27:48Z</time>
      </trkpt>
      <trkpt lat="45.89529" lon="3.02762">
        <ele>669.4</ele>
        <time>2021-01-02T13:27:49Z</time>
      </trkpt>
      <trkpt lat="45.89529" lon="3.02759">
        <ele>669.8</ele>
        <time>2021-01-02T13:27:50Z</time>
      </trkpt>
      <trkpt lat="45.8953" lon="3.02756">
        <ele>670.2</ele>
        <time>2021-01-02T13:27:51Z</time>
      </trkpt>
      <trkpt lat="45.89531" lon="3.02754">
        <ele>670.6</ele>
        <time>2021-01-02T13:27:52Z</time>
      </trkpt>
      <trkpt lat="45.89532" lon="3.02752">
        <ele>670.6</ele>
        <time>2021-01-02T13:27:53Z</time>
      </trkpt>
      <trkpt lat="45.89539" lon="3.02744">
        <ele>670.6</ele>
        <time>2021-01-02T13:27:57Z</time>
      </trkpt>
      <trkpt lat="45.89543" lon="3.02739">
        <ele>671</ele>
        <time>2021-01-02T13:28:00Z</time>
      </trkpt>
      <trkpt lat="45.89545" lon="3.02738">
        <ele>671.8</ele>
        <time>2021-01-02T13:28:01Z</time>
      </trkpt>
      <trkpt lat="45.89546" lon="3.02737">
        <ele>672.2</ele>
        <time>2021-01-02T13:28:02Z</time>
      </trkpt>
      <trkpt lat="45.89548" lon="3.02736">
        <ele>672.6</ele>
        <time>2021-01-02T13:28:03Z</time>
      </trkpt>
      <trkpt lat="45.89561" lon="3.02734">
        <ele>672.6</ele>
        <time>2021-01-02T13:28:09Z</time>
      </trkpt>
      <trkpt lat="45.89572" lon="3.02732">
        <ele>673</ele>
        <time>2021-01-02T13:28:13Z</time>
      </trkpt>
      <trkpt lat="45.89574" lon="3.02731">
        <ele>673.4</ele>
        <time>2021-01-02T13:28:14Z</time>
      </trkpt>
      <trkpt lat="45.89576" lon="3.02731">
        <ele>673.8</ele>
        <time>2021-01-02T13:28:15Z</time>
      </trkpt>
      <trkpt lat="45.89579" lon="3.0273">
        <ele>674.2</ele>
        <time>2021-01-02T13:28:16Z</time>
      </trkpt>
      <trkpt lat="45.8958" lon="3.0273">
        <ele>674.6</ele>
        <time>2021-01-02T13:28:17Z</time>
      </trkpt>
      <trkpt lat="45.89584" lon="3.02728">
        <ele>674.6</ele>
        <time>2021-01-02T13:28:20Z</time>
      </trkpt>
      <trkpt lat="45.89586" lon="3.02727">
        <ele>675.2</ele>
        <time>2021-01-02T13:28:21Z</time>
      </trkpt>
      <trkpt lat="45.89587" lon="3.02725">
        <ele>675.6</ele>
        <time>2021-01-02T13:28:22Z</time>
      </trkpt>
      <trkpt lat="45.89589" lon="3.02723">
        <ele>676</ele>
        <time>2021-01-02T13:28:23Z</time>
      </trkpt>
      <trkpt lat="45.8959" lon="3.02722">
        <ele>676.4</ele>
        <time>2021-01-02T13:28:24Z</time>
      </trkpt>
      <trkpt lat="45.89592" lon="3.02721">
        <ele>676.8</ele>
        <time>2021-01-02T13:28:25Z</time>
      </trkpt>
      <trkpt lat="45.89592" lon="3.0272">
        <ele>676.8</ele>
        <time>2021-01-02T13:28:26Z</time>
      </trkpt>
      <trkpt lat="45.89594" lon="3.02718">
        <ele>678.8</ele>
        <time>2021-01-02T13:29:29Z</time>
      </trkpt>
      <trkpt lat="45.89597" lon="3.02713">
        <ele>678.8</ele>
        <time>2021-01-02T13:29:31Z</time>
      </trkpt>
      <trkpt lat="45.89598" lon="3.02702">
        <ele>678.8</ele>
        <time>2021-01-02T13:29:35Z</time>
      </trkpt>
      <trkpt lat="45.89599" lon="3.02695">
        <ele>678.8</ele>
        <time>2021-01-02T13:29:37Z</time>
      </trkpt>
      <trkpt lat="45.89601" lon="3.02692">
        <ele>678.4</ele>
        <time>2021-01-02T13:29:38Z</time>
      </trkpt>
      <trkpt lat="45.89604" lon="3.02689">
        <ele>678</ele>
        <time>2021-01-02T13:29:39Z</time>
      </trkpt>
      <trkpt lat="45.89607" lon="3.02687">
        <ele>677.2</ele>
        <time>2021-01-02T13:29:40Z</time>
      </trkpt>
      <trkpt lat="45.8961" lon="3.02686">
        <ele>676.6</ele>
        <time>2021-01-02T13:29:41Z</time>
      </trkpt>
      <trkpt lat="45.89612" lon="3.02686">
        <ele>676</ele>
        <time>2021-01-02T13:29:42Z</time>
      </trkpt>
      <trkpt lat="45.89615" lon="3.02685">
        <ele>675.4</ele>
        <time>2021-01-02T13:29:43Z</time>
      </trkpt>
      <trkpt lat="45.89618" lon="3.02684">
        <ele>674.6</ele>
        <time>2021-01-02T13:29:44Z</time>
      </trkpt>
      <trkpt lat="45.8962" lon="3.02682">
        <ele>674</ele>
        <time>2021-01-02T13:29:45Z</time>
      </trkpt>
      <trkpt lat="45.89621" lon="3.02679">
        <ele>673.2</ele>
        <time>2021-01-02T13:29:46Z</time>
      </trkpt>
      <trkpt lat="45.89622" lon="3.02675">
        <ele>672.4</ele>
        <time>2021-01-02T13:29:47Z</time>
      </trkpt>
      <trkpt lat="45.89622" lon="3.02669">
        <ele>671.6</ele>
        <time>2021-01-02T13:29:48Z</time>
      </trkpt>
      <trkpt lat="45.89622" lon="3.02664">
        <ele>670.4</ele>
        <time>2021-01-02T13:29:49Z</time>
      </trkpt>
      <trkpt lat="45.89622" lon="3.0266">
        <ele>669.4</ele>
        <time>2021-01-02T13:29:50Z</time>
      </trkpt>
      <trkpt lat="45.89622" lon="3.02655">
        <ele>668.4</ele>
        <time>2021-01-02T13:29:51Z</time>
      </trkpt>
      <trkpt lat="45.89622" lon="3.0265">
        <ele>667.4</ele>
        <time>2021-01-02T13:29:52Z</time>
      </trkpt>
      <trkpt lat="45.89623" lon="3.02645">
        <ele>666.2</ele>
        <time>2021-01-02T13:29:53Z</time>
      </trkpt>
      <trkpt lat="45.89623" lon="3.0264">
        <ele>665.2</ele>
        <time>2021-01-02T13:29:54Z</time>
      </trkpt>
      <trkpt lat="45.89623" lon="3.02635">
        <ele>664.2</ele>
        <time>2021-01-02T13:29:55Z</time>
      </trkpt>
      <trkpt lat="45.89623" lon="3.02631">
        <ele>663.2</ele>
        <time>2021-01-02T13:29:56Z</time>
      </trkpt>
      <trkpt lat="45.89624" lon="3.02627">
        <ele>662</ele>
        <time>2021-01-02T13:29:57Z</time>
      </trkpt>
      <trkpt lat="45.89625" lon="3.02626">
        <ele>661</ele>
        <time>2021-01-02T13:29:58Z</time>
      </trkpt>
      <trkpt lat="45.89626" lon="3.02626">
        <ele>660</ele>
        <time>2021-01-02T13:29:59Z</time>
      </trkpt>
      <trkpt lat="45.89628" lon="3.02627">
        <ele>659.2</ele>
        <time>2021-01-02T13:30:00Z</time>
      </trkpt>
      <trkpt lat="45.8963" lon="3.02629">
        <ele>658.6</ele>
        <time>2021-01-02T13:30:01Z</time>
      </trkpt>
      <trkpt lat="45.89632" lon="3.02633">
        <ele>658</ele>
        <time>2021-01-02T13:30:02Z</time>
      </trkpt>
      <trkpt lat="45.89634" lon="3.02636">
        <ele>657.4</ele>
        <time>2021-01-02T13:30:03Z</time>
      </trkpt>
      <trkpt lat="45.89635" lon="3.02639">
        <ele>656.6</ele>
        <time>2021-01-02T13:30:04Z</time>
      </trkpt>
      <trkpt lat="45.89642" lon="3.02649">
        <ele>656.6</ele>
        <time>2021-01-02T13:30:08Z</time>
      </trkpt>
      <trkpt lat="45.89655" lon="3.02659">
        <ele>656.6</ele>
        <time>2021-01-02T13:30:12Z</time>
      </trkpt>
      <trkpt lat="45.89661" lon="3.02662">
        <ele>656.2</ele>
        <time>2021-01-02T13:30:13Z</time>
      </trkpt>
      <trkpt lat="45.89666" lon="3.02665">
        <ele>655.6</ele>
        <time>2021-01-02T13:30:14Z</time>
      </trkpt>
      <trkpt lat="45.89671" lon="3.02669">
        <ele>655</ele>
        <time>2021-01-02T13:30:15Z</time>
      </trkpt>
      <trkpt lat="45.89675" lon="3.02671">
        <ele>654.4</ele>
        <time>2021-01-02T13:30:16Z</time>
      </trkpt>
      <trkpt lat="45.89679" lon="3.02672">
        <ele>653.8</ele>
        <time>2021-01-02T13:30:17Z</time>
      </trkpt>
      <trkpt lat="45.89682" lon="3.02673">
        <ele>653</ele>
        <time>2021-01-02T13:30:18Z</time>
      </trkpt>
      <trkpt lat="45.89685" lon="3.02675">
        <ele>652.4</ele>
        <time>2021-01-02T13:30:19Z</time>
      </trkpt>
      <trkpt lat="45.89688" lon="3.02676">
        <ele>651.8</ele>
        <time>2021-01-02T13:30:20Z</time>
      </trkpt>
      <trkpt lat="45.89697" lon="3.02679">
        <ele>651.2</ele>
        <time>2021-01-02T13:30:22Z</time>
      </trkpt>
      <trkpt lat="45.89701" lon="3.02682">
        <ele>650.8</ele>
        <time>2021-01-02T13:30:23Z</time>
      </trkpt>
      <trkpt lat="45.89704" lon="3.02686">
        <ele>650.4</ele>
        <time>2021-01-02T13:30:24Z</time>
      </trkpt>
      <trkpt lat="45.89706" lon="3.02689">
        <ele>650</ele>
        <time>2021-01-02T13:30:25Z</time>
      </trkpt>
      <trkpt lat="45.89709" lon="3.02692">
        <ele>649.4</ele>
        <time>2021-01-02T13:30:26Z</time>
      </trkpt>
      <trkpt lat="45.89721" lon="3.02702">
        <ele>649.4</ele>
        <time>2021-01-02T13:30:32Z</time>
      </trkpt>
      <trkpt lat="45.8973" lon="3.02714">
        <ele>649.4</ele>
        <time>2021-01-02T13:30:37Z</time>
      </trkpt>
      <trkpt lat="45.89732" lon="3.0272">
        <ele>649.4</ele>
        <time>2021-01-02T13:30:41Z</time>
      </trkpt>
      <trkpt lat="45.89742" lon="3.02724">
        <ele>649.4</ele>
        <time>2021-01-02T13:30:45Z</time>
      </trkpt>
      <trkpt lat="45.8975" lon="3.02744">
        <ele>649.4</ele>
        <time>2021-01-02T13:30:48Z</time>
      </trkpt>
      <trkpt lat="45.89752" lon="3.02758">
        <ele>649</ele>
        <time>2021-01-02T13:30:50Z</time>
      </trkpt>
      <trkpt lat="45.89754" lon="3.02765">
        <ele>648.6</ele>
        <time>2021-01-02T13:30:51Z</time>
      </trkpt>
      <trkpt lat="45.89756" lon="3.02774">
        <ele>648.2</ele>
        <time>2021-01-02T13:30:52Z</time>
      </trkpt>
      <trkpt lat="45.89758" lon="3.02782">
        <ele>647.8</ele>
        <time>2021-01-02T13:30:53Z</time>
      </trkpt>
      <trkpt lat="45.8976" lon="3.02791">
        <ele>646.8</ele>
        <time>2021-01-02T13:30:54Z</time>
      </trkpt>
      <trkpt lat="45.89762" lon="3.02799">
        <ele>646.4</ele>
        <time>2021-01-02T13:30:55Z</time>
      </trkpt>
      <trkpt lat="45.89765" lon="3.02806">
        <ele>645.8</ele>
        <time>2021-01-02T13:30:56Z</time>
      </trkpt>
      <trkpt lat="45.89767" lon="3.02813">
        <ele>645.2</ele>
        <time>2021-01-02T13:30:57Z</time>
      </trkpt>
      <trkpt lat="45.8977" lon="3.0282">
        <ele>644.8</ele>
        <time>2021-01-02T13:30:58Z</time>
      </trkpt>
      <trkpt lat="45.89772" lon="3.02826">
        <ele>644.2</ele>
        <time>2021-01-02T13:30:59Z</time>
      </trkpt>
      <trkpt lat="45.89774" lon="3.02831">
        <ele>643.8</ele>
        <time>2021-01-02T13:31:00Z</time>
      </trkpt>
      <trkpt lat="45.89775" lon="3.02835">
        <ele>643.2</ele>
        <time>2021-01-02T13:31:01Z</time>
      </trkpt>
      <trkpt lat="45.89777" lon="3.02838">
        <ele>642.6</ele>
        <time>2021-01-02T13:31:02Z</time>
      </trkpt>
      <trkpt lat="45.89779" lon="3.02841">
        <ele>642.2</ele>
        <time>2021-01-02T13:31:03Z</time>
      </trkpt>
      <trkpt lat="45.89781" lon="3.02845">
        <ele>641.8</ele>
        <time>2021-01-02T13:31:04Z</time>
      </trkpt>
      <trkpt lat="45.89784" lon="3.02846">
        <ele>641.2</ele>
        <time>2021-01-02T13:31:05Z</time>
      </trkpt>
      <trkpt lat="45.89786" lon="3.02844">
        <ele>640.8</ele>
        <time>2021-01-02T13:31:06Z</time>
      </trkpt>
      <trkpt lat="45.89787" lon="3.02841">
        <ele>640.2</ele>
        <time>2021-01-02T13:31:07Z</time>
      </trkpt>
      <trkpt lat="45.89788" lon="3.02836">
        <ele>639.4</ele>
        <time>2021-01-02T13:31:08Z</time>
      </trkpt>
      <trkpt lat="45.89788" lon="3.02831">
        <ele>638.8</ele>
        <time>2021-01-02T13:31:09Z</time>
      </trkpt>
      <trkpt lat="45.89789" lon="3.02823">
        <ele>638.2</ele>
        <time>2021-01-02T13:31:10Z</time>
      </trkpt>
      <trkpt lat="45.8979" lon="3.02814">
        <ele>637.4</ele>
        <time>2021-01-02T13:31:11Z</time>
      </trkpt>
      <trkpt lat="45.8979" lon="3.02805">
        <ele>636.4</ele>
        <time>2021-01-02T13:31:12Z</time>
      </trkpt>
      <trkpt lat="45.8979" lon="3.02796">
        <ele>635.4</ele>
        <time>2021-01-02T13:31:13Z</time>
      </trkpt>
      <trkpt lat="45.8979" lon="3.02788">
        <ele>634.2</ele>
        <time>2021-01-02T13:31:14Z</time>
      </trkpt>
      <trkpt lat="45.8979" lon="3.02779">
        <ele>633</ele>
        <time>2021-01-02T13:31:15Z</time>
      </trkpt>
      <trkpt lat="45.89791" lon="3.0277">
        <ele>632</ele>
        <time>2021-01-02T13:31:16Z</time>
      </trkpt>
      <trkpt lat="45.89792" lon="3.02762">
        <ele>630.8</ele>
        <time>2021-01-02T13:31:17Z</time>
      </trkpt>
      <trkpt lat="45.89793" lon="3.02753">
        <ele>629.8</ele>
        <time>2021-01-02T13:31:18Z</time>
      </trkpt>
      <trkpt lat="45.89794" lon="3.02744">
        <ele>627.4</ele>
        <time>2021-01-02T13:31:19Z</time>
      </trkpt>
      <trkpt lat="45.89796" lon="3.02735">
        <ele>626.4</ele>
        <time>2021-01-02T13:31:20Z</time>
      </trkpt>
      <trkpt lat="45.89796" lon="3.02726">
        <ele>625.2</ele>
        <time>2021-01-02T13:31:21Z</time>
      </trkpt>
      <trkpt lat="45.89796" lon="3.02716">
        <ele>624.2</ele>
        <time>2021-01-02T13:31:22Z</time>
      </trkpt>
      <trkpt lat="45.89794" lon="3.02707">
        <ele>623</ele>
        <time>2021-01-02T13:31:23Z</time>
      </trkpt>
      <trkpt lat="45.89792" lon="3.02698">
        <ele>621.6</ele>
        <time>2021-01-02T13:31:24Z</time>
      </trkpt>
      <trkpt lat="45.89789" lon="3.02688">
        <ele>620.6</ele>
        <time>2021-01-02T13:31:25Z</time>
      </trkpt>
      <trkpt lat="45.89785" lon="3.02678">
        <ele>619.4</ele>
        <time>2021-01-02T13:31:26Z</time>
      </trkpt>
      <trkpt lat="45.89781" lon="3.0267">
        <ele>618.2</ele>
        <time>2021-01-02T13:31:27Z</time>
      </trkpt>
      <trkpt lat="45.89775" lon="3.02661">
        <ele>617.2</ele>
        <time>2021-01-02T13:31:28Z</time>
      </trkpt>
      <trkpt lat="45.8977" lon="3.02654">
        <ele>616.4</ele>
        <time>2021-01-02T13:31:29Z</time>
      </trkpt>
      <trkpt lat="45.89764" lon="3.02648">
        <ele>615.4</ele>
        <time>2021-01-02T13:31:30Z</time>
      </trkpt>
      <trkpt lat="45.89757" lon="3.02642">
        <ele>614.6</ele>
        <time>2021-01-02T13:31:31Z</time>
      </trkpt>
      <trkpt lat="45.8975" lon="3.02637">
        <ele>614</ele>
        <time>2021-01-02T13:31:32Z</time>
      </trkpt>
      <trkpt lat="45.89742" lon="3.02632">
        <ele>613.4</ele>
        <time>2021-01-02T13:31:33Z</time>
      </trkpt>
      <trkpt lat="45.89734" lon="3.02629">
        <ele>612.6</ele>
        <time>2021-01-02T13:31:34Z</time>
      </trkpt>
      <trkpt lat="45.89728" lon="3.02623">
        <ele>612</ele>
        <time>2021-01-02T13:31:35Z</time>
      </trkpt>
      <trkpt lat="45.89722" lon="3.02618">
        <ele>611.4</ele>
        <time>2021-01-02T13:31:36Z</time>
      </trkpt>
      <trkpt lat="45.89717" lon="3.0261">
        <ele>611.4</ele>
        <time>2021-01-02T13:31:37Z</time>
      </trkpt>
      <trkpt lat="45.89696" lon="3.02579">
        <ele>611.4</ele>
        <time>2021-01-02T13:31:42Z</time>
      </trkpt>
      <trkpt lat="45.89695" lon="3.02575">
        <ele>611.8</ele>
        <time>2021-01-02T13:31:43Z</time>
      </trkpt>
      <trkpt lat="45.89694" lon="3.02572">
        <ele>612.6</ele>
        <time>2021-01-02T13:31:44Z</time>
      </trkpt>
      <trkpt lat="45.89694" lon="3.0257">
        <ele>613.4</ele>
        <time>2021-01-02T13:31:45Z</time>
      </trkpt>
      <trkpt lat="45.89694" lon="3.02567">
        <ele>614</ele>
        <time>2021-01-02T13:31:46Z</time>
      </trkpt>
      <trkpt lat="45.89694" lon="3.02567">
        <ele>614.6</ele>
        <time>2021-01-02T13:31:47Z</time>
      </trkpt>
      <trkpt lat="45.89695" lon="3.02566">
        <ele>615.2</ele>
        <time>2021-01-02T13:31:48Z</time>
      </trkpt>
      <trkpt lat="45.89694" lon="3.02566">
        <ele>616</ele>
        <time>2021-01-02T13:31:49Z</time>
      </trkpt>
      <trkpt lat="45.89694" lon="3.02565">
        <ele>616</ele>
        <time>2021-01-02T13:31:50Z</time>
      </trkpt>
      <trkpt lat="45.89694" lon="3.02566">
        <ele>616</ele>
        <time>2021-01-02T13:32:11Z</time>
      </trkpt>
      <trkpt lat="45.89694" lon="3.0257">
        <ele>616</ele>
        <time>2021-01-02T13:32:13Z</time>
      </trkpt>
      <trkpt lat="45.89697" lon="3.02575">
        <ele>615.4</ele>
        <time>2021-01-02T13:32:15Z</time>
      </trkpt>
      <trkpt lat="45.897" lon="3.02579">
        <ele>615</ele>
        <time>2021-01-02T13:32:16Z</time>
      </trkpt>
      <trkpt lat="45.89702" lon="3.02584">
        <ele>614.4</ele>
        <time>2021-01-02T13:32:17Z</time>
      </trkpt>
      <trkpt lat="45.89705" lon="3.0259">
        <ele>613.6</ele>
        <time>2021-01-02T13:32:18Z</time>
      </trkpt>
      <trkpt lat="45.89707" lon="3.02595">
        <ele>613</ele>
        <time>2021-01-02T13:32:19Z</time>
      </trkpt>
      <trkpt lat="45.8971" lon="3.02599">
        <ele>612.2</ele>
        <time>2021-01-02T13:32:20Z</time>
      </trkpt>
      <trkpt lat="45.89712" lon="3.02603">
        <ele>611.6</ele>
        <time>2021-01-02T13:32:21Z</time>
      </trkpt>
      <trkpt lat="45.89714" lon="3.02607">
        <ele>611.6</ele>
        <time>2021-01-02T13:32:23Z</time>
      </trkpt>
      <trkpt lat="45.89714" lon="3.02608">
        <ele>611.6</ele>
        <time>2021-01-02T13:32:25Z</time>
      </trkpt>
      <trkpt lat="45.89707" lon="3.02606">
        <ele>611.6</ele>
        <time>2021-01-02T13:32:55Z</time>
      </trkpt>
      <trkpt lat="45.89707" lon="3.02603">
        <ele>611.6</ele>
        <time>2021-01-02T13:32:56Z</time>
      </trkpt>
      <trkpt lat="45.89706" lon="3.026">
        <ele>611.6</ele>
        <time>2021-01-02T13:32:58Z</time>
      </trkpt>
      <trkpt lat="45.89705" lon="3.02597">
        <ele>611.6</ele>
        <time>2021-01-02T13:33:00Z</time>
      </trkpt>
      <trkpt lat="45.89705" lon="3.02592">
        <ele>611.6</ele>
        <time>2021-01-02T13:33:03Z</time>
      </trkpt>
      <trkpt lat="45.89705" lon="3.02593">
        <ele>611.6</ele>
        <time>2021-01-02T13:33:07Z</time>
      </trkpt>
      <trkpt lat="45.89706" lon="3.02594">
        <ele>611.6</ele>
        <time>2021-01-02T13:33:08Z</time>
      </trkpt>
      <trkpt lat="45.89706" lon="3.02594">
        <ele>611.2</ele>
        <time>2021-01-02T13:33:09Z</time>
      </trkpt>
      <trkpt lat="45.89707" lon="3.02595">
        <ele>610.6</ele>
        <time>2021-01-02T13:33:10Z</time>
      </trkpt>
      <trkpt lat="45.89708" lon="3.02595">
        <ele>610.2</ele>
        <time>2021-01-02T13:33:11Z</time>
      </trkpt>
      <trkpt lat="45.89708" lon="3.02597">
        <ele>609.8</ele>
        <time>2021-01-02T13:33:12Z</time>
      </trkpt>
      <trkpt lat="45.89708" lon="3.02597">
        <ele>609.4</ele>
        <time>2021-01-02T13:33:13Z</time>
      </trkpt>
      <trkpt lat="45.89709" lon="3.02597">
        <ele>609.4</ele>
        <time>2021-01-02T13:33:14Z</time>
      </trkpt>
      <trkpt lat="45.89713" lon="3.02601">
        <ele>607.8</ele>
        <time>2021-01-02T13:33:27Z</time>
      </trkpt>
      <trkpt lat="45.89714" lon="3.02603">
        <ele>607.4</ele>
        <time>2021-01-02T13:33:28Z</time>
      </trkpt>
      <trkpt lat="45.89716" lon="3.02605">
        <ele>607.4</ele>
        <time>2021-01-02T13:33:30Z</time>
      </trkpt>
      <trkpt lat="45.89719" lon="3.02608">
        <ele>607.4</ele>
        <time>2021-01-02T13:33:34Z</time>
      </trkpt>
      <trkpt lat="45.89737" lon="3.02607">
        <ele>600.2</ele>
        <time>2021-01-02T13:34:13Z</time>
      </trkpt>
      <trkpt lat="45.89739" lon="3.02607">
        <ele>599.8</ele>
        <time>2021-01-02T13:34:14Z</time>
      </trkpt>
      <trkpt lat="45.8974" lon="3.02608">
        <ele>599.2</ele>
        <time>2021-01-02T13:34:15Z</time>
      </trkpt>
      <trkpt lat="45.89742" lon="3.02608">
        <ele>598.8</ele>
        <time>2021-01-02T13:34:16Z</time>
      </trkpt>
      <trkpt lat="45.89743" lon="3.02608">
        <ele>598.2</ele>
        <time>2021-01-02T13:34:17Z</time>
      </trkpt>
      <trkpt lat="45.89745" lon="3.0261">
        <ele>597.8</ele>
        <time>2021-01-02T13:34:18Z</time>
      </trkpt>
      <trkpt lat="45.89749" lon="3.0261">
        <ele>597.2</ele>
        <time>2021-01-02T13:34:19Z</time>
      </trkpt>
      <trkpt lat="45.89752" lon="3.02611">
        <ele>596.8</ele>
        <time>2021-01-02T13:34:20Z</time>
      </trkpt>
      <trkpt lat="45.89753" lon="3.02612">
        <ele>596.2</ele>
        <time>2021-01-02T13:34:21Z</time>
      </trkpt>
      <trkpt lat="45.89755" lon="3.02613">
        <ele>595.8</ele>
        <time>2021-01-02T13:34:22Z</time>
      </trkpt>
      <trkpt lat="45.89757" lon="3.02613">
        <ele>595.8</ele>
        <time>2021-01-02T13:34:23Z</time>
      </trkpt>
      <trkpt lat="45.89775" lon="3.02609">
        <ele>593.6</ele>
        <time>2021-01-02T13:35:15Z</time>
      </trkpt>
      <trkpt lat="45.89782" lon="3.02609">
        <ele>593</ele>
        <time>2021-01-02T13:35:19Z</time>
      </trkpt>
      <trkpt lat="45.89784" lon="3.0261">
        <ele>592.6</ele>
        <time>2021-01-02T13:35:20Z</time>
      </trkpt>
      <trkpt lat="45.89786" lon="3.02611">
        <ele>592</ele>
        <time>2021-01-02T13:35:21Z</time>
      </trkpt>
      <trkpt lat="45.89788" lon="3.02613">
        <ele>591.6</ele>
        <time>2021-01-02T13:35:22Z</time>
      </trkpt>
      <trkpt lat="45.8979" lon="3.02614">
        <ele>591</ele>
        <time>2021-01-02T13:35:23Z</time>
      </trkpt>
      <trkpt lat="45.89793" lon="3.02616">
        <ele>591</ele>
        <time>2021-01-02T13:35:26Z</time>
      </trkpt>
      <trkpt lat="45.89796" lon="3.02614">
        <ele>591</ele>
        <time>2021-01-02T13:35:30Z</time>
      </trkpt>
      <trkpt lat="45.89798" lon="3.02613">
        <ele>590.6</ele>
        <time>2021-01-02T13:35:31Z</time>
      </trkpt>
      <trkpt lat="45.898" lon="3.02612">
        <ele>590</ele>
        <time>2021-01-02T13:35:32Z</time>
      </trkpt>
      <trkpt lat="45.89801" lon="3.02613">
        <ele>589.4</ele>
        <time>2021-01-02T13:35:33Z</time>
      </trkpt>
      <trkpt lat="45.89802" lon="3.02613">
        <ele>588.8</ele>
        <time>2021-01-02T13:35:34Z</time>
      </trkpt>
      <trkpt lat="45.89802" lon="3.02613">
        <ele>588</ele>
        <time>2021-01-02T13:35:35Z</time>
      </trkpt>
      <trkpt lat="45.89806" lon="3.02617">
        <ele>586.2</ele>
        <time>2021-01-02T13:35:39Z</time>
      </trkpt>
      <trkpt lat="45.89808" lon="3.0262">
        <ele>586.2</ele>
        <time>2021-01-02T13:35:41Z</time>
      </trkpt>
      <trkpt lat="45.89809" lon="3.02623">
        <ele>586.2</ele>
        <time>2021-01-02T13:35:44Z</time>
      </trkpt>
      <trkpt lat="45.8981" lon="3.02623">
        <ele>586.2</ele>
        <time>2021-01-02T13:35:46Z</time>
      </trkpt>
      <trkpt lat="45.89811" lon="3.02625">
        <ele>586.2</ele>
        <time>2021-01-02T13:35:47Z</time>
      </trkpt>
      <trkpt lat="45.89815" lon="3.02625">
        <ele>586.2</ele>
        <time>2021-01-02T13:35:49Z</time>
      </trkpt>
      <trkpt lat="45.89818" lon="3.02626">
        <ele>585.2</ele>
        <time>2021-01-02T13:35:51Z</time>
      </trkpt>
      <trkpt lat="45.8982" lon="3.02626">
        <ele>584.8</ele>
        <time>2021-01-02T13:35:52Z</time>
      </trkpt>
      <trkpt lat="45.8982" lon="3.02626">
        <ele>584.4</ele>
        <time>2021-01-02T13:35:53Z</time>
      </trkpt>
      <trkpt lat="45.89825" lon="3.02624">
        <ele>583.8</ele>
        <time>2021-01-02T13:36:01Z</time>
      </trkpt>
      <trkpt lat="45.89831" lon="3.02624">
        <ele>583.4</ele>
        <time>2021-01-02T13:36:03Z</time>
      </trkpt>
      <trkpt lat="45.89835" lon="3.02624">
        <ele>583</ele>
        <time>2021-01-02T13:36:04Z</time>
      </trkpt>
      <trkpt lat="45.89836" lon="3.02625">
        <ele>582.6</ele>
        <time>2021-01-02T13:36:05Z</time>
      </trkpt>
      <trkpt lat="45.89839" lon="3.02625">
        <ele>582.2</ele>
        <time>2021-01-02T13:36:06Z</time>
      </trkpt>
      <trkpt lat="45.8984" lon="3.02626">
        <ele>581.8</ele>
        <time>2021-01-02T13:36:07Z</time>
      </trkpt>
      <trkpt lat="45.89843" lon="3.02626">
        <ele>581.8</ele>
        <time>2021-01-02T13:36:08Z</time>
      </trkpt>
      <trkpt lat="45.8985" lon="3.02626">
        <ele>581.4</ele>
        <time>2021-01-02T13:36:13Z</time>
      </trkpt>
      <trkpt lat="45.89854" lon="3.02625">
        <ele>581</ele>
        <time>2021-01-02T13:36:14Z</time>
      </trkpt>
      <trkpt lat="45.89857" lon="3.02624">
        <ele>580.6</ele>
        <time>2021-01-02T13:36:15Z</time>
      </trkpt>
      <trkpt lat="45.89864" lon="3.02622">
        <ele>579.6</ele>
        <time>2021-01-02T13:36:54Z</time>
      </trkpt>
      <trkpt lat="45.89865" lon="3.02627">
        <ele>579.6</ele>
        <time>2021-01-02T13:36:56Z</time>
      </trkpt>
      <trkpt lat="45.89867" lon="3.02635">
        <ele>579.6</ele>
        <time>2021-01-02T13:37:00Z</time>
      </trkpt>
      <trkpt lat="45.89869" lon="3.02597">
        <ele>579.6</ele>
        <time>2021-01-02T13:38:54Z</time>
      </trkpt>
      <trkpt lat="45.89871" lon="3.02597">
        <ele>579.6</ele>
        <time>2021-01-02T13:38:56Z</time>
      </trkpt>
      <trkpt lat="45.89872" lon="3.026">
        <ele>579.6</ele>
        <time>2021-01-02T13:38:58Z</time>
      </trkpt>
      <trkpt lat="45.89874" lon="3.02607">
        <ele>579.6</ele>
        <time>2021-01-02T13:39:04Z</time>
      </trkpt>
      <trkpt lat="45.89878" lon="3.02609">
        <ele>579.6</ele>
        <time>2021-01-02T13:39:09Z</time>
      </trkpt>
      <trkpt lat="45.8991" lon="3.02573">
        <ele>585.6</ele>
        <time>2021-01-02T13:46:19Z</time>
      </trkpt>
      <trkpt lat="45.89916" lon="3.02582">
        <ele>585.6</ele>
        <time>2021-01-02T13:46:23Z</time>
      </trkpt>
      <trkpt lat="45.8992" lon="3.02586">
        <ele>585.6</ele>
        <time>2021-01-02T13:46:25Z</time>
      </trkpt>
      <trkpt lat="45.89922" lon="3.02594">
        <ele>585.6</ele>
        <time>2021-01-02T13:46:28Z</time>
      </trkpt>
      <trkpt lat="45.89921" lon="3.02597">
        <ele>585.6</ele>
        <time>2021-01-02T13:46:29Z</time>
      </trkpt>
      <trkpt lat="45.89919" lon="3.02607">
        <ele>585.6</ele>
        <time>2021-01-02T13:46:32Z</time>
      </trkpt>
      <trkpt lat="45.89918" lon="3.02624">
        <ele>585.6</ele>
        <time>2021-01-02T13:46:37Z</time>
      </trkpt>
      <trkpt lat="45.89919" lon="3.02632">
        <ele>585.6</ele>
        <time>2021-01-02T13:46:39Z</time>
      </trkpt>
      <trkpt lat="45.89919" lon="3.02649">
        <ele>585.2</ele>
        <time>2021-01-02T13:46:42Z</time>
      </trkpt>
      <trkpt lat="45.89919" lon="3.02653">
        <ele>584.8</ele>
        <time>2021-01-02T13:46:43Z</time>
      </trkpt>
      <trkpt lat="45.8992" lon="3.02658">
        <ele>584.4</ele>
        <time>2021-01-02T13:46:44Z</time>
      </trkpt>
      <trkpt lat="45.89921" lon="3.02664">
        <ele>584</ele>
        <time>2021-01-02T13:46:45Z</time>
      </trkpt>
      <trkpt lat="45.89922" lon="3.02669">
        <ele>583.6</ele>
        <time>2021-01-02T13:46:46Z</time>
      </trkpt>
      <trkpt lat="45.89922" lon="3.02674">
        <ele>583.2</ele>
        <time>2021-01-02T13:46:47Z</time>
      </trkpt>
      <trkpt lat="45.89922" lon="3.0268">
        <ele>582.8</ele>
        <time>2021-01-02T13:46:48Z</time>
      </trkpt>
      <trkpt lat="45.89922" lon="3.02685">
        <ele>582.4</ele>
        <time>2021-01-02T13:46:49Z</time>
      </trkpt>
      <trkpt lat="45.89923" lon="3.0269">
        <ele>582</ele>
        <time>2021-01-02T13:46:50Z</time>
      </trkpt>
      <trkpt lat="45.89923" lon="3.02694">
        <ele>581.6</ele>
        <time>2021-01-02T13:46:51Z</time>
      </trkpt>
      <trkpt lat="45.89924" lon="3.02696">
        <ele>581.6</ele>
        <time>2021-01-02T13:46:52Z</time>
      </trkpt>
      <trkpt lat="45.89927" lon="3.02701">
        <ele>581.6</ele>
        <time>2021-01-02T13:46:55Z</time>
      </trkpt>
      <trkpt lat="45.89928" lon="3.02702">
        <ele>582</ele>
        <time>2021-01-02T13:46:56Z</time>
      </trkpt>
      <trkpt lat="45.89928" lon="3.02704">
        <ele>582.4</ele>
        <time>2021-01-02T13:46:57Z</time>
      </trkpt>
      <trkpt lat="45.8993" lon="3.02706">
        <ele>583.2</ele>
        <time>2021-01-02T13:46:58Z</time>
      </trkpt>
      <trkpt lat="45.89932" lon="3.02708">
        <ele>583.6</ele>
        <time>2021-01-02T13:46:59Z</time>
      </trkpt>
      <trkpt lat="45.89932" lon="3.0271">
        <ele>583.6</ele>
        <time>2021-01-02T13:47:00Z</time>
      </trkpt>
      <trkpt lat="45.89933" lon="3.02712">
        <ele>584</ele>
        <time>2021-01-02T13:47:01Z</time>
      </trkpt>
      <trkpt lat="45.89933" lon="3.02714">
        <ele>584.4</ele>
        <time>2021-01-02T13:47:02Z</time>
      </trkpt>
      <trkpt lat="45.89933" lon="3.02716">
        <ele>585</ele>
        <time>2021-01-02T13:47:03Z</time>
      </trkpt>
      <trkpt lat="45.89934" lon="3.02718">
        <ele>585.4</ele>
        <time>2021-01-02T13:47:04Z</time>
      </trkpt>
      <trkpt lat="45.89934" lon="3.0272">
        <ele>585.8</ele>
        <time>2021-01-02T13:47:05Z</time>
      </trkpt>
      <trkpt lat="45.89935" lon="3.02728">
        <ele>585.8</ele>
        <time>2021-01-02T13:47:07Z</time>
      </trkpt>
      <trkpt lat="45.89942" lon="3.02746">
        <ele>585.8</ele>
        <time>2021-01-02T13:47:13Z</time>
      </trkpt>
      <trkpt lat="45.89947" lon="3.02757">
        <ele>585.8</ele>
        <time>2021-01-02T13:47:17Z</time>
      </trkpt>
      <trkpt lat="45.89948" lon="3.02761">
        <ele>585.8</ele>
        <time>2021-01-02T13:47:18Z</time>
      </trkpt>
      <trkpt lat="45.89947" lon="3.02775">
        <ele>585.8</ele>
        <time>2021-01-02T13:47:20Z</time>
      </trkpt>
      <trkpt lat="45.89946" lon="3.02783">
        <ele>585.8</ele>
        <time>2021-01-02T13:47:21Z</time>
      </trkpt>
      <trkpt lat="45.89945" lon="3.0279">
        <ele>585.4</ele>
        <time>2021-01-02T13:47:22Z</time>
      </trkpt>
      <trkpt lat="45.89943" lon="3.02795">
        <ele>584.4</ele>
        <time>2021-01-02T13:47:23Z</time>
      </trkpt>
      <trkpt lat="45.89941" lon="3.02801">
        <ele>584</ele>
        <time>2021-01-02T13:47:24Z</time>
      </trkpt>
      <trkpt lat="45.89939" lon="3.02807">
        <ele>583.6</ele>
        <time>2021-01-02T13:47:25Z</time>
      </trkpt>
      <trkpt lat="45.89929" lon="3.02844">
        <ele>583.6</ele>
        <time>2021-01-02T13:47:31Z</time>
      </trkpt>
      <trkpt lat="45.89921" lon="3.02878">
        <ele>583.6</ele>
        <time>2021-01-02T13:47:37Z</time>
      </trkpt>
      <trkpt lat="45.89918" lon="3.02904">
        <ele>583</ele>
        <time>2021-01-02T13:47:40Z</time>
      </trkpt>
      <trkpt lat="45.89917" lon="3.02914">
        <ele>582.4</ele>
        <time>2021-01-02T13:47:41Z</time>
      </trkpt>
      <trkpt lat="45.89916" lon="3.02925">
        <ele>581.8</ele>
        <time>2021-01-02T13:47:42Z</time>
      </trkpt>
      <trkpt lat="45.89914" lon="3.02934">
        <ele>581</ele>
        <time>2021-01-02T13:47:43Z</time>
      </trkpt>
      <trkpt lat="45.89912" lon="3.02945">
        <ele>580.4</ele>
        <time>2021-01-02T13:47:44Z</time>
      </trkpt>
      <trkpt lat="45.8991" lon="3.02956">
        <ele>579.4</ele>
        <time>2021-01-02T13:47:45Z</time>
      </trkpt>
      <trkpt lat="45.89908" lon="3.02968">
        <ele>578.4</ele>
        <time>2021-01-02T13:47:46Z</time>
      </trkpt>
      <trkpt lat="45.89904" lon="3.02979">
        <ele>576.6</ele>
        <time>2021-01-02T13:47:47Z</time>
      </trkpt>
      <trkpt lat="45.89902" lon="3.0299">
        <ele>575.6</ele>
        <time>2021-01-02T13:47:48Z</time>
      </trkpt>
      <trkpt lat="45.89899" lon="3.02999">
        <ele>574.6</ele>
        <time>2021-01-02T13:47:49Z</time>
      </trkpt>
      <trkpt lat="45.89895" lon="3.03009">
        <ele>573.6</ele>
        <time>2021-01-02T13:47:50Z</time>
      </trkpt>
      <trkpt lat="45.89877" lon="3.03049">
        <ele>573.6</ele>
        <time>2021-01-02T13:47:55Z</time>
      </trkpt>
      <trkpt lat="45.89867" lon="3.03071">
        <ele>573.2</ele>
        <time>2021-01-02T13:47:58Z</time>
      </trkpt>
      <trkpt lat="45.89864" lon="3.03079">
        <ele>572.8</ele>
        <time>2021-01-02T13:47:59Z</time>
      </trkpt>
      <trkpt lat="45.89862" lon="3.03088">
        <ele>572.4</ele>
        <time>2021-01-02T13:48:00Z</time>
      </trkpt>
      <trkpt lat="45.89862" lon="3.03095">
        <ele>572</ele>
        <time>2021-01-02T13:48:01Z</time>
      </trkpt>
      <trkpt lat="45.89863" lon="3.03103">
        <ele>571.6</ele>
        <time>2021-01-02T13:48:02Z</time>
      </trkpt>
      <trkpt lat="45.89862" lon="3.03109">
        <ele>571.6</ele>
        <time>2021-01-02T13:48:03Z</time>
      </trkpt>
      <trkpt lat="45.89862" lon="3.03117">
        <ele>571.6</ele>
        <time>2021-01-02T13:48:04Z</time>
      </trkpt>
      <trkpt lat="45.89859" lon="3.03134">
        <ele>571.6</ele>
        <time>2021-01-02T13:48:07Z</time>
      </trkpt>
      <trkpt lat="45.89858" lon="3.03139">
        <ele>571</ele>
        <time>2021-01-02T13:48:08Z</time>
      </trkpt>
      <trkpt lat="45.89856" lon="3.03141">
        <ele>570.6</ele>
        <time>2021-01-02T13:48:09Z</time>
      </trkpt>
      <trkpt lat="45.89855" lon="3.03143">
        <ele>570.2</ele>
        <time>2021-01-02T13:48:10Z</time>
      </trkpt>
      <trkpt lat="45.89853" lon="3.03146">
        <ele>569.8</ele>
        <time>2021-01-02T13:48:11Z</time>
      </trkpt>
      <trkpt lat="45.89852" lon="3.03148">
        <ele>568.6</ele>
        <time>2021-01-02T13:48:12Z</time>
      </trkpt>
      <trkpt lat="45.89852" lon="3.03151">
        <ele>568.2</ele>
        <time>2021-01-02T13:48:13Z</time>
      </trkpt>
      <trkpt lat="45.89853" lon="3.03155">
        <ele>567.6</ele>
        <time>2021-01-02T13:48:14Z</time>
      </trkpt>
      <trkpt lat="45.89853" lon="3.03157">
        <ele>567</ele>
        <time>2021-01-02T13:48:15Z</time>
      </trkpt>
      <trkpt lat="45.89851" lon="3.03159">
        <ele>567</ele>
        <time>2021-01-02T13:48:18Z</time>
      </trkpt>
      <trkpt lat="45.89851" lon="3.03158">
        <ele>567</ele>
        <time>2021-01-02T13:48:19Z</time>
      </trkpt>
      <trkpt lat="45.89851" lon="3.03159">
        <ele>567</ele>
        <time>2021-01-02T13:48:20Z</time>
      </trkpt>
      <trkpt lat="45.89854" lon="3.03159">
        <ele>567</ele>
        <time>2021-01-02T13:49:15Z</time>
      </trkpt>
      <trkpt lat="45.89854" lon="3.03161">
        <ele>567</ele>
        <time>2021-01-02T13:49:16Z</time>
      </trkpt>
      <trkpt lat="45.89856" lon="3.03171">
        <ele>567</ele>
        <time>2021-01-02T13:49:20Z</time>
      </trkpt>
      <trkpt lat="45.89857" lon="3.03174">
        <ele>567</ele>
        <time>2021-01-02T13:49:21Z</time>
      </trkpt>
      <trkpt lat="45.89857" lon="3.03198">
        <ele>567</ele>
        <time>2021-01-02T13:49:27Z</time>
      </trkpt>
      <trkpt lat="45.89855" lon="3.03222">
        <ele>567</ele>
        <time>2021-01-02T13:49:34Z</time>
      </trkpt>
      <trkpt lat="45.89855" lon="3.03229">
        <ele>567.6</ele>
        <time>2021-01-02T13:49:36Z</time>
      </trkpt>
      <trkpt lat="45.89855" lon="3.03232">
        <ele>568</ele>
        <time>2021-01-02T13:49:37Z</time>
      </trkpt>
      <trkpt lat="45.89855" lon="3.03234">
        <ele>568.4</ele>
        <time>2021-01-02T13:49:38Z</time>
      </trkpt>
      <trkpt lat="45.89854" lon="3.03237">
        <ele>568.8</ele>
        <time>2021-01-02T13:49:39Z</time>
      </trkpt>
      <trkpt lat="45.89854" lon="3.03239">
        <ele>569.4</ele>
        <time>2021-01-02T13:49:40Z</time>
      </trkpt>
      <trkpt lat="45.89853" lon="3.03243">
        <ele>569.4</ele>
        <time>2021-01-02T13:49:42Z</time>
      </trkpt>
      <trkpt lat="45.89853" lon="3.03249">
        <ele>569.8</ele>
        <time>2021-01-02T13:49:45Z</time>
      </trkpt>
      <trkpt lat="45.89852" lon="3.03251">
        <ele>570.2</ele>
        <time>2021-01-02T13:49:46Z</time>
      </trkpt>
      <trkpt lat="45.89852" lon="3.03253">
        <ele>570.6</ele>
        <time>2021-01-02T13:49:47Z</time>
      </trkpt>
      <trkpt lat="45.89852" lon="3.03255">
        <ele>571.2</ele>
        <time>2021-01-02T13:49:48Z</time>
      </trkpt>
      <trkpt lat="45.89851" lon="3.03257">
        <ele>571.6</ele>
        <time>2021-01-02T13:49:49Z</time>
      </trkpt>
      <trkpt lat="45.89848" lon="3.03261">
        <ele>572</ele>
        <time>2021-01-02T13:49:51Z</time>
      </trkpt>
      <trkpt lat="45.89847" lon="3.03263">
        <ele>572.4</ele>
        <time>2021-01-02T13:49:52Z</time>
      </trkpt>
      <trkpt lat="45.89845" lon="3.03265">
        <ele>573</ele>
        <time>2021-01-02T13:49:53Z</time>
      </trkpt>
      <trkpt lat="45.89844" lon="3.03267">
        <ele>573.4</ele>
        <time>2021-01-02T13:49:54Z</time>
      </trkpt>
      <trkpt lat="45.89844" lon="3.0327">
        <ele>573.8</ele>
        <time>2021-01-02T13:49:55Z</time>
      </trkpt>
      <trkpt lat="45.89843" lon="3.03272">
        <ele>574.2</ele>
        <time>2021-01-02T13:49:56Z</time>
      </trkpt>
      <trkpt lat="45.89843" lon="3.03274">
        <ele>574.8</ele>
        <time>2021-01-02T13:49:57Z</time>
      </trkpt>
      <trkpt lat="45.89842" lon="3.03276">
        <ele>575.2</ele>
        <time>2021-01-02T13:49:58Z</time>
      </trkpt>
      <trkpt lat="45.89841" lon="3.03279">
        <ele>575.6</ele>
        <time>2021-01-02T13:49:59Z</time>
      </trkpt>
      <trkpt lat="45.8984" lon="3.03281">
        <ele>576</ele>
        <time>2021-01-02T13:50:00Z</time>
      </trkpt>
      <trkpt lat="45.89839" lon="3.03283">
        <ele>576</ele>
        <time>2021-01-02T13:50:01Z</time>
      </trkpt>
      <trkpt lat="45.89838" lon="3.03285">
        <ele>576.4</ele>
        <time>2021-01-02T13:50:02Z</time>
      </trkpt>
      <trkpt lat="45.89837" lon="3.03287">
        <ele>576.8</ele>
        <time>2021-01-02T13:50:03Z</time>
      </trkpt>
      <trkpt lat="45.89836" lon="3.0329">
        <ele>577.4</ele>
        <time>2021-01-02T13:50:04Z</time>
      </trkpt>
      <trkpt lat="45.89836" lon="3.03293">
        <ele>577.8</ele>
        <time>2021-01-02T13:50:05Z</time>
      </trkpt>
      <trkpt lat="45.89837" lon="3.03296">
        <ele>578.2</ele>
        <time>2021-01-02T13:50:06Z</time>
      </trkpt>
      <trkpt lat="45.89837" lon="3.03299">
        <ele>578.2</ele>
        <time>2021-01-02T13:50:07Z</time>
      </trkpt>
      <trkpt lat="45.89838" lon="3.03304">
        <ele>578.6</ele>
        <time>2021-01-02T13:50:09Z</time>
      </trkpt>
      <trkpt lat="45.89838" lon="3.03306">
        <ele>579</ele>
        <time>2021-01-02T13:50:10Z</time>
      </trkpt>
      <trkpt lat="45.89839" lon="3.03309">
        <ele>579.4</ele>
        <time>2021-01-02T13:50:11Z</time>
      </trkpt>
      <trkpt lat="45.89839" lon="3.03311">
        <ele>579.8</ele>
        <time>2021-01-02T13:50:12Z</time>
      </trkpt>
      <trkpt lat="45.8984" lon="3.03313">
        <ele>580.2</ele>
        <time>2021-01-02T13:50:13Z</time>
      </trkpt>
      <trkpt lat="45.8984" lon="3.03316">
        <ele>580.2</ele>
        <time>2021-01-02T13:50:14Z</time>
      </trkpt>
      <trkpt lat="45.89843" lon="3.03323">
        <ele>580.6</ele>
        <time>2021-01-02T13:50:17Z</time>
      </trkpt>
      <trkpt lat="45.89844" lon="3.03325">
        <ele>581</ele>
        <time>2021-01-02T13:50:18Z</time>
      </trkpt>
      <trkpt lat="45.89846" lon="3.03328">
        <ele>581.4</ele>
        <time>2021-01-02T13:50:19Z</time>
      </trkpt>
      <trkpt lat="45.89847" lon="3.0333">
        <ele>581.8</ele>
        <time>2021-01-02T13:50:20Z</time>
      </trkpt>
      <trkpt lat="45.89848" lon="3.03332">
        <ele>582.2</ele>
        <time>2021-01-02T13:50:21Z</time>
      </trkpt>
      <trkpt lat="45.89854" lon="3.03347">
        <ele>582.2</ele>
        <time>2021-01-02T13:50:27Z</time>
      </trkpt>
      <trkpt lat="45.89856" lon="3.03352">
        <ele>582.6</ele>
        <time>2021-01-02T13:50:29Z</time>
      </trkpt>
      <trkpt lat="45.89857" lon="3.03354">
        <ele>583</ele>
        <time>2021-01-02T13:50:30Z</time>
      </trkpt>
      <trkpt lat="45.89858" lon="3.03357">
        <ele>583.6</ele>
        <time>2021-01-02T13:50:31Z</time>
      </trkpt>
      <trkpt lat="45.89859" lon="3.03359">
        <ele>584</ele>
        <time>2021-01-02T13:50:32Z</time>
      </trkpt>
      <trkpt lat="45.8986" lon="3.03361">
        <ele>584.4</ele>
        <time>2021-01-02T13:50:33Z</time>
      </trkpt>
      <trkpt lat="45.89861" lon="3.03364">
        <ele>584.4</ele>
        <time>2021-01-02T13:50:34Z</time>
      </trkpt>
      <trkpt lat="45.89868" lon="3.03375">
        <ele>584.8</ele>
        <time>2021-01-02T13:50:39Z</time>
      </trkpt>
      <trkpt lat="45.89869" lon="3.03377">
        <ele>585.6</ele>
        <time>2021-01-02T13:50:40Z</time>
      </trkpt>
      <trkpt lat="45.8987" lon="3.0338">
        <ele>586</ele>
        <time>2021-01-02T13:50:41Z</time>
      </trkpt>
      <trkpt lat="45.89871" lon="3.03382">
        <ele>586.4</ele>
        <time>2021-01-02T13:50:42Z</time>
      </trkpt>
      <trkpt lat="45.89876" lon="3.03397">
        <ele>587</ele>
        <time>2021-01-02T13:50:48Z</time>
      </trkpt>
      <trkpt lat="45.89877" lon="3.034">
        <ele>587.4</ele>
        <time>2021-01-02T13:50:49Z</time>
      </trkpt>
      <trkpt lat="45.89878" lon="3.03403">
        <ele>587.8</ele>
        <time>2021-01-02T13:50:50Z</time>
      </trkpt>
      <trkpt lat="45.89878" lon="3.03406">
        <ele>588.2</ele>
        <time>2021-01-02T13:50:51Z</time>
      </trkpt>
      <trkpt lat="45.8988" lon="3.03408">
        <ele>588.6</ele>
        <time>2021-01-02T13:50:52Z</time>
      </trkpt>
      <trkpt lat="45.89881" lon="3.03412">
        <ele>588.6</ele>
        <time>2021-01-02T13:50:54Z</time>
      </trkpt>
      <trkpt lat="45.89884" lon="3.03419">
        <ele>589</ele>
        <time>2021-01-02T13:50:57Z</time>
      </trkpt>
      <trkpt lat="45.89885" lon="3.03422">
        <ele>589.4</ele>
        <time>2021-01-02T13:50:58Z</time>
      </trkpt>
      <trkpt lat="45.89886" lon="3.03424">
        <ele>590</ele>
        <time>2021-01-02T13:50:59Z</time>
      </trkpt>
      <trkpt lat="45.89887" lon="3.03426">
        <ele>590.4</ele>
        <time>2021-01-02T13:51:00Z</time>
      </trkpt>
      <trkpt lat="45.89889" lon="3.03428">
        <ele>590.8</ele>
        <time>2021-01-02T13:51:01Z</time>
      </trkpt>
      <trkpt lat="45.89893" lon="3.03433">
        <ele>591.2</ele>
        <time>2021-01-02T13:51:04Z</time>
      </trkpt>
      <trkpt lat="45.89894" lon="3.03435">
        <ele>592</ele>
        <time>2021-01-02T13:51:05Z</time>
      </trkpt>
      <trkpt lat="45.89895" lon="3.03437">
        <ele>592.4</ele>
        <time>2021-01-02T13:51:06Z</time>
      </trkpt>
      <trkpt lat="45.89897" lon="3.03439">
        <ele>592.8</ele>
        <time>2021-01-02T13:51:07Z</time>
      </trkpt>
      <trkpt lat="45.89901" lon="3.03444">
        <ele>593.2</ele>
        <time>2021-01-02T13:51:10Z</time>
      </trkpt>
      <trkpt lat="45.89902" lon="3.03445">
        <ele>593.6</ele>
        <time>2021-01-02T13:51:11Z</time>
      </trkpt>
      <trkpt lat="45.89904" lon="3.03447">
        <ele>594</ele>
        <time>2021-01-02T13:51:12Z</time>
      </trkpt>
      <trkpt lat="45.89905" lon="3.03449">
        <ele>594.6</ele>
        <time>2021-01-02T13:51:13Z</time>
      </trkpt>
      <trkpt lat="45.89906" lon="3.03451">
        <ele>595</ele>
        <time>2021-01-02T13:51:14Z</time>
      </trkpt>
      <trkpt lat="45.89914" lon="3.03459">
        <ele>595.4</ele>
        <time>2021-01-02T13:51:19Z</time>
      </trkpt>
      <trkpt lat="45.89916" lon="3.03461">
        <ele>595.8</ele>
        <time>2021-01-02T13:51:20Z</time>
      </trkpt>
      <trkpt lat="45.89917" lon="3.03462">
        <ele>596.2</ele>
        <time>2021-01-02T13:51:21Z</time>
      </trkpt>
      <trkpt lat="45.89919" lon="3.03463">
        <ele>596.6</ele>
        <time>2021-01-02T13:51:22Z</time>
      </trkpt>
      <trkpt lat="45.89921" lon="3.03464">
        <ele>597</ele>
        <time>2021-01-02T13:51:23Z</time>
      </trkpt>
      <trkpt lat="45.89928" lon="3.03468">
        <ele>597</ele>
        <time>2021-01-02T13:51:27Z</time>
      </trkpt>
      <trkpt lat="45.89942" lon="3.03474">
        <ele>597</ele>
        <time>2021-01-02T13:51:35Z</time>
      </trkpt>
      <trkpt lat="45.89946" lon="3.03476">
        <ele>597.4</ele>
        <time>2021-01-02T13:51:38Z</time>
      </trkpt>
      <trkpt lat="45.89948" lon="3.03476">
        <ele>598</ele>
        <time>2021-01-02T13:51:39Z</time>
      </trkpt>
      <trkpt lat="45.89949" lon="3.03476">
        <ele>598.4</ele>
        <time>2021-01-02T13:51:40Z</time>
      </trkpt>
      <trkpt lat="45.8995" lon="3.03477">
        <ele>598.8</ele>
        <time>2021-01-02T13:51:41Z</time>
      </trkpt>
      <trkpt lat="45.89952" lon="3.03478">
        <ele>599.2</ele>
        <time>2021-01-02T13:51:42Z</time>
      </trkpt>
      <trkpt lat="45.8996" lon="3.03486">
        <ele>599.2</ele>
        <time>2021-01-02T13:51:49Z</time>
      </trkpt>
      <trkpt lat="45.89965" lon="3.0349">
        <ele>599.6</ele>
        <time>2021-01-02T13:51:52Z</time>
      </trkpt>
      <trkpt lat="45.89967" lon="3.03493">
        <ele>600.2</ele>
        <time>2021-01-02T13:51:53Z</time>
      </trkpt>
      <trkpt lat="45.89969" lon="3.03494">
        <ele>601</ele>
        <time>2021-01-02T13:51:54Z</time>
      </trkpt>
      <trkpt lat="45.89971" lon="3.03496">
        <ele>601.4</ele>
        <time>2021-01-02T13:51:55Z</time>
      </trkpt>
      <trkpt lat="45.89973" lon="3.03498">
        <ele>601.4</ele>
        <time>2021-01-02T13:51:56Z</time>
      </trkpt>
      <trkpt lat="45.89983" lon="3.0351">
        <ele>601.8</ele>
        <time>2021-01-02T13:52:03Z</time>
      </trkpt>
      <trkpt lat="45.89984" lon="3.03512">
        <ele>602.2</ele>
        <time>2021-01-02T13:52:04Z</time>
      </trkpt>
      <trkpt lat="45.89985" lon="3.03514">
        <ele>602.8</ele>
        <time>2021-01-02T13:52:05Z</time>
      </trkpt>
      <trkpt lat="45.89987" lon="3.03515">
        <ele>603.2</ele>
        <time>2021-01-02T13:52:06Z</time>
      </trkpt>
      <trkpt lat="45.89988" lon="3.03517">
        <ele>603.6</ele>
        <time>2021-01-02T13:52:07Z</time>
      </trkpt>
      <trkpt lat="45.89989" lon="3.03519">
        <ele>603.6</ele>
        <time>2021-01-02T13:52:08Z</time>
      </trkpt>
      <trkpt lat="45.89995" lon="3.03527">
        <ele>604</ele>
        <time>2021-01-02T13:52:13Z</time>
      </trkpt>
      <trkpt lat="45.89997" lon="3.0353">
        <ele>604.4</ele>
        <time>2021-01-02T13:52:14Z</time>
      </trkpt>
      <trkpt lat="45.89999" lon="3.03532">
        <ele>604.8</ele>
        <time>2021-01-02T13:52:15Z</time>
      </trkpt>
      <trkpt lat="45.90001" lon="3.03535">
        <ele>605.2</ele>
        <time>2021-01-02T13:52:16Z</time>
      </trkpt>
      <trkpt lat="45.90003" lon="3.03537">
        <ele>605.8</ele>
        <time>2021-01-02T13:52:17Z</time>
      </trkpt>
      <trkpt lat="45.90007" lon="3.03543">
        <ele>606.2</ele>
        <time>2021-01-02T13:52:19Z</time>
      </trkpt>
      <trkpt lat="45.90009" lon="3.03545">
        <ele>606.6</ele>
        <time>2021-01-02T13:52:20Z</time>
      </trkpt>
      <trkpt lat="45.90011" lon="3.03548">
        <ele>607</ele>
        <time>2021-01-02T13:52:21Z</time>
      </trkpt>
      <trkpt lat="45.90013" lon="3.0355">
        <ele>607.4</ele>
        <time>2021-01-02T13:52:22Z</time>
      </trkpt>
      <trkpt lat="45.90014" lon="3.03552">
        <ele>607.8</ele>
        <time>2021-01-02T13:52:23Z</time>
      </trkpt>
      <trkpt lat="45.9002" lon="3.0356">
        <ele>608.2</ele>
        <time>2021-01-02T13:52:27Z</time>
      </trkpt>
      <trkpt lat="45.90021" lon="3.03562">
        <ele>608.6</ele>
        <time>2021-01-02T13:52:28Z</time>
      </trkpt>
      <trkpt lat="45.90023" lon="3.03564">
        <ele>609</ele>
        <time>2021-01-02T13:52:29Z</time>
      </trkpt>
      <trkpt lat="45.90024" lon="3.03566">
        <ele>609.4</ele>
        <time>2021-01-02T13:52:30Z</time>
      </trkpt>
      <trkpt lat="45.90026" lon="3.03569">
        <ele>609.8</ele>
        <time>2021-01-02T13:52:31Z</time>
      </trkpt>
      <trkpt lat="45.90031" lon="3.03576">
        <ele>609.8</ele>
        <time>2021-01-02T13:52:34Z</time>
      </trkpt>
      <trkpt lat="45.9004" lon="3.03592">
        <ele>609.8</ele>
        <time>2021-01-02T13:52:40Z</time>
      </trkpt>
      <trkpt lat="45.90051" lon="3.03613">
        <ele>609.8</ele>
        <time>2021-01-02T13:52:47Z</time>
      </trkpt>
      <trkpt lat="45.90063" lon="3.03634">
        <ele>609.8</ele>
        <time>2021-01-02T13:52:54Z</time>
      </trkpt>
      <trkpt lat="45.9007" lon="3.03649">
        <ele>609.8</ele>
        <time>2021-01-02T13:53:00Z</time>
      </trkpt>
      <trkpt lat="45.90072" lon="3.03654">
        <ele>610.2</ele>
        <time>2021-01-02T13:53:02Z</time>
      </trkpt>
      <trkpt lat="45.90074" lon="3.03656">
        <ele>610.6</ele>
        <time>2021-01-02T13:53:03Z</time>
      </trkpt>
      <trkpt lat="45.90075" lon="3.03658">
        <ele>611</ele>
        <time>2021-01-02T13:53:04Z</time>
      </trkpt>
      <trkpt lat="45.90077" lon="3.03661">
        <ele>611.4</ele>
        <time>2021-01-02T13:53:05Z</time>
      </trkpt>
      <trkpt lat="45.90078" lon="3.03663">
        <ele>611.8</ele>
        <time>2021-01-02T13:53:06Z</time>
      </trkpt>
      <trkpt lat="45.9008" lon="3.03665">
        <ele>611.8</ele>
        <time>2021-01-02T13:53:07Z</time>
      </trkpt>
      <trkpt lat="45.90082" lon="3.03669">
        <ele>611.8</ele>
        <time>2021-01-02T13:53:09Z</time>
      </trkpt>
      <trkpt lat="45.90083" lon="3.03672">
        <ele>612.2</ele>
        <time>2021-01-02T13:53:11Z</time>
      </trkpt>
      <trkpt lat="45.90085" lon="3.03672">
        <ele>612.6</ele>
        <time>2021-01-02T13:53:12Z</time>
      </trkpt>
      <trkpt lat="45.90086" lon="3.03674">
        <ele>613</ele>
        <time>2021-01-02T13:53:13Z</time>
      </trkpt>
      <trkpt lat="45.90087" lon="3.03675">
        <ele>613.4</ele>
        <time>2021-01-02T13:53:14Z</time>
      </trkpt>
      <trkpt lat="45.90088" lon="3.03676">
        <ele>613.8</ele>
        <time>2021-01-02T13:53:15Z</time>
      </trkpt>
      <trkpt lat="45.90095" lon="3.03682">
        <ele>613.8</ele>
        <time>2021-01-02T13:53:20Z</time>
      </trkpt>
      <trkpt lat="45.90097" lon="3.03683">
        <ele>614.4</ele>
        <time>2021-01-02T13:53:21Z</time>
      </trkpt>
      <trkpt lat="45.90099" lon="3.03684">
        <ele>614.8</ele>
        <time>2021-01-02T13:53:22Z</time>
      </trkpt>
      <trkpt lat="45.901" lon="3.03685">
        <ele>615.2</ele>
        <time>2021-01-02T13:53:23Z</time>
      </trkpt>
      <trkpt lat="45.90102" lon="3.03686">
        <ele>615.6</ele>
        <time>2021-01-02T13:53:24Z</time>
      </trkpt>
      <trkpt lat="45.90103" lon="3.03687">
        <ele>616</ele>
        <time>2021-01-02T13:53:25Z</time>
      </trkpt>
      <trkpt lat="45.90108" lon="3.03693">
        <ele>616.4</ele>
        <time>2021-01-02T13:53:29Z</time>
      </trkpt>
      <trkpt lat="45.90109" lon="3.03694">
        <ele>616.8</ele>
        <time>2021-01-02T13:53:30Z</time>
      </trkpt>
      <trkpt lat="45.9011" lon="3.03695">
        <ele>617.4</ele>
        <time>2021-01-02T13:53:31Z</time>
      </trkpt>
      <trkpt lat="45.90111" lon="3.03696">
        <ele>617.8</ele>
        <time>2021-01-02T13:53:32Z</time>
      </trkpt>
      <trkpt lat="45.90113" lon="3.03698">
        <ele>618.2</ele>
        <time>2021-01-02T13:53:33Z</time>
      </trkpt>
      <trkpt lat="45.90116" lon="3.03703">
        <ele>618.2</ele>
        <time>2021-01-02T13:53:36Z</time>
      </trkpt>
      <trkpt lat="45.90124" lon="3.03718">
        <ele>618.2</ele>
        <time>2021-01-02T13:53:42Z</time>
      </trkpt>
      <trkpt lat="45.90132" lon="3.03735">
        <ele>618.2</ele>
        <time>2021-01-02T13:53:48Z</time>
      </trkpt>
      <trkpt lat="45.90139" lon="3.0375">
        <ele>617.8</ele>
        <time>2021-01-02T13:53:54Z</time>
      </trkpt>
      <trkpt lat="45.90141" lon="3.03754">
        <ele>617.4</ele>
        <time>2021-01-02T13:53:55Z</time>
      </trkpt>
      <trkpt lat="45.90144" lon="3.03759">
        <ele>617</ele>
        <time>2021-01-02T13:53:56Z</time>
      </trkpt>
      <trkpt lat="45.90147" lon="3.03763">
        <ele>616.6</ele>
        <time>2021-01-02T13:53:57Z</time>
      </trkpt>
      <trkpt lat="45.90151" lon="3.03767">
        <ele>616.2</ele>
        <time>2021-01-02T13:53:58Z</time>
      </trkpt>
      <trkpt lat="45.90155" lon="3.03771">
        <ele>615.8</ele>
        <time>2021-01-02T13:53:59Z</time>
      </trkpt>
      <trkpt lat="45.90158" lon="3.03774">
        <ele>615.2</ele>
        <time>2021-01-02T13:54:00Z</time>
      </trkpt>
      <trkpt lat="45.9016" lon="3.03776">
        <ele>614.8</ele>
        <time>2021-01-02T13:54:01Z</time>
      </trkpt>
      <trkpt lat="45.90162" lon="3.03778">
        <ele>614.4</ele>
        <time>2021-01-02T13:54:02Z</time>
      </trkpt>
      <trkpt lat="45.90163" lon="3.0378">
        <ele>613.8</ele>
        <time>2021-01-02T13:54:03Z</time>
      </trkpt>
      <trkpt lat="45.90169" lon="3.03791">
        <ele>613.8</ele>
        <time>2021-01-02T13:54:08Z</time>
      </trkpt>
      <trkpt lat="45.90171" lon="3.03794">
        <ele>614.2</ele>
        <time>2021-01-02T13:54:10Z</time>
      </trkpt>
      <trkpt lat="45.90172" lon="3.03796">
        <ele>614.8</ele>
        <time>2021-01-02T13:54:11Z</time>
      </trkpt>
      <trkpt lat="45.90174" lon="3.03798">
        <ele>615.2</ele>
        <time>2021-01-02T13:54:12Z</time>
      </trkpt>
      <trkpt lat="45.90176" lon="3.038">
        <ele>615.6</ele>
        <time>2021-01-02T13:54:13Z</time>
      </trkpt>
      <trkpt lat="45.90178" lon="3.03802">
        <ele>616</ele>
        <time>2021-01-02T13:54:14Z</time>
      </trkpt>
      <trkpt lat="45.90184" lon="3.03813">
        <ele>616</ele>
        <time>2021-01-02T13:54:20Z</time>
      </trkpt>
      <trkpt lat="45.90191" lon="3.03824">
        <ele>616.4</ele>
        <time>2021-01-02T13:54:26Z</time>
      </trkpt>
      <trkpt lat="45.90192" lon="3.03826">
        <ele>616.8</ele>
        <time>2021-01-02T13:54:27Z</time>
      </trkpt>
      <trkpt lat="45.90193" lon="3.03828">
        <ele>617.2</ele>
        <time>2021-01-02T13:54:28Z</time>
      </trkpt>
      <trkpt lat="45.90195" lon="3.0383">
        <ele>617.6</ele>
        <time>2021-01-02T13:54:29Z</time>
      </trkpt>
      <trkpt lat="45.90195" lon="3.03832">
        <ele>618</ele>
        <time>2021-01-02T13:54:30Z</time>
      </trkpt>
      <trkpt lat="45.90198" lon="3.03838">
        <ele>618</ele>
        <time>2021-01-02T13:54:34Z</time>
      </trkpt>
      <trkpt lat="45.902" lon="3.0384">
        <ele>618.4</ele>
        <time>2021-01-02T13:54:36Z</time>
      </trkpt>
      <trkpt lat="45.90201" lon="3.03842">
        <ele>618.8</ele>
        <time>2021-01-02T13:54:37Z</time>
      </trkpt>
      <trkpt lat="45.90201" lon="3.03844">
        <ele>619.2</ele>
        <time>2021-01-02T13:54:38Z</time>
      </trkpt>
      <trkpt lat="45.90202" lon="3.03846">
        <ele>619.6</ele>
        <time>2021-01-02T13:54:39Z</time>
      </trkpt>
      <trkpt lat="45.90203" lon="3.03846">
        <ele>620.2</ele>
        <time>2021-01-02T13:54:40Z</time>
      </trkpt>
      <trkpt lat="45.90205" lon="3.0385">
        <ele>620.2</ele>
        <time>2021-01-02T13:54:43Z</time>
      </trkpt>
      <trkpt lat="45.90207" lon="3.03853">
        <ele>620.2</ele>
        <time>2021-01-02T13:54:45Z</time>
      </trkpt>
      <trkpt lat="45.90211" lon="3.03862">
        <ele>620.6</ele>
        <time>2021-01-02T13:54:51Z</time>
      </trkpt>
      <trkpt lat="45.90212" lon="3.03863">
        <ele>621</ele>
        <time>2021-01-02T13:54:52Z</time>
      </trkpt>
      <trkpt lat="45.90213" lon="3.03864">
        <ele>621.4</ele>
        <time>2021-01-02T13:54:53Z</time>
      </trkpt>
      <trkpt lat="45.90214" lon="3.03865">
        <ele>621.8</ele>
        <time>2021-01-02T13:54:54Z</time>
      </trkpt>
      <trkpt lat="45.90213" lon="3.03865">
        <ele>622.2</ele>
        <time>2021-01-02T13:54:55Z</time>
      </trkpt>
      <trkpt lat="45.90217" lon="3.0387">
        <ele>622.2</ele>
        <time>2021-01-02T13:55:32Z</time>
      </trkpt>
      <trkpt lat="45.90218" lon="3.03871">
        <ele>622.2</ele>
        <time>2021-01-02T13:55:33Z</time>
      </trkpt>
      <trkpt lat="45.90222" lon="3.03878">
        <ele>622.6</ele>
        <time>2021-01-02T13:55:37Z</time>
      </trkpt>
      <trkpt lat="45.90223" lon="3.0388">
        <ele>623.4</ele>
        <time>2021-01-02T13:55:38Z</time>
      </trkpt>
      <trkpt lat="45.90225" lon="3.03883">
        <ele>624</ele>
        <time>2021-01-02T13:55:39Z</time>
      </trkpt>
      <trkpt lat="45.90226" lon="3.03885">
        <ele>624.4</ele>
        <time>2021-01-02T13:55:40Z</time>
      </trkpt>
      <trkpt lat="45.90231" lon="3.03895">
        <ele>624.8</ele>
        <time>2021-01-02T13:55:44Z</time>
      </trkpt>
      <trkpt lat="45.90232" lon="3.03898">
        <ele>625.2</ele>
        <time>2021-01-02T13:55:45Z</time>
      </trkpt>
      <trkpt lat="45.90234" lon="3.039">
        <ele>625.8</ele>
        <time>2021-01-02T13:55:46Z</time>
      </trkpt>
      <trkpt lat="45.90235" lon="3.03903">
        <ele>626.2</ele>
        <time>2021-01-02T13:55:47Z</time>
      </trkpt>
      <trkpt lat="45.90235" lon="3.03906">
        <ele>626.6</ele>
        <time>2021-01-02T13:55:48Z</time>
      </trkpt>
      <trkpt lat="45.90237" lon="3.03908">
        <ele>626.6</ele>
        <time>2021-01-02T13:55:49Z</time>
      </trkpt>
      <trkpt lat="45.90237" lon="3.03911">
        <ele>626.6</ele>
        <time>2021-01-02T13:55:50Z</time>
      </trkpt>
      <trkpt lat="45.90238" lon="3.03912">
        <ele>627</ele>
        <time>2021-01-02T13:55:51Z</time>
      </trkpt>
      <trkpt lat="45.90239" lon="3.03914">
        <ele>627.6</ele>
        <time>2021-01-02T13:55:52Z</time>
      </trkpt>
      <trkpt lat="45.90239" lon="3.03915">
        <ele>628</ele>
        <time>2021-01-02T13:55:53Z</time>
      </trkpt>
      <trkpt lat="45.9024" lon="3.03917">
        <ele>628.4</ele>
        <time>2021-01-02T13:55:54Z</time>
      </trkpt>
      <trkpt lat="45.9024" lon="3.03918">
        <ele>629</ele>
        <time>2021-01-02T13:55:55Z</time>
      </trkpt>
      <trkpt lat="45.90242" lon="3.03919">
        <ele>629.4</ele>
        <time>2021-01-02T13:55:56Z</time>
      </trkpt>
      <trkpt lat="45.90243" lon="3.0392">
        <ele>630</ele>
        <time>2021-01-02T13:55:57Z</time>
      </trkpt>
      <trkpt lat="45.90244" lon="3.03921">
        <ele>630.6</ele>
        <time>2021-01-02T13:55:58Z</time>
      </trkpt>
      <trkpt lat="45.90244" lon="3.03923">
        <ele>631.2</ele>
        <time>2021-01-02T13:55:59Z</time>
      </trkpt>
      <trkpt lat="45.90245" lon="3.03926">
        <ele>631.2</ele>
        <time>2021-01-02T13:56:01Z</time>
      </trkpt>
      <trkpt lat="45.90247" lon="3.03929">
        <ele>631.2</ele>
        <time>2021-01-02T13:56:03Z</time>
      </trkpt>
      <trkpt lat="45.90251" lon="3.03933">
        <ele>631.6</ele>
        <time>2021-01-02T13:56:06Z</time>
      </trkpt>
      <trkpt lat="45.90251" lon="3.03935">
        <ele>632</ele>
        <time>2021-01-02T13:56:07Z</time>
      </trkpt>
      <trkpt lat="45.90252" lon="3.03935">
        <ele>632.4</ele>
        <time>2021-01-02T13:56:08Z</time>
      </trkpt>
      <trkpt lat="45.90253" lon="3.03937">
        <ele>632.8</ele>
        <time>2021-01-02T13:56:09Z</time>
      </trkpt>
      <trkpt lat="45.90254" lon="3.03938">
        <ele>633.2</ele>
        <time>2021-01-02T13:56:10Z</time>
      </trkpt>
      <trkpt lat="45.90255" lon="3.0394">
        <ele>633.2</ele>
        <time>2021-01-02T13:56:11Z</time>
      </trkpt>
      <trkpt lat="45.90261" lon="3.03947">
        <ele>633.6</ele>
        <time>2021-01-02T13:56:17Z</time>
      </trkpt>
      <trkpt lat="45.90262" lon="3.03948">
        <ele>634</ele>
        <time>2021-01-02T13:56:18Z</time>
      </trkpt>
      <trkpt lat="45.90263" lon="3.03949">
        <ele>634.6</ele>
        <time>2021-01-02T13:56:19Z</time>
      </trkpt>
      <trkpt lat="45.90264" lon="3.0395">
        <ele>635</ele>
        <time>2021-01-02T13:56:20Z</time>
      </trkpt>
      <trkpt lat="45.90266" lon="3.03952">
        <ele>635.4</ele>
        <time>2021-01-02T13:56:21Z</time>
      </trkpt>
      <trkpt lat="45.90269" lon="3.03956">
        <ele>635.4</ele>
        <time>2021-01-02T13:56:24Z</time>
      </trkpt>
      <trkpt lat="45.90276" lon="3.03963">
        <ele>635.4</ele>
        <time>2021-01-02T13:56:30Z</time>
      </trkpt>
      <trkpt lat="45.90279" lon="3.03967">
        <ele>635.4</ele>
        <time>2021-01-02T13:56:33Z</time>
      </trkpt>
      <trkpt lat="45.90279" lon="3.03971">
        <ele>635.4</ele>
        <time>2021-01-02T13:56:36Z</time>
      </trkpt>
      <trkpt lat="45.90279" lon="3.03972">
        <ele>635.4</ele>
        <time>2021-01-02T13:56:38Z</time>
      </trkpt>
      <trkpt lat="45.90276" lon="3.03985">
        <ele>637.4</ele>
        <time>2021-01-02T13:57:21Z</time>
      </trkpt>
      <trkpt lat="45.90276" lon="3.03988">
        <ele>637.4</ele>
        <time>2021-01-02T13:57:23Z</time>
      </trkpt>
      <trkpt lat="45.90272" lon="3.04004">
        <ele>637.4</ele>
        <time>2021-01-02T13:57:31Z</time>
      </trkpt>
      <trkpt lat="45.90268" lon="3.04018">
        <ele>637.4</ele>
        <time>2021-01-02T13:57:38Z</time>
      </trkpt>
      <trkpt lat="45.90266" lon="3.04034">
        <ele>637.4</ele>
        <time>2021-01-02T13:57:44Z</time>
      </trkpt>
      <trkpt lat="45.90264" lon="3.04042">
        <ele>637.8</ele>
        <time>2021-01-02T13:57:47Z</time>
      </trkpt>
      <trkpt lat="45.90264" lon="3.04045">
        <ele>638.2</ele>
        <time>2021-01-02T13:57:48Z</time>
      </trkpt>
      <trkpt lat="45.90263" lon="3.04048">
        <ele>638.6</ele>
        <time>2021-01-02T13:57:49Z</time>
      </trkpt>
      <trkpt lat="45.90263" lon="3.0405">
        <ele>639</ele>
        <time>2021-01-02T13:57:50Z</time>
      </trkpt>
      <trkpt lat="45.90262" lon="3.04053">
        <ele>639.4</ele>
        <time>2021-01-02T13:57:51Z</time>
      </trkpt>
      <trkpt lat="45.90258" lon="3.04061">
        <ele>640</ele>
        <time>2021-01-02T13:57:55Z</time>
      </trkpt>
      <trkpt lat="45.90257" lon="3.04062">
        <ele>640.4</ele>
        <time>2021-01-02T13:57:56Z</time>
      </trkpt>
      <trkpt lat="45.90256" lon="3.04064">
        <ele>641</ele>
        <time>2021-01-02T13:57:57Z</time>
      </trkpt>
      <trkpt lat="45.90255" lon="3.04064">
        <ele>641.6</ele>
        <time>2021-01-02T13:57:58Z</time>
      </trkpt>
      <trkpt lat="45.90254" lon="3.04065">
        <ele>642.2</ele>
        <time>2021-01-02T13:57:59Z</time>
      </trkpt>
      <trkpt lat="45.90253" lon="3.04066">
        <ele>643</ele>
        <time>2021-01-02T13:58:00Z</time>
      </trkpt>
      <trkpt lat="45.90251" lon="3.04066">
        <ele>643.6</ele>
        <time>2021-01-02T13:58:01Z</time>
      </trkpt>
      <trkpt lat="45.9025" lon="3.04068">
        <ele>644.2</ele>
        <time>2021-01-02T13:58:02Z</time>
      </trkpt>
      <trkpt lat="45.90249" lon="3.04068">
        <ele>645</ele>
        <time>2021-01-02T13:58:03Z</time>
      </trkpt>
      <trkpt lat="45.90248" lon="3.0407">
        <ele>645.6</ele>
        <time>2021-01-02T13:58:04Z</time>
      </trkpt>
      <trkpt lat="45.90247" lon="3.04073">
        <ele>646.4</ele>
        <time>2021-01-02T13:58:05Z</time>
      </trkpt>
      <trkpt lat="45.90241" lon="3.04082">
        <ele>646.8</ele>
        <time>2021-01-02T13:58:10Z</time>
      </trkpt>
      <trkpt lat="45.90241" lon="3.04083">
        <ele>647.2</ele>
        <time>2021-01-02T13:58:11Z</time>
      </trkpt>
      <trkpt lat="45.9024" lon="3.04084">
        <ele>647.6</ele>
        <time>2021-01-02T13:58:12Z</time>
      </trkpt>
      <trkpt lat="45.9024" lon="3.04086">
        <ele>648</ele>
        <time>2021-01-02T13:58:13Z</time>
      </trkpt>
      <trkpt lat="45.90239" lon="3.04088">
        <ele>648.4</ele>
        <time>2021-01-02T13:58:14Z</time>
      </trkpt>
      <trkpt lat="45.90238" lon="3.04093">
        <ele>648.4</ele>
        <time>2021-01-02T13:58:16Z</time>
      </trkpt>
      <trkpt lat="45.90238" lon="3.04095">
        <ele>648.4</ele>
        <time>2021-01-02T13:58:17Z</time>
      </trkpt>
      <trkpt lat="45.90236" lon="3.04107">
        <ele>648.4</ele>
        <time>2021-01-02T13:58:23Z</time>
      </trkpt>
      <trkpt lat="45.90235" lon="3.04115">
        <ele>648.4</ele>
        <time>2021-01-02T13:58:28Z</time>
      </trkpt>
      <trkpt lat="45.90234" lon="3.04117">
        <ele>648.4</ele>
        <time>2021-01-02T13:58:30Z</time>
      </trkpt>
      <trkpt lat="45.9023" lon="3.04118">
        <ele>648.8</ele>
        <time>2021-01-02T13:58:33Z</time>
      </trkpt>
      <trkpt lat="45.90228" lon="3.04118">
        <ele>649.2</ele>
        <time>2021-01-02T13:58:34Z</time>
      </trkpt>
      <trkpt lat="45.90227" lon="3.04118">
        <ele>649.6</ele>
        <time>2021-01-02T13:58:35Z</time>
      </trkpt>
      <trkpt lat="45.90226" lon="3.04119">
        <ele>650</ele>
        <time>2021-01-02T13:58:36Z</time>
      </trkpt>
      <trkpt lat="45.90225" lon="3.04119">
        <ele>650.4</ele>
        <time>2021-01-02T13:58:37Z</time>
      </trkpt>
      <trkpt lat="45.90218" lon="3.04121">
        <ele>650.8</ele>
        <time>2021-01-02T13:58:43Z</time>
      </trkpt>
      <trkpt lat="45.90217" lon="3.04121">
        <ele>651.2</ele>
        <time>2021-01-02T13:58:44Z</time>
      </trkpt>
      <trkpt lat="45.90215" lon="3.04121">
        <ele>651.6</ele>
        <time>2021-01-02T13:58:45Z</time>
      </trkpt>
      <trkpt lat="45.90214" lon="3.04121">
        <ele>652</ele>
        <time>2021-01-02T13:58:46Z</time>
      </trkpt>
      <trkpt lat="45.90213" lon="3.04121">
        <ele>652.4</ele>
        <time>2021-01-02T13:58:47Z</time>
      </trkpt>
      <trkpt lat="45.9021" lon="3.04122">
        <ele>652.4</ele>
        <time>2021-01-02T13:58:49Z</time>
      </trkpt>
      <trkpt lat="45.90204" lon="3.04124">
        <ele>652.4</ele>
        <time>2021-01-02T13:58:54Z</time>
      </trkpt>
      <trkpt lat="45.90203" lon="3.04125">
        <ele>652.4</ele>
        <time>2021-01-02T13:58:55Z</time>
      </trkpt>
      <trkpt lat="45.90199" lon="3.04127">
        <ele>652.4</ele>
        <time>2021-01-02T13:58:59Z</time>
      </trkpt>
      <trkpt lat="45.90196" lon="3.04131">
        <ele>652.8</ele>
        <time>2021-01-02T13:59:02Z</time>
      </trkpt>
      <trkpt lat="45.90195" lon="3.04132">
        <ele>653.4</ele>
        <time>2021-01-02T13:59:03Z</time>
      </trkpt>
      <trkpt lat="45.90195" lon="3.04134">
        <ele>653.8</ele>
        <time>2021-01-02T13:59:04Z</time>
      </trkpt>
      <trkpt lat="45.90194" lon="3.04136">
        <ele>654.4</ele>
        <time>2021-01-02T13:59:05Z</time>
      </trkpt>
      <trkpt lat="45.90194" lon="3.04137">
        <ele>655</ele>
        <time>2021-01-02T13:59:06Z</time>
      </trkpt>
      <trkpt lat="45.90194" lon="3.04142">
        <ele>655</ele>
        <time>2021-01-02T13:59:08Z</time>
      </trkpt>
      <trkpt lat="45.90192" lon="3.04145">
        <ele>655.4</ele>
        <time>2021-01-02T13:59:10Z</time>
      </trkpt>
      <trkpt lat="45.90192" lon="3.04147">
        <ele>655.8</ele>
        <time>2021-01-02T13:59:11Z</time>
      </trkpt>
      <trkpt lat="45.90191" lon="3.04148">
        <ele>656.2</ele>
        <time>2021-01-02T13:59:12Z</time>
      </trkpt>
      <trkpt lat="45.90186" lon="3.04157">
        <ele>657</ele>
        <time>2021-01-02T13:59:17Z</time>
      </trkpt>
      <trkpt lat="45.90185" lon="3.04168">
        <ele>657</ele>
        <time>2021-01-02T13:59:22Z</time>
      </trkpt>
      <trkpt lat="45.90185" lon="3.04169">
        <ele>657</ele>
        <time>2021-01-02T13:59:24Z</time>
      </trkpt>
      <trkpt lat="45.90185" lon="3.04172">
        <ele>657</ele>
        <time>2021-01-02T14:03:24Z</time>
      </trkpt>
      <trkpt lat="45.90185" lon="3.04174">
        <ele>657</ele>
        <time>2021-01-02T14:03:25Z</time>
      </trkpt>
      <trkpt lat="45.90185" lon="3.04176">
        <ele>657</ele>
        <time>2021-01-02T14:03:26Z</time>
      </trkpt>
      <trkpt lat="45.90184" lon="3.0418">
        <ele>657</ele>
        <time>2021-01-02T14:03:28Z</time>
      </trkpt>
      <trkpt lat="45.90183" lon="3.04183">
        <ele>656.6</ele>
        <time>2021-01-02T14:03:30Z</time>
      </trkpt>
      <trkpt lat="45.90182" lon="3.04185">
        <ele>656.2</ele>
        <time>2021-01-02T14:03:31Z</time>
      </trkpt>
      <trkpt lat="45.90181" lon="3.04188">
        <ele>655.6</ele>
        <time>2021-01-02T14:03:32Z</time>
      </trkpt>
      <trkpt lat="45.9018" lon="3.04192">
        <ele>655.2</ele>
        <time>2021-01-02T14:03:33Z</time>
      </trkpt>
      <trkpt lat="45.90179" lon="3.04197">
        <ele>654.8</ele>
        <time>2021-01-02T14:03:34Z</time>
      </trkpt>
      <trkpt lat="45.90178" lon="3.04202">
        <ele>654.2</ele>
        <time>2021-01-02T14:03:35Z</time>
      </trkpt>
      <trkpt lat="45.90178" lon="3.04206">
        <ele>653.6</ele>
        <time>2021-01-02T14:03:36Z</time>
      </trkpt>
      <trkpt lat="45.90177" lon="3.04211">
        <ele>652.8</ele>
        <time>2021-01-02T14:03:37Z</time>
      </trkpt>
      <trkpt lat="45.90177" lon="3.04215">
        <ele>652</ele>
        <time>2021-01-02T14:03:38Z</time>
      </trkpt>
      <trkpt lat="45.90178" lon="3.0422">
        <ele>651.2</ele>
        <time>2021-01-02T14:03:39Z</time>
      </trkpt>
      <trkpt lat="45.90178" lon="3.04223">
        <ele>650.4</ele>
        <time>2021-01-02T14:03:40Z</time>
      </trkpt>
      <trkpt lat="45.90179" lon="3.04226">
        <ele>649.4</ele>
        <time>2021-01-02T14:03:41Z</time>
      </trkpt>
      <trkpt lat="45.90179" lon="3.04228">
        <ele>648.6</ele>
        <time>2021-01-02T14:03:42Z</time>
      </trkpt>
      <trkpt lat="45.9018" lon="3.0423">
        <ele>647.6</ele>
        <time>2021-01-02T14:03:43Z</time>
      </trkpt>
      <trkpt lat="45.9018" lon="3.04232">
        <ele>647</ele>
        <time>2021-01-02T14:03:44Z</time>
      </trkpt>
      <trkpt lat="45.90181" lon="3.04233">
        <ele>646.4</ele>
        <time>2021-01-02T14:03:45Z</time>
      </trkpt>
      <trkpt lat="45.90182" lon="3.04234">
        <ele>645.8</ele>
        <time>2021-01-02T14:03:46Z</time>
      </trkpt>
      <trkpt lat="45.90183" lon="3.04235">
        <ele>645.2</ele>
        <time>2021-01-02T14:03:47Z</time>
      </trkpt>
      <trkpt lat="45.90183" lon="3.04236">
        <ele>644.6</ele>
        <time>2021-01-02T14:03:48Z</time>
      </trkpt>
      <trkpt lat="45.90179" lon="3.04243">
        <ele>642.4</ele>
        <time>2021-01-02T14:03:56Z</time>
      </trkpt>
      <trkpt lat="45.90177" lon="3.04244">
        <ele>642</ele>
        <time>2021-01-02T14:03:57Z</time>
      </trkpt>
      <trkpt lat="45.90176" lon="3.04245">
        <ele>641.6</ele>
        <time>2021-01-02T14:03:58Z</time>
      </trkpt>
      <trkpt lat="45.90175" lon="3.04247">
        <ele>641</ele>
        <time>2021-01-02T14:03:59Z</time>
      </trkpt>
      <trkpt lat="45.90173" lon="3.04248">
        <ele>640.4</ele>
        <time>2021-01-02T14:04:00Z</time>
      </trkpt>
      <trkpt lat="45.90171" lon="3.04249">
        <ele>639.8</ele>
        <time>2021-01-02T14:04:01Z</time>
      </trkpt>
      <trkpt lat="45.9017" lon="3.04251">
        <ele>639</ele>
        <time>2021-01-02T14:04:02Z</time>
      </trkpt>
      <trkpt lat="45.90169" lon="3.04253">
        <ele>638.2</ele>
        <time>2021-01-02T14:04:03Z</time>
      </trkpt>
      <trkpt lat="45.90168" lon="3.04256">
        <ele>637.6</ele>
        <time>2021-01-02T14:04:04Z</time>
      </trkpt>
      <trkpt lat="45.90166" lon="3.04259">
        <ele>636.6</ele>
        <time>2021-01-02T14:04:05Z</time>
      </trkpt>
      <trkpt lat="45.90164" lon="3.04262">
        <ele>635.8</ele>
        <time>2021-01-02T14:04:06Z</time>
      </trkpt>
      <trkpt lat="45.90162" lon="3.04264">
        <ele>634.6</ele>
        <time>2021-01-02T14:04:07Z</time>
      </trkpt>
      <trkpt lat="45.90161" lon="3.04268">
        <ele>633.6</ele>
        <time>2021-01-02T14:04:08Z</time>
      </trkpt>
      <trkpt lat="45.90161" lon="3.0427">
        <ele>632.4</ele>
        <time>2021-01-02T14:04:09Z</time>
      </trkpt>
      <trkpt lat="45.90162" lon="3.04273">
        <ele>631.4</ele>
        <time>2021-01-02T14:04:10Z</time>
      </trkpt>
      <trkpt lat="45.90162" lon="3.04275">
        <ele>630.2</ele>
        <time>2021-01-02T14:04:11Z</time>
      </trkpt>
      <trkpt lat="45.90162" lon="3.04277">
        <ele>629.2</ele>
        <time>2021-01-02T14:04:12Z</time>
      </trkpt>
      <trkpt lat="45.90161" lon="3.0428">
        <ele>628.2</ele>
        <time>2021-01-02T14:04:13Z</time>
      </trkpt>
      <trkpt lat="45.9016" lon="3.04283">
        <ele>627.2</ele>
        <time>2021-01-02T14:04:14Z</time>
      </trkpt>
      <trkpt lat="45.90159" lon="3.04287">
        <ele>626.2</ele>
        <time>2021-01-02T14:04:15Z</time>
      </trkpt>
      <trkpt lat="45.90158" lon="3.04291">
        <ele>625</ele>
        <time>2021-01-02T14:04:16Z</time>
      </trkpt>
      <trkpt lat="45.90158" lon="3.04295">
        <ele>622.4</ele>
        <time>2021-01-02T14:04:17Z</time>
      </trkpt>
      <trkpt lat="45.90158" lon="3.04299">
        <ele>621</ele>
        <time>2021-01-02T14:04:18Z</time>
      </trkpt>
      <trkpt lat="45.90157" lon="3.04302">
        <ele>619.8</ele>
        <time>2021-01-02T14:04:19Z</time>
      </trkpt>
      <trkpt lat="45.90156" lon="3.04303">
        <ele>618.6</ele>
        <time>2021-01-02T14:04:20Z</time>
      </trkpt>
      <trkpt lat="45.90155" lon="3.04304">
        <ele>617.2</ele>
        <time>2021-01-02T14:04:21Z</time>
      </trkpt>
      <trkpt lat="45.90153" lon="3.04305">
        <ele>616</ele>
        <time>2021-01-02T14:04:22Z</time>
      </trkpt>
      <trkpt lat="45.90151" lon="3.04307">
        <ele>615.4</ele>
        <time>2021-01-02T14:04:23Z</time>
      </trkpt>
      <trkpt lat="45.9015" lon="3.04308">
        <ele>614.8</ele>
        <time>2021-01-02T14:04:24Z</time>
      </trkpt>
      <trkpt lat="45.9015" lon="3.04311">
        <ele>614</ele>
        <time>2021-01-02T14:04:25Z</time>
      </trkpt>
      <trkpt lat="45.90149" lon="3.04314">
        <ele>613.4</ele>
        <time>2021-01-02T14:04:26Z</time>
      </trkpt>
      <trkpt lat="45.90149" lon="3.04317">
        <ele>612.6</ele>
        <time>2021-01-02T14:04:27Z</time>
      </trkpt>
      <trkpt lat="45.90149" lon="3.0432">
        <ele>612</ele>
        <time>2021-01-02T14:04:28Z</time>
      </trkpt>
      <trkpt lat="45.90148" lon="3.04321">
        <ele>611.4</ele>
        <time>2021-01-02T14:04:29Z</time>
      </trkpt>
      <trkpt lat="45.90148" lon="3.04323">
        <ele>610.6</ele>
        <time>2021-01-02T14:04:30Z</time>
      </trkpt>
      <trkpt lat="45.90148" lon="3.04326">
        <ele>610</ele>
        <time>2021-01-02T14:04:31Z</time>
      </trkpt>
      <trkpt lat="45.90148" lon="3.0433">
        <ele>609.2</ele>
        <time>2021-01-02T14:04:32Z</time>
      </trkpt>
      <trkpt lat="45.90149" lon="3.04333">
        <ele>608.4</ele>
        <time>2021-01-02T14:04:33Z</time>
      </trkpt>
      <trkpt lat="45.90149" lon="3.04336">
        <ele>607.4</ele>
        <time>2021-01-02T14:04:34Z</time>
      </trkpt>
      <trkpt lat="45.90148" lon="3.04338">
        <ele>606.6</ele>
        <time>2021-01-02T14:04:35Z</time>
      </trkpt>
      <trkpt lat="45.90147" lon="3.04339">
        <ele>605.6</ele>
        <time>2021-01-02T14:04:36Z</time>
      </trkpt>
      <trkpt lat="45.90147" lon="3.04341">
        <ele>604.6</ele>
        <time>2021-01-02T14:04:37Z</time>
      </trkpt>
      <trkpt lat="45.90145" lon="3.04344">
        <ele>603.8</ele>
        <time>2021-01-02T14:04:38Z</time>
      </trkpt>
      <trkpt lat="45.90143" lon="3.0435">
        <ele>603.2</ele>
        <time>2021-01-02T14:04:40Z</time>
      </trkpt>
      <trkpt lat="45.90142" lon="3.04354">
        <ele>602.6</ele>
        <time>2021-01-02T14:04:41Z</time>
      </trkpt>
      <trkpt lat="45.90141" lon="3.04357">
        <ele>601.4</ele>
        <time>2021-01-02T14:04:42Z</time>
      </trkpt>
      <trkpt lat="45.9014" lon="3.04359">
        <ele>600.8</ele>
        <time>2021-01-02T14:04:43Z</time>
      </trkpt>
      <trkpt lat="45.90139" lon="3.04361">
        <ele>600.2</ele>
        <time>2021-01-02T14:04:44Z</time>
      </trkpt>
      <trkpt lat="45.90139" lon="3.04363">
        <ele>599.6</ele>
        <time>2021-01-02T14:04:45Z</time>
      </trkpt>
      <trkpt lat="45.90138" lon="3.04365">
        <ele>599</ele>
        <time>2021-01-02T14:04:46Z</time>
      </trkpt>
      <trkpt lat="45.90137" lon="3.04366">
        <ele>598.4</ele>
        <time>2021-01-02T14:04:47Z</time>
      </trkpt>
      <trkpt lat="45.90135" lon="3.04367">
        <ele>597.8</ele>
        <time>2021-01-02T14:04:48Z</time>
      </trkpt>
      <trkpt lat="45.90133" lon="3.0437">
        <ele>597.2</ele>
        <time>2021-01-02T14:04:49Z</time>
      </trkpt>
      <trkpt lat="45.90131" lon="3.04373">
        <ele>596.6</ele>
        <time>2021-01-02T14:04:50Z</time>
      </trkpt>
      <trkpt lat="45.90128" lon="3.04376">
        <ele>596</ele>
        <time>2021-01-02T14:04:51Z</time>
      </trkpt>
      <trkpt lat="45.90125" lon="3.04377">
        <ele>595.2</ele>
        <time>2021-01-02T14:04:52Z</time>
      </trkpt>
      <trkpt lat="45.90122" lon="3.04379">
        <ele>594.4</ele>
        <time>2021-01-02T14:04:53Z</time>
      </trkpt>
      <trkpt lat="45.90119" lon="3.04381">
        <ele>593.6</ele>
        <time>2021-01-02T14:04:54Z</time>
      </trkpt>
      <trkpt lat="45.90117" lon="3.04382">
        <ele>592.6</ele>
        <time>2021-01-02T14:04:55Z</time>
      </trkpt>
      <trkpt lat="45.90114" lon="3.04383">
        <ele>591.8</ele>
        <time>2021-01-02T14:04:56Z</time>
      </trkpt>
      <trkpt lat="45.90109" lon="3.04385">
        <ele>591.4</ele>
        <time>2021-01-02T14:04:58Z</time>
      </trkpt>
      <trkpt lat="45.90107" lon="3.04388">
        <ele>591</ele>
        <time>2021-01-02T14:04:59Z</time>
      </trkpt>
      <trkpt lat="45.90104" lon="3.04393">
        <ele>590.6</ele>
        <time>2021-01-02T14:05:00Z</time>
      </trkpt>
      <trkpt lat="45.90102" lon="3.04396">
        <ele>590.2</ele>
        <time>2021-01-02T14:05:01Z</time>
      </trkpt>
      <trkpt lat="45.901" lon="3.04398">
        <ele>589.6</ele>
        <time>2021-01-02T14:05:02Z</time>
      </trkpt>
      <trkpt lat="45.90096" lon="3.044">
        <ele>589</ele>
        <time>2021-01-02T14:05:03Z</time>
      </trkpt>
      <trkpt lat="45.90093" lon="3.04403">
        <ele>588.6</ele>
        <time>2021-01-02T14:05:04Z</time>
      </trkpt>
      <trkpt lat="45.90091" lon="3.04407">
        <ele>587.8</ele>
        <time>2021-01-02T14:05:05Z</time>
      </trkpt>
      <trkpt lat="45.90089" lon="3.04411">
        <ele>586.4</ele>
        <time>2021-01-02T14:05:06Z</time>
      </trkpt>
      <trkpt lat="45.90087" lon="3.04415">
        <ele>585.8</ele>
        <time>2021-01-02T14:05:07Z</time>
      </trkpt>
      <trkpt lat="45.90086" lon="3.04419">
        <ele>585.2</ele>
        <time>2021-01-02T14:05:08Z</time>
      </trkpt>
      <trkpt lat="45.90085" lon="3.04423">
        <ele>584.6</ele>
        <time>2021-01-02T14:05:09Z</time>
      </trkpt>
      <trkpt lat="45.90084" lon="3.04427">
        <ele>584</ele>
        <time>2021-01-02T14:05:10Z</time>
      </trkpt>
      <trkpt lat="45.90085" lon="3.04432">
        <ele>583.4</ele>
        <time>2021-01-02T14:05:11Z</time>
      </trkpt>
      <trkpt lat="45.90087" lon="3.04435">
        <ele>582.6</ele>
        <time>2021-01-02T14:05:12Z</time>
      </trkpt>
      <trkpt lat="45.90089" lon="3.04436">
        <ele>582</ele>
        <time>2021-01-02T14:05:13Z</time>
      </trkpt>
      <trkpt lat="45.9009" lon="3.04436">
        <ele>581.4</ele>
        <time>2021-01-02T14:05:14Z</time>
      </trkpt>
      <trkpt lat="45.90091" lon="3.04436">
        <ele>580.6</ele>
        <time>2021-01-02T14:05:15Z</time>
      </trkpt>
      <trkpt lat="45.90092" lon="3.04437">
        <ele>580.6</ele>
        <time>2021-01-02T14:05:16Z</time>
      </trkpt>
      <trkpt lat="45.90094" lon="3.04437">
        <ele>580.6</ele>
        <time>2021-01-02T14:05:19Z</time>
      </trkpt>
      <trkpt lat="45.90099" lon="3.04438">
        <ele>580.6</ele>
        <time>2021-01-02T14:06:35Z</time>
      </trkpt>
      <trkpt lat="45.9011" lon="3.04435">
        <ele>580.6</ele>
        <time>2021-01-02T14:06:40Z</time>
      </trkpt>
      <trkpt lat="45.90119" lon="3.0443">
        <ele>580.6</ele>
        <time>2021-01-02T14:06:44Z</time>
      </trkpt>
      <trkpt lat="45.90123" lon="3.04425">
        <ele>580.6</ele>
        <time>2021-01-02T14:06:46Z</time>
      </trkpt>
      <trkpt lat="45.90133" lon="3.0441">
        <ele>581.2</ele>
        <time>2021-01-02T14:06:51Z</time>
      </trkpt>
      <trkpt lat="45.90135" lon="3.04408">
        <ele>581.6</ele>
        <time>2021-01-02T14:06:52Z</time>
      </trkpt>
      <trkpt lat="45.90137" lon="3.04406">
        <ele>582</ele>
        <time>2021-01-02T14:06:53Z</time>
      </trkpt>
      <trkpt lat="45.90139" lon="3.04404">
        <ele>582.4</ele>
        <time>2021-01-02T14:06:54Z</time>
      </trkpt>
      <trkpt lat="45.9014" lon="3.04401">
        <ele>582.8</ele>
        <time>2021-01-02T14:06:55Z</time>
      </trkpt>
      <trkpt lat="45.90147" lon="3.04392">
        <ele>583.4</ele>
        <time>2021-01-02T14:06:59Z</time>
      </trkpt>
      <trkpt lat="45.90148" lon="3.0439">
        <ele>583.8</ele>
        <time>2021-01-02T14:07:00Z</time>
      </trkpt>
      <trkpt lat="45.9015" lon="3.04388">
        <ele>584.2</ele>
        <time>2021-01-02T14:07:01Z</time>
      </trkpt>
      <trkpt lat="45.90151" lon="3.04386">
        <ele>584.6</ele>
        <time>2021-01-02T14:07:02Z</time>
      </trkpt>
      <trkpt lat="45.90152" lon="3.04385">
        <ele>585.2</ele>
        <time>2021-01-02T14:07:03Z</time>
      </trkpt>
      <trkpt lat="45.90155" lon="3.04381">
        <ele>585.2</ele>
        <time>2021-01-02T14:07:05Z</time>
      </trkpt>
      <trkpt lat="45.90156" lon="3.0438">
        <ele>585.6</ele>
        <time>2021-01-02T14:07:06Z</time>
      </trkpt>
      <trkpt lat="45.90157" lon="3.04378">
        <ele>586</ele>
        <time>2021-01-02T14:07:07Z</time>
      </trkpt>
      <trkpt lat="45.90158" lon="3.04377">
        <ele>586.4</ele>
        <time>2021-01-02T14:07:08Z</time>
      </trkpt>
      <trkpt lat="45.90159" lon="3.04376">
        <ele>586.8</ele>
        <time>2021-01-02T14:07:09Z</time>
      </trkpt>
      <trkpt lat="45.9016" lon="3.04375">
        <ele>587.4</ele>
        <time>2021-01-02T14:07:10Z</time>
      </trkpt>
      <trkpt lat="45.90162" lon="3.04371">
        <ele>587.8</ele>
        <time>2021-01-02T14:07:12Z</time>
      </trkpt>
      <trkpt lat="45.90164" lon="3.0437">
        <ele>588.2</ele>
        <time>2021-01-02T14:07:13Z</time>
      </trkpt>
      <trkpt lat="45.90165" lon="3.04368">
        <ele>588.8</ele>
        <time>2021-01-02T14:07:14Z</time>
      </trkpt>
      <trkpt lat="45.90166" lon="3.04366">
        <ele>589.2</ele>
        <time>2021-01-02T14:07:15Z</time>
      </trkpt>
      <trkpt lat="45.90168" lon="3.04365">
        <ele>589.6</ele>
        <time>2021-01-02T14:07:16Z</time>
      </trkpt>
      <trkpt lat="45.90172" lon="3.04361">
        <ele>589.6</ele>
        <time>2021-01-02T14:07:19Z</time>
      </trkpt>
      <trkpt lat="45.90174" lon="3.0436">
        <ele>590</ele>
        <time>2021-01-02T14:07:20Z</time>
      </trkpt>
      <trkpt lat="45.90175" lon="3.04358">
        <ele>590.4</ele>
        <time>2021-01-02T14:07:21Z</time>
      </trkpt>
      <trkpt lat="45.90176" lon="3.04357">
        <ele>590.8</ele>
        <time>2021-01-02T14:07:22Z</time>
      </trkpt>
      <trkpt lat="45.90177" lon="3.04356">
        <ele>591.2</ele>
        <time>2021-01-02T14:07:23Z</time>
      </trkpt>
      <trkpt lat="45.90179" lon="3.04355">
        <ele>591.6</ele>
        <time>2021-01-02T14:07:24Z</time>
      </trkpt>
      <trkpt lat="45.9018" lon="3.04354">
        <ele>591.6</ele>
        <time>2021-01-02T14:07:25Z</time>
      </trkpt>
      <trkpt lat="45.90188" lon="3.04348">
        <ele>591.6</ele>
        <time>2021-01-02T14:07:30Z</time>
      </trkpt>
      <trkpt lat="45.90202" lon="3.04341">
        <ele>591.6</ele>
        <time>2021-01-02T14:07:37Z</time>
      </trkpt>
      <trkpt lat="45.90206" lon="3.0434">
        <ele>592</ele>
        <time>2021-01-02T14:07:39Z</time>
      </trkpt>
      <trkpt lat="45.90208" lon="3.0434">
        <ele>592.4</ele>
        <time>2021-01-02T14:07:40Z</time>
      </trkpt>
      <trkpt lat="45.9021" lon="3.0434">
        <ele>592.8</ele>
        <time>2021-01-02T14:07:41Z</time>
      </trkpt>
      <trkpt lat="45.90212" lon="3.04339">
        <ele>593.4</ele>
        <time>2021-01-02T14:07:42Z</time>
      </trkpt>
      <trkpt lat="45.90214" lon="3.04338">
        <ele>593.8</ele>
        <time>2021-01-02T14:07:43Z</time>
      </trkpt>
      <trkpt lat="45.90228" lon="3.04335">
        <ele>593.8</ele>
        <time>2021-01-02T14:07:50Z</time>
      </trkpt>
      <trkpt lat="45.90242" lon="3.04329">
        <ele>593.8</ele>
        <time>2021-01-02T14:07:54Z</time>
      </trkpt>
      <trkpt lat="45.90253" lon="3.04325">
        <ele>593.2</ele>
        <time>2021-01-02T14:07:56Z</time>
      </trkpt>
      <trkpt lat="45.90258" lon="3.04322">
        <ele>592.8</ele>
        <time>2021-01-02T14:07:57Z</time>
      </trkpt>
      <trkpt lat="45.90263" lon="3.04319">
        <ele>592.2</ele>
        <time>2021-01-02T14:07:58Z</time>
      </trkpt>
      <trkpt lat="45.90267" lon="3.04317">
        <ele>591</ele>
        <time>2021-01-02T14:07:59Z</time>
      </trkpt>
      <trkpt lat="45.90271" lon="3.04315">
        <ele>590.2</ele>
        <time>2021-01-02T14:08:00Z</time>
      </trkpt>
      <trkpt lat="45.90274" lon="3.04314">
        <ele>589.6</ele>
        <time>2021-01-02T14:08:01Z</time>
      </trkpt>
      <trkpt lat="45.90276" lon="3.04313">
        <ele>589</ele>
        <time>2021-01-02T14:08:02Z</time>
      </trkpt>
      <trkpt lat="45.90279" lon="3.04311">
        <ele>589.6</ele>
        <time>2021-01-02T14:08:04Z</time>
      </trkpt>
      <trkpt lat="45.90281" lon="3.0431">
        <ele>590</ele>
        <time>2021-01-02T14:08:05Z</time>
      </trkpt>
      <trkpt lat="45.90282" lon="3.04309">
        <ele>590.6</ele>
        <time>2021-01-02T14:08:06Z</time>
      </trkpt>
      <trkpt lat="45.90283" lon="3.04308">
        <ele>591</ele>
        <time>2021-01-02T14:08:07Z</time>
      </trkpt>
      <trkpt lat="45.90285" lon="3.04307">
        <ele>591.6</ele>
        <time>2021-01-02T14:08:08Z</time>
      </trkpt>
      <trkpt lat="45.90293" lon="3.04301">
        <ele>592</ele>
        <time>2021-01-02T14:08:13Z</time>
      </trkpt>
      <trkpt lat="45.90295" lon="3.043">
        <ele>592.4</ele>
        <time>2021-01-02T14:08:14Z</time>
      </trkpt>
      <trkpt lat="45.90296" lon="3.04299">
        <ele>593</ele>
        <time>2021-01-02T14:08:15Z</time>
      </trkpt>
      <trkpt lat="45.90298" lon="3.04298">
        <ele>593.4</ele>
        <time>2021-01-02T14:08:16Z</time>
      </trkpt>
      <trkpt lat="45.90299" lon="3.04297">
        <ele>593.8</ele>
        <time>2021-01-02T14:08:17Z</time>
      </trkpt>
      <trkpt lat="45.90304" lon="3.04294">
        <ele>594.2</ele>
        <time>2021-01-02T14:08:20Z</time>
      </trkpt>
      <trkpt lat="45.90306" lon="3.04293">
        <ele>594.6</ele>
        <time>2021-01-02T14:08:21Z</time>
      </trkpt>
      <trkpt lat="45.90308" lon="3.04292">
        <ele>595.2</ele>
        <time>2021-01-02T14:08:22Z</time>
      </trkpt>
      <trkpt lat="45.9031" lon="3.04291">
        <ele>595.6</ele>
        <time>2021-01-02T14:08:23Z</time>
      </trkpt>
      <trkpt lat="45.90312" lon="3.04289">
        <ele>596</ele>
        <time>2021-01-02T14:08:24Z</time>
      </trkpt>
      <trkpt lat="45.90314" lon="3.04288">
        <ele>596</ele>
        <time>2021-01-02T14:08:25Z</time>
      </trkpt>
      <trkpt lat="45.90325" lon="3.04275">
        <ele>596</ele>
        <time>2021-01-02T14:08:31Z</time>
      </trkpt>
      <trkpt lat="45.90338" lon="3.04262">
        <ele>596</ele>
        <time>2021-01-02T14:08:39Z</time>
      </trkpt>
      <trkpt lat="45.90352" lon="3.04252">
        <ele>596</ele>
        <time>2021-01-02T14:08:44Z</time>
      </trkpt>
      <trkpt lat="45.90355" lon="3.04247">
        <ele>596</ele>
        <time>2021-01-02T14:08:45Z</time>
      </trkpt>
      <trkpt lat="45.90363" lon="3.04236">
        <ele>595.4</ele>
        <time>2021-01-02T14:08:47Z</time>
      </trkpt>
      <trkpt lat="45.90369" lon="3.0423">
        <ele>594</ele>
        <time>2021-01-02T14:08:48Z</time>
      </trkpt>
      <trkpt lat="45.90375" lon="3.04224">
        <ele>593.2</ele>
        <time>2021-01-02T14:08:49Z</time>
      </trkpt>
      <trkpt lat="45.90382" lon="3.0422">
        <ele>592.2</ele>
        <time>2021-01-02T14:08:50Z</time>
      </trkpt>
      <trkpt lat="45.9039" lon="3.04219">
        <ele>591.2</ele>
        <time>2021-01-02T14:08:51Z</time>
      </trkpt>
      <trkpt lat="45.90397" lon="3.04219">
        <ele>590.4</ele>
        <time>2021-01-02T14:08:52Z</time>
      </trkpt>
      <trkpt lat="45.90405" lon="3.04218">
        <ele>589.4</ele>
        <time>2021-01-02T14:08:53Z</time>
      </trkpt>
      <trkpt lat="45.90412" lon="3.04216">
        <ele>588.8</ele>
        <time>2021-01-02T14:08:54Z</time>
      </trkpt>
      <trkpt lat="45.90418" lon="3.04213">
        <ele>588</ele>
        <time>2021-01-02T14:08:55Z</time>
      </trkpt>
      <trkpt lat="45.90425" lon="3.04208">
        <ele>587.4</ele>
        <time>2021-01-02T14:08:56Z</time>
      </trkpt>
      <trkpt lat="45.9043" lon="3.04204">
        <ele>586.8</ele>
        <time>2021-01-02T14:08:57Z</time>
      </trkpt>
      <trkpt lat="45.90436" lon="3.04199">
        <ele>586.2</ele>
        <time>2021-01-02T14:08:58Z</time>
      </trkpt>
      <trkpt lat="45.90441" lon="3.04194">
        <ele>586.2</ele>
        <time>2021-01-02T14:08:59Z</time>
      </trkpt>
      <trkpt lat="45.90445" lon="3.04188">
        <ele>585.8</ele>
        <time>2021-01-02T14:09:00Z</time>
      </trkpt>
      <trkpt lat="45.90451" lon="3.04182">
        <ele>585.4</ele>
        <time>2021-01-02T14:09:01Z</time>
      </trkpt>
      <trkpt lat="45.90456" lon="3.04177">
        <ele>585</ele>
        <time>2021-01-02T14:09:02Z</time>
      </trkpt>
      <trkpt lat="45.9046" lon="3.04171">
        <ele>584.4</ele>
        <time>2021-01-02T14:09:03Z</time>
      </trkpt>
      <trkpt lat="45.90464" lon="3.04166">
        <ele>584</ele>
        <time>2021-01-02T14:09:04Z</time>
      </trkpt>
      <trkpt lat="45.90473" lon="3.04157">
        <ele>584</ele>
        <time>2021-01-02T14:09:06Z</time>
      </trkpt>
      <trkpt lat="45.90484" lon="3.04147">
        <ele>584</ele>
        <time>2021-01-02T14:09:08Z</time>
      </trkpt>
      <trkpt lat="45.90489" lon="3.04141">
        <ele>583.4</ele>
        <time>2021-01-02T14:09:09Z</time>
      </trkpt>
      <trkpt lat="45.90494" lon="3.04136">
        <ele>583</ele>
        <time>2021-01-02T14:09:10Z</time>
      </trkpt>
      <trkpt lat="45.90499" lon="3.0413">
        <ele>582.4</ele>
        <time>2021-01-02T14:09:11Z</time>
      </trkpt>
      <trkpt lat="45.90506" lon="3.04124">
        <ele>581.6</ele>
        <time>2021-01-02T14:09:12Z</time>
      </trkpt>
      <trkpt lat="45.90512" lon="3.04118">
        <ele>580.2</ele>
        <time>2021-01-02T14:09:13Z</time>
      </trkpt>
      <trkpt lat="45.90519" lon="3.04113">
        <ele>579.4</ele>
        <time>2021-01-02T14:09:14Z</time>
      </trkpt>
      <trkpt lat="45.90527" lon="3.04107">
        <ele>578.8</ele>
        <time>2021-01-02T14:09:15Z</time>
      </trkpt>
      <trkpt lat="45.90535" lon="3.04101">
        <ele>578.2</ele>
        <time>2021-01-02T14:09:16Z</time>
      </trkpt>
      <trkpt lat="45.90542" lon="3.04095">
        <ele>577.4</ele>
        <time>2021-01-02T14:09:17Z</time>
      </trkpt>
      <trkpt lat="45.90548" lon="3.04087">
        <ele>576.8</ele>
        <time>2021-01-02T14:09:18Z</time>
      </trkpt>
      <trkpt lat="45.90554" lon="3.04078">
        <ele>576</ele>
        <time>2021-01-02T14:09:19Z</time>
      </trkpt>
      <trkpt lat="45.90559" lon="3.04071">
        <ele>575.2</ele>
        <time>2021-01-02T14:09:20Z</time>
      </trkpt>
      <trkpt lat="45.90565" lon="3.04066">
        <ele>574.4</ele>
        <time>2021-01-02T14:09:21Z</time>
      </trkpt>
      <trkpt lat="45.9057" lon="3.04063">
        <ele>573.8</ele>
        <time>2021-01-02T14:09:22Z</time>
      </trkpt>
      <trkpt lat="45.90576" lon="3.04064">
        <ele>573</ele>
        <time>2021-01-02T14:09:23Z</time>
      </trkpt>
      <trkpt lat="45.90582" lon="3.04068">
        <ele>572.4</ele>
        <time>2021-01-02T14:09:24Z</time>
      </trkpt>
      <trkpt lat="45.90588" lon="3.04072">
        <ele>571.8</ele>
        <time>2021-01-02T14:09:25Z</time>
      </trkpt>
      <trkpt lat="45.90595" lon="3.04076">
        <ele>571</ele>
        <time>2021-01-02T14:09:26Z</time>
      </trkpt>
      <trkpt lat="45.90603" lon="3.0408">
        <ele>570.4</ele>
        <time>2021-01-02T14:09:27Z</time>
      </trkpt>
      <trkpt lat="45.9061" lon="3.04081">
        <ele>569.6</ele>
        <time>2021-01-02T14:09:28Z</time>
      </trkpt>
      <trkpt lat="45.90618" lon="3.04081">
        <ele>568.8</ele>
        <time>2021-01-02T14:09:29Z</time>
      </trkpt>
      <trkpt lat="45.90626" lon="3.04079">
        <ele>567.6</ele>
        <time>2021-01-02T14:09:30Z</time>
      </trkpt>
      <trkpt lat="45.90633" lon="3.04076">
        <ele>566.6</ele>
        <time>2021-01-02T14:09:31Z</time>
      </trkpt>
      <trkpt lat="45.90639" lon="3.04074">
        <ele>565.6</ele>
        <time>2021-01-02T14:09:32Z</time>
      </trkpt>
      <trkpt lat="45.90643" lon="3.04075">
        <ele>564.6</ele>
        <time>2021-01-02T14:09:33Z</time>
      </trkpt>
      <trkpt lat="45.90645" lon="3.04078">
        <ele>563.4</ele>
        <time>2021-01-02T14:09:34Z</time>
      </trkpt>
      <trkpt lat="45.90644" lon="3.04082">
        <ele>563.4</ele>
        <time>2021-01-02T14:09:36Z</time>
      </trkpt>
      <trkpt lat="45.9064" lon="3.04084">
        <ele>563.4</ele>
        <time>2021-01-02T14:09:39Z</time>
      </trkpt>
      <trkpt lat="45.90636" lon="3.04082">
        <ele>565.4</ele>
        <time>2021-01-02T14:11:37Z</time>
      </trkpt>
      <trkpt lat="45.90634" lon="3.04083">
        <ele>565.4</ele>
        <time>2021-01-02T14:11:38Z</time>
      </trkpt>
      <trkpt lat="45.90629" lon="3.04086">
        <ele>565.4</ele>
        <time>2021-01-02T14:11:41Z</time>
      </trkpt>
      <trkpt lat="45.90624" lon="3.04088">
        <ele>565.4</ele>
        <time>2021-01-02T14:11:44Z</time>
      </trkpt>
      <trkpt lat="45.90615" lon="3.04091">
        <ele>565</ele>
        <time>2021-01-02T14:11:49Z</time>
      </trkpt>
      <trkpt lat="45.90613" lon="3.04091">
        <ele>564.6</ele>
        <time>2021-01-02T14:11:50Z</time>
      </trkpt>
      <trkpt lat="45.90611" lon="3.04091">
        <ele>564.2</ele>
        <time>2021-01-02T14:11:51Z</time>
      </trkpt>
      <trkpt lat="45.90609" lon="3.04092">
        <ele>563.8</ele>
        <time>2021-01-02T14:11:52Z</time>
      </trkpt>
      <trkpt lat="45.90607" lon="3.04092">
        <ele>563.4</ele>
        <time>2021-01-02T14:11:53Z</time>
      </trkpt>
      <trkpt lat="45.906" lon="3.04095">
        <ele>563.4</ele>
        <time>2021-01-02T14:11:56Z</time>
      </trkpt>
      <trkpt lat="45.90595" lon="3.04099">
        <ele>563</ele>
        <time>2021-01-02T14:11:58Z</time>
      </trkpt>
      <trkpt lat="45.90593" lon="3.04101">
        <ele>562.6</ele>
        <time>2021-01-02T14:11:59Z</time>
      </trkpt>
      <trkpt lat="45.9059" lon="3.04104">
        <ele>562.2</ele>
        <time>2021-01-02T14:12:00Z</time>
      </trkpt>
      <trkpt lat="45.90588" lon="3.04108">
        <ele>561.8</ele>
        <time>2021-01-02T14:12:01Z</time>
      </trkpt>
      <trkpt lat="45.90587" lon="3.04112">
        <ele>561.4</ele>
        <time>2021-01-02T14:12:02Z</time>
      </trkpt>
      <trkpt lat="45.90587" lon="3.04117">
        <ele>561</ele>
        <time>2021-01-02T14:12:03Z</time>
      </trkpt>
      <trkpt lat="45.90587" lon="3.04121">
        <ele>560.6</ele>
        <time>2021-01-02T14:12:04Z</time>
      </trkpt>
      <trkpt lat="45.90587" lon="3.04124">
        <ele>560.2</ele>
        <time>2021-01-02T14:12:05Z</time>
      </trkpt>
      <trkpt lat="45.90587" lon="3.04127">
        <ele>559.4</ele>
        <time>2021-01-02T14:12:06Z</time>
      </trkpt>
      <trkpt lat="45.90588" lon="3.04135">
        <ele>559.4</ele>
        <time>2021-01-02T14:12:09Z</time>
      </trkpt>
      <trkpt lat="45.90592" lon="3.04146">
        <ele>559.4</ele>
        <time>2021-01-02T14:12:13Z</time>
      </trkpt>
      <trkpt lat="45.90595" lon="3.0415">
        <ele>559.4</ele>
        <time>2021-01-02T14:12:15Z</time>
      </trkpt>
      <trkpt lat="45.90601" lon="3.04161">
        <ele>559.4</ele>
        <time>2021-01-02T14:12:20Z</time>
      </trkpt>
      <trkpt lat="45.90603" lon="3.04163">
        <ele>559.4</ele>
        <time>2021-01-02T14:12:21Z</time>
      </trkpt>
      <trkpt lat="45.90604" lon="3.04165">
        <ele>559.4</ele>
        <time>2021-01-02T14:12:22Z</time>
      </trkpt>
      <trkpt lat="45.90609" lon="3.04172">
        <ele>559.4</ele>
        <time>2021-01-02T14:12:26Z</time>
      </trkpt>
      <trkpt lat="45.90617" lon="3.04183">
        <ele>559.4</ele>
        <time>2021-01-02T14:12:33Z</time>
      </trkpt>
      <trkpt lat="45.9062" lon="3.04186">
        <ele>559.4</ele>
        <time>2021-01-02T14:12:35Z</time>
      </trkpt>
      <trkpt lat="45.90628" lon="3.0419">
        <ele>559.4</ele>
        <time>2021-01-02T14:12:38Z</time>
      </trkpt>
      <trkpt lat="45.90635" lon="3.0419">
        <ele>559.4</ele>
        <time>2021-01-02T14:12:43Z</time>
      </trkpt>
      <trkpt lat="45.90636" lon="3.04189">
        <ele>558.8</ele>
        <time>2021-01-02T14:13:11Z</time>
      </trkpt>
      <trkpt lat="45.90636" lon="3.04186">
        <ele>558.2</ele>
        <time>2021-01-02T14:13:12Z</time>
      </trkpt>
      <trkpt lat="45.90637" lon="3.04182">
        <ele>557.8</ele>
        <time>2021-01-02T14:13:13Z</time>
      </trkpt>
      <trkpt lat="45.90638" lon="3.0418">
        <ele>557</ele>
        <time>2021-01-02T14:13:14Z</time>
      </trkpt>
      <trkpt lat="45.90638" lon="3.04179">
        <ele>556.2</ele>
        <time>2021-01-02T14:13:15Z</time>
      </trkpt>
      <trkpt lat="45.90641" lon="3.04169">
        <ele>551.6</ele>
        <time>2021-01-02T14:13:31Z</time>
      </trkpt>
      <trkpt lat="45.90644" lon="3.04166">
        <ele>551.2</ele>
        <time>2021-01-02T14:13:33Z</time>
      </trkpt>
      <trkpt lat="45.90644" lon="3.04165">
        <ele>550.8</ele>
        <time>2021-01-02T14:13:34Z</time>
      </trkpt>
      <trkpt lat="45.90645" lon="3.04163">
        <ele>550.4</ele>
        <time>2021-01-02T14:13:35Z</time>
      </trkpt>
      <trkpt lat="45.90646" lon="3.04162">
        <ele>549.6</ele>
        <time>2021-01-02T14:13:36Z</time>
      </trkpt>
      <trkpt lat="45.90647" lon="3.0416">
        <ele>548.8</ele>
        <time>2021-01-02T14:13:37Z</time>
      </trkpt>
      <trkpt lat="45.90648" lon="3.04159">
        <ele>548.2</ele>
        <time>2021-01-02T14:13:38Z</time>
      </trkpt>
      <trkpt lat="45.90648" lon="3.04159">
        <ele>547.4</ele>
        <time>2021-01-02T14:13:39Z</time>
      </trkpt>
      <trkpt lat="45.90649" lon="3.04158">
        <ele>546.8</ele>
        <time>2021-01-02T14:13:40Z</time>
      </trkpt>
      <trkpt lat="45.9065" lon="3.04156">
        <ele>546</ele>
        <time>2021-01-02T14:13:41Z</time>
      </trkpt>
      <trkpt lat="45.90651" lon="3.04156">
        <ele>545.2</ele>
        <time>2021-01-02T14:13:42Z</time>
      </trkpt>
      <trkpt lat="45.90652" lon="3.04155">
        <ele>544.6</ele>
        <time>2021-01-02T14:13:43Z</time>
      </trkpt>
      <trkpt lat="45.90653" lon="3.04154">
        <ele>544.2</ele>
        <time>2021-01-02T14:13:44Z</time>
      </trkpt>
      <trkpt lat="45.90654" lon="3.04154">
        <ele>543.6</ele>
        <time>2021-01-02T14:13:45Z</time>
      </trkpt>
      <trkpt lat="45.90655" lon="3.04153">
        <ele>542.6</ele>
        <time>2021-01-02T14:13:46Z</time>
      </trkpt>
      <trkpt lat="45.90655" lon="3.04151">
        <ele>542.2</ele>
        <time>2021-01-02T14:13:47Z</time>
      </trkpt>
      <trkpt lat="45.90658" lon="3.04149">
        <ele>542.2</ele>
        <time>2021-01-02T14:13:53Z</time>
      </trkpt>
      <trkpt lat="45.90661" lon="3.04147">
        <ele>542.2</ele>
        <time>2021-01-02T14:13:56Z</time>
      </trkpt>
      <trkpt lat="45.90665" lon="3.04143">
        <ele>541.8</ele>
        <time>2021-01-02T14:14:01Z</time>
      </trkpt>
      <trkpt lat="45.90667" lon="3.04142">
        <ele>541.4</ele>
        <time>2021-01-02T14:14:02Z</time>
      </trkpt>
      <trkpt lat="45.90667" lon="3.04141">
        <ele>540.8</ele>
        <time>2021-01-02T14:14:03Z</time>
      </trkpt>
      <trkpt lat="45.90668" lon="3.04141">
        <ele>540.4</ele>
        <time>2021-01-02T14:14:04Z</time>
      </trkpt>
      <trkpt lat="45.90669" lon="3.0414">
        <ele>540</ele>
        <time>2021-01-02T14:14:05Z</time>
      </trkpt>
      <trkpt lat="45.90671" lon="3.04136">
        <ele>539.6</ele>
        <time>2021-01-02T14:14:08Z</time>
      </trkpt>
      <trkpt lat="45.90671" lon="3.04135">
        <ele>539.2</ele>
        <time>2021-01-02T14:14:09Z</time>
      </trkpt>
      <trkpt lat="45.90675" lon="3.04131">
        <ele>535.6</ele>
        <time>2021-01-02T14:14:16Z</time>
      </trkpt>
      <trkpt lat="45.90677" lon="3.0413">
        <ele>535.2</ele>
        <time>2021-01-02T14:14:17Z</time>
      </trkpt>
      <trkpt lat="45.9068" lon="3.04128">
        <ele>535.2</ele>
        <time>2021-01-02T14:14:18Z</time>
      </trkpt>
      <trkpt lat="45.90682" lon="3.04128">
        <ele>534.8</ele>
        <time>2021-01-02T14:14:19Z</time>
      </trkpt>
      <trkpt lat="45.90684" lon="3.04127">
        <ele>534.2</ele>
        <time>2021-01-02T14:14:20Z</time>
      </trkpt>
      <trkpt lat="45.90684" lon="3.04126">
        <ele>533.8</ele>
        <time>2021-01-02T14:14:21Z</time>
      </trkpt>
      <trkpt lat="45.90684" lon="3.04125">
        <ele>533.4</ele>
        <time>2021-01-02T14:14:22Z</time>
      </trkpt>
      <trkpt lat="45.90687" lon="3.04119">
        <ele>532.6</ele>
        <time>2021-01-02T14:14:46Z</time>
      </trkpt>
      <trkpt lat="45.90689" lon="3.04118">
        <ele>532.2</ele>
        <time>2021-01-02T14:14:47Z</time>
      </trkpt>
      <trkpt lat="45.9069" lon="3.04117">
        <ele>531.8</ele>
        <time>2021-01-02T14:14:48Z</time>
      </trkpt>
      <trkpt lat="45.9069" lon="3.04117">
        <ele>531.4</ele>
        <time>2021-01-02T14:14:49Z</time>
      </trkpt>
      <trkpt lat="45.9069" lon="3.04117">
        <ele>531</ele>
        <time>2021-01-02T14:14:50Z</time>
      </trkpt>
      <trkpt lat="45.9069" lon="3.04119">
        <ele>531</ele>
        <time>2021-01-02T14:15:41Z</time>
      </trkpt>
      <trkpt lat="45.90694" lon="3.04123">
        <ele>531</ele>
        <time>2021-01-02T14:15:43Z</time>
      </trkpt>
      <trkpt lat="45.907" lon="3.04127">
        <ele>530.4</ele>
        <time>2021-01-02T14:15:45Z</time>
      </trkpt>
      <trkpt lat="45.90704" lon="3.04129">
        <ele>530</ele>
        <time>2021-01-02T14:15:46Z</time>
      </trkpt>
      <trkpt lat="45.90707" lon="3.04132">
        <ele>529.6</ele>
        <time>2021-01-02T14:15:47Z</time>
      </trkpt>
      <trkpt lat="45.90709" lon="3.04134">
        <ele>529</ele>
        <time>2021-01-02T14:15:48Z</time>
      </trkpt>
      <trkpt lat="45.90711" lon="3.04136">
        <ele>527.6</ele>
        <time>2021-01-02T14:15:49Z</time>
      </trkpt>
      <trkpt lat="45.90713" lon="3.04135">
        <ele>527</ele>
        <time>2021-01-02T14:15:50Z</time>
      </trkpt>
      <trkpt lat="45.90716" lon="3.04135">
        <ele>526.4</ele>
        <time>2021-01-02T14:15:51Z</time>
      </trkpt>
      <trkpt lat="45.90722" lon="3.04136">
        <ele>526.4</ele>
        <time>2021-01-02T14:15:56Z</time>
      </trkpt>
      <trkpt lat="45.90723" lon="3.04137">
        <ele>526.4</ele>
        <time>2021-01-02T14:15:57Z</time>
      </trkpt>
      <trkpt lat="45.90729" lon="3.04143">
        <ele>526.4</ele>
        <time>2021-01-02T14:16:04Z</time>
      </trkpt>
      <trkpt lat="45.90733" lon="3.04144">
        <ele>526.4</ele>
        <time>2021-01-02T14:16:06Z</time>
      </trkpt>
      <trkpt lat="45.90743" lon="3.04152">
        <ele>526.4</ele>
        <time>2021-01-02T14:16:09Z</time>
      </trkpt>
      <trkpt lat="45.90745" lon="3.04156">
        <ele>525.8</ele>
        <time>2021-01-02T14:16:10Z</time>
      </trkpt>
      <trkpt lat="45.90748" lon="3.04161">
        <ele>525.2</ele>
        <time>2021-01-02T14:16:11Z</time>
      </trkpt>
      <trkpt lat="45.90751" lon="3.04166">
        <ele>524.4</ele>
        <time>2021-01-02T14:16:12Z</time>
      </trkpt>
      <trkpt lat="45.90753" lon="3.04171">
        <ele>523.6</ele>
        <time>2021-01-02T14:16:13Z</time>
      </trkpt>
      <trkpt lat="45.90755" lon="3.04173">
        <ele>522</ele>
        <time>2021-01-02T14:16:14Z</time>
      </trkpt>
      <trkpt lat="45.90757" lon="3.04173">
        <ele>521.2</ele>
        <time>2021-01-02T14:16:15Z</time>
      </trkpt>
      <trkpt lat="45.90757" lon="3.04174">
        <ele>520.6</ele>
        <time>2021-01-02T14:16:16Z</time>
      </trkpt>
      <trkpt lat="45.90757" lon="3.04175">
        <ele>519.8</ele>
        <time>2021-01-02T14:16:17Z</time>
      </trkpt>
      <trkpt lat="45.90763" lon="3.04164">
        <ele>519</ele>
        <time>2021-01-02T14:17:24Z</time>
      </trkpt>
      <trkpt lat="45.90764" lon="3.04162">
        <ele>519</ele>
        <time>2021-01-02T14:17:25Z</time>
      </trkpt>
      <trkpt lat="45.9077" lon="3.04154">
        <ele>519</ele>
        <time>2021-01-02T14:17:30Z</time>
      </trkpt>
      <trkpt lat="45.90776" lon="3.04157">
        <ele>519</ele>
        <time>2021-01-02T14:17:35Z</time>
      </trkpt>
      <trkpt lat="45.90779" lon="3.04158">
        <ele>519</ele>
        <time>2021-01-02T14:17:37Z</time>
      </trkpt>
      <trkpt lat="45.90784" lon="3.04157">
        <ele>519</ele>
        <time>2021-01-02T14:17:39Z</time>
      </trkpt>
      <trkpt lat="45.90793" lon="3.04154">
        <ele>519</ele>
        <time>2021-01-02T14:17:45Z</time>
      </trkpt>
      <trkpt lat="45.908" lon="3.04157">
        <ele>519.4</ele>
        <time>2021-01-02T14:17:49Z</time>
      </trkpt>
      <trkpt lat="45.90801" lon="3.04158">
        <ele>519.8</ele>
        <time>2021-01-02T14:17:50Z</time>
      </trkpt>
      <trkpt lat="45.90802" lon="3.04159">
        <ele>520.4</ele>
        <time>2021-01-02T14:17:51Z</time>
      </trkpt>
      <trkpt lat="45.90804" lon="3.04161">
        <ele>520.8</ele>
        <time>2021-01-02T14:17:52Z</time>
      </trkpt>
      <trkpt lat="45.90805" lon="3.04161">
        <ele>521.2</ele>
        <time>2021-01-02T14:17:53Z</time>
      </trkpt>
      <trkpt lat="45.90811" lon="3.04165">
        <ele>521.2</ele>
        <time>2021-01-02T14:17:57Z</time>
      </trkpt>
      <trkpt lat="45.90812" lon="3.04167">
        <ele>521.2</ele>
        <time>2021-01-02T14:17:58Z</time>
      </trkpt>
      <trkpt lat="45.90815" lon="3.04171">
        <ele>521.2</ele>
        <time>2021-01-02T14:18:00Z</time>
      </trkpt>
      <trkpt lat="45.90819" lon="3.04179">
        <ele>521.2</ele>
        <time>2021-01-02T14:18:02Z</time>
      </trkpt>
      <trkpt lat="45.90824" lon="3.04187">
        <ele>520.6</ele>
        <time>2021-01-02T14:18:04Z</time>
      </trkpt>
      <trkpt lat="45.90825" lon="3.0419">
        <ele>520.2</ele>
        <time>2021-01-02T14:18:05Z</time>
      </trkpt>
      <trkpt lat="45.90827" lon="3.04192">
        <ele>519.8</ele>
        <time>2021-01-02T14:18:06Z</time>
      </trkpt>
      <trkpt lat="45.90827" lon="3.04193">
        <ele>519.2</ele>
        <time>2021-01-02T14:18:07Z</time>
      </trkpt>
      <trkpt lat="45.90828" lon="3.04193">
        <ele>518.8</ele>
        <time>2021-01-02T14:18:08Z</time>
      </trkpt>
      <trkpt lat="45.90833" lon="3.04201">
        <ele>516.6</ele>
        <time>2021-01-02T14:18:14Z</time>
      </trkpt>
      <trkpt lat="45.90834" lon="3.04204">
        <ele>516</ele>
        <time>2021-01-02T14:18:15Z</time>
      </trkpt>
      <trkpt lat="45.90834" lon="3.04207">
        <ele>515.6</ele>
        <time>2021-01-02T14:18:16Z</time>
      </trkpt>
      <trkpt lat="45.90834" lon="3.04209">
        <ele>515</ele>
        <time>2021-01-02T14:18:17Z</time>
      </trkpt>
      <trkpt lat="45.90834" lon="3.04211">
        <ele>514</ele>
        <time>2021-01-02T14:18:18Z</time>
      </trkpt>
      <trkpt lat="45.90833" lon="3.04213">
        <ele>513.4</ele>
        <time>2021-01-02T14:18:19Z</time>
      </trkpt>
      <trkpt lat="45.90832" lon="3.04216">
        <ele>513</ele>
        <time>2021-01-02T14:18:20Z</time>
      </trkpt>
      <trkpt lat="45.90831" lon="3.04218">
        <ele>512.4</ele>
        <time>2021-01-02T14:18:21Z</time>
      </trkpt>
      <trkpt lat="45.9083" lon="3.0422">
        <ele>512</ele>
        <time>2021-01-02T14:18:22Z</time>
      </trkpt>
      <trkpt lat="45.9083" lon="3.0422">
        <ele>511.6</ele>
        <time>2021-01-02T14:18:23Z</time>
      </trkpt>
      <trkpt lat="45.90831" lon="3.04223">
        <ele>509.8</ele>
        <time>2021-01-02T14:18:34Z</time>
      </trkpt>
      <trkpt lat="45.90834" lon="3.04228">
        <ele>509.8</ele>
        <time>2021-01-02T14:18:36Z</time>
      </trkpt>
      <trkpt lat="45.90835" lon="3.04231">
        <ele>509.4</ele>
        <time>2021-01-02T14:18:37Z</time>
      </trkpt>
      <trkpt lat="45.90834" lon="3.04232">
        <ele>508.8</ele>
        <time>2021-01-02T14:18:38Z</time>
      </trkpt>
      <trkpt lat="45.90834" lon="3.04233">
        <ele>508.4</ele>
        <time>2021-01-02T14:18:39Z</time>
      </trkpt>
      <trkpt lat="45.90833" lon="3.04234">
        <ele>507.8</ele>
        <time>2021-01-02T14:18:40Z</time>
      </trkpt>
      <trkpt lat="45.90833" lon="3.04234">
        <ele>507.4</ele>
        <time>2021-01-02T14:18:41Z</time>
      </trkpt>
      <trkpt lat="45.90833" lon="3.04235">
        <ele>506.8</ele>
        <time>2021-01-02T14:18:42Z</time>
      </trkpt>
      <trkpt lat="45.90832" lon="3.04236">
        <ele>505.8</ele>
        <time>2021-01-02T14:18:43Z</time>
      </trkpt>
      <trkpt lat="45.90832" lon="3.04237">
        <ele>505.4</ele>
        <time>2021-01-02T14:18:44Z</time>
      </trkpt>
      <trkpt lat="45.90831" lon="3.04237">
        <ele>505.4</ele>
        <time>2021-01-02T14:18:45Z</time>
      </trkpt>
      <trkpt lat="45.9083" lon="3.04247">
        <ele>505</ele>
        <time>2021-01-02T14:19:10Z</time>
      </trkpt>
      <trkpt lat="45.90832" lon="3.04247">
        <ele>504.6</ele>
        <time>2021-01-02T14:19:11Z</time>
      </trkpt>
      <trkpt lat="45.90833" lon="3.04247">
        <ele>504.2</ele>
        <time>2021-01-02T14:19:12Z</time>
      </trkpt>
      <trkpt lat="45.90834" lon="3.04247">
        <ele>503.8</ele>
        <time>2021-01-02T14:19:13Z</time>
      </trkpt>
      <trkpt lat="45.90835" lon="3.04248">
        <ele>503.4</ele>
        <time>2021-01-02T14:19:14Z</time>
      </trkpt>
      <trkpt lat="45.90837" lon="3.04249">
        <ele>503.4</ele>
        <time>2021-01-02T14:19:15Z</time>
      </trkpt>
      <trkpt lat="45.90841" lon="3.0425">
        <ele>502.8</ele>
        <time>2021-01-02T14:19:17Z</time>
      </trkpt>
      <trkpt lat="45.90843" lon="3.0425">
        <ele>502.4</ele>
        <time>2021-01-02T14:19:18Z</time>
      </trkpt>
      <trkpt lat="45.90846" lon="3.04252">
        <ele>502</ele>
        <time>2021-01-02T14:19:19Z</time>
      </trkpt>
      <trkpt lat="45.90848" lon="3.04256">
        <ele>501.6</ele>
        <time>2021-01-02T14:19:20Z</time>
      </trkpt>
      <trkpt lat="45.90851" lon="3.04259">
        <ele>501</ele>
        <time>2021-01-02T14:19:21Z</time>
      </trkpt>
      <trkpt lat="45.90855" lon="3.04272">
        <ele>500.6</ele>
        <time>2021-01-02T14:19:24Z</time>
      </trkpt>
      <trkpt lat="45.90856" lon="3.04275">
        <ele>500.2</ele>
        <time>2021-01-02T14:19:25Z</time>
      </trkpt>
      <trkpt lat="45.90857" lon="3.04278">
        <ele>499.8</ele>
        <time>2021-01-02T14:19:26Z</time>
      </trkpt>
      <trkpt lat="45.90858" lon="3.04281">
        <ele>499.4</ele>
        <time>2021-01-02T14:19:27Z</time>
      </trkpt>
      <trkpt lat="45.90859" lon="3.04283">
        <ele>499</ele>
        <time>2021-01-02T14:19:28Z</time>
      </trkpt>
      <trkpt lat="45.90861" lon="3.04285">
        <ele>498.6</ele>
        <time>2021-01-02T14:19:29Z</time>
      </trkpt>
      <trkpt lat="45.90863" lon="3.04288">
        <ele>498.2</ele>
        <time>2021-01-02T14:19:30Z</time>
      </trkpt>
      <trkpt lat="45.90863" lon="3.0429">
        <ele>497.8</ele>
        <time>2021-01-02T14:19:31Z</time>
      </trkpt>
      <trkpt lat="45.90865" lon="3.04293">
        <ele>496.8</ele>
        <time>2021-01-02T14:19:32Z</time>
      </trkpt>
      <trkpt lat="45.90865" lon="3.04296">
        <ele>496.8</ele>
        <time>2021-01-02T14:19:33Z</time>
      </trkpt>
      <trkpt lat="45.90865" lon="3.04302">
        <ele>496.4</ele>
        <time>2021-01-02T14:19:35Z</time>
      </trkpt>
      <trkpt lat="45.90865" lon="3.04305">
        <ele>496</ele>
        <time>2021-01-02T14:19:36Z</time>
      </trkpt>
      <trkpt lat="45.90865" lon="3.04308">
        <ele>495.6</ele>
        <time>2021-01-02T14:19:37Z</time>
      </trkpt>
      <trkpt lat="45.90865" lon="3.0431">
        <ele>495</ele>
        <time>2021-01-02T14:19:38Z</time>
      </trkpt>
      <trkpt lat="45.90865" lon="3.04313">
        <ele>494.6</ele>
        <time>2021-01-02T14:19:39Z</time>
      </trkpt>
      <trkpt lat="45.90866" lon="3.04318">
        <ele>494.6</ele>
        <time>2021-01-02T14:19:41Z</time>
      </trkpt>
      <trkpt lat="45.90874" lon="3.04336">
        <ele>494.6</ele>
        <time>2021-01-02T14:19:46Z</time>
      </trkpt>
      <trkpt lat="45.90877" lon="3.04339">
        <ele>494.2</ele>
        <time>2021-01-02T14:19:47Z</time>
      </trkpt>
      <trkpt lat="45.9088" lon="3.04343">
        <ele>493.8</ele>
        <time>2021-01-02T14:19:48Z</time>
      </trkpt>
      <trkpt lat="45.90883" lon="3.04349">
        <ele>493.4</ele>
        <time>2021-01-02T14:19:49Z</time>
      </trkpt>
      <trkpt lat="45.90886" lon="3.04355">
        <ele>492.6</ele>
        <time>2021-01-02T14:19:50Z</time>
      </trkpt>
      <trkpt lat="45.90887" lon="3.04359">
        <ele>492</ele>
        <time>2021-01-02T14:19:51Z</time>
      </trkpt>
      <trkpt lat="45.90887" lon="3.04363">
        <ele>491.2</ele>
        <time>2021-01-02T14:19:52Z</time>
      </trkpt>
      <trkpt lat="45.90888" lon="3.04366">
        <ele>490.6</ele>
        <time>2021-01-02T14:19:53Z</time>
      </trkpt>
      <trkpt lat="45.90887" lon="3.04369">
        <ele>490</ele>
        <time>2021-01-02T14:19:54Z</time>
      </trkpt>
      <trkpt lat="45.90886" lon="3.04375">
        <ele>489.6</ele>
        <time>2021-01-02T14:19:56Z</time>
      </trkpt>
      <trkpt lat="45.90886" lon="3.04377">
        <ele>488.8</ele>
        <time>2021-01-02T14:19:57Z</time>
      </trkpt>
      <trkpt lat="45.90886" lon="3.04378">
        <ele>488.4</ele>
        <time>2021-01-02T14:19:58Z</time>
      </trkpt>
      <trkpt lat="45.90887" lon="3.0438">
        <ele>488</ele>
        <time>2021-01-02T14:19:59Z</time>
      </trkpt>
      <trkpt lat="45.9089" lon="3.04387">
        <ele>487.4</ele>
        <time>2021-01-02T14:20:04Z</time>
      </trkpt>
      <trkpt lat="45.9089" lon="3.0439">
        <ele>487</ele>
        <time>2021-01-02T14:20:05Z</time>
      </trkpt>
      <trkpt lat="45.90891" lon="3.04393">
        <ele>486.6</ele>
        <time>2021-01-02T14:20:06Z</time>
      </trkpt>
      <trkpt lat="45.90892" lon="3.04397">
        <ele>486.2</ele>
        <time>2021-01-02T14:20:07Z</time>
      </trkpt>
      <trkpt lat="45.90893" lon="3.04401">
        <ele>485.6</ele>
        <time>2021-01-02T14:20:08Z</time>
      </trkpt>
      <trkpt lat="45.90896" lon="3.04409">
        <ele>485.2</ele>
        <time>2021-01-02T14:20:11Z</time>
      </trkpt>
      <trkpt lat="45.90897" lon="3.04411">
        <ele>484.8</ele>
        <time>2021-01-02T14:20:12Z</time>
      </trkpt>
      <trkpt lat="45.90898" lon="3.04413">
        <ele>484.4</ele>
        <time>2021-01-02T14:20:13Z</time>
      </trkpt>
      <trkpt lat="45.90898" lon="3.04415">
        <ele>484</ele>
        <time>2021-01-02T14:20:14Z</time>
      </trkpt>
      <trkpt lat="45.90899" lon="3.04418">
        <ele>483.6</ele>
        <time>2021-01-02T14:20:15Z</time>
      </trkpt>
      <trkpt lat="45.90899" lon="3.04429">
        <ele>483.2</ele>
        <time>2021-01-02T14:20:19Z</time>
      </trkpt>
      <trkpt lat="45.90899" lon="3.04432">
        <ele>482.8</ele>
        <time>2021-01-02T14:20:20Z</time>
      </trkpt>
      <trkpt lat="45.90898" lon="3.04435">
        <ele>482.2</ele>
        <time>2021-01-02T14:20:21Z</time>
      </trkpt>
      <trkpt lat="45.90898" lon="3.04438">
        <ele>481.4</ele>
        <time>2021-01-02T14:20:22Z</time>
      </trkpt>
      <trkpt lat="45.90903" lon="3.04457">
        <ele>481.4</ele>
        <time>2021-01-02T14:20:28Z</time>
      </trkpt>
      <trkpt lat="45.90911" lon="3.04472">
        <ele>481</ele>
        <time>2021-01-02T14:20:33Z</time>
      </trkpt>
      <trkpt lat="45.90912" lon="3.04474">
        <ele>480.4</ele>
        <time>2021-01-02T14:20:34Z</time>
      </trkpt>
      <trkpt lat="45.90914" lon="3.04476">
        <ele>480</ele>
        <time>2021-01-02T14:20:35Z</time>
      </trkpt>
      <trkpt lat="45.90915" lon="3.04477">
        <ele>479.6</ele>
        <time>2021-01-02T14:20:36Z</time>
      </trkpt>
      <trkpt lat="45.90916" lon="3.04477">
        <ele>479.2</ele>
        <time>2021-01-02T14:20:37Z</time>
      </trkpt>
      <trkpt lat="45.90916" lon="3.04477">
        <ele>479.2</ele>
        <time>2021-01-02T14:20:38Z</time>
      </trkpt>
      <trkpt lat="45.9093" lon="3.04486">
        <ele>479.2</ele>
        <time>2021-01-02T14:21:03Z</time>
      </trkpt>
      <trkpt lat="45.90936" lon="3.04493">
        <ele>479.2</ele>
        <time>2021-01-02T14:21:05Z</time>
      </trkpt>
      <trkpt lat="45.90946" lon="3.04501">
        <ele>478.6</ele>
        <time>2021-01-02T14:21:07Z</time>
      </trkpt>
      <trkpt lat="45.90949" lon="3.04506">
        <ele>478.2</ele>
        <time>2021-01-02T14:21:08Z</time>
      </trkpt>
      <trkpt lat="45.90951" lon="3.04512">
        <ele>477.4</ele>
        <time>2021-01-02T14:21:09Z</time>
      </trkpt>
      <trkpt lat="45.9095" lon="3.04517">
        <ele>476.8</ele>
        <time>2021-01-02T14:21:10Z</time>
      </trkpt>
      <trkpt lat="45.90947" lon="3.04521">
        <ele>475.2</ele>
        <time>2021-01-02T14:21:11Z</time>
      </trkpt>
      <trkpt lat="45.90946" lon="3.04524">
        <ele>474.4</ele>
        <time>2021-01-02T14:21:12Z</time>
      </trkpt>
      <trkpt lat="45.9094" lon="3.0454">
        <ele>474.4</ele>
        <time>2021-01-02T14:21:16Z</time>
      </trkpt>
      <trkpt lat="45.90935" lon="3.04552">
        <ele>474</ele>
        <time>2021-01-02T14:21:20Z</time>
      </trkpt>
      <trkpt lat="45.90935" lon="3.04555">
        <ele>473.6</ele>
        <time>2021-01-02T14:21:21Z</time>
      </trkpt>
      <trkpt lat="45.90936" lon="3.04558">
        <ele>473.2</ele>
        <time>2021-01-02T14:21:22Z</time>
      </trkpt>
      <trkpt lat="45.90939" lon="3.04564">
        <ele>472.6</ele>
        <time>2021-01-02T14:21:23Z</time>
      </trkpt>
      <trkpt lat="45.9094" lon="3.0457">
        <ele>472.2</ele>
        <time>2021-01-02T14:21:24Z</time>
      </trkpt>
      <trkpt lat="45.90942" lon="3.04575">
        <ele>472.2</ele>
        <time>2021-01-02T14:21:25Z</time>
      </trkpt>
      <trkpt lat="45.90947" lon="3.0459">
        <ele>471.8</ele>
        <time>2021-01-02T14:21:28Z</time>
      </trkpt>
      <trkpt lat="45.90948" lon="3.04594">
        <ele>471.2</ele>
        <time>2021-01-02T14:21:29Z</time>
      </trkpt>
      <trkpt lat="45.90949" lon="3.04598">
        <ele>470.8</ele>
        <time>2021-01-02T14:21:30Z</time>
      </trkpt>
      <trkpt lat="45.9095" lon="3.046">
        <ele>470.4</ele>
        <time>2021-01-02T14:21:31Z</time>
      </trkpt>
      <trkpt lat="45.90951" lon="3.04604">
        <ele>470</ele>
        <time>2021-01-02T14:21:32Z</time>
      </trkpt>
      <trkpt lat="45.90952" lon="3.04608">
        <ele>470</ele>
        <time>2021-01-02T14:21:33Z</time>
      </trkpt>
      <trkpt lat="45.90954" lon="3.04613">
        <ele>470</ele>
        <time>2021-01-02T14:21:35Z</time>
      </trkpt>
      <trkpt lat="45.90954" lon="3.04615">
        <ele>470</ele>
        <time>2021-01-02T14:21:36Z</time>
      </trkpt>
      <trkpt lat="45.90957" lon="3.04631">
        <ele>470</ele>
        <time>2021-01-02T14:26:52Z</time>
      </trkpt>
      <trkpt lat="45.90957" lon="3.04636">
        <ele>469.4</ele>
        <time>2021-01-02T14:26:53Z</time>
      </trkpt>
      <trkpt lat="45.90957" lon="3.04639">
        <ele>469</ele>
        <time>2021-01-02T14:26:54Z</time>
      </trkpt>
      <trkpt lat="45.90958" lon="3.04641">
        <ele>468.4</ele>
        <time>2021-01-02T14:26:55Z</time>
      </trkpt>
      <trkpt lat="45.9096" lon="3.04643">
        <ele>467.8</ele>
        <time>2021-01-02T14:26:56Z</time>
      </trkpt>
      <trkpt lat="45.90961" lon="3.04645">
        <ele>467.4</ele>
        <time>2021-01-02T14:26:57Z</time>
      </trkpt>
      <trkpt lat="45.90963" lon="3.04661">
        <ele>467.4</ele>
        <time>2021-01-02T14:27:01Z</time>
      </trkpt>
      <trkpt lat="45.90964" lon="3.04686">
        <ele>467.4</ele>
        <time>2021-01-02T14:27:05Z</time>
      </trkpt>
      <trkpt lat="45.90959" lon="3.04707">
        <ele>467</ele>
        <time>2021-01-02T14:27:08Z</time>
      </trkpt>
      <trkpt lat="45.90958" lon="3.04714">
        <ele>466.6</ele>
        <time>2021-01-02T14:27:09Z</time>
      </trkpt>
      <trkpt lat="45.90957" lon="3.04719">
        <ele>466.2</ele>
        <time>2021-01-02T14:27:10Z</time>
      </trkpt>
      <trkpt lat="45.90954" lon="3.04723">
        <ele>465.8</ele>
        <time>2021-01-02T14:27:11Z</time>
      </trkpt>
      <trkpt lat="45.90952" lon="3.04727">
        <ele>465.2</ele>
        <time>2021-01-02T14:27:12Z</time>
      </trkpt>
      <trkpt lat="45.90945" lon="3.04732">
        <ele>465.2</ele>
        <time>2021-01-02T14:27:15Z</time>
      </trkpt>
      <trkpt lat="45.90943" lon="3.04733">
        <ele>465.8</ele>
        <time>2021-01-02T14:27:16Z</time>
      </trkpt>
      <trkpt lat="45.90941" lon="3.04733">
        <ele>466.4</ele>
        <time>2021-01-02T14:27:17Z</time>
      </trkpt>
      <trkpt lat="45.90938" lon="3.04732">
        <ele>466.8</ele>
        <time>2021-01-02T14:27:18Z</time>
      </trkpt>
      <trkpt lat="45.90934" lon="3.04733">
        <ele>467.4</ele>
        <time>2021-01-02T14:27:19Z</time>
      </trkpt>
      <trkpt lat="45.90931" lon="3.04734">
        <ele>467.8</ele>
        <time>2021-01-02T14:27:20Z</time>
      </trkpt>
      <trkpt lat="45.90924" lon="3.04738">
        <ele>467.8</ele>
        <time>2021-01-02T14:27:22Z</time>
      </trkpt>
      <trkpt lat="45.90921" lon="3.0474">
        <ele>467.8</ele>
        <time>2021-01-02T14:27:23Z</time>
      </trkpt>
      <trkpt lat="45.90919" lon="3.04741">
        <ele>468.4</ele>
        <time>2021-01-02T14:27:24Z</time>
      </trkpt>
      <trkpt lat="45.90918" lon="3.0474">
        <ele>468.8</ele>
        <time>2021-01-02T14:27:25Z</time>
      </trkpt>
      <trkpt lat="45.90916" lon="3.04741">
        <ele>469.4</ele>
        <time>2021-01-02T14:27:26Z</time>
      </trkpt>
      <trkpt lat="45.90915" lon="3.04742">
        <ele>469.8</ele>
        <time>2021-01-02T14:27:27Z</time>
      </trkpt>
      <trkpt lat="45.90914" lon="3.04744">
        <ele>470.4</ele>
        <time>2021-01-02T14:27:28Z</time>
      </trkpt>
      <trkpt lat="45.90913" lon="3.04745">
        <ele>470.4</ele>
        <time>2021-01-02T14:27:30Z</time>
      </trkpt>
      <trkpt lat="45.90916" lon="3.04746">
        <ele>471.6</ele>
        <time>2021-01-02T14:27:33Z</time>
      </trkpt>
      <trkpt lat="45.90918" lon="3.04747">
        <ele>472</ele>
        <time>2021-01-02T14:27:34Z</time>
      </trkpt>
      <trkpt lat="45.9092" lon="3.04749">
        <ele>472.4</ele>
        <time>2021-01-02T14:27:35Z</time>
      </trkpt>
      <trkpt lat="45.90928" lon="3.0475">
        <ele>472.4</ele>
        <time>2021-01-02T14:27:38Z</time>
      </trkpt>
      <trkpt lat="45.90932" lon="3.04751">
        <ele>472.4</ele>
        <time>2021-01-02T14:27:40Z</time>
      </trkpt>
      <trkpt lat="45.90935" lon="3.04756">
        <ele>472.4</ele>
        <time>2021-01-02T14:27:42Z</time>
      </trkpt>
      <trkpt lat="45.90945" lon="3.04768">
        <ele>472.4</ele>
        <time>2021-01-02T14:27:45Z</time>
      </trkpt>
      <trkpt lat="45.90949" lon="3.04771">
        <ele>472.4</ele>
        <time>2021-01-02T14:27:46Z</time>
      </trkpt>
      <trkpt lat="45.90952" lon="3.04772">
        <ele>472.8</ele>
        <time>2021-01-02T14:27:47Z</time>
      </trkpt>
      <trkpt lat="45.90956" lon="3.04773">
        <ele>473.2</ele>
        <time>2021-01-02T14:27:48Z</time>
      </trkpt>
      <trkpt lat="45.90959" lon="3.04773">
        <ele>473.8</ele>
        <time>2021-01-02T14:27:49Z</time>
      </trkpt>
      <trkpt lat="45.90961" lon="3.04774">
        <ele>474.2</ele>
        <time>2021-01-02T14:27:50Z</time>
      </trkpt>
      <trkpt lat="45.90964" lon="3.04777">
        <ele>474.6</ele>
        <time>2021-01-02T14:27:51Z</time>
      </trkpt>
      <trkpt lat="45.90974" lon="3.04797">
        <ele>474.6</ele>
        <time>2021-01-02T14:27:56Z</time>
      </trkpt>
      <trkpt lat="45.90985" lon="3.04831">
        <ele>474.6</ele>
        <time>2021-01-02T14:28:02Z</time>
      </trkpt>
      <trkpt lat="45.90987" lon="3.04837">
        <ele>474.2</ele>
        <time>2021-01-02T14:28:03Z</time>
      </trkpt>
      <trkpt lat="45.90987" lon="3.04844">
        <ele>473.8</ele>
        <time>2021-01-02T14:28:04Z</time>
      </trkpt>
      <trkpt lat="45.90987" lon="3.04849">
        <ele>473.4</ele>
        <time>2021-01-02T14:28:05Z</time>
      </trkpt>
      <trkpt lat="45.90987" lon="3.04854">
        <ele>473</ele>
        <time>2021-01-02T14:28:06Z</time>
      </trkpt>
      <trkpt lat="45.90987" lon="3.04859">
        <ele>472.6</ele>
        <time>2021-01-02T14:28:07Z</time>
      </trkpt>
      <trkpt lat="45.90988" lon="3.04864">
        <ele>473</ele>
        <time>2021-01-02T14:28:09Z</time>
      </trkpt>
      <trkpt lat="45.90988" lon="3.04868">
        <ele>473.4</ele>
        <time>2021-01-02T14:28:10Z</time>
      </trkpt>
      <trkpt lat="45.90988" lon="3.0487">
        <ele>474.2</ele>
        <time>2021-01-02T14:28:11Z</time>
      </trkpt>
      <trkpt lat="45.90988" lon="3.04872">
        <ele>474.6</ele>
        <time>2021-01-02T14:28:12Z</time>
      </trkpt>
      <trkpt lat="45.90988" lon="3.04875">
        <ele>475</ele>
        <time>2021-01-02T14:28:13Z</time>
      </trkpt>
      <trkpt lat="45.90988" lon="3.04876">
        <ele>475.4</ele>
        <time>2021-01-02T14:28:14Z</time>
      </trkpt>
      <trkpt lat="45.90987" lon="3.04879">
        <ele>475.8</ele>
        <time>2021-01-02T14:28:15Z</time>
      </trkpt>
      <trkpt lat="45.90988" lon="3.04883">
        <ele>476.2</ele>
        <time>2021-01-02T14:28:16Z</time>
      </trkpt>
      <trkpt lat="45.90989" lon="3.04885">
        <ele>476.6</ele>
        <time>2021-01-02T14:28:17Z</time>
      </trkpt>
      <trkpt lat="45.9099" lon="3.04889">
        <ele>476.6</ele>
        <time>2021-01-02T14:28:18Z</time>
      </trkpt>
      <trkpt lat="45.90991" lon="3.04903">
        <ele>476.6</ele>
        <time>2021-01-02T14:28:22Z</time>
      </trkpt>
      <trkpt lat="45.90991" lon="3.04907">
        <ele>476.6</ele>
        <time>2021-01-02T14:28:23Z</time>
      </trkpt>
      <trkpt lat="45.90994" lon="3.0492">
        <ele>477.2</ele>
        <time>2021-01-02T14:28:27Z</time>
      </trkpt>
      <trkpt lat="45.90995" lon="3.04922">
        <ele>477.6</ele>
        <time>2021-01-02T14:28:28Z</time>
      </trkpt>
      <trkpt lat="45.90996" lon="3.04924">
        <ele>478</ele>
        <time>2021-01-02T14:28:29Z</time>
      </trkpt>
      <trkpt lat="45.90997" lon="3.04926">
        <ele>478.4</ele>
        <time>2021-01-02T14:28:30Z</time>
      </trkpt>
      <trkpt lat="45.90999" lon="3.04928">
        <ele>479</ele>
        <time>2021-01-02T14:28:31Z</time>
      </trkpt>
      <trkpt lat="45.91007" lon="3.04943">
        <ele>479.8</ele>
        <time>2021-01-02T14:28:36Z</time>
      </trkpt>
      <trkpt lat="45.91008" lon="3.04946">
        <ele>480.2</ele>
        <time>2021-01-02T14:28:37Z</time>
      </trkpt>
      <trkpt lat="45.9101" lon="3.0495">
        <ele>480.6</ele>
        <time>2021-01-02T14:28:38Z</time>
      </trkpt>
      <trkpt lat="45.91012" lon="3.04953">
        <ele>481</ele>
        <time>2021-01-02T14:28:39Z</time>
      </trkpt>
      <trkpt lat="45.91016" lon="3.04963">
        <ele>481</ele>
        <time>2021-01-02T14:28:42Z</time>
      </trkpt>
      <trkpt lat="45.91026" lon="3.04985">
        <ele>481</ele>
        <time>2021-01-02T14:28:47Z</time>
      </trkpt>
      <trkpt lat="45.91028" lon="3.04997">
        <ele>480.6</ele>
        <time>2021-01-02T14:28:49Z</time>
      </trkpt>
      <trkpt lat="45.91027" lon="3.05003">
        <ele>480</ele>
        <time>2021-01-02T14:28:50Z</time>
      </trkpt>
      <trkpt lat="45.91025" lon="3.05007">
        <ele>479.6</ele>
        <time>2021-01-02T14:28:51Z</time>
      </trkpt>
      <trkpt lat="45.91024" lon="3.05008">
        <ele>479.2</ele>
        <time>2021-01-02T14:28:52Z</time>
      </trkpt>
      <trkpt lat="45.91022" lon="3.0501">
        <ele>478.6</ele>
        <time>2021-01-02T14:28:53Z</time>
      </trkpt>
      <trkpt lat="45.91019" lon="3.05012">
        <ele>478.6</ele>
        <time>2021-01-02T14:28:55Z</time>
      </trkpt>
      <trkpt lat="45.9101" lon="3.05019">
        <ele>478.6</ele>
        <time>2021-01-02T14:29:01Z</time>
      </trkpt>
      <trkpt lat="45.91007" lon="3.05023">
        <ele>478.6</ele>
        <time>2021-01-02T14:29:03Z</time>
      </trkpt>
      <trkpt lat="45.91006" lon="3.0503">
        <ele>478.6</ele>
        <time>2021-01-02T14:29:05Z</time>
      </trkpt>
      <trkpt lat="45.91007" lon="3.05033">
        <ele>479</ele>
        <time>2021-01-02T14:29:06Z</time>
      </trkpt>
      <trkpt lat="45.91007" lon="3.05036">
        <ele>479.4</ele>
        <time>2021-01-02T14:29:07Z</time>
      </trkpt>
      <trkpt lat="45.91008" lon="3.05039">
        <ele>479.8</ele>
        <time>2021-01-02T14:29:08Z</time>
      </trkpt>
      <trkpt lat="45.91007" lon="3.05041">
        <ele>480.4</ele>
        <time>2021-01-02T14:29:09Z</time>
      </trkpt>
      <trkpt lat="45.91007" lon="3.05044">
        <ele>480.8</ele>
        <time>2021-01-02T14:29:10Z</time>
      </trkpt>
      <trkpt lat="45.91011" lon="3.05056">
        <ele>480.8</ele>
        <time>2021-01-02T14:29:15Z</time>
      </trkpt>
      <trkpt lat="45.91012" lon="3.05059">
        <ele>481.2</ele>
        <time>2021-01-02T14:29:16Z</time>
      </trkpt>
      <trkpt lat="45.91012" lon="3.05061">
        <ele>481.6</ele>
        <time>2021-01-02T14:29:17Z</time>
      </trkpt>
      <trkpt lat="45.91013" lon="3.05064">
        <ele>482</ele>
        <time>2021-01-02T14:29:18Z</time>
      </trkpt>
      <trkpt lat="45.91014" lon="3.05067">
        <ele>482.4</ele>
        <time>2021-01-02T14:29:19Z</time>
      </trkpt>
      <trkpt lat="45.91014" lon="3.0507">
        <ele>482.8</ele>
        <time>2021-01-02T14:29:20Z</time>
      </trkpt>
      <trkpt lat="45.91014" lon="3.05074">
        <ele>482.8</ele>
        <time>2021-01-02T14:29:21Z</time>
      </trkpt>
      <trkpt lat="45.91015" lon="3.05075">
        <ele>482.8</ele>
        <time>2021-01-02T14:29:22Z</time>
      </trkpt>
      <trkpt lat="45.91016" lon="3.05082">
        <ele>483.6</ele>
        <time>2021-01-02T14:29:25Z</time>
      </trkpt>
      <trkpt lat="45.91016" lon="3.05084">
        <ele>484</ele>
        <time>2021-01-02T14:29:26Z</time>
      </trkpt>
      <trkpt lat="45.91016" lon="3.05086">
        <ele>484.4</ele>
        <time>2021-01-02T14:29:27Z</time>
      </trkpt>
      <trkpt lat="45.91016" lon="3.05089">
        <ele>484.8</ele>
        <time>2021-01-02T14:29:28Z</time>
      </trkpt>
      <trkpt lat="45.91014" lon="3.05106">
        <ele>485.2</ele>
        <time>2021-01-02T14:29:34Z</time>
      </trkpt>
      <trkpt lat="45.91014" lon="3.05109">
        <ele>485.6</ele>
        <time>2021-01-02T14:29:35Z</time>
      </trkpt>
      <trkpt lat="45.91013" lon="3.05111">
        <ele>486</ele>
        <time>2021-01-02T14:29:36Z</time>
      </trkpt>
      <trkpt lat="45.91013" lon="3.05114">
        <ele>486.6</ele>
        <time>2021-01-02T14:29:37Z</time>
      </trkpt>
      <trkpt lat="45.91013" lon="3.05116">
        <ele>487</ele>
        <time>2021-01-02T14:29:38Z</time>
      </trkpt>
      <trkpt lat="45.91012" lon="3.0512">
        <ele>487</ele>
        <time>2021-01-02T14:29:40Z</time>
      </trkpt>
      <trkpt lat="45.9101" lon="3.0513">
        <ele>487.4</ele>
        <time>2021-01-02T14:29:44Z</time>
      </trkpt>
      <trkpt lat="45.91009" lon="3.05133">
        <ele>487.8</ele>
        <time>2021-01-02T14:29:45Z</time>
      </trkpt>
      <trkpt lat="45.91008" lon="3.05135">
        <ele>488.2</ele>
        <time>2021-01-02T14:29:46Z</time>
      </trkpt>
      <trkpt lat="45.91008" lon="3.05137">
        <ele>488.6</ele>
        <time>2021-01-02T14:29:47Z</time>
      </trkpt>
      <trkpt lat="45.91008" lon="3.0514">
        <ele>489</ele>
        <time>2021-01-02T14:29:48Z</time>
      </trkpt>
      <trkpt lat="45.91006" lon="3.05147">
        <ele>489.6</ele>
        <time>2021-01-02T14:29:51Z</time>
      </trkpt>
      <trkpt lat="45.91006" lon="3.0515">
        <ele>490</ele>
        <time>2021-01-02T14:29:52Z</time>
      </trkpt>
      <trkpt lat="45.91005" lon="3.05151">
        <ele>490.4</ele>
        <time>2021-01-02T14:29:53Z</time>
      </trkpt>
      <trkpt lat="45.91005" lon="3.05153">
        <ele>490.8</ele>
        <time>2021-01-02T14:29:54Z</time>
      </trkpt>
      <trkpt lat="45.91005" lon="3.05155">
        <ele>491.2</ele>
        <time>2021-01-02T14:29:55Z</time>
      </trkpt>
      <trkpt lat="45.91005" lon="3.05159">
        <ele>491.2</ele>
        <time>2021-01-02T14:29:57Z</time>
      </trkpt>
      <trkpt lat="45.91003" lon="3.05166">
        <ele>491.2</ele>
        <time>2021-01-02T14:30:02Z</time>
      </trkpt>
      <trkpt lat="45.90999" lon="3.05167">
        <ele>491.2</ele>
        <time>2021-01-02T14:31:21Z</time>
      </trkpt>
      <trkpt lat="45.91" lon="3.05164">
        <ele>491.2</ele>
        <time>2021-01-02T14:31:24Z</time>
      </trkpt>
      <trkpt lat="45.91003" lon="3.05168">
        <ele>491.2</ele>
        <time>2021-01-02T14:31:28Z</time>
      </trkpt>
      <trkpt lat="45.91004" lon="3.0517">
        <ele>491.2</ele>
        <time>2021-01-02T14:31:29Z</time>
      </trkpt>
      <trkpt lat="45.91007" lon="3.05181">
        <ele>491.2</ele>
        <time>2021-01-02T14:31:33Z</time>
      </trkpt>
      <trkpt lat="45.91012" lon="3.05188">
        <ele>491.2</ele>
        <time>2021-01-02T14:31:35Z</time>
      </trkpt>
      <trkpt lat="45.91016" lon="3.05195">
        <ele>491.2</ele>
        <time>2021-01-02T14:31:37Z</time>
      </trkpt>
      <trkpt lat="45.91019" lon="3.05199">
        <ele>490.6</ele>
        <time>2021-01-02T14:31:38Z</time>
      </trkpt>
      <trkpt lat="45.91021" lon="3.05203">
        <ele>490</ele>
        <time>2021-01-02T14:31:39Z</time>
      </trkpt>
      <trkpt lat="45.91024" lon="3.05207">
        <ele>489.6</ele>
        <time>2021-01-02T14:31:40Z</time>
      </trkpt>
      <trkpt lat="45.91027" lon="3.05211">
        <ele>488.8</ele>
        <time>2021-01-02T14:31:41Z</time>
      </trkpt>
      <trkpt lat="45.9103" lon="3.05215">
        <ele>488.2</ele>
        <time>2021-01-02T14:31:42Z</time>
      </trkpt>
      <trkpt lat="45.91034" lon="3.0522">
        <ele>487.4</ele>
        <time>2021-01-02T14:31:43Z</time>
      </trkpt>
      <trkpt lat="45.91037" lon="3.05223">
        <ele>486.8</ele>
        <time>2021-01-02T14:31:44Z</time>
      </trkpt>
      <trkpt lat="45.91039" lon="3.05227">
        <ele>486.2</ele>
        <time>2021-01-02T14:31:45Z</time>
      </trkpt>
      <trkpt lat="45.91042" lon="3.05231">
        <ele>485.4</ele>
        <time>2021-01-02T14:31:46Z</time>
      </trkpt>
      <trkpt lat="45.91044" lon="3.05235">
        <ele>484.8</ele>
        <time>2021-01-02T14:31:47Z</time>
      </trkpt>
      <trkpt lat="45.91047" lon="3.05239">
        <ele>484.2</ele>
        <time>2021-01-02T14:31:48Z</time>
      </trkpt>
      <trkpt lat="45.9105" lon="3.05244">
        <ele>483.6</ele>
        <time>2021-01-02T14:31:49Z</time>
      </trkpt>
      <trkpt lat="45.91052" lon="3.05248">
        <ele>483.6</ele>
        <time>2021-01-02T14:31:50Z</time>
      </trkpt>
      <trkpt lat="45.91055" lon="3.05252">
        <ele>483</ele>
        <time>2021-01-02T14:31:51Z</time>
      </trkpt>
      <trkpt lat="45.91057" lon="3.05257">
        <ele>482.6</ele>
        <time>2021-01-02T14:31:52Z</time>
      </trkpt>
      <trkpt lat="45.91058" lon="3.05261">
        <ele>482</ele>
        <time>2021-01-02T14:31:53Z</time>
      </trkpt>
      <trkpt lat="45.91059" lon="3.05263">
        <ele>481</ele>
        <time>2021-01-02T14:31:54Z</time>
      </trkpt>
      <trkpt lat="45.91061" lon="3.05267">
        <ele>481</ele>
        <time>2021-01-02T14:31:55Z</time>
      </trkpt>
      <trkpt lat="45.91062" lon="3.05271">
        <ele>480.6</ele>
        <time>2021-01-02T14:31:56Z</time>
      </trkpt>
      <trkpt lat="45.91063" lon="3.05275">
        <ele>480.2</ele>
        <time>2021-01-02T14:31:57Z</time>
      </trkpt>
      <trkpt lat="45.91064" lon="3.05279">
        <ele>479.8</ele>
        <time>2021-01-02T14:31:58Z</time>
      </trkpt>
      <trkpt lat="45.91065" lon="3.05284">
        <ele>479.4</ele>
        <time>2021-01-02T14:31:59Z</time>
      </trkpt>
      <trkpt lat="45.91064" lon="3.05288">
        <ele>479</ele>
        <time>2021-01-02T14:32:00Z</time>
      </trkpt>
      <trkpt lat="45.91062" lon="3.053">
        <ele>479</ele>
        <time>2021-01-02T14:32:04Z</time>
      </trkpt>
      <trkpt lat="45.91058" lon="3.05315">
        <ele>479</ele>
        <time>2021-01-02T14:32:08Z</time>
      </trkpt>
      <trkpt lat="45.91056" lon="3.05328">
        <ele>478.4</ele>
        <time>2021-01-02T14:32:10Z</time>
      </trkpt>
      <trkpt lat="45.91055" lon="3.05333">
        <ele>478</ele>
        <time>2021-01-02T14:32:11Z</time>
      </trkpt>
      <trkpt lat="45.91054" lon="3.05337">
        <ele>477.6</ele>
        <time>2021-01-02T14:32:12Z</time>
      </trkpt>
      <trkpt lat="45.91053" lon="3.0534">
        <ele>477.2</ele>
        <time>2021-01-02T14:32:13Z</time>
      </trkpt>
      <trkpt lat="45.91051" lon="3.05343">
        <ele>476.6</ele>
        <time>2021-01-02T14:32:14Z</time>
      </trkpt>
      <trkpt lat="45.91046" lon="3.05349">
        <ele>476.6</ele>
        <time>2021-01-02T14:32:17Z</time>
      </trkpt>
      <trkpt lat="45.9104" lon="3.05356">
        <ele>476.6</ele>
        <time>2021-01-02T14:32:22Z</time>
      </trkpt>
      <trkpt lat="45.91039" lon="3.05355">
        <ele>476.6</ele>
        <time>2021-01-02T14:32:24Z</time>
      </trkpt>
      <trkpt lat="45.91035" lon="3.0535">
        <ele>476.6</ele>
        <time>2021-01-02T14:32:28Z</time>
      </trkpt>
      <trkpt lat="45.91029" lon="3.0535">
        <ele>477</ele>
        <time>2021-01-02T14:32:34Z</time>
      </trkpt>
      <trkpt lat="45.91026" lon="3.05353">
        <ele>478.8</ele>
        <time>2021-01-02T14:32:44Z</time>
      </trkpt>
      <trkpt lat="45.91025" lon="3.05359">
        <ele>478.8</ele>
        <time>2021-01-02T14:32:46Z</time>
      </trkpt>
      <trkpt lat="45.91021" lon="3.05372">
        <ele>478.8</ele>
        <time>2021-01-02T14:32:52Z</time>
      </trkpt>
      <trkpt lat="45.91021" lon="3.05372">
        <ele>478.8</ele>
        <time>2021-01-02T14:32:53Z</time>
      </trkpt>
      <trkpt lat="45.91029" lon="3.05352">
        <ele>478.4</ele>
        <time>2021-01-02T14:33:43Z</time>
      </trkpt>
      <trkpt lat="45.91034" lon="3.05357">
        <ele>478.4</ele>
        <time>2021-01-02T14:33:45Z</time>
      </trkpt>
      <trkpt lat="45.91045" lon="3.05352">
        <ele>478.4</ele>
        <time>2021-01-02T14:33:49Z</time>
      </trkpt>
      <trkpt lat="45.91048" lon="3.05349">
        <ele>478</ele>
        <time>2021-01-02T14:33:50Z</time>
      </trkpt>
      <trkpt lat="45.91049" lon="3.05344">
        <ele>477.6</ele>
        <time>2021-01-02T14:33:51Z</time>
      </trkpt>
      <trkpt lat="45.91051" lon="3.05341">
        <ele>477.2</ele>
        <time>2021-01-02T14:33:52Z</time>
      </trkpt>
      <trkpt lat="45.91053" lon="3.05338">
        <ele>476.8</ele>
        <time>2021-01-02T14:33:53Z</time>
      </trkpt>
      <trkpt lat="45.91054" lon="3.05335">
        <ele>476.4</ele>
        <time>2021-01-02T14:33:54Z</time>
      </trkpt>
      <trkpt lat="45.91057" lon="3.0533">
        <ele>476.4</ele>
        <time>2021-01-02T14:33:56Z</time>
      </trkpt>
      <trkpt lat="45.91062" lon="3.05331">
        <ele>476.4</ele>
        <time>2021-01-02T14:33:58Z</time>
      </trkpt>
      <trkpt lat="45.91071" lon="3.05333">
        <ele>476</ele>
        <time>2021-01-02T14:34:02Z</time>
      </trkpt>
      <trkpt lat="45.91072" lon="3.05335">
        <ele>475.6</ele>
        <time>2021-01-02T14:34:03Z</time>
      </trkpt>
      <trkpt lat="45.91073" lon="3.05335">
        <ele>475</ele>
        <time>2021-01-02T14:34:04Z</time>
      </trkpt>
      <trkpt lat="45.91073" lon="3.05335">
        <ele>474.6</ele>
        <time>2021-01-02T14:34:05Z</time>
      </trkpt>
      <trkpt lat="45.91074" lon="3.05335">
        <ele>474.2</ele>
        <time>2021-01-02T14:34:06Z</time>
      </trkpt>
      <trkpt lat="45.91076" lon="3.05335">
        <ele>474.2</ele>
        <time>2021-01-02T14:34:07Z</time>
      </trkpt>
      <trkpt lat="45.91079" lon="3.05334">
        <ele>474.2</ele>
        <time>2021-01-02T14:34:09Z</time>
      </trkpt>
      <trkpt lat="45.91084" lon="3.05336">
        <ele>474.2</ele>
        <time>2021-01-02T14:34:12Z</time>
      </trkpt>
      <trkpt lat="45.91091" lon="3.05349">
        <ele>474.2</ele>
        <time>2021-01-02T14:34:16Z</time>
      </trkpt>
      <trkpt lat="45.91093" lon="3.05352">
        <ele>474.2</ele>
        <time>2021-01-02T14:34:17Z</time>
      </trkpt>
      <trkpt lat="45.91097" lon="3.05362">
        <ele>474.2</ele>
        <time>2021-01-02T14:34:19Z</time>
      </trkpt>
      <trkpt lat="45.91101" lon="3.05373">
        <ele>474.2</ele>
        <time>2021-01-02T14:34:21Z</time>
      </trkpt>
      <trkpt lat="45.91102" lon="3.05377">
        <ele>473.8</ele>
        <time>2021-01-02T14:34:22Z</time>
      </trkpt>
      <trkpt lat="45.91103" lon="3.05382">
        <ele>473.4</ele>
        <time>2021-01-02T14:34:23Z</time>
      </trkpt>
      <trkpt lat="45.91104" lon="3.05388">
        <ele>473</ele>
        <time>2021-01-02T14:34:24Z</time>
      </trkpt>
      <trkpt lat="45.91103" lon="3.05393">
        <ele>472.6</ele>
        <time>2021-01-02T14:34:25Z</time>
      </trkpt>
      <trkpt lat="45.91101" lon="3.05397">
        <ele>472.2</ele>
        <time>2021-01-02T14:34:26Z</time>
      </trkpt>
      <trkpt lat="45.91092" lon="3.05408">
        <ele>472.2</ele>
        <time>2021-01-02T14:34:30Z</time>
      </trkpt>
      <trkpt lat="45.91083" lon="3.05421">
        <ele>472.2</ele>
        <time>2021-01-02T14:34:35Z</time>
      </trkpt>
      <trkpt lat="45.91072" lon="3.05432">
        <ele>472.2</ele>
        <time>2021-01-02T14:34:39Z</time>
      </trkpt>
      <trkpt lat="45.9107" lon="3.05433">
        <ele>471.8</ele>
        <time>2021-01-02T14:34:40Z</time>
      </trkpt>
      <trkpt lat="45.91068" lon="3.05434">
        <ele>471.2</ele>
        <time>2021-01-02T14:34:41Z</time>
      </trkpt>
      <trkpt lat="45.91066" lon="3.05435">
        <ele>470.8</ele>
        <time>2021-01-02T14:34:42Z</time>
      </trkpt>
      <trkpt lat="45.91064" lon="3.05434">
        <ele>470.4</ele>
        <time>2021-01-02T14:34:43Z</time>
      </trkpt>
      <trkpt lat="45.91062" lon="3.05434">
        <ele>469.8</ele>
        <time>2021-01-02T14:34:44Z</time>
      </trkpt>
      <trkpt lat="45.91055" lon="3.05429">
        <ele>469.8</ele>
        <time>2021-01-02T14:34:48Z</time>
      </trkpt>
      <trkpt lat="45.91045" lon="3.05423">
        <ele>469.8</ele>
        <time>2021-01-02T14:34:55Z</time>
      </trkpt>
      <trkpt lat="45.91039" lon="3.05417">
        <ele>469.8</ele>
        <time>2021-01-02T14:35:00Z</time>
      </trkpt>
      <trkpt lat="45.91025" lon="3.05408">
        <ele>469.8</ele>
        <time>2021-01-02T14:35:07Z</time>
      </trkpt>
      <trkpt lat="45.9101" lon="3.05395">
        <ele>469.8</ele>
        <time>2021-01-02T14:35:15Z</time>
      </trkpt>
      <trkpt lat="45.90995" lon="3.05389">
        <ele>469.8</ele>
        <time>2021-01-02T14:35:22Z</time>
      </trkpt>
      <trkpt lat="45.90986" lon="3.05386">
        <ele>469.8</ele>
        <time>2021-01-02T14:35:26Z</time>
      </trkpt>
      <trkpt lat="45.90963" lon="3.0539">
        <ele>469.8</ele>
        <time>2021-01-02T14:35:32Z</time>
      </trkpt>
      <trkpt lat="45.90959" lon="3.05393">
        <ele>469.8</ele>
        <time>2021-01-02T14:35:36Z</time>
      </trkpt>
      <trkpt lat="45.90957" lon="3.05389">
        <ele>469.8</ele>
        <time>2021-01-02T14:35:39Z</time>
      </trkpt>
      <trkpt lat="45.90961" lon="3.05387">
        <ele>469.8</ele>
        <time>2021-01-02T14:35:41Z</time>
      </trkpt>
      <trkpt lat="45.90962" lon="3.05392">
        <ele>469.8</ele>
        <time>2021-01-02T14:35:44Z</time>
      </trkpt>
      <trkpt lat="45.90958" lon="3.05394">
        <ele>469.8</ele>
        <time>2021-01-02T14:35:49Z</time>
      </trkpt>
      <trkpt lat="45.90955" lon="3.05396">
        <ele>469.8</ele>
        <time>2021-01-02T14:35:55Z</time>
      </trkpt>
      <trkpt lat="45.90955" lon="3.05397">
        <ele>469.8</ele>
        <time>2021-01-02T14:35:56Z</time>
      </trkpt>
      <trkpt lat="45.90956" lon="3.05403">
        <ele>469.4</ele>
        <time>2021-01-02T14:36:00Z</time>
      </trkpt>
      <trkpt lat="45.90957" lon="3.05405">
        <ele>468.6</ele>
        <time>2021-01-02T14:36:01Z</time>
      </trkpt>
      <trkpt lat="45.90958" lon="3.05406">
        <ele>468.2</ele>
        <time>2021-01-02T14:36:02Z</time>
      </trkpt>
      <trkpt lat="45.90959" lon="3.05407">
        <ele>467.8</ele>
        <time>2021-01-02T14:36:03Z</time>
      </trkpt>
      <trkpt lat="45.90963" lon="3.05411">
        <ele>467.4</ele>
        <time>2021-01-02T14:36:07Z</time>
      </trkpt>
      <trkpt lat="45.90963" lon="3.05411">
        <ele>466.8</ele>
        <time>2021-01-02T14:36:08Z</time>
      </trkpt>
      <trkpt lat="45.90964" lon="3.05415">
        <ele>465.4</ele>
        <time>2021-01-02T14:36:21Z</time>
      </trkpt>
      <trkpt lat="45.90965" lon="3.05416">
        <ele>465.4</ele>
        <time>2021-01-02T14:36:22Z</time>
      </trkpt>
      <trkpt lat="45.90965" lon="3.05417">
        <ele>465</ele>
        <time>2021-01-02T14:36:23Z</time>
      </trkpt>
      <trkpt lat="45.90965" lon="3.0542">
        <ele>464.2</ele>
        <time>2021-01-02T14:36:24Z</time>
      </trkpt>
      <trkpt lat="45.90964" lon="3.05422">
        <ele>463.6</ele>
        <time>2021-01-02T14:36:25Z</time>
      </trkpt>
      <trkpt lat="45.90964" lon="3.05424">
        <ele>463.2</ele>
        <time>2021-01-02T14:36:26Z</time>
      </trkpt>
      <trkpt lat="45.90963" lon="3.05426">
        <ele>462.8</ele>
        <time>2021-01-02T14:36:27Z</time>
      </trkpt>
      <trkpt lat="45.90962" lon="3.05427">
        <ele>462.4</ele>
        <time>2021-01-02T14:36:28Z</time>
      </trkpt>
      <trkpt lat="45.90963" lon="3.05429">
        <ele>461.8</ele>
        <time>2021-01-02T14:36:29Z</time>
      </trkpt>
      <trkpt lat="45.90962" lon="3.05432">
        <ele>461.4</ele>
        <time>2021-01-02T14:36:30Z</time>
      </trkpt>
      <trkpt lat="45.90962" lon="3.05434">
        <ele>461</ele>
        <time>2021-01-02T14:36:31Z</time>
      </trkpt>
      <trkpt lat="45.90961" lon="3.05436">
        <ele>461</ele>
        <time>2021-01-02T14:36:32Z</time>
      </trkpt>
      <trkpt lat="45.90961" lon="3.05439">
        <ele>460.6</ele>
        <time>2021-01-02T14:36:33Z</time>
      </trkpt>
      <trkpt lat="45.90959" lon="3.05441">
        <ele>460.2</ele>
        <time>2021-01-02T14:36:34Z</time>
      </trkpt>
      <trkpt lat="45.90959" lon="3.05444">
        <ele>459.6</ele>
        <time>2021-01-02T14:36:35Z</time>
      </trkpt>
      <trkpt lat="45.90958" lon="3.05445">
        <ele>459.2</ele>
        <time>2021-01-02T14:36:36Z</time>
      </trkpt>
      <trkpt lat="45.90957" lon="3.05447">
        <ele>458.8</ele>
        <time>2021-01-02T14:36:37Z</time>
      </trkpt>
      <trkpt lat="45.90956" lon="3.0545">
        <ele>458.4</ele>
        <time>2021-01-02T14:36:38Z</time>
      </trkpt>
      <trkpt lat="45.90956" lon="3.0545">
        <ele>457.8</ele>
        <time>2021-01-02T14:36:39Z</time>
      </trkpt>
      <trkpt lat="45.90957" lon="3.0545">
        <ele>457.4</ele>
        <time>2021-01-02T14:36:40Z</time>
      </trkpt>
      <trkpt lat="45.90955" lon="3.05454">
        <ele>456.4</ele>
        <time>2021-01-02T14:37:09Z</time>
      </trkpt>
      <trkpt lat="45.90954" lon="3.05466">
        <ele>456</ele>
        <time>2021-01-02T14:37:12Z</time>
      </trkpt>
      <trkpt lat="45.90953" lon="3.05471">
        <ele>455.4</ele>
        <time>2021-01-02T14:37:13Z</time>
      </trkpt>
      <trkpt lat="45.90952" lon="3.05475">
        <ele>454.4</ele>
        <time>2021-01-02T14:37:14Z</time>
      </trkpt>
      <trkpt lat="45.90952" lon="3.05479">
        <ele>454</ele>
        <time>2021-01-02T14:37:15Z</time>
      </trkpt>
      <trkpt lat="45.90951" lon="3.05484">
        <ele>453.4</ele>
        <time>2021-01-02T14:37:16Z</time>
      </trkpt>
      <trkpt lat="45.9095" lon="3.05488">
        <ele>452.8</ele>
        <time>2021-01-02T14:37:17Z</time>
      </trkpt>
      <trkpt lat="45.90948" lon="3.05491">
        <ele>452.2</ele>
        <time>2021-01-02T14:37:18Z</time>
      </trkpt>
      <trkpt lat="45.90946" lon="3.05494">
        <ele>451.6</ele>
        <time>2021-01-02T14:37:19Z</time>
      </trkpt>
      <trkpt lat="45.90944" lon="3.05498">
        <ele>451</ele>
        <time>2021-01-02T14:37:20Z</time>
      </trkpt>
      <trkpt lat="45.90942" lon="3.05502">
        <ele>450.4</ele>
        <time>2021-01-02T14:37:21Z</time>
      </trkpt>
      <trkpt lat="45.90942" lon="3.05506">
        <ele>449.8</ele>
        <time>2021-01-02T14:37:22Z</time>
      </trkpt>
      <trkpt lat="45.90941" lon="3.05508">
        <ele>449.2</ele>
        <time>2021-01-02T14:37:23Z</time>
      </trkpt>
      <trkpt lat="45.9094" lon="3.05511">
        <ele>448.6</ele>
        <time>2021-01-02T14:37:24Z</time>
      </trkpt>
      <trkpt lat="45.90938" lon="3.05513">
        <ele>448.2</ele>
        <time>2021-01-02T14:37:25Z</time>
      </trkpt>
      <trkpt lat="45.90936" lon="3.05515">
        <ele>447.8</ele>
        <time>2021-01-02T14:37:26Z</time>
      </trkpt>
      <trkpt lat="45.90933" lon="3.05517">
        <ele>447.2</ele>
        <time>2021-01-02T14:37:27Z</time>
      </trkpt>
      <trkpt lat="45.90929" lon="3.05519">
        <ele>446.8</ele>
        <time>2021-01-02T14:37:28Z</time>
      </trkpt>
      <trkpt lat="45.90925" lon="3.05519">
        <ele>446.4</ele>
        <time>2021-01-02T14:37:29Z</time>
      </trkpt>
      <trkpt lat="45.90921" lon="3.0552">
        <ele>446</ele>
        <time>2021-01-02T14:37:30Z</time>
      </trkpt>
      <trkpt lat="45.90917" lon="3.0552">
        <ele>445.6</ele>
        <time>2021-01-02T14:37:31Z</time>
      </trkpt>
      <trkpt lat="45.90912" lon="3.05521">
        <ele>445.2</ele>
        <time>2021-01-02T14:37:32Z</time>
      </trkpt>
      <trkpt lat="45.90907" lon="3.05521">
        <ele>444.8</ele>
        <time>2021-01-02T14:37:33Z</time>
      </trkpt>
      <trkpt lat="45.90884" lon="3.0552">
        <ele>444.4</ele>
        <time>2021-01-02T14:37:39Z</time>
      </trkpt>
      <trkpt lat="45.90879" lon="3.05519">
        <ele>443.6</ele>
        <time>2021-01-02T14:37:40Z</time>
      </trkpt>
      <trkpt lat="45.90875" lon="3.05517">
        <ele>443</ele>
        <time>2021-01-02T14:37:41Z</time>
      </trkpt>
      <trkpt lat="45.90871" lon="3.05516">
        <ele>442.6</ele>
        <time>2021-01-02T14:37:42Z</time>
      </trkpt>
      <trkpt lat="45.90867" lon="3.05516">
        <ele>442.2</ele>
        <time>2021-01-02T14:37:43Z</time>
      </trkpt>
      <trkpt lat="45.90862" lon="3.05515">
        <ele>441.8</ele>
        <time>2021-01-02T14:37:44Z</time>
      </trkpt>
      <trkpt lat="45.90857" lon="3.05515">
        <ele>441.4</ele>
        <time>2021-01-02T14:37:45Z</time>
      </trkpt>
      <trkpt lat="45.90852" lon="3.05515">
        <ele>440.8</ele>
        <time>2021-01-02T14:37:46Z</time>
      </trkpt>
      <trkpt lat="45.90846" lon="3.05515">
        <ele>440.4</ele>
        <time>2021-01-02T14:37:47Z</time>
      </trkpt>
      <trkpt lat="45.9084" lon="3.05513">
        <ele>440</ele>
        <time>2021-01-02T14:37:48Z</time>
      </trkpt>
      <trkpt lat="45.90835" lon="3.05513">
        <ele>439.6</ele>
        <time>2021-01-02T14:37:49Z</time>
      </trkpt>
      <trkpt lat="45.9083" lon="3.05512">
        <ele>439.2</ele>
        <time>2021-01-02T14:37:50Z</time>
      </trkpt>
      <trkpt lat="45.90825" lon="3.05512">
        <ele>438.6</ele>
        <time>2021-01-02T14:37:51Z</time>
      </trkpt>
      <trkpt lat="45.90821" lon="3.05511">
        <ele>438.2</ele>
        <time>2021-01-02T14:37:52Z</time>
      </trkpt>
      <trkpt lat="45.90816" lon="3.05512">
        <ele>438.2</ele>
        <time>2021-01-02T14:37:53Z</time>
      </trkpt>
      <trkpt lat="45.90809" lon="3.05519">
        <ele>438.2</ele>
        <time>2021-01-02T14:37:55Z</time>
      </trkpt>
      <trkpt lat="45.90804" lon="3.0553">
        <ele>438.2</ele>
        <time>2021-01-02T14:37:57Z</time>
      </trkpt>
      <trkpt lat="45.90802" lon="3.05535">
        <ele>438.2</ele>
        <time>2021-01-02T14:37:58Z</time>
      </trkpt>
      <trkpt lat="45.9079" lon="3.05541">
        <ele>438.2</ele>
        <time>2021-01-02T14:38:01Z</time>
      </trkpt>
      <trkpt lat="45.90786" lon="3.05542">
        <ele>438.2</ele>
        <time>2021-01-02T14:38:02Z</time>
      </trkpt>
      <trkpt lat="45.90754" lon="3.05545">
        <ele>438.2</ele>
        <time>2021-01-02T14:38:09Z</time>
      </trkpt>
      <trkpt lat="45.90722" lon="3.05547">
        <ele>438.2</ele>
        <time>2021-01-02T14:38:16Z</time>
      </trkpt>
      <trkpt lat="45.90718" lon="3.05547">
        <ele>438.6</ele>
        <time>2021-01-02T14:38:17Z</time>
      </trkpt>
      <trkpt lat="45.90713" lon="3.05547">
        <ele>439</ele>
        <time>2021-01-02T14:38:18Z</time>
      </trkpt>
      <trkpt lat="45.90709" lon="3.05548">
        <ele>439.4</ele>
        <time>2021-01-02T14:38:19Z</time>
      </trkpt>
      <trkpt lat="45.90705" lon="3.05548">
        <ele>439.8</ele>
        <time>2021-01-02T14:38:20Z</time>
      </trkpt>
      <trkpt lat="45.907" lon="3.05548">
        <ele>440.2</ele>
        <time>2021-01-02T14:38:21Z</time>
      </trkpt>
      <trkpt lat="45.90692" lon="3.05549">
        <ele>440.2</ele>
        <time>2021-01-02T14:38:23Z</time>
      </trkpt>
      <trkpt lat="45.90679" lon="3.05555">
        <ele>440.6</ele>
        <time>2021-01-02T14:38:27Z</time>
      </trkpt>
      <trkpt lat="45.90676" lon="3.05557">
        <ele>441.2</ele>
        <time>2021-01-02T14:38:28Z</time>
      </trkpt>
      <trkpt lat="45.90673" lon="3.05559">
        <ele>442</ele>
        <time>2021-01-02T14:38:29Z</time>
      </trkpt>
      <trkpt lat="45.90669" lon="3.05562">
        <ele>442.4</ele>
        <time>2021-01-02T14:38:30Z</time>
      </trkpt>
      <trkpt lat="45.90647" lon="3.05582">
        <ele>442.4</ele>
        <time>2021-01-02T14:38:37Z</time>
      </trkpt>
      <trkpt lat="45.90629" lon="3.05586">
        <ele>442.4</ele>
        <time>2021-01-02T14:38:41Z</time>
      </trkpt>
      <trkpt lat="45.90602" lon="3.05591">
        <ele>442.4</ele>
        <time>2021-01-02T14:38:48Z</time>
      </trkpt>
      <trkpt lat="45.90575" lon="3.05602">
        <ele>442.4</ele>
        <time>2021-01-02T14:38:55Z</time>
      </trkpt>
      <trkpt lat="45.90548" lon="3.05616">
        <ele>442.4</ele>
        <time>2021-01-02T14:39:02Z</time>
      </trkpt>
      <trkpt lat="45.90517" lon="3.0563">
        <ele>442.4</ele>
        <time>2021-01-02T14:39:10Z</time>
      </trkpt>
      <trkpt lat="45.90506" lon="3.05634">
        <ele>442.8</ele>
        <time>2021-01-02T14:39:13Z</time>
      </trkpt>
      <trkpt lat="45.90502" lon="3.05636">
        <ele>443.2</ele>
        <time>2021-01-02T14:39:14Z</time>
      </trkpt>
      <trkpt lat="45.90499" lon="3.05638">
        <ele>443.6</ele>
        <time>2021-01-02T14:39:15Z</time>
      </trkpt>
      <trkpt lat="45.90495" lon="3.0564">
        <ele>444</ele>
        <time>2021-01-02T14:39:16Z</time>
      </trkpt>
      <trkpt lat="45.90492" lon="3.05641">
        <ele>444.6</ele>
        <time>2021-01-02T14:39:17Z</time>
      </trkpt>
      <trkpt lat="45.90468" lon="3.05649">
        <ele>444.6</ele>
        <time>2021-01-02T14:39:24Z</time>
      </trkpt>
      <trkpt lat="45.9046" lon="3.05651">
        <ele>445</ele>
        <time>2021-01-02T14:39:27Z</time>
      </trkpt>
      <trkpt lat="45.90457" lon="3.05651">
        <ele>445.4</ele>
        <time>2021-01-02T14:39:28Z</time>
      </trkpt>
      <trkpt lat="45.90454" lon="3.05651">
        <ele>445.8</ele>
        <time>2021-01-02T14:39:29Z</time>
      </trkpt>
      <trkpt lat="45.90452" lon="3.0565">
        <ele>446.2</ele>
        <time>2021-01-02T14:39:30Z</time>
      </trkpt>
      <trkpt lat="45.90448" lon="3.0565">
        <ele>446.6</ele>
        <time>2021-01-02T14:39:31Z</time>
      </trkpt>
      <trkpt lat="45.90438" lon="3.0565">
        <ele>446.6</ele>
        <time>2021-01-02T14:39:34Z</time>
      </trkpt>
      <trkpt lat="45.90422" lon="3.05651">
        <ele>447</ele>
        <time>2021-01-02T14:39:39Z</time>
      </trkpt>
      <trkpt lat="45.90419" lon="3.05651">
        <ele>447.4</ele>
        <time>2021-01-02T14:39:40Z</time>
      </trkpt>
      <trkpt lat="45.90416" lon="3.05652">
        <ele>448</ele>
        <time>2021-01-02T14:39:41Z</time>
      </trkpt>
      <trkpt lat="45.90412" lon="3.05653">
        <ele>448.4</ele>
        <time>2021-01-02T14:39:42Z</time>
      </trkpt>
      <trkpt lat="45.90408" lon="3.05654">
        <ele>448.8</ele>
        <time>2021-01-02T14:39:43Z</time>
      </trkpt>
      <trkpt lat="45.90401" lon="3.05656">
        <ele>448.8</ele>
        <time>2021-01-02T14:39:45Z</time>
      </trkpt>
      <trkpt lat="45.90392" lon="3.05659">
        <ele>449.2</ele>
        <time>2021-01-02T14:39:48Z</time>
      </trkpt>
      <trkpt lat="45.9039" lon="3.0566">
        <ele>449.6</ele>
        <time>2021-01-02T14:39:49Z</time>
      </trkpt>
      <trkpt lat="45.90387" lon="3.05661">
        <ele>450</ele>
        <time>2021-01-02T14:39:50Z</time>
      </trkpt>
      <trkpt lat="45.90384" lon="3.05662">
        <ele>450.4</ele>
        <time>2021-01-02T14:39:51Z</time>
      </trkpt>
      <trkpt lat="45.90381" lon="3.05664">
        <ele>450.8</ele>
        <time>2021-01-02T14:39:52Z</time>
      </trkpt>
      <trkpt lat="45.90369" lon="3.0567">
        <ele>450.8</ele>
        <time>2021-01-02T14:39:56Z</time>
      </trkpt>
      <trkpt lat="45.90348" lon="3.05679">
        <ele>450.8</ele>
        <time>2021-01-02T14:40:03Z</time>
      </trkpt>
      <trkpt lat="45.90333" lon="3.05686">
        <ele>451.6</ele>
        <time>2021-01-02T14:40:08Z</time>
      </trkpt>
      <trkpt lat="45.9033" lon="3.05687">
        <ele>452.2</ele>
        <time>2021-01-02T14:40:09Z</time>
      </trkpt>
      <trkpt lat="45.90327" lon="3.05688">
        <ele>452.6</ele>
        <time>2021-01-02T14:40:10Z</time>
      </trkpt>
      <trkpt lat="45.90324" lon="3.05689">
        <ele>453</ele>
        <time>2021-01-02T14:40:11Z</time>
      </trkpt>
      <trkpt lat="45.90315" lon="3.05692">
        <ele>453</ele>
        <time>2021-01-02T14:40:14Z</time>
      </trkpt>
      <trkpt lat="45.903" lon="3.05696">
        <ele>453</ele>
        <time>2021-01-02T14:40:19Z</time>
      </trkpt>
      <trkpt lat="45.90281" lon="3.05699">
        <ele>453.4</ele>
        <time>2021-01-02T14:40:25Z</time>
      </trkpt>
      <trkpt lat="45.90277" lon="3.05699">
        <ele>453.8</ele>
        <time>2021-01-02T14:40:26Z</time>
      </trkpt>
      <trkpt lat="45.90273" lon="3.057">
        <ele>454.2</ele>
        <time>2021-01-02T14:40:27Z</time>
      </trkpt>
      <trkpt lat="45.9027" lon="3.05701">
        <ele>454.6</ele>
        <time>2021-01-02T14:40:28Z</time>
      </trkpt>
      <trkpt lat="45.90267" lon="3.05702">
        <ele>455</ele>
        <time>2021-01-02T14:40:29Z</time>
      </trkpt>
      <trkpt lat="45.90246" lon="3.05708">
        <ele>455</ele>
        <time>2021-01-02T14:40:35Z</time>
      </trkpt>
      <trkpt lat="45.90221" lon="3.05717">
        <ele>455</ele>
        <time>2021-01-02T14:40:42Z</time>
      </trkpt>
      <trkpt lat="45.90201" lon="3.05732">
        <ele>455.4</ele>
        <time>2021-01-02T14:40:48Z</time>
      </trkpt>
      <trkpt lat="45.90198" lon="3.05736">
        <ele>455.8</ele>
        <time>2021-01-02T14:40:49Z</time>
      </trkpt>
      <trkpt lat="45.90195" lon="3.05739">
        <ele>456.2</ele>
        <time>2021-01-02T14:40:50Z</time>
      </trkpt>
      <trkpt lat="45.90193" lon="3.05743">
        <ele>456.6</ele>
        <time>2021-01-02T14:40:51Z</time>
      </trkpt>
      <trkpt lat="45.9019" lon="3.05746">
        <ele>457</ele>
        <time>2021-01-02T14:40:52Z</time>
      </trkpt>
      <trkpt lat="45.90178" lon="3.05761">
        <ele>457</ele>
        <time>2021-01-02T14:40:56Z</time>
      </trkpt>
      <trkpt lat="45.90166" lon="3.05774">
        <ele>457.4</ele>
        <time>2021-01-02T14:41:00Z</time>
      </trkpt>
      <trkpt lat="45.90162" lon="3.05778">
        <ele>457.8</ele>
        <time>2021-01-02T14:41:01Z</time>
      </trkpt>
      <trkpt lat="45.90159" lon="3.05781">
        <ele>458.4</ele>
        <time>2021-01-02T14:41:02Z</time>
      </trkpt>
      <trkpt lat="45.90156" lon="3.05784">
        <ele>458.8</ele>
        <time>2021-01-02T14:41:03Z</time>
      </trkpt>
      <trkpt lat="45.90152" lon="3.05787">
        <ele>459.2</ele>
        <time>2021-01-02T14:41:04Z</time>
      </trkpt>
      <trkpt lat="45.90134" lon="3.058">
        <ele>459.2</ele>
        <time>2021-01-02T14:41:09Z</time>
      </trkpt>
      <trkpt lat="45.90117" lon="3.05812">
        <ele>459.6</ele>
        <time>2021-01-02T14:41:15Z</time>
      </trkpt>
      <trkpt lat="45.90114" lon="3.05814">
        <ele>460</ele>
        <time>2021-01-02T14:41:16Z</time>
      </trkpt>
      <trkpt lat="45.90111" lon="3.05816">
        <ele>460.4</ele>
        <time>2021-01-02T14:41:17Z</time>
      </trkpt>
      <trkpt lat="45.90108" lon="3.05818">
        <ele>460.8</ele>
        <time>2021-01-02T14:41:18Z</time>
      </trkpt>
      <trkpt lat="45.90106" lon="3.05821">
        <ele>461.2</ele>
        <time>2021-01-02T14:41:19Z</time>
      </trkpt>
      <trkpt lat="45.90102" lon="3.05824">
        <ele>461.2</ele>
        <time>2021-01-02T14:41:21Z</time>
      </trkpt>
      <trkpt lat="45.90101" lon="3.05826">
        <ele>462.2</ele>
        <time>2021-01-02T14:41:22Z</time>
      </trkpt>
      <trkpt lat="45.901" lon="3.05829">
        <ele>462.6</ele>
        <time>2021-01-02T14:41:23Z</time>
      </trkpt>
      <trkpt lat="45.90099" lon="3.05831">
        <ele>463.2</ele>
        <time>2021-01-02T14:41:24Z</time>
      </trkpt>
      <trkpt lat="45.90097" lon="3.05832">
        <ele>463.6</ele>
        <time>2021-01-02T14:41:25Z</time>
      </trkpt>
      <trkpt lat="45.90096" lon="3.05834">
        <ele>463.6</ele>
        <time>2021-01-02T14:41:26Z</time>
      </trkpt>
      <trkpt lat="45.9009" lon="3.05838">
        <ele>463.6</ele>
        <time>2021-01-02T14:41:31Z</time>
      </trkpt>
      <trkpt lat="45.90088" lon="3.05838">
        <ele>463.6</ele>
        <time>2021-01-02T14:41:32Z</time>
      </trkpt>
      <trkpt lat="45.90081" lon="3.05835">
        <ele>463.6</ele>
        <time>2021-01-02T14:41:36Z</time>
      </trkpt>
      <trkpt lat="45.90076" lon="3.05832">
        <ele>463.6</ele>
        <time>2021-01-02T14:41:38Z</time>
      </trkpt>
      <trkpt lat="45.90056" lon="3.05822">
        <ele>463.6</ele>
        <time>2021-01-02T14:41:46Z</time>
      </trkpt>
      <trkpt lat="45.90041" lon="3.05809">
        <ele>463.2</ele>
        <time>2021-01-02T14:41:52Z</time>
      </trkpt>
      <trkpt lat="45.90039" lon="3.05806">
        <ele>462.6</ele>
        <time>2021-01-02T14:41:53Z</time>
      </trkpt>
      <trkpt lat="45.90037" lon="3.05802">
        <ele>462.2</ele>
        <time>2021-01-02T14:41:54Z</time>
      </trkpt>
      <trkpt lat="45.90035" lon="3.05798">
        <ele>461.8</ele>
        <time>2021-01-02T14:41:55Z</time>
      </trkpt>
      <trkpt lat="45.90034" lon="3.05795">
        <ele>461.4</ele>
        <time>2021-01-02T14:41:56Z</time>
      </trkpt>
      <trkpt lat="45.90032" lon="3.05787">
        <ele>461.4</ele>
        <time>2021-01-02T14:41:58Z</time>
      </trkpt>
      <trkpt lat="45.90029" lon="3.05766">
        <ele>461.4</ele>
        <time>2021-01-02T14:42:04Z</time>
      </trkpt>
      <trkpt lat="45.90026" lon="3.05742">
        <ele>460.8</ele>
        <time>2021-01-02T14:42:11Z</time>
      </trkpt>
      <trkpt lat="45.90026" lon="3.05741">
        <ele>460</ele>
        <time>2021-01-02T14:42:12Z</time>
      </trkpt>
      <trkpt lat="45.90025" lon="3.05739">
        <ele>459.2</ele>
        <time>2021-01-02T14:42:33Z</time>
      </trkpt>
      <trkpt lat="45.90025" lon="3.05736">
        <ele>459.2</ele>
        <time>2021-01-02T14:42:34Z</time>
      </trkpt>
      <trkpt lat="45.90024" lon="3.0572">
        <ele>459.2</ele>
        <time>2021-01-02T14:42:38Z</time>
      </trkpt>
      <trkpt lat="45.90025" lon="3.05697">
        <ele>459.2</ele>
        <time>2021-01-02T14:42:43Z</time>
      </trkpt>
      <trkpt lat="45.90026" lon="3.05692">
        <ele>458.8</ele>
        <time>2021-01-02T14:42:44Z</time>
      </trkpt>
      <trkpt lat="45.90028" lon="3.05686">
        <ele>458.4</ele>
        <time>2021-01-02T14:42:45Z</time>
      </trkpt>
      <trkpt lat="45.9003" lon="3.05679">
        <ele>457.8</ele>
        <time>2021-01-02T14:42:46Z</time>
      </trkpt>
      <trkpt lat="45.90031" lon="3.05673">
        <ele>457.4</ele>
        <time>2021-01-02T14:42:47Z</time>
      </trkpt>
      <trkpt lat="45.90031" lon="3.05667">
        <ele>457</ele>
        <time>2021-01-02T14:42:48Z</time>
      </trkpt>
      <trkpt lat="45.90032" lon="3.05661">
        <ele>456.6</ele>
        <time>2021-01-02T14:42:49Z</time>
      </trkpt>
      <trkpt lat="45.90033" lon="3.05656">
        <ele>456</ele>
        <time>2021-01-02T14:42:50Z</time>
      </trkpt>
      <trkpt lat="45.90034" lon="3.05651">
        <ele>455.6</ele>
        <time>2021-01-02T14:42:51Z</time>
      </trkpt>
      <trkpt lat="45.90035" lon="3.05646">
        <ele>455</ele>
        <time>2021-01-02T14:42:52Z</time>
      </trkpt>
      <trkpt lat="45.90035" lon="3.05643">
        <ele>454.6</ele>
        <time>2021-01-02T14:42:53Z</time>
      </trkpt>
      <trkpt lat="45.90035" lon="3.05642">
        <ele>454.6</ele>
        <time>2021-01-02T14:42:54Z</time>
      </trkpt>
      <trkpt lat="45.90035" lon="3.05639">
        <ele>454.6</ele>
        <time>2021-01-02T14:43:01Z</time>
      </trkpt>
      <trkpt lat="45.90035" lon="3.05631">
        <ele>454</ele>
        <time>2021-01-02T14:43:03Z</time>
      </trkpt>
      <trkpt lat="45.90034" lon="3.05626">
        <ele>453.6</ele>
        <time>2021-01-02T14:43:04Z</time>
      </trkpt>
      <trkpt lat="45.90034" lon="3.05619">
        <ele>453</ele>
        <time>2021-01-02T14:43:05Z</time>
      </trkpt>
      <trkpt lat="45.90034" lon="3.05611">
        <ele>452.4</ele>
        <time>2021-01-02T14:43:06Z</time>
      </trkpt>
      <trkpt lat="45.90033" lon="3.05602">
        <ele>451.6</ele>
        <time>2021-01-02T14:43:07Z</time>
      </trkpt>
      <trkpt lat="45.90032" lon="3.05592">
        <ele>450.8</ele>
        <time>2021-01-02T14:43:08Z</time>
      </trkpt>
      <trkpt lat="45.90031" lon="3.05581">
        <ele>450</ele>
        <time>2021-01-02T14:43:09Z</time>
      </trkpt>
      <trkpt lat="45.9003" lon="3.0557">
        <ele>449.2</ele>
        <time>2021-01-02T14:43:10Z</time>
      </trkpt>
      <trkpt lat="45.90028" lon="3.05559">
        <ele>448.2</ele>
        <time>2021-01-02T14:43:11Z</time>
      </trkpt>
      <trkpt lat="45.90027" lon="3.05548">
        <ele>447.2</ele>
        <time>2021-01-02T14:43:12Z</time>
      </trkpt>
      <trkpt lat="45.90027" lon="3.05538">
        <ele>446</ele>
        <time>2021-01-02T14:43:13Z</time>
      </trkpt>
      <trkpt lat="45.90027" lon="3.05528">
        <ele>445</ele>
        <time>2021-01-02T14:43:14Z</time>
      </trkpt>
      <trkpt lat="45.90027" lon="3.05519">
        <ele>443.8</ele>
        <time>2021-01-02T14:43:15Z</time>
      </trkpt>
      <trkpt lat="45.90027" lon="3.05509">
        <ele>442.6</ele>
        <time>2021-01-02T14:43:16Z</time>
      </trkpt>
      <trkpt lat="45.90027" lon="3.055">
        <ele>442</ele>
        <time>2021-01-02T14:43:17Z</time>
      </trkpt>
      <trkpt lat="45.90026" lon="3.05492">
        <ele>441.2</ele>
        <time>2021-01-02T14:43:18Z</time>
      </trkpt>
      <trkpt lat="45.90025" lon="3.05485">
        <ele>440.4</ele>
        <time>2021-01-02T14:43:19Z</time>
      </trkpt>
      <trkpt lat="45.90025" lon="3.05478">
        <ele>439.8</ele>
        <time>2021-01-02T14:43:20Z</time>
      </trkpt>
      <trkpt lat="45.90024" lon="3.05471">
        <ele>439</ele>
        <time>2021-01-02T14:43:21Z</time>
      </trkpt>
      <trkpt lat="45.90021" lon="3.05452">
        <ele>439</ele>
        <time>2021-01-02T14:43:24Z</time>
      </trkpt>
      <trkpt lat="45.90012" lon="3.05428">
        <ele>439</ele>
        <time>2021-01-02T14:43:29Z</time>
      </trkpt>
      <trkpt lat="45.90002" lon="3.05415">
        <ele>439.4</ele>
        <time>2021-01-02T14:43:33Z</time>
      </trkpt>
      <trkpt lat="45.89999" lon="3.05414">
        <ele>439.8</ele>
        <time>2021-01-02T14:43:34Z</time>
      </trkpt>
      <trkpt lat="45.89995" lon="3.05413">
        <ele>440.2</ele>
        <time>2021-01-02T14:43:35Z</time>
      </trkpt>
      <trkpt lat="45.89992" lon="3.05413">
        <ele>440.6</ele>
        <time>2021-01-02T14:43:36Z</time>
      </trkpt>
      <trkpt lat="45.89988" lon="3.05414">
        <ele>441</ele>
        <time>2021-01-02T14:43:37Z</time>
      </trkpt>
      <trkpt lat="45.89981" lon="3.05415">
        <ele>441</ele>
        <time>2021-01-02T14:43:39Z</time>
      </trkpt>
      <trkpt lat="45.89958" lon="3.05419">
        <ele>441</ele>
        <time>2021-01-02T14:43:45Z</time>
      </trkpt>
      <trkpt lat="45.89934" lon="3.05425">
        <ele>441</ele>
        <time>2021-01-02T14:43:51Z</time>
      </trkpt>
      <trkpt lat="45.89931" lon="3.05426">
        <ele>441</ele>
        <time>2021-01-02T14:43:52Z</time>
      </trkpt>
      <trkpt lat="45.89907" lon="3.05426">
        <ele>441</ele>
        <time>2021-01-02T14:43:58Z</time>
      </trkpt>
      <trkpt lat="45.89896" lon="3.05413">
        <ele>441</ele>
        <time>2021-01-02T14:44:02Z</time>
      </trkpt>
      <trkpt lat="45.8989" lon="3.05389">
        <ele>441</ele>
        <time>2021-01-02T14:44:07Z</time>
      </trkpt>
      <trkpt lat="45.8989" lon="3.05363">
        <ele>441</ele>
        <time>2021-01-02T14:44:14Z</time>
      </trkpt>
      <trkpt lat="45.89897" lon="3.05336">
        <ele>441</ele>
        <time>2021-01-02T14:44:19Z</time>
      </trkpt>
      <trkpt lat="45.89908" lon="3.05299">
        <ele>441</ele>
        <time>2021-01-02T14:44:26Z</time>
      </trkpt>
      <trkpt lat="45.89917" lon="3.05263">
        <ele>441</ele>
        <time>2021-01-02T14:44:32Z</time>
      </trkpt>
      <trkpt lat="45.89918" lon="3.0522">
        <ele>441</ele>
        <time>2021-01-02T14:44:39Z</time>
      </trkpt>
      <trkpt lat="45.89916" lon="3.05188">
        <ele>441</ele>
        <time>2021-01-02T14:44:45Z</time>
      </trkpt>
      <trkpt lat="45.89913" lon="3.05177">
        <ele>441</ele>
        <time>2021-01-02T14:44:47Z</time>
      </trkpt>
      <trkpt lat="45.89907" lon="3.05152">
        <ele>440.6</ele>
        <time>2021-01-02T14:44:51Z</time>
      </trkpt>
      <trkpt lat="45.89906" lon="3.05145">
        <ele>440.2</ele>
        <time>2021-01-02T14:44:52Z</time>
      </trkpt>
      <trkpt lat="45.89906" lon="3.05138">
        <ele>439.6</ele>
        <time>2021-01-02T14:44:53Z</time>
      </trkpt>
      <trkpt lat="45.89905" lon="3.05132">
        <ele>439.2</ele>
        <time>2021-01-02T14:44:54Z</time>
      </trkpt>
      <trkpt lat="45.89903" lon="3.05125">
        <ele>438.6</ele>
        <time>2021-01-02T14:44:55Z</time>
      </trkpt>
      <trkpt lat="45.89901" lon="3.05118">
        <ele>438.2</ele>
        <time>2021-01-02T14:44:56Z</time>
      </trkpt>
      <trkpt lat="45.899" lon="3.05111">
        <ele>437.6</ele>
        <time>2021-01-02T14:44:57Z</time>
      </trkpt>
      <trkpt lat="45.89899" lon="3.05104">
        <ele>436.6</ele>
        <time>2021-01-02T14:44:58Z</time>
      </trkpt>
      <trkpt lat="45.89896" lon="3.05092">
        <ele>436.2</ele>
        <time>2021-01-02T14:45:00Z</time>
      </trkpt>
      <trkpt lat="45.89896" lon="3.05087">
        <ele>435.8</ele>
        <time>2021-01-02T14:45:01Z</time>
      </trkpt>
      <trkpt lat="45.89896" lon="3.05081">
        <ele>435.4</ele>
        <time>2021-01-02T14:45:02Z</time>
      </trkpt>
      <trkpt lat="45.89897" lon="3.05074">
        <ele>435</ele>
        <time>2021-01-02T14:45:03Z</time>
      </trkpt>
      <trkpt lat="45.899" lon="3.05067">
        <ele>434.2</ele>
        <time>2021-01-02T14:45:04Z</time>
      </trkpt>
      <trkpt lat="45.89903" lon="3.05061">
        <ele>433.4</ele>
        <time>2021-01-02T14:45:05Z</time>
      </trkpt>
      <trkpt lat="45.89907" lon="3.05054">
        <ele>432.4</ele>
        <time>2021-01-02T14:45:06Z</time>
      </trkpt>
      <trkpt lat="45.89911" lon="3.05047">
        <ele>431.4</ele>
        <time>2021-01-02T14:45:07Z</time>
      </trkpt>
      <trkpt lat="45.89915" lon="3.0504">
        <ele>430.6</ele>
        <time>2021-01-02T14:45:08Z</time>
      </trkpt>
      <trkpt lat="45.89918" lon="3.05033">
        <ele>429.6</ele>
        <time>2021-01-02T14:45:09Z</time>
      </trkpt>
      <trkpt lat="45.89922" lon="3.05024">
        <ele>428.8</ele>
        <time>2021-01-02T14:45:10Z</time>
      </trkpt>
      <trkpt lat="45.89925" lon="3.05015">
        <ele>428</ele>
        <time>2021-01-02T14:45:11Z</time>
      </trkpt>
      <trkpt lat="45.89928" lon="3.05006">
        <ele>427.2</ele>
        <time>2021-01-02T14:45:12Z</time>
      </trkpt>
      <trkpt lat="45.89931" lon="3.04998">
        <ele>426.2</ele>
        <time>2021-01-02T14:45:13Z</time>
      </trkpt>
      <trkpt lat="45.89937" lon="3.04986">
        <ele>425.8</ele>
        <time>2021-01-02T14:45:15Z</time>
      </trkpt>
      <trkpt lat="45.89938" lon="3.04983">
        <ele>425.4</ele>
        <time>2021-01-02T14:45:16Z</time>
      </trkpt>
      <trkpt lat="45.89939" lon="3.04981">
        <ele>425</ele>
        <time>2021-01-02T14:45:17Z</time>
      </trkpt>
      <trkpt lat="45.8994" lon="3.04978">
        <ele>424.6</ele>
        <time>2021-01-02T14:45:18Z</time>
      </trkpt>
      <trkpt lat="45.89939" lon="3.04975">
        <ele>424.2</ele>
        <time>2021-01-02T14:45:19Z</time>
      </trkpt>
      <trkpt lat="45.89937" lon="3.04974">
        <ele>424.2</ele>
        <time>2021-01-02T14:45:20Z</time>
      </trkpt>
      <trkpt lat="45.89929" lon="3.04969">
        <ele>424.2</ele>
        <time>2021-01-02T14:45:23Z</time>
      </trkpt>
      <trkpt lat="45.89922" lon="3.04964">
        <ele>424.2</ele>
        <time>2021-01-02T14:45:25Z</time>
      </trkpt>
      <trkpt lat="45.8991" lon="3.0496">
        <ele>423.6</ele>
        <time>2021-01-02T14:45:28Z</time>
      </trkpt>
      <trkpt lat="45.89905" lon="3.04958">
        <ele>423.2</ele>
        <time>2021-01-02T14:45:29Z</time>
      </trkpt>
      <trkpt lat="45.89901" lon="3.04956">
        <ele>422.6</ele>
        <time>2021-01-02T14:45:30Z</time>
      </trkpt>
      <trkpt lat="45.89896" lon="3.04953">
        <ele>421.8</ele>
        <time>2021-01-02T14:45:31Z</time>
      </trkpt>
      <trkpt lat="45.89891" lon="3.04949">
        <ele>421</ele>
        <time>2021-01-02T14:45:32Z</time>
      </trkpt>
      <trkpt lat="45.89887" lon="3.04945">
        <ele>420.2</ele>
        <time>2021-01-02T14:45:33Z</time>
      </trkpt>
      <trkpt lat="45.89884" lon="3.0494">
        <ele>419.4</ele>
        <time>2021-01-02T14:45:34Z</time>
      </trkpt>
      <trkpt lat="45.89881" lon="3.04935">
        <ele>418.6</ele>
        <time>2021-01-02T14:45:35Z</time>
      </trkpt>
      <trkpt lat="45.89878" lon="3.04923">
        <ele>418.2</ele>
        <time>2021-01-02T14:45:37Z</time>
      </trkpt>
      <trkpt lat="45.89878" lon="3.04916">
        <ele>417.8</ele>
        <time>2021-01-02T14:45:38Z</time>
      </trkpt>
      <trkpt lat="45.89877" lon="3.04909">
        <ele>417.4</ele>
        <time>2021-01-02T14:45:39Z</time>
      </trkpt>
      <trkpt lat="45.89877" lon="3.04901">
        <ele>417</ele>
        <time>2021-01-02T14:45:40Z</time>
      </trkpt>
      <trkpt lat="45.89876" lon="3.04893">
        <ele>416.4</ele>
        <time>2021-01-02T14:45:41Z</time>
      </trkpt>
      <trkpt lat="45.89875" lon="3.04877">
        <ele>416.4</ele>
        <time>2021-01-02T14:45:43Z</time>
      </trkpt>
      <trkpt lat="45.89868" lon="3.04864">
        <ele>416</ele>
        <time>2021-01-02T14:45:46Z</time>
      </trkpt>
      <trkpt lat="45.89864" lon="3.04863">
        <ele>415.6</ele>
        <time>2021-01-02T14:45:47Z</time>
      </trkpt>
      <trkpt lat="45.8986" lon="3.04864">
        <ele>414.8</ele>
        <time>2021-01-02T14:45:48Z</time>
      </trkpt>
      <trkpt lat="45.89856" lon="3.04866">
        <ele>414.4</ele>
        <time>2021-01-02T14:45:49Z</time>
      </trkpt>
      <trkpt lat="45.89851" lon="3.04868">
        <ele>414.4</ele>
        <time>2021-01-02T14:45:50Z</time>
      </trkpt>
      <trkpt lat="45.89846" lon="3.04871">
        <ele>414.4</ele>
        <time>2021-01-02T14:45:51Z</time>
      </trkpt>
      <trkpt lat="45.8984" lon="3.04875">
        <ele>414</ele>
        <time>2021-01-02T14:45:52Z</time>
      </trkpt>
      <trkpt lat="45.89835" lon="3.0488">
        <ele>413.4</ele>
        <time>2021-01-02T14:45:53Z</time>
      </trkpt>
      <trkpt lat="45.8983" lon="3.04886">
        <ele>413</ele>
        <time>2021-01-02T14:45:54Z</time>
      </trkpt>
      <trkpt lat="45.89826" lon="3.04891">
        <ele>412.4</ele>
        <time>2021-01-02T14:45:55Z</time>
      </trkpt>
      <trkpt lat="45.89823" lon="3.04895">
        <ele>412</ele>
        <time>2021-01-02T14:45:56Z</time>
      </trkpt>
      <trkpt lat="45.89814" lon="3.04898">
        <ele>412</ele>
        <time>2021-01-02T14:45:58Z</time>
      </trkpt>
      <trkpt lat="45.89799" lon="3.04901">
        <ele>412</ele>
        <time>2021-01-02T14:46:02Z</time>
      </trkpt>
      <trkpt lat="45.89792" lon="3.04907">
        <ele>412</ele>
        <time>2021-01-02T14:46:04Z</time>
      </trkpt>
      <trkpt lat="45.89776" lon="3.04925">
        <ele>412</ele>
        <time>2021-01-02T14:46:09Z</time>
      </trkpt>
      <trkpt lat="45.89773" lon="3.04931">
        <ele>412</ele>
        <time>2021-01-02T14:46:11Z</time>
      </trkpt>
      <trkpt lat="45.89773" lon="3.04934">
        <ele>412</ele>
        <time>2021-01-02T14:46:12Z</time>
      </trkpt>
      <trkpt lat="45.8977" lon="3.04941">
        <ele>411.6</ele>
        <time>2021-01-02T14:46:14Z</time>
      </trkpt>
      <trkpt lat="45.89767" lon="3.04945">
        <ele>411.2</ele>
        <time>2021-01-02T14:46:15Z</time>
      </trkpt>
      <trkpt lat="45.89763" lon="3.04948">
        <ele>410.8</ele>
        <time>2021-01-02T14:46:16Z</time>
      </trkpt>
      <trkpt lat="45.89758" lon="3.04952">
        <ele>410.4</ele>
        <time>2021-01-02T14:46:17Z</time>
      </trkpt>
      <trkpt lat="45.89754" lon="3.04955">
        <ele>409.8</ele>
        <time>2021-01-02T14:46:18Z</time>
      </trkpt>
      <trkpt lat="45.8975" lon="3.04959">
        <ele>409.4</ele>
        <time>2021-01-02T14:46:19Z</time>
      </trkpt>
      <trkpt lat="45.89747" lon="3.04964">
        <ele>408.8</ele>
        <time>2021-01-02T14:46:20Z</time>
      </trkpt>
      <trkpt lat="45.89743" lon="3.04968">
        <ele>408.4</ele>
        <time>2021-01-02T14:46:21Z</time>
      </trkpt>
      <trkpt lat="45.89739" lon="3.04972">
        <ele>407.8</ele>
        <time>2021-01-02T14:46:22Z</time>
      </trkpt>
      <trkpt lat="45.89729" lon="3.04987">
        <ele>407.8</ele>
        <time>2021-01-02T14:46:25Z</time>
      </trkpt>
      <trkpt lat="45.89722" lon="3.04996">
        <ele>407.4</ele>
        <time>2021-01-02T14:46:27Z</time>
      </trkpt>
      <trkpt lat="45.89719" lon="3.05002">
        <ele>407</ele>
        <time>2021-01-02T14:46:28Z</time>
      </trkpt>
      <trkpt lat="45.89716" lon="3.05008">
        <ele>406.6</ele>
        <time>2021-01-02T14:46:29Z</time>
      </trkpt>
      <trkpt lat="45.89712" lon="3.05014">
        <ele>406.2</ele>
        <time>2021-01-02T14:46:30Z</time>
      </trkpt>
      <trkpt lat="45.89709" lon="3.05021">
        <ele>405.8</ele>
        <time>2021-01-02T14:46:31Z</time>
      </trkpt>
      <trkpt lat="45.89702" lon="3.05034">
        <ele>405.8</ele>
        <time>2021-01-02T14:46:33Z</time>
      </trkpt>
      <trkpt lat="45.89696" lon="3.05047">
        <ele>405.4</ele>
        <time>2021-01-02T14:46:35Z</time>
      </trkpt>
      <trkpt lat="45.89693" lon="3.05055">
        <ele>404.8</ele>
        <time>2021-01-02T14:46:36Z</time>
      </trkpt>
      <trkpt lat="45.89689" lon="3.05061">
        <ele>404</ele>
        <time>2021-01-02T14:46:37Z</time>
      </trkpt>
      <trkpt lat="45.89687" lon="3.05068">
        <ele>403.4</ele>
        <time>2021-01-02T14:46:38Z</time>
      </trkpt>
      <trkpt lat="45.89687" lon="3.05075">
        <ele>403.4</ele>
        <time>2021-01-02T14:46:39Z</time>
      </trkpt>
      <trkpt lat="45.89692" lon="3.05081">
        <ele>403.4</ele>
        <time>2021-01-02T14:46:41Z</time>
      </trkpt>
      <trkpt lat="45.89696" lon="3.05086">
        <ele>403.4</ele>
        <time>2021-01-02T14:46:44Z</time>
      </trkpt>
      <trkpt lat="45.89698" lon="3.05105">
        <ele>403.4</ele>
        <time>2021-01-02T14:46:48Z</time>
      </trkpt>
      <trkpt lat="45.89702" lon="3.05108">
        <ele>403</ele>
        <time>2021-01-02T14:46:49Z</time>
      </trkpt>
      <trkpt lat="45.89706" lon="3.0511">
        <ele>402.4</ele>
        <time>2021-01-02T14:46:50Z</time>
      </trkpt>
      <trkpt lat="45.89709" lon="3.05111">
        <ele>402</ele>
        <time>2021-01-02T14:46:51Z</time>
      </trkpt>
      <trkpt lat="45.89713" lon="3.05113">
        <ele>401.6</ele>
        <time>2021-01-02T14:46:52Z</time>
      </trkpt>
      <trkpt lat="45.89716" lon="3.05114">
        <ele>401</ele>
        <time>2021-01-02T14:46:53Z</time>
      </trkpt>
      <trkpt lat="45.89724" lon="3.05121">
        <ele>401</ele>
        <time>2021-01-02T14:46:56Z</time>
      </trkpt>
      <trkpt lat="45.89721" lon="3.0514">
        <ele>401</ele>
        <time>2021-01-02T14:46:59Z</time>
      </trkpt>
      <trkpt lat="45.8972" lon="3.05147">
        <ele>401</ele>
        <time>2021-01-02T14:47:00Z</time>
      </trkpt>
      <trkpt lat="45.89714" lon="3.05177">
        <ele>401</ele>
        <time>2021-01-02T14:47:04Z</time>
      </trkpt>
      <trkpt lat="45.89711" lon="3.05193">
        <ele>401</ele>
        <time>2021-01-02T14:47:07Z</time>
      </trkpt>
      <trkpt lat="45.89706" lon="3.05215">
        <ele>401</ele>
        <time>2021-01-02T14:47:10Z</time>
      </trkpt>
      <trkpt lat="45.89701" lon="3.05247">
        <ele>400.6</ele>
        <time>2021-01-02T14:47:14Z</time>
      </trkpt>
      <trkpt lat="45.897" lon="3.05255">
        <ele>400.2</ele>
        <time>2021-01-02T14:47:15Z</time>
      </trkpt>
      <trkpt lat="45.89699" lon="3.05262">
        <ele>399.8</ele>
        <time>2021-01-02T14:47:16Z</time>
      </trkpt>
      <trkpt lat="45.89697" lon="3.0527">
        <ele>399.4</ele>
        <time>2021-01-02T14:47:17Z</time>
      </trkpt>
      <trkpt lat="45.89695" lon="3.05276">
        <ele>399</ele>
        <time>2021-01-02T14:47:18Z</time>
      </trkpt>
      <trkpt lat="45.89692" lon="3.05291">
        <ele>399</ele>
        <time>2021-01-02T14:47:20Z</time>
      </trkpt>
      <trkpt lat="45.89685" lon="3.0533">
        <ele>398.6</ele>
        <time>2021-01-02T14:47:25Z</time>
      </trkpt>
      <trkpt lat="45.89683" lon="3.05338">
        <ele>398</ele>
        <time>2021-01-02T14:47:26Z</time>
      </trkpt>
      <trkpt lat="45.89682" lon="3.05346">
        <ele>397.6</ele>
        <time>2021-01-02T14:47:27Z</time>
      </trkpt>
      <trkpt lat="45.8968" lon="3.05354">
        <ele>396.8</ele>
        <time>2021-01-02T14:47:28Z</time>
      </trkpt>
      <trkpt lat="45.89675" lon="3.0538">
        <ele>396.4</ele>
        <time>2021-01-02T14:47:31Z</time>
      </trkpt>
      <trkpt lat="45.89674" lon="3.05388">
        <ele>396</ele>
        <time>2021-01-02T14:47:32Z</time>
      </trkpt>
      <trkpt lat="45.89673" lon="3.05395">
        <ele>395.6</ele>
        <time>2021-01-02T14:47:33Z</time>
      </trkpt>
      <trkpt lat="45.89672" lon="3.05399">
        <ele>395.2</ele>
        <time>2021-01-02T14:47:34Z</time>
      </trkpt>
      <trkpt lat="45.89669" lon="3.05403">
        <ele>394.8</ele>
        <time>2021-01-02T14:47:35Z</time>
      </trkpt>
      <trkpt lat="45.89662" lon="3.05403">
        <ele>394.8</ele>
        <time>2021-01-02T14:47:37Z</time>
      </trkpt>
      <trkpt lat="45.89642" lon="3.05401">
        <ele>394.8</ele>
        <time>2021-01-02T14:47:42Z</time>
      </trkpt>
      <trkpt lat="45.89638" lon="3.05404">
        <ele>394.8</ele>
        <time>2021-01-02T14:47:43Z</time>
      </trkpt>
      <trkpt lat="45.89624" lon="3.05427">
        <ele>394.2</ele>
        <time>2021-01-02T14:47:47Z</time>
      </trkpt>
      <trkpt lat="45.8962" lon="3.05433">
        <ele>393.8</ele>
        <time>2021-01-02T14:47:48Z</time>
      </trkpt>
      <trkpt lat="45.89618" lon="3.0544">
        <ele>393.4</ele>
        <time>2021-01-02T14:47:49Z</time>
      </trkpt>
      <trkpt lat="45.89615" lon="3.05446">
        <ele>393</ele>
        <time>2021-01-02T14:47:50Z</time>
      </trkpt>
      <trkpt lat="45.89612" lon="3.05452">
        <ele>392.4</ele>
        <time>2021-01-02T14:47:51Z</time>
      </trkpt>
      <trkpt lat="45.89604" lon="3.05471">
        <ele>392.4</ele>
        <time>2021-01-02T14:47:54Z</time>
      </trkpt>
      <trkpt lat="45.89597" lon="3.05488">
        <ele>392.4</ele>
        <time>2021-01-02T14:47:57Z</time>
      </trkpt>
      <trkpt lat="45.8959" lon="3.05504">
        <ele>392.4</ele>
        <time>2021-01-02T14:48:00Z</time>
      </trkpt>
      <trkpt lat="45.89579" lon="3.05504">
        <ele>392.4</ele>
        <time>2021-01-02T14:48:03Z</time>
      </trkpt>
      <trkpt lat="45.89572" lon="3.05504">
        <ele>392.4</ele>
        <time>2021-01-02T14:48:07Z</time>
      </trkpt>
      <trkpt lat="45.89567" lon="3.0552">
        <ele>392.4</ele>
        <time>2021-01-02T14:48:11Z</time>
      </trkpt>
      <trkpt lat="45.89564" lon="3.05532">
        <ele>392</ele>
        <time>2021-01-02T14:48:13Z</time>
      </trkpt>
      <trkpt lat="45.89562" lon="3.05537">
        <ele>391.6</ele>
        <time>2021-01-02T14:48:14Z</time>
      </trkpt>
      <trkpt lat="45.8956" lon="3.05539">
        <ele>391</ele>
        <time>2021-01-02T14:48:15Z</time>
      </trkpt>
      <trkpt lat="45.89558" lon="3.05541">
        <ele>390.6</ele>
        <time>2021-01-02T14:48:16Z</time>
      </trkpt>
      <trkpt lat="45.89555" lon="3.05542">
        <ele>390</ele>
        <time>2021-01-02T14:48:17Z</time>
      </trkpt>
      <trkpt lat="45.89549" lon="3.05547">
        <ele>390</ele>
        <time>2021-01-02T14:48:19Z</time>
      </trkpt>
      <trkpt lat="45.8954" lon="3.05556">
        <ele>390</ele>
        <time>2021-01-02T14:48:22Z</time>
      </trkpt>
      <trkpt lat="45.89535" lon="3.05559">
        <ele>389.6</ele>
        <time>2021-01-02T14:48:23Z</time>
      </trkpt>
      <trkpt lat="45.89531" lon="3.05561">
        <ele>389.2</ele>
        <time>2021-01-02T14:48:24Z</time>
      </trkpt>
      <trkpt lat="45.89526" lon="3.05563">
        <ele>388.8</ele>
        <time>2021-01-02T14:48:25Z</time>
      </trkpt>
      <trkpt lat="45.89522" lon="3.05566">
        <ele>388.2</ele>
        <time>2021-01-02T14:48:26Z</time>
      </trkpt>
      <trkpt lat="45.89519" lon="3.05569">
        <ele>387.8</ele>
        <time>2021-01-02T14:48:27Z</time>
      </trkpt>
      <trkpt lat="45.89515" lon="3.05571">
        <ele>387.8</ele>
        <time>2021-01-02T14:48:28Z</time>
      </trkpt>
      <trkpt lat="45.89503" lon="3.05585">
        <ele>387.8</ele>
        <time>2021-01-02T14:48:32Z</time>
      </trkpt>
      <trkpt lat="45.89502" lon="3.0559">
        <ele>387.8</ele>
        <time>2021-01-02T14:48:33Z</time>
      </trkpt>
      <trkpt lat="45.89497" lon="3.05621">
        <ele>387.8</ele>
        <time>2021-01-02T14:48:38Z</time>
      </trkpt>
      <trkpt lat="45.89496" lon="3.05628">
        <ele>387.8</ele>
        <time>2021-01-02T14:48:39Z</time>
      </trkpt>
      <trkpt lat="45.89492" lon="3.0565">
        <ele>387</ele>
        <time>2021-01-02T14:48:42Z</time>
      </trkpt>
      <trkpt lat="45.89492" lon="3.05655">
        <ele>386.4</ele>
        <time>2021-01-02T14:48:43Z</time>
      </trkpt>
      <trkpt lat="45.89493" lon="3.05658">
        <ele>386</ele>
        <time>2021-01-02T14:48:44Z</time>
      </trkpt>
      <trkpt lat="45.89495" lon="3.0566">
        <ele>385.6</ele>
        <time>2021-01-02T14:48:45Z</time>
      </trkpt>
      <trkpt lat="45.89502" lon="3.05676">
        <ele>385.2</ele>
        <time>2021-01-02T14:48:49Z</time>
      </trkpt>
      <trkpt lat="45.89502" lon="3.05681">
        <ele>384.8</ele>
        <time>2021-01-02T14:48:50Z</time>
      </trkpt>
      <trkpt lat="45.89502" lon="3.05687">
        <ele>384.4</ele>
        <time>2021-01-02T14:48:51Z</time>
      </trkpt>
      <trkpt lat="45.89501" lon="3.05693">
        <ele>383.8</ele>
        <time>2021-01-02T14:48:52Z</time>
      </trkpt>
      <trkpt lat="45.89501" lon="3.05699">
        <ele>383.4</ele>
        <time>2021-01-02T14:48:53Z</time>
      </trkpt>
      <trkpt lat="45.89502" lon="3.05705">
        <ele>383.4</ele>
        <time>2021-01-02T14:48:54Z</time>
      </trkpt>
      <trkpt lat="45.89502" lon="3.05712">
        <ele>383.4</ele>
        <time>2021-01-02T14:48:55Z</time>
      </trkpt>
      <trkpt lat="45.89503" lon="3.05731">
        <ele>383.4</ele>
        <time>2021-01-02T14:48:58Z</time>
      </trkpt>
      <trkpt lat="45.89502" lon="3.05769">
        <ele>383.4</ele>
        <time>2021-01-02T14:49:04Z</time>
      </trkpt>
      <trkpt lat="45.89499" lon="3.05788">
        <ele>383.4</ele>
        <time>2021-01-02T14:49:07Z</time>
      </trkpt>
      <trkpt lat="45.89497" lon="3.05803">
        <ele>383</ele>
        <time>2021-01-02T14:49:09Z</time>
      </trkpt>
      <trkpt lat="45.89496" lon="3.0581">
        <ele>382.6</ele>
        <time>2021-01-02T14:49:10Z</time>
      </trkpt>
      <trkpt lat="45.89497" lon="3.05819">
        <ele>382.2</ele>
        <time>2021-01-02T14:49:11Z</time>
      </trkpt>
      <trkpt lat="45.89499" lon="3.05826">
        <ele>381.8</ele>
        <time>2021-01-02T14:49:12Z</time>
      </trkpt>
      <trkpt lat="45.895" lon="3.05833">
        <ele>381.4</ele>
        <time>2021-01-02T14:49:13Z</time>
      </trkpt>
      <trkpt lat="45.89501" lon="3.0584">
        <ele>381.4</ele>
        <time>2021-01-02T14:49:14Z</time>
      </trkpt>
      <trkpt lat="45.89499" lon="3.05862">
        <ele>381.4</ele>
        <time>2021-01-02T14:49:17Z</time>
      </trkpt>
      <trkpt lat="45.89498" lon="3.0587">
        <ele>381.4</ele>
        <time>2021-01-02T14:49:18Z</time>
      </trkpt>
      <trkpt lat="45.89493" lon="3.05911">
        <ele>381</ele>
        <time>2021-01-02T14:49:23Z</time>
      </trkpt>
      <trkpt lat="45.89492" lon="3.0592">
        <ele>380.4</ele>
        <time>2021-01-02T14:49:24Z</time>
      </trkpt>
      <trkpt lat="45.89491" lon="3.05929">
        <ele>380</ele>
        <time>2021-01-02T14:49:25Z</time>
      </trkpt>
      <trkpt lat="45.8949" lon="3.05937">
        <ele>379.6</ele>
        <time>2021-01-02T14:49:26Z</time>
      </trkpt>
      <trkpt lat="45.89488" lon="3.05944">
        <ele>379.2</ele>
        <time>2021-01-02T14:49:27Z</time>
      </trkpt>
      <trkpt lat="45.89487" lon="3.0595">
        <ele>379.2</ele>
        <time>2021-01-02T14:49:28Z</time>
      </trkpt>
      <trkpt lat="45.89476" lon="3.05979">
        <ele>379.2</ele>
        <time>2021-01-02T14:49:33Z</time>
      </trkpt>
      <trkpt lat="45.89468" lon="3.06">
        <ele>379.2</ele>
        <time>2021-01-02T14:49:36Z</time>
      </trkpt>
      <trkpt lat="45.89463" lon="3.06012">
        <ele>379.2</ele>
        <time>2021-01-02T14:49:38Z</time>
      </trkpt>
      <trkpt lat="45.89461" lon="3.06019">
        <ele>379.2</ele>
        <time>2021-01-02T14:49:39Z</time>
      </trkpt>
      <trkpt lat="45.89458" lon="3.06025">
        <ele>378.8</ele>
        <time>2021-01-02T14:49:40Z</time>
      </trkpt>
      <trkpt lat="45.89455" lon="3.06032">
        <ele>378.4</ele>
        <time>2021-01-02T14:49:41Z</time>
      </trkpt>
      <trkpt lat="45.89453" lon="3.06039">
        <ele>378</ele>
        <time>2021-01-02T14:49:42Z</time>
      </trkpt>
      <trkpt lat="45.89452" lon="3.06046">
        <ele>377.4</ele>
        <time>2021-01-02T14:49:43Z</time>
      </trkpt>
      <trkpt lat="45.89451" lon="3.06052">
        <ele>377</ele>
        <time>2021-01-02T14:49:44Z</time>
      </trkpt>
      <trkpt lat="45.89448" lon="3.06073">
        <ele>377</ele>
        <time>2021-01-02T14:49:48Z</time>
      </trkpt>
      <trkpt lat="45.89447" lon="3.06085">
        <ele>377</ele>
        <time>2021-01-02T14:49:50Z</time>
      </trkpt>
      <trkpt lat="45.89446" lon="3.06101">
        <ele>377</ele>
        <time>2021-01-02T14:49:53Z</time>
      </trkpt>
      <trkpt lat="45.89446" lon="3.06138">
        <ele>377</ele>
        <time>2021-01-02T14:50:00Z</time>
      </trkpt>
      <trkpt lat="45.8945" lon="3.0617">
        <ele>376.6</ele>
        <time>2021-01-02T14:50:06Z</time>
      </trkpt>
      <trkpt lat="45.8945" lon="3.06174">
        <ele>376.2</ele>
        <time>2021-01-02T14:50:07Z</time>
      </trkpt>
      <trkpt lat="45.8945" lon="3.06178">
        <ele>375.8</ele>
        <time>2021-01-02T14:50:08Z</time>
      </trkpt>
      <trkpt lat="45.89449" lon="3.06183">
        <ele>375.4</ele>
        <time>2021-01-02T14:50:09Z</time>
      </trkpt>
      <trkpt lat="45.8945" lon="3.06186">
        <ele>375</ele>
        <time>2021-01-02T14:50:10Z</time>
      </trkpt>
      <trkpt lat="45.89451" lon="3.06193">
        <ele>375</ele>
        <time>2021-01-02T14:50:12Z</time>
      </trkpt>
      <trkpt lat="45.89442" lon="3.06198">
        <ele>375</ele>
        <time>2021-01-02T14:50:15Z</time>
      </trkpt>
      <trkpt lat="45.89421" lon="3.06203">
        <ele>375</ele>
        <time>2021-01-02T14:50:20Z</time>
      </trkpt>
      <trkpt lat="45.89395" lon="3.06216">
        <ele>375</ele>
        <time>2021-01-02T14:50:26Z</time>
      </trkpt>
      <trkpt lat="45.89391" lon="3.06219">
        <ele>375</ele>
        <time>2021-01-02T14:50:27Z</time>
      </trkpt>
      <trkpt lat="45.89373" lon="3.06231">
        <ele>375</ele>
        <time>2021-01-02T14:50:32Z</time>
      </trkpt>
      <trkpt lat="45.89345" lon="3.06249">
        <ele>375</ele>
        <time>2021-01-02T14:50:40Z</time>
      </trkpt>
      <trkpt lat="45.89339" lon="3.06252">
        <ele>375.6</ele>
        <time>2021-01-02T14:50:42Z</time>
      </trkpt>
      <trkpt lat="45.89336" lon="3.06254">
        <ele>376</ele>
        <time>2021-01-02T14:50:43Z</time>
      </trkpt>
      <trkpt lat="45.89332" lon="3.06257">
        <ele>376.4</ele>
        <time>2021-01-02T14:50:44Z</time>
      </trkpt>
      <trkpt lat="45.89329" lon="3.06259">
        <ele>376.8</ele>
        <time>2021-01-02T14:50:45Z</time>
      </trkpt>
      <trkpt lat="45.89325" lon="3.06261">
        <ele>377.2</ele>
        <time>2021-01-02T14:50:46Z</time>
      </trkpt>
      <trkpt lat="45.89294" lon="3.06278">
        <ele>377.2</ele>
        <time>2021-01-02T14:50:54Z</time>
      </trkpt>
      <trkpt lat="45.89279" lon="3.06286">
        <ele>377.2</ele>
        <time>2021-01-02T14:50:59Z</time>
      </trkpt>
      <trkpt lat="45.89262" lon="3.06296">
        <ele>377.2</ele>
        <time>2021-01-02T14:51:05Z</time>
      </trkpt>
      <trkpt lat="45.89248" lon="3.06309">
        <ele>377.2</ele>
        <time>2021-01-02T14:51:10Z</time>
      </trkpt>
      <trkpt lat="45.89225" lon="3.06323">
        <ele>377.2</ele>
        <time>2021-01-02T14:51:16Z</time>
      </trkpt>
      <trkpt lat="45.892" lon="3.06341">
        <ele>377.2</ele>
        <time>2021-01-02T14:51:22Z</time>
      </trkpt>
      <trkpt lat="45.89175" lon="3.06358">
        <ele>377.2</ele>
        <time>2021-01-02T14:51:28Z</time>
      </trkpt>
      <trkpt lat="45.89138" lon="3.06383">
        <ele>377.2</ele>
        <time>2021-01-02T14:51:37Z</time>
      </trkpt>
      <trkpt lat="45.89134" lon="3.06386">
        <ele>377.2</ele>
        <time>2021-01-02T14:51:38Z</time>
      </trkpt>
      <trkpt lat="45.89118" lon="3.06397">
        <ele>377.2</ele>
        <time>2021-01-02T14:51:42Z</time>
      </trkpt>
      <trkpt lat="45.89098" lon="3.0641">
        <ele>377.2</ele>
        <time>2021-01-02T14:51:47Z</time>
      </trkpt>
      <trkpt lat="45.89089" lon="3.06415">
        <ele>377.2</ele>
        <time>2021-01-02T14:51:49Z</time>
      </trkpt>
      <trkpt lat="45.89063" lon="3.06433">
        <ele>377.2</ele>
        <time>2021-01-02T14:51:56Z</time>
      </trkpt>
      <trkpt lat="45.89059" lon="3.06436">
        <ele>377.2</ele>
        <time>2021-01-02T14:51:57Z</time>
      </trkpt>
      <trkpt lat="45.89042" lon="3.06448">
        <ele>377.2</ele>
        <time>2021-01-02T14:52:03Z</time>
      </trkpt>
      <trkpt lat="45.89028" lon="3.06452">
        <ele>377.2</ele>
        <time>2021-01-02T14:52:08Z</time>
      </trkpt>
      <trkpt lat="45.89009" lon="3.06453">
        <ele>377.2</ele>
        <time>2021-01-02T14:52:13Z</time>
      </trkpt>
      <trkpt lat="45.88978" lon="3.06452">
        <ele>377.2</ele>
        <time>2021-01-02T14:52:20Z</time>
      </trkpt>
      <trkpt lat="45.8896" lon="3.06453">
        <ele>376.8</ele>
        <time>2021-01-02T14:52:24Z</time>
      </trkpt>
      <trkpt lat="45.88956" lon="3.06453">
        <ele>376.4</ele>
        <time>2021-01-02T14:52:25Z</time>
      </trkpt>
      <trkpt lat="45.88952" lon="3.06453">
        <ele>376</ele>
        <time>2021-01-02T14:52:26Z</time>
      </trkpt>
      <trkpt lat="45.88948" lon="3.06453">
        <ele>375.6</ele>
        <time>2021-01-02T14:52:27Z</time>
      </trkpt>
      <trkpt lat="45.88944" lon="3.06453">
        <ele>375.2</ele>
        <time>2021-01-02T14:52:28Z</time>
      </trkpt>
      <trkpt lat="45.8894" lon="3.06453">
        <ele>375.2</ele>
        <time>2021-01-02T14:52:29Z</time>
      </trkpt>
      <trkpt lat="45.88916" lon="3.06454">
        <ele>375.2</ele>
        <time>2021-01-02T14:52:35Z</time>
      </trkpt>
      <trkpt lat="45.88903" lon="3.06454">
        <ele>375.2</ele>
        <time>2021-01-02T14:52:38Z</time>
      </trkpt>
      <trkpt lat="45.88887" lon="3.06455">
        <ele>375.2</ele>
        <time>2021-01-02T14:52:42Z</time>
      </trkpt>
      <trkpt lat="45.88869" lon="3.06455">
        <ele>374.6</ele>
        <time>2021-01-02T14:52:46Z</time>
      </trkpt>
      <trkpt lat="45.88865" lon="3.06455">
        <ele>374.2</ele>
        <time>2021-01-02T14:52:47Z</time>
      </trkpt>
      <trkpt lat="45.88861" lon="3.06455">
        <ele>373.8</ele>
        <time>2021-01-02T14:52:48Z</time>
      </trkpt>
      <trkpt lat="45.88857" lon="3.06455">
        <ele>373</ele>
        <time>2021-01-02T14:52:49Z</time>
      </trkpt>
      <trkpt lat="45.88845" lon="3.06452">
        <ele>373</ele>
        <time>2021-01-02T14:52:52Z</time>
      </trkpt>
      <trkpt lat="45.8884" lon="3.06444">
        <ele>373</ele>
        <time>2021-01-02T14:52:54Z</time>
      </trkpt>
      <trkpt lat="45.88838" lon="3.06433">
        <ele>373</ele>
        <time>2021-01-02T14:52:56Z</time>
      </trkpt>
      <trkpt lat="45.88833" lon="3.06416">
        <ele>373</ele>
        <time>2021-01-02T14:52:59Z</time>
      </trkpt>
      <trkpt lat="45.88817" lon="3.06373">
        <ele>373</ele>
        <time>2021-01-02T14:53:07Z</time>
      </trkpt>
      <trkpt lat="45.88814" lon="3.06369">
        <ele>373</ele>
        <time>2021-01-02T14:53:08Z</time>
      </trkpt>
      <trkpt lat="45.88802" lon="3.06349">
        <ele>373</ele>
        <time>2021-01-02T14:53:13Z</time>
      </trkpt>
      <trkpt lat="45.88784" lon="3.06324">
        <ele>373</ele>
        <time>2021-01-02T14:53:20Z</time>
      </trkpt>
      <trkpt lat="45.88781" lon="3.06323">
        <ele>373</ele>
        <time>2021-01-02T14:53:21Z</time>
      </trkpt>
      <trkpt lat="45.88774" lon="3.06328">
        <ele>373</ele>
        <time>2021-01-02T14:53:23Z</time>
      </trkpt>
      <trkpt lat="45.88767" lon="3.06336">
        <ele>373</ele>
        <time>2021-01-02T14:53:25Z</time>
      </trkpt>
      <trkpt lat="45.88759" lon="3.06343">
        <ele>373</ele>
        <time>2021-01-02T14:53:27Z</time>
      </trkpt>
      <trkpt lat="45.8875" lon="3.06349">
        <ele>373</ele>
        <time>2021-01-02T14:53:29Z</time>
      </trkpt>
      <trkpt lat="45.88718" lon="3.06365">
        <ele>373</ele>
        <time>2021-01-02T14:53:36Z</time>
      </trkpt>
      <trkpt lat="45.88714" lon="3.06367">
        <ele>373</ele>
        <time>2021-01-02T14:53:37Z</time>
      </trkpt>
      <trkpt lat="45.88692" lon="3.06377">
        <ele>373</ele>
        <time>2021-01-02T14:53:42Z</time>
      </trkpt>
      <trkpt lat="45.88688" lon="3.06379">
        <ele>373</ele>
        <time>2021-01-02T14:53:43Z</time>
      </trkpt>
      <trkpt lat="45.88675" lon="3.06383">
        <ele>373</ele>
        <time>2021-01-02T14:53:46Z</time>
      </trkpt>
      <trkpt lat="45.88666" lon="3.06379">
        <ele>373</ele>
        <time>2021-01-02T14:53:48Z</time>
      </trkpt>
      <trkpt lat="45.88662" lon="3.06375">
        <ele>372.6</ele>
        <time>2021-01-02T14:53:49Z</time>
      </trkpt>
      <trkpt lat="45.88658" lon="3.06371">
        <ele>372.2</ele>
        <time>2021-01-02T14:53:50Z</time>
      </trkpt>
      <trkpt lat="45.88654" lon="3.06368">
        <ele>371.6</ele>
        <time>2021-01-02T14:53:51Z</time>
      </trkpt>
      <trkpt lat="45.88649" lon="3.06366">
        <ele>371.2</ele>
        <time>2021-01-02T14:53:52Z</time>
      </trkpt>
      <trkpt lat="45.88644" lon="3.06366">
        <ele>370.8</ele>
        <time>2021-01-02T14:53:53Z</time>
      </trkpt>
      <trkpt lat="45.88631" lon="3.06377">
        <ele>370.8</ele>
        <time>2021-01-02T14:53:56Z</time>
      </trkpt>
      <trkpt lat="45.88623" lon="3.06396">
        <ele>370.8</ele>
        <time>2021-01-02T14:53:59Z</time>
      </trkpt>
      <trkpt lat="45.8862" lon="3.06402">
        <ele>370.8</ele>
        <time>2021-01-02T14:54:00Z</time>
      </trkpt>
      <trkpt lat="45.88605" lon="3.06414">
        <ele>370.4</ele>
        <time>2021-01-02T14:54:03Z</time>
      </trkpt>
      <trkpt lat="45.88599" lon="3.06416">
        <ele>370</ele>
        <time>2021-01-02T14:54:04Z</time>
      </trkpt>
      <trkpt lat="45.88593" lon="3.06419">
        <ele>369.6</ele>
        <time>2021-01-02T14:54:05Z</time>
      </trkpt>
      <trkpt lat="45.88587" lon="3.06422">
        <ele>369.2</ele>
        <time>2021-01-02T14:54:06Z</time>
      </trkpt>
      <trkpt lat="45.88581" lon="3.06424">
        <ele>368.6</ele>
        <time>2021-01-02T14:54:07Z</time>
      </trkpt>
      <trkpt lat="45.88564" lon="3.06432">
        <ele>368.6</ele>
        <time>2021-01-02T14:54:10Z</time>
      </trkpt>
      <trkpt lat="45.88523" lon="3.06458">
        <ele>368.6</ele>
        <time>2021-01-02T14:54:17Z</time>
      </trkpt>
      <trkpt lat="45.88472" lon="3.06486">
        <ele>368.6</ele>
        <time>2021-01-02T14:54:26Z</time>
      </trkpt>
      <trkpt lat="45.88461" lon="3.06492">
        <ele>368.2</ele>
        <time>2021-01-02T14:54:28Z</time>
      </trkpt>
      <trkpt lat="45.88455" lon="3.06495">
        <ele>367.8</ele>
        <time>2021-01-02T14:54:29Z</time>
      </trkpt>
      <trkpt lat="45.88449" lon="3.06498">
        <ele>367.4</ele>
        <time>2021-01-02T14:54:30Z</time>
      </trkpt>
      <trkpt lat="45.88443" lon="3.06499">
        <ele>367</ele>
        <time>2021-01-02T14:54:31Z</time>
      </trkpt>
      <trkpt lat="45.88437" lon="3.06501">
        <ele>366.6</ele>
        <time>2021-01-02T14:54:32Z</time>
      </trkpt>
      <trkpt lat="45.88431" lon="3.06502">
        <ele>366.6</ele>
        <time>2021-01-02T14:54:33Z</time>
      </trkpt>
      <trkpt lat="45.88383" lon="3.06512">
        <ele>366.6</ele>
        <time>2021-01-02T14:54:41Z</time>
      </trkpt>
      <trkpt lat="45.88359" lon="3.06519">
        <ele>366.6</ele>
        <time>2021-01-02T14:54:45Z</time>
      </trkpt>
      <trkpt lat="45.88347" lon="3.06526">
        <ele>366.6</ele>
        <time>2021-01-02T14:54:47Z</time>
      </trkpt>
      <trkpt lat="45.88315" lon="3.06546">
        <ele>367</ele>
        <time>2021-01-02T14:54:53Z</time>
      </trkpt>
      <trkpt lat="45.88311" lon="3.06549">
        <ele>367.4</ele>
        <time>2021-01-02T14:54:54Z</time>
      </trkpt>
      <trkpt lat="45.88306" lon="3.06553">
        <ele>367.8</ele>
        <time>2021-01-02T14:54:55Z</time>
      </trkpt>
      <trkpt lat="45.88302" lon="3.06557">
        <ele>368.2</ele>
        <time>2021-01-02T14:54:56Z</time>
      </trkpt>
      <trkpt lat="45.88298" lon="3.0656">
        <ele>368.6</ele>
        <time>2021-01-02T14:54:57Z</time>
      </trkpt>
      <trkpt lat="45.8829" lon="3.06566">
        <ele>369</ele>
        <time>2021-01-02T14:54:59Z</time>
      </trkpt>
      <trkpt lat="45.88286" lon="3.0657">
        <ele>369.4</ele>
        <time>2021-01-02T14:55:00Z</time>
      </trkpt>
      <trkpt lat="45.88282" lon="3.06574">
        <ele>369.8</ele>
        <time>2021-01-02T14:55:01Z</time>
      </trkpt>
      <trkpt lat="45.88279" lon="3.06577">
        <ele>370.2</ele>
        <time>2021-01-02T14:55:02Z</time>
      </trkpt>
      <trkpt lat="45.88276" lon="3.0658">
        <ele>370.8</ele>
        <time>2021-01-02T14:55:03Z</time>
      </trkpt>
      <trkpt lat="45.88262" lon="3.06594">
        <ele>370.8</ele>
        <time>2021-01-02T14:55:07Z</time>
      </trkpt>
      <trkpt lat="45.88254" lon="3.06602">
        <ele>371.2</ele>
        <time>2021-01-02T14:55:10Z</time>
      </trkpt>
      <trkpt lat="45.88251" lon="3.06604">
        <ele>371.6</ele>
        <time>2021-01-02T14:55:11Z</time>
      </trkpt>
      <trkpt lat="45.88248" lon="3.06606">
        <ele>372</ele>
        <time>2021-01-02T14:55:12Z</time>
      </trkpt>
      <trkpt lat="45.88245" lon="3.06608">
        <ele>372.4</ele>
        <time>2021-01-02T14:55:13Z</time>
      </trkpt>
      <trkpt lat="45.88242" lon="3.06611">
        <ele>372.8</ele>
        <time>2021-01-02T14:55:14Z</time>
      </trkpt>
      <trkpt lat="45.88224" lon="3.06624">
        <ele>372.8</ele>
        <time>2021-01-02T14:55:20Z</time>
      </trkpt>
      <trkpt lat="45.88214" lon="3.06631">
        <ele>372.8</ele>
        <time>2021-01-02T14:55:24Z</time>
      </trkpt>
      <trkpt lat="45.8821" lon="3.06631">
        <ele>372.8</ele>
        <time>2021-01-02T14:55:25Z</time>
      </trkpt>
      <trkpt lat="45.88204" lon="3.06619">
        <ele>372.8</ele>
        <time>2021-01-02T14:55:28Z</time>
      </trkpt>
      <trkpt lat="45.88204" lon="3.06609">
        <ele>372.8</ele>
        <time>2021-01-02T14:55:30Z</time>
      </trkpt>
      <trkpt lat="45.88203" lon="3.06593">
        <ele>372.8</ele>
        <time>2021-01-02T14:55:33Z</time>
      </trkpt>
      <trkpt lat="45.88201" lon="3.06559">
        <ele>372.8</ele>
        <time>2021-01-02T14:55:39Z</time>
      </trkpt>
      <trkpt lat="45.8819" lon="3.06521">
        <ele>372.8</ele>
        <time>2021-01-02T14:55:46Z</time>
      </trkpt>
      <trkpt lat="45.88177" lon="3.06482">
        <ele>372.8</ele>
        <time>2021-01-02T14:55:53Z</time>
      </trkpt>
      <trkpt lat="45.88172" lon="3.06465">
        <ele>372.8</ele>
        <time>2021-01-02T14:55:56Z</time>
      </trkpt>
      <trkpt lat="45.88172" lon="3.06459">
        <ele>373.2</ele>
        <time>2021-01-02T14:55:57Z</time>
      </trkpt>
      <trkpt lat="45.88171" lon="3.06453">
        <ele>373.8</ele>
        <time>2021-01-02T14:55:58Z</time>
      </trkpt>
      <trkpt lat="45.8817" lon="3.06448">
        <ele>374.2</ele>
        <time>2021-01-02T14:55:59Z</time>
      </trkpt>
      <trkpt lat="45.8817" lon="3.06442">
        <ele>374.6</ele>
        <time>2021-01-02T14:56:00Z</time>
      </trkpt>
      <trkpt lat="45.88169" lon="3.06437">
        <ele>375</ele>
        <time>2021-01-02T14:56:01Z</time>
      </trkpt>
      <trkpt lat="45.88167" lon="3.06417">
        <ele>375</ele>
        <time>2021-01-02T14:56:05Z</time>
      </trkpt>
      <trkpt lat="45.88161" lon="3.06374">
        <ele>375</ele>
        <time>2021-01-02T14:56:13Z</time>
      </trkpt>
      <trkpt lat="45.88156" lon="3.0632">
        <ele>375</ele>
        <time>2021-01-02T14:56:23Z</time>
      </trkpt>
      <trkpt lat="45.88153" lon="3.06298">
        <ele>375.4</ele>
        <time>2021-01-02T14:56:27Z</time>
      </trkpt>
      <trkpt lat="45.88153" lon="3.06293">
        <ele>375.8</ele>
        <time>2021-01-02T14:56:28Z</time>
      </trkpt>
      <trkpt lat="45.88152" lon="3.06287">
        <ele>376.2</ele>
        <time>2021-01-02T14:56:29Z</time>
      </trkpt>
      <trkpt lat="45.88151" lon="3.06282">
        <ele>376.6</ele>
        <time>2021-01-02T14:56:30Z</time>
      </trkpt>
      <trkpt lat="45.88151" lon="3.06277">
        <ele>377</ele>
        <time>2021-01-02T14:56:31Z</time>
      </trkpt>
      <trkpt lat="45.88142" lon="3.06239">
        <ele>377</ele>
        <time>2021-01-02T14:56:38Z</time>
      </trkpt>
      <trkpt lat="45.88129" lon="3.06199">
        <ele>377</ele>
        <time>2021-01-02T14:56:46Z</time>
      </trkpt>
      <trkpt lat="45.88115" lon="3.06161">
        <ele>377</ele>
        <time>2021-01-02T14:56:54Z</time>
      </trkpt>
      <trkpt lat="45.88108" lon="3.06143">
        <ele>377.4</ele>
        <time>2021-01-02T14:56:58Z</time>
      </trkpt>
      <trkpt lat="45.88107" lon="3.06139">
        <ele>377.8</ele>
        <time>2021-01-02T14:56:59Z</time>
      </trkpt>
      <trkpt lat="45.88105" lon="3.06134">
        <ele>378.4</ele>
        <time>2021-01-02T14:57:00Z</time>
      </trkpt>
      <trkpt lat="45.88103" lon="3.0613">
        <ele>378.8</ele>
        <time>2021-01-02T14:57:01Z</time>
      </trkpt>
      <trkpt lat="45.88102" lon="3.06125">
        <ele>379.2</ele>
        <time>2021-01-02T14:57:02Z</time>
      </trkpt>
      <trkpt lat="45.88092" lon="3.06097">
        <ele>379.2</ele>
        <time>2021-01-02T14:57:08Z</time>
      </trkpt>
      <trkpt lat="45.88086" lon="3.0608">
        <ele>379.6</ele>
        <time>2021-01-02T14:57:12Z</time>
      </trkpt>
      <trkpt lat="45.88084" lon="3.06076">
        <ele>380</ele>
        <time>2021-01-02T14:57:13Z</time>
      </trkpt>
      <trkpt lat="45.88083" lon="3.06073">
        <ele>380.4</ele>
        <time>2021-01-02T14:57:14Z</time>
      </trkpt>
      <trkpt lat="45.88082" lon="3.06069">
        <ele>380.8</ele>
        <time>2021-01-02T14:57:15Z</time>
      </trkpt>
      <trkpt lat="45.8808" lon="3.06065">
        <ele>381.2</ele>
        <time>2021-01-02T14:57:16Z</time>
      </trkpt>
      <trkpt lat="45.88074" lon="3.06046">
        <ele>381.2</ele>
        <time>2021-01-02T14:57:23Z</time>
      </trkpt>
      <trkpt lat="45.88074" lon="3.06046">
        <ele>381.2</ele>
        <time>2021-01-02T14:57:24Z</time>
      </trkpt>
    </trkseg>
  </trk>
</gpx>